GFSWCAN_sfc_wetblb_000.txt.gz
Wetbulb
50.35 50.21 50.10 50.02 50.15 50.23 50.36 50.52 50.46 50.46 50.46 50.25 50.30 50.18 50.17 50.07 50.68 54.44 56.14 56.52 54.29 44.92 49.80 49.27 49.98 48.81 46.94 47.29 44.11 46.00 44.89 43.18 39.78 35.17 34.62 35.86 33.72 38.81 36.57 39.44 38.04 35.85 33.52 32.25 33.54 31.54 30.32 44.71 39.97 36.46 42.96 47.10 46.91 46.91
48.88 49.27 49.16 49.14 49.19 49.43 49.80 49.92 49.91 49.78 49.78 49.73 49.83 49.88 49.95 50.02 50.15 51.69 52.50 55.91 54.78 48.40 48.88 53.59 53.93 54.63 52.66 51.99 48.68 47.28 46.59 45.42 45.53 41.40 37.89 37.89 33.17 33.54 35.17 31.89 40.50 33.47 37.93 38.68 38.39 38.77 46.82 46.89 44.27 46.59 48.54 46.30 46.54 46.02
48.07 48.43 48.67 48.62 48.62 48.89 49.23 49.35 49.46 49.42 49.60 49.60 49.58 49.97 50.18 50.08 50.18 51.62 52.81 53.38 51.49 38.07 46.28 47.24 49.01 53.66 54.36 53.90 55.69 46.05 42.02 47.97 44.41 46.80 42.50 36.26 33.90 37.16 33.54 35.59 37.84 39.97 43.50 37.71 38.56 42.00 44.51 45.02 47.97 49.04 48.78 47.15 47.38 47.21
47.64 48.21 48.32 48.35 48.24 48.24 48.56 48.80 48.69 48.94 49.08 49.10 49.44 49.55 49.55 49.94 50.48 50.79 50.01 53.69 52.02 42.37 34.08 43.56 53.76 52.16 55.46 54.78 53.73 53.13 51.57 52.17 50.62 49.58 35.71 34.62 34.62 40.43 36.56 38.48 37.19 40.30 39.88 37.79 38.93 42.47 44.81 45.98 47.05 47.43 47.59 48.12 47.56 45.77
47.44 47.37 47.66 48.04 48.11 47.84 48.02 48.18 48.31 48.43 48.74 49.05 49.35 49.51 49.68 50.25 50.47 51.11 51.40 52.17 53.58 48.58 36.44 40.72 46.98 51.15 53.92 53.27 51.87 52.45 51.04 49.97 46.96 35.89 34.08 35.89 39.29 38.67 39.85 39.93 37.28 41.20 39.16 36.92 37.34 45.02 44.56 45.19 47.16 47.92 47.07 45.91 46.01 44.41
46.78 47.44 47.26 47.46 47.57 47.55 47.80 47.55 47.84 47.89 48.06 48.53 49.01 49.16 49.34 49.23 49.47 48.00 43.08 47.84 51.19 49.87 37.89 33.54 43.30 44.02 49.56 51.59 50.60 49.56 50.21 48.67 46.58 40.43 36.08 39.77 42.07 38.45 33.17 35.28 42.28 43.90 45.49 45.76 42.98 46.61 46.49 46.76 47.61 48.32 45.86 46.13 46.66 46.26
46.37 46.87 47.08 47.10 46.83 46.70 46.38 46.31 46.57 47.01 47.35 47.68 48.27 48.49 48.81 48.35 48.99 44.95 41.30 45.86 48.32 50.47 34.62 32.99 34.99 40.20 41.58 45.05 47.79 47.95 49.13 47.17 44.64 39.88 35.71 40.04 40.33 40.98 34.08 33.94 42.18 44.97 45.43 45.48 46.82 46.30 43.94 45.67 43.65 47.00 46.52 45.19 44.76 44.72
46.38 46.51 46.92 46.58 46.11 45.75 45.57 45.57 45.93 46.34 46.52 46.72 46.79 47.06 47.30 47.59 46.76 43.88 47.19 48.27 48.89 43.58 37.16 32.27 34.81 38.63 42.32 39.60 38.88 42.30 43.44 42.64 41.69 42.06 41.96 40.79 43.10 38.25 34.55 41.06 43.67 44.10 44.92 45.16 45.47 46.20 45.24 45.65 44.97 42.77 42.33 41.40 40.15 40.48
46.11 46.11 45.53 45.16 45.20 45.09 45.16 45.52 45.74 46.18 46.25 46.56 46.67 46.97 46.49 44.36 40.56 42.36 46.85 47.73 48.31 42.58 32.81 32.45 32.63 33.54 41.69 39.86 40.12 40.08 40.64 34.44 43.83 35.53 39.85 42.01 39.32 34.42 39.16 40.90 42.12 43.33 43.38 43.64 45.03 43.80 42.70 39.60 39.20 39.55 39.31 39.11 38.77 39.48
45.37 44.81 44.69 44.53 44.44 44.63 44.88 45.17 45.33 45.76 46.51 46.58 45.08 40.99 36.62 41.13 45.25 46.38 44.43 40.03 38.60 36.26 35.53 32.63 37.89 35.44 41.00 38.02 36.44 37.16 35.89 33.90 32.81 37.20 41.65 34.26 35.68 41.51 43.48 44.23 44.92 45.34 44.69 42.30 38.04 36.49 37.27 37.00 37.21 37.73 38.03 38.51 37.19 35.64
44.34 44.19 43.82 43.85 43.88 43.79 44.17 44.10 44.69 44.14 43.92 43.71 39.07 37.89 44.06 44.21 43.38 39.10 35.17 33.17 35.71 32.80 35.72 36.76 37.91 36.48 40.92 34.54 34.62 38.25 34.44 33.72 30.46 35.50 34.63 34.34 33.29 38.91 42.17 40.93 41.23 40.06 39.54 38.82 38.77 38.75 38.81 38.38 37.83 37.06 35.68 35.51 34.79 34.99
43.44 43.64 43.67 43.56 43.70 43.93 44.05 43.84 43.70 44.44 43.81 42.55 42.33 42.87 42.23 39.75 37.16 32.80 32.09 34.08 32.38 32.18 36.75 35.36 35.30 36.66 38.49 39.78 36.77 35.53 32.99 33.90 29.50 33.91 29.85 27.84 36.25 37.11 36.89 36.86 37.58 38.21 38.35 38.33 38.55 37.84 38.28 37.54 38.65 37.12 35.56 34.39 34.71 32.84
42.96 43.08 43.44 43.62 43.55 43.92 43.95 43.89 42.42 43.71 44.10 43.65 38.84 34.44 35.30 33.54 28.41 26.56 24.93 31.14 32.10 35.67 33.51 33.58 34.05 34.58 34.97 34.07 32.09 31.91 30.22 30.19 32.01 28.87 29.02 33.23 35.59 36.33 36.40 36.97 37.68 38.69 36.28 33.42 36.32 37.60 37.50 37.71 36.53 34.49 34.40 33.63 32.42 31.41
42.03 42.08 42.23 42.71 42.69 42.76 43.32 43.93 43.42 42.75 42.30 34.81 32.19 27.35 28.65 27.74 28.81 30.27 32.29 33.10 33.72 33.90 33.36 34.81 34.62 34.62 35.35 32.45 33.54 29.91 33.11 30.91 27.16 24.66 28.32 34.15 34.34 35.26 36.78 37.58 36.41 36.78 34.38 32.35 32.64 34.46 34.56 32.99 32.90 30.52 30.74 30.22 30.55 29.90
41.47 41.47 41.35 41.24 41.80 41.93 42.43 43.41 42.16 43.32 37.91 32.81 32.09 25.79 28.16 32.40 32.56 32.62 32.21 32.81 35.08 35.44 34.99 33.87 33.11 32.22 31.88 29.37 32.07 30.65 27.49 24.82 27.00 28.19 33.06 35.58 34.66 34.69 35.39 35.63 35.98 34.83 33.19 31.96 33.34 33.13 32.63 31.97 30.38 30.92 28.99 29.98 30.10 28.72
41.11 40.48 39.75 41.29 41.08 41.33 41.93 41.69 41.45 41.12 34.99 31.50 31.51 28.51 30.84 29.52 31.00 29.55 29.55 31.00 35.80 33.49 33.43 32.97 28.51 25.93 27.06 30.06 27.25 26.66 25.79 23.94 30.39 34.10 36.81 36.15 35.07 35.03 35.31 35.47 34.77 34.81 33.41 33.41 33.22 32.78 32.12 30.47 30.60 31.56 30.51 30.25 29.16 29.17
40.36 38.43 40.20 41.28 41.60 41.89 41.08 39.18 38.64 32.99 30.95 28.20 27.22 32.69 32.45 29.88 28.68 31.18 32.03 33.92 36.49 32.18 29.57 29.26 24.05 24.23 30.18 25.16 24.41 29.41 27.37 32.37 36.52 36.50 36.62 36.58 35.05 34.75 35.30 35.39 33.79 33.80 33.36 33.44 32.75 31.27 30.97 30.48 30.17 29.69 30.78 29.41 28.52 28.62
38.82 39.87 41.05 41.42 41.62 40.36 38.66 37.92 34.14 30.50 26.09 28.32 26.18 30.60 30.06 30.95 31.52 31.71 32.24 33.42 31.57 31.46 30.69 27.19 31.20 25.53 24.50 22.58 25.84 32.16 34.51 36.65 36.73 36.74 36.81 36.55 36.46 35.85 35.58 35.89 36.47 36.46 35.73 33.47 32.57 31.50 29.44 29.30 28.66 30.37 30.27 28.68 29.06 29.87
39.91 40.30 41.33 41.44 40.88 37.13 32.30 32.45 33.88 26.46 26.82 29.25 30.16 31.26 31.50 33.04 34.15 34.39 34.97 34.53 35.30 35.49 32.84 30.13 26.16 24.93 26.90 30.64 32.02 34.07 35.21 35.40 34.31 36.01 36.60 36.78 35.56 35.11 34.66 35.37 35.22 34.97 34.51 33.07 30.91 29.91 30.19 30.07 31.26 31.70 31.30 29.87 32.02 32.32
40.53 40.14 40.90 40.86 40.35 34.69 29.70 30.20 34.18 28.56 25.87 28.79 30.91 30.20 31.01 31.40 33.18 33.28 33.17 33.40 32.81 31.01 27.63 26.48 26.85 30.53 31.42 33.31 34.75 34.41 35.57 36.45 35.82 33.67 34.12 35.59 36.98 36.72 36.47 34.64 33.83 34.62 33.70 32.36 31.41 30.86 30.23 29.13 30.43 30.52 31.72 32.08 32.70 32.05
39.78 40.08 40.46 40.52 37.13 35.68 32.44 30.40 28.45 29.10 29.64 28.26 31.32 30.28 30.02 30.56 29.18 30.46 31.54 34.61 30.79 28.16 26.95 30.78 31.49 33.37 34.80 35.22 36.18 36.30 35.02 35.21 34.61 34.87 34.09 33.59 36.13 34.20 33.76 34.13 33.39 33.87 32.63 32.22 32.43 32.42 30.02 31.03 31.95 30.32 30.06 30.82 30.82 31.00
38.00 40.28 34.38 35.78 32.45 32.27 31.55 33.38 31.14 31.91 28.12 29.30 27.87 30.16 28.39 27.80 28.26 28.84 31.90 29.20 28.36 31.16 32.92 32.73 33.39 33.95 33.64 33.19 34.25 35.30 35.54 35.33 35.68 35.40 33.39 34.05 31.59 32.33 32.87 33.61 33.01 32.02 32.60 33.25 33.62 32.63 31.32 30.87 30.40 29.64 30.80 30.27 27.97 30.46
38.69 35.94 32.27 32.09 30.44 29.85 28.43 32.51 27.37 28.69 25.15 26.24 27.67 25.32 24.97 25.16 28.41 29.55 26.69 28.83 30.16 33.69 34.23 33.94 33.96 34.49 33.66 34.24 33.76 34.38 34.75 33.96 33.76 34.12 34.19 33.06 32.76 33.58 33.82 34.54 33.82 32.63 32.47 31.99 31.46 31.92 30.44 28.90 29.09 30.40 29.99 29.38 30.09 30.09
37.85 32.63 30.64 29.00 28.68 25.35 28.59 25.67 28.70 26.92 26.96 23.56 22.75 21.60 23.83 25.56 26.79 25.73 23.47 27.55 30.93 33.58 32.64 32.23 32.87 32.23 32.80 32.25 32.05 32.62 33.30 34.00 32.93 32.16 32.61 31.58 32.56 33.36 34.03 33.99 33.33 33.14 33.33 32.48 30.28 31.76 29.62 30.45 29.86 29.20 29.27 29.08 29.06 28.98
28.64 27.88 28.86 25.16 29.75 24.60 22.47 22.71 23.74 22.29 20.87 22.71 21.85 22.47 24.98 25.47 23.05 22.67 22.77 27.09 30.43 31.67 33.02 33.17 31.16 30.46 28.62 30.91 32.42 32.98 34.57 33.46 31.52 30.30 32.94 33.73 35.08 31.95 30.27 29.98 30.56 31.41 31.97 31.36 30.36 30.46 30.38 30.63 30.77 29.20 28.51 28.95 28.66 28.57
23.15 27.61 26.07 25.88 25.15 23.38 22.92 20.12 19.83 21.27 22.54 21.13 22.18 26.18 24.36 23.42 20.56 19.93 24.92 30.80 33.73 32.69 33.05 32.66 33.16 31.71 31.41 32.11 31.45 31.29 31.95 31.36 31.50 32.10 34.32 34.04 33.46 32.90 31.96 30.17 29.95 30.42 31.88 33.10 31.67 30.54 30.25 30.72 29.99 28.60 28.61 28.82 27.74 27.97
22.48 23.74 28.27 30.36 27.90 26.22 23.58 21.91 24.39 23.96 20.47 19.89 23.18 20.80 21.43 18.43 19.45 25.13 30.72 31.45 31.41 33.71 34.09 34.77 33.95 32.47 31.59 31.43 31.07 30.91 31.03 30.07 30.52 32.00 32.15 32.43 32.63 33.17 34.60 33.22 32.18 34.29 32.86 31.45 31.91 32.27 31.72 30.95 30.02 29.28 29.36 30.48 29.39 28.17
27.33 28.77 22.76 25.58 24.13 25.81 23.00 21.80 20.88 20.81 23.58 26.26 23.85 19.53 20.01 20.98 23.03 30.41 32.08 33.60 34.22 34.64 33.14 32.64 33.21 33.76 33.10 32.51 30.20 29.05 29.57 29.27 29.29 29.97 31.00 31.90 32.15 32.03 30.54 30.88 30.09 28.01 31.94 30.98 31.72 31.91 32.09 31.72 30.58 29.34 28.81 28.50 27.72 26.75
27.25 29.01 27.97 21.31 22.75 23.31 24.14 24.30 25.25 26.97 29.01 25.02 24.20 23.73 25.45 29.37 33.51 32.16 31.32 30.77 30.41 29.85 29.38 29.89 32.03 33.20 32.09 31.76 30.58 29.46 29.78 29.10 28.00 27.29 28.79 30.11 29.81 30.20 31.32 30.82 29.82 29.51 30.80 30.27 28.00 29.87 29.66 28.92 27.65 26.87 25.53 25.77 26.00 24.28
26.46 28.18 25.90 24.81 21.73 22.35 27.43 28.56 28.57 31.35 29.92 30.10 29.65 30.38 30.19 29.95 29.62 27.39 27.48 27.52 26.95 27.55 28.22 27.49 27.78 27.86 29.88 30.27 30.96 30.91 30.44 30.42 30.58 29.79 30.11 31.11 32.25 31.91 30.32 29.89 29.76 29.41 29.35 28.19 26.69 25.78 25.02 24.76 23.53 23.94 23.27 23.03 23.34 22.79
28.07 26.30 24.68 24.83 24.17 28.12 30.54 26.44 25.54 26.91 27.18 27.20 28.53 26.99 28.50 30.16 25.75 22.86 23.24 22.93 22.43 22.79 25.49 27.12 27.97 29.81 28.85 29.09 29.21 28.91 28.43 30.20 29.19 29.71 29.89 30.93 31.36 30.98 30.27 29.81 29.54 29.46 28.96 28.15 27.24 26.41 25.42 24.48 23.91 21.62 20.38 19.33 18.68 19.64
24.23 24.02 23.71 21.59 23.71 24.43 23.54 24.27 25.58 24.13 25.84 24.09 25.50 26.88 25.28 25.92 26.02 23.13 20.79 20.95 23.21 23.94 22.41 22.90 25.85 28.00 28.11 29.19 29.24 29.85 28.74 29.26 28.83 27.32 27.36 29.47 30.45 30.70 30.27 30.09 29.90 29.72 28.79 27.61 26.88 25.55 24.34 23.50 22.58 21.54 20.70 19.20 18.55 17.67
24.98 25.05 24.64 23.85 23.73 23.19 24.43 24.04 23.36 23.76 22.61 22.67 23.73 23.56 24.62 25.68 24.31 18.95 20.64 20.27 19.51 18.90 18.55 20.38 24.03 26.82 25.98 25.53 26.07 25.85 25.36 25.06 25.52 25.97 26.27 27.08 27.91 28.58 29.40 29.43 28.89 28.17 26.88 26.22 25.56 24.57 22.50 21.75 21.49 20.61 19.78 18.08 16.16 14.71

GFSWCAN_sfc_wetblb_003.txt.gz
Wetbulb
50.43 50.09 49.97 49.89 49.96 50.09 50.37 50.70 50.78 50.85 50.78 50.38 50.20 50.27 50.12 50.33 50.85 55.17 59.29 61.19 57.22 50.85 52.59 53.87 54.16 51.55 51.10 49.95 46.79 48.32 47.64 47.64 44.09 36.68 34.87 36.96 35.23 39.58 38.81 40.97 38.86 36.26 34.31 33.06 33.93 32.33 31.42 46.93 45.44 37.98 43.61 48.27 47.98 47.14
48.92 49.02 49.04 48.74 49.19 49.78 49.73 49.85 49.96 50.06 49.95 49.91 49.90 49.93 50.07 50.07 50.37 52.32 55.59 59.81 59.17 53.43 53.33 57.09 56.89 56.44 55.23 54.26 51.49 51.20 48.25 47.46 48.04 43.79 39.22 38.86 35.04 35.23 35.04 32.00 43.24 34.68 40.74 39.71 39.69 39.81 48.36 50.59 47.43 50.07 50.26 48.51 47.24 46.53
48.27 48.29 48.28 48.27 48.48 48.65 49.10 49.19 49.25 49.52 49.43 49.61 49.55 49.84 50.09 50.54 50.84 52.01 55.60 57.04 54.59 41.03 47.87 49.99 51.80 55.68 57.53 56.74 57.83 49.45 49.50 50.95 49.71 51.74 48.07 39.04 34.33 41.21 33.59 35.10 37.27 40.26 44.85 40.86 41.38 43.72 46.15 46.50 48.86 50.77 48.84 46.12 48.13 47.94
47.96 48.32 48.50 48.10 48.32 48.05 48.27 48.55 48.61 48.70 48.95 49.07 49.21 49.36 49.60 49.91 50.30 51.17 53.07 56.77 54.77 43.52 33.78 43.48 55.05 53.19 57.20 57.04 55.83 55.27 53.24 53.80 52.45 52.06 37.05 34.33 33.78 42.00 37.21 38.97 38.48 40.61 41.80 39.53 40.85 44.42 45.38 45.76 47.18 48.25 47.51 47.84 47.86 48.16
47.98 47.73 47.91 48.22 48.15 47.90 47.87 47.90 47.89 48.16 48.52 49.14 49.50 49.09 49.34 50.05 50.09 51.03 52.52 54.57 55.79 50.20 37.23 39.85 48.10 53.32 55.17 55.27 53.65 53.86 52.62 51.04 50.45 39.40 34.51 36.14 41.99 40.14 39.93 40.04 37.83 41.93 40.43 37.31 36.10 44.23 44.84 45.93 47.21 47.21 46.25 45.85 47.07 46.08
47.51 47.82 47.50 47.49 47.74 47.33 47.65 47.52 47.54 47.54 47.81 48.57 48.84 49.20 49.29 49.21 49.49 48.70 43.87 48.85 53.08 52.46 39.77 34.69 45.12 47.01 51.47 52.39 52.42 51.58 51.78 51.55 49.91 44.44 36.32 41.90 45.85 40.68 34.33 35.11 41.14 44.96 46.05 46.67 43.48 47.46 46.73 46.85 47.36 47.53 46.03 46.60 44.82 43.54
46.61 47.39 47.49 47.00 46.61 46.59 46.57 46.61 47.02 47.47 47.83 48.03 48.41 48.95 49.10 48.79 50.05 45.46 42.24 47.74 50.14 52.07 34.87 34.69 35.57 42.31 42.38 46.39 50.77 50.15 51.66 50.10 47.13 43.68 38.66 41.03 41.27 41.81 35.05 34.80 43.31 44.64 46.49 46.80 48.27 47.55 44.79 45.96 44.86 47.59 45.49 44.33 44.03 43.50
46.24 46.72 47.07 46.70 46.25 46.11 45.88 46.00 46.48 46.80 47.07 47.34 47.45 47.58 47.85 47.89 47.49 44.00 47.00 48.43 49.37 43.02 37.92 33.24 34.33 38.32 44.03 41.25 40.88 47.37 44.73 42.62 41.94 42.18 41.24 40.88 43.15 38.86 34.98 42.17 44.13 45.45 45.81 45.59 45.48 46.66 46.62 47.42 46.35 43.88 44.06 42.92 41.27 40.71
46.11 46.25 46.01 45.69 45.66 45.43 45.47 45.71 46.14 46.45 46.77 47.15 47.00 47.20 47.09 45.13 40.74 42.87 46.69 47.81 48.10 42.44 32.51 31.97 33.78 33.42 44.33 41.95 40.88 42.04 41.91 34.15 43.74 36.68 41.04 42.14 40.08 36.39 40.38 42.30 43.48 44.51 44.19 43.84 45.55 45.70 44.21 42.33 41.95 42.04 41.71 41.35 39.50 38.64
45.84 45.55 44.98 44.86 45.18 45.21 45.43 45.71 46.19 46.57 46.77 46.65 46.75 42.65 37.41 42.96 45.48 46.30 44.14 39.39 36.67 35.42 34.51 33.06 38.80 35.58 42.74 38.52 35.78 36.68 37.41 33.60 32.15 38.02 42.91 38.39 37.17 42.57 44.01 45.08 45.50 44.35 44.40 43.47 40.33 39.11 40.07 39.47 39.99 40.41 40.18 40.45 38.65 36.08
45.66 45.05 44.70 44.81 44.84 45.00 45.06 45.36 45.63 45.81 44.35 46.55 41.60 39.22 44.27 44.83 45.34 40.61 36.11 33.78 35.60 32.51 34.28 36.49 39.07 36.95 41.43 35.79 34.51 37.41 34.15 35.60 31.43 35.80 37.26 35.46 34.78 40.02 43.24 43.66 44.44 42.82 41.83 41.78 41.93 41.84 41.84 41.16 40.10 39.62 39.50 38.75 36.84 35.86
45.03 44.75 44.44 44.32 44.54 44.48 44.27 44.48 43.94 45.87 46.55 44.78 44.90 45.97 44.95 40.82 38.12 33.42 32.15 34.81 33.06 32.98 38.52 37.34 37.55 38.77 40.02 41.94 37.84 36.50 33.06 34.51 29.02 37.29 31.42 30.35 37.09 40.07 40.44 39.96 40.85 41.76 41.70 41.24 41.32 40.85 41.05 40.63 40.57 39.84 38.50 36.20 36.61 35.27
43.80 43.96 44.15 44.06 44.11 44.36 44.30 43.36 44.00 44.13 44.65 46.47 40.98 36.68 36.88 35.05 29.64 27.42 26.50 31.46 33.27 36.56 35.03 34.37 33.68 36.45 36.62 36.03 33.06 32.70 30.70 31.77 35.62 31.04 30.53 34.62 38.81 39.57 39.41 39.86 40.05 41.19 40.70 37.28 39.61 40.60 40.17 39.24 39.10 36.59 35.54 36.28 32.91 35.00
43.31 43.78 43.87 43.98 44.08 44.13 43.94 44.06 43.17 43.52 44.71 37.28 33.97 28.92 30.92 29.22 30.80 32.65 32.86 34.15 34.67 34.15 35.05 36.95 35.80 35.69 35.58 33.42 33.97 29.25 34.34 33.40 28.52 27.20 30.88 38.37 37.47 38.15 38.93 39.37 38.80 38.33 37.09 36.43 37.20 37.97 36.40 34.87 34.33 34.51 32.88 33.42 32.51 32.75
42.63 43.02 43.37 43.06 43.36 43.73 44.22 43.38 42.54 45.87 39.57 33.42 32.15 27.70 29.14 34.66 36.25 34.83 35.23 36.52 36.60 37.02 37.13 36.06 35.44 34.63 31.61 29.53 31.75 30.89 27.26 25.49 28.80 28.87 36.16 38.93 37.97 38.07 37.74 37.95 37.76 36.46 35.47 35.30 37.58 36.77 34.48 33.42 33.78 34.19 33.97 32.79 32.87 32.15
42.14 41.88 40.93 42.25 42.33 42.98 43.40 42.81 43.18 43.20 37.03 34.30 32.88 30.98 33.82 31.64 32.06 31.25 31.43 32.70 38.22 36.56 35.89 35.59 31.33 27.74 27.25 30.41 27.94 26.27 25.89 24.32 31.05 37.91 38.98 38.70 37.57 37.68 37.12 36.37 36.50 36.73 36.63 37.07 38.02 37.08 35.37 33.24 32.68 33.22 34.28 32.79 32.15 31.97
41.04 39.65 41.41 41.72 42.04 42.45 42.36 40.90 40.02 32.67 33.98 30.87 30.80 34.66 35.32 32.06 32.32 33.60 34.81 36.13 38.92 33.90 30.71 31.62 25.50 25.16 31.34 27.03 25.29 29.50 27.70 32.83 36.49 37.20 37.93 37.83 37.32 37.59 38.34 36.86 35.32 36.17 37.32 37.17 37.47 37.48 35.88 34.68 33.22 31.78 30.40 32.14 32.19 31.98
39.81 41.28 41.70 42.18 42.25 40.94 40.18 40.75 35.18 32.73 28.38 31.53 28.25 32.96 32.05 34.25 34.46 33.77 34.11 37.53 34.44 32.56 31.84 28.56 31.63 26.20 24.60 22.54 26.46 32.64 35.09 36.99 37.69 37.56 37.60 37.49 38.62 38.39 38.46 37.25 37.63 37.35 37.34 36.68 36.09 36.35 33.98 32.33 30.90 30.52 32.14 32.94 31.68 31.80
41.30 41.31 41.33 41.85 40.95 39.07 34.11 34.31 36.89 28.48 29.34 31.58 31.03 32.00 34.21 35.55 36.70 36.87 36.36 36.23 36.97 36.90 33.80 31.33 26.98 25.36 27.57 31.50 32.14 33.93 35.44 36.37 35.29 36.08 37.19 38.11 37.87 37.13 36.82 37.21 37.13 37.12 36.91 35.00 34.17 34.44 33.05 32.54 32.68 33.09 33.74 32.99 32.97 34.34
40.96 41.01 41.14 41.41 40.83 36.05 31.72 32.19 36.79 30.74 28.17 30.95 32.68 32.04 33.16 33.57 36.19 33.65 32.86 33.36 33.53 31.51 28.00 26.96 27.05 30.94 32.53 34.68 36.48 35.85 36.63 37.28 36.04 33.95 34.41 36.33 37.48 37.32 37.66 37.53 38.00 36.98 34.52 34.14 33.78 32.71 33.41 32.62 32.44 32.87 34.10 34.15 34.24 33.70
39.64 41.06 40.57 40.65 38.59 37.48 33.65 30.38 29.04 29.78 31.93 30.33 33.03 32.57 31.71 34.45 31.81 31.97 32.67 35.32 31.60 29.47 27.68 31.14 32.56 34.88 37.11 37.80 38.36 37.76 36.85 36.73 35.04 34.82 33.98 33.87 36.97 37.54 37.13 37.76 36.74 33.81 32.70 33.62 32.86 32.88 33.21 33.96 34.22 34.31 33.04 32.88 33.24 32.55
39.29 40.25 37.68 37.58 33.97 33.74 32.10 34.77 32.13 34.11 31.20 31.10 29.93 31.18 30.49 29.85 31.15 31.79 33.72 29.98 29.70 32.33 33.92 34.06 35.41 36.03 35.81 35.28 36.52 37.61 37.52 37.08 36.73 36.26 34.36 35.16 35.30 35.99 36.23 35.33 33.43 32.80 33.06 33.04 34.28 33.97 34.47 34.47 34.97 32.94 32.26 31.77 31.65 31.79
38.28 37.65 34.67 33.60 31.06 30.70 29.63 35.35 29.14 29.85 26.38 27.55 30.29 27.18 27.48 28.31 30.69 33.83 28.46 30.52 31.97 35.57 35.92 35.84 36.11 37.17 35.62 36.31 35.60 35.98 36.02 35.25 35.09 35.63 35.54 36.23 36.10 35.16 34.43 33.49 33.89 32.68 32.68 35.14 35.52 35.43 34.51 32.60 31.59 31.34 32.50 31.49 31.09 30.53
38.33 32.70 31.43 30.34 30.10 27.41 30.84 28.40 30.06 28.67 28.80 26.84 25.72 23.46 25.64 28.32 31.86 27.74 24.79 29.32 33.32 35.60 35.19 34.56 35.36 34.36 34.82 34.49 34.22 35.66 36.33 36.49 35.39 35.46 35.79 33.22 32.07 32.35 33.22 33.61 34.72 36.33 36.31 36.38 35.86 34.04 33.07 31.43 30.73 31.09 30.52 30.42 29.58 29.18
28.76 28.02 29.60 26.46 30.45 26.58 23.71 24.70 25.34 25.67 23.17 25.24 23.81 24.18 26.71 30.32 24.95 24.04 24.69 29.24 33.14 34.18 35.13 35.51 35.04 34.06 32.99 34.15 35.59 36.13 36.96 35.40 34.02 33.73 34.24 35.14 34.39 32.74 33.44 35.89 36.08 35.98 36.52 32.88 31.97 31.97 31.61 31.97 31.23 31.08 30.61 29.84 28.75 28.76
24.28 28.76 26.01 27.03 27.31 25.55 25.52 22.50 23.69 23.87 24.55 23.63 25.05 28.26 30.13 26.30 22.21 21.49 26.39 32.67 36.00 35.14 34.26 33.89 34.83 33.89 33.66 34.96 34.37 35.36 35.09 35.32 33.11 30.51 31.89 33.97 34.13 32.82 32.70 32.88 32.09 32.66 35.34 34.02 32.88 32.33 31.96 31.28 31.06 30.07 30.00 29.40 28.41 29.14
23.57 25.20 29.92 33.35 30.87 28.94 27.72 28.53 28.75 26.86 23.58 22.57 25.14 25.36 24.39 19.53 20.28 26.06 32.51 34.99 34.37 38.17 37.82 38.04 37.11 35.58 35.08 35.07 36.27 36.26 34.57 33.09 31.67 30.54 33.79 34.47 34.81 36.04 35.76 33.78 33.31 36.53 35.82 34.33 33.60 32.68 31.94 31.44 31.28 31.41 31.38 31.75 31.75 30.56
28.03 30.91 24.87 28.63 27.55 29.68 25.24 25.48 24.66 22.97 24.83 28.23 27.78 22.83 22.02 22.69 24.09 32.06 34.20 36.86 38.14 37.79 37.79 38.04 37.17 36.15 35.14 34.53 34.49 34.27 33.11 32.96 31.84 30.74 31.42 32.29 34.03 34.56 34.08 34.49 33.72 30.39 35.13 33.24 32.51 33.06 33.06 32.70 32.15 31.79 31.57 29.29 29.90 29.48
27.40 31.64 31.05 25.41 27.25 27.14 26.36 25.66 26.35 29.19 31.08 29.68 26.73 26.09 27.17 31.65 35.03 35.57 36.46 35.61 35.10 33.85 33.14 33.36 34.13 34.69 33.72 33.42 33.27 33.40 32.64 30.97 29.47 28.24 28.23 29.63 32.33 32.45 33.74 32.51 31.97 32.33 32.51 31.79 30.03 32.02 32.48 32.30 32.47 31.78 30.39 29.23 29.34 28.11
27.88 32.40 27.63 26.69 24.13 23.76 28.61 31.76 31.06 33.72 34.20 33.37 32.79 31.99 32.15 33.41 35.33 35.70 33.20 32.06 31.01 31.41 32.15 31.72 30.89 29.84 28.85 29.55 30.39 32.34 32.68 31.77 31.35 29.94 28.77 30.81 31.79 34.33 32.51 31.97 31.79 31.97 31.97 31.41 30.32 27.76 26.50 27.37 26.09 26.94 26.67 26.21 25.99 25.19
32.51 31.94 28.19 27.86 26.72 29.95 31.88 34.04 31.97 31.17 31.17 31.12 32.59 30.03 30.45 33.12 34.15 31.13 29.18 28.97 28.52 28.37 28.20 28.63 29.89 30.34 29.04 28.70 29.58 29.54 29.43 31.61 31.22 30.58 30.38 31.31 31.97 32.33 32.33 31.97 31.79 31.61 31.25 30.18 28.74 27.83 27.64 27.26 27.39 26.01 24.61 23.78 23.64 22.75
28.84 27.78 26.58 24.71 26.93 31.77 29.25 29.09 29.98 29.47 30.46 29.06 28.08 30.76 29.75 27.43 26.24 27.98 25.02 25.44 26.35 26.59 26.14 25.75 26.26 27.28 29.71 30.69 30.82 30.78 29.32 30.37 30.27 30.66 31.06 31.77 31.97 31.61 31.79 31.73 31.61 31.61 30.87 29.89 29.03 28.23 26.86 26.07 25.50 24.56 23.89 22.31 22.05 21.49
27.68 28.56 28.25 27.11 26.62 27.21 29.21 27.65 27.44 26.29 26.91 26.03 26.58 28.22 27.92 27.06 26.17 22.94 24.20 23.93 23.45 22.97 22.44 23.72 25.18 27.74 27.32 27.31 27.98 28.16 27.20 26.38 24.55 23.71 24.40 25.10 27.39 29.81 31.52 31.41 31.11 30.14 28.79 28.28 27.87 27.14 24.84 24.25 24.17 23.74 22.50 21.51 20.35 19.07

GFSWCAN_sfc_wetblb_006.txt.gz
Wetbulb
50.69 50.22 50.02 50.13 50.13 50.09 50.36 50.64 50.57 50.87 50.80 50.80 50.42 50.22 50.33 50.47 50.98 54.10 59.12 62.28 57.55 50.67 52.17 54.22 54.14 51.24 51.07 50.81 48.02 49.17 47.60 49.45 43.95 36.05 34.60 37.26 34.60 39.22 38.30 39.83 37.72 35.54 34.22 33.09 32.55 31.46 29.91 46.97 46.24 37.11 42.64 46.72 45.94 45.31
50.03 49.60 49.35 49.01 49.17 49.50 49.80 49.91 50.05 50.16 50.27 50.19 50.10 49.92 50.13 50.43 50.48 51.32 54.97 61.22 60.94 54.19 52.87 56.91 56.95 57.85 55.62 54.32 51.49 51.00 47.45 47.54 47.34 42.63 38.19 38.23 34.42 36.05 34.03 32.22 41.75 34.12 38.86 36.60 37.66 37.53 45.20 47.60 46.05 47.71 47.09 46.02 45.60 45.40
48.45 48.83 48.80 48.84 48.57 48.81 49.28 49.30 49.26 49.40 49.69 49.78 49.85 49.92 50.02 50.29 50.54 52.18 54.97 57.90 54.96 40.94 50.09 51.23 51.34 56.29 58.13 57.28 58.73 49.37 52.02 51.28 49.48 52.22 46.79 36.96 33.87 40.91 33.51 35.20 37.87 40.89 44.03 38.47 38.21 41.56 43.97 45.60 47.49 47.96 48.18 46.11 46.51 46.92
48.37 48.41 48.56 48.46 48.37 48.28 48.23 48.41 48.39 48.66 48.79 49.08 49.18 49.31 49.43 49.86 50.35 51.07 52.64 57.32 54.13 43.27 33.69 44.34 54.55 53.03 56.96 57.17 56.87 56.11 53.95 54.20 52.97 51.40 39.31 35.51 33.69 41.52 37.14 38.83 37.87 40.79 41.71 38.66 37.89 42.19 43.97 45.37 47.00 47.20 47.33 47.66 46.13 46.29
47.74 47.87 48.13 48.27 48.00 47.77 48.10 47.81 47.87 48.01 48.45 48.90 48.98 49.13 49.25 49.72 50.06 51.29 53.31 55.86 56.26 49.24 37.50 39.92 47.28 52.62 54.56 55.44 54.23 54.60 53.20 51.51 49.42 40.58 35.32 36.05 42.09 39.45 42.08 39.82 37.20 41.89 39.76 37.07 36.05 43.04 43.13 43.98 47.35 48.23 45.53 44.87 44.55 43.55
47.41 47.59 47.66 47.63 47.65 47.61 47.95 47.65 47.63 47.65 47.80 48.41 48.88 49.20 49.53 49.53 49.51 50.11 44.53 50.46 52.53 52.61 40.04 34.06 45.49 46.49 50.89 52.78 52.27 51.82 52.26 51.41 49.93 45.71 38.23 43.03 45.92 38.89 33.69 35.66 42.04 45.08 45.78 46.58 43.18 46.77 46.47 47.43 47.15 46.66 44.55 44.22 43.89 42.60
46.75 47.50 47.49 46.91 46.61 46.80 47.00 47.16 47.52 47.54 47.76 47.94 48.25 48.53 49.02 48.91 50.07 45.77 42.53 47.52 50.46 52.08 34.96 35.69 39.17 42.71 46.26 47.93 49.34 49.19 51.05 49.13 47.88 44.09 38.59 38.56 38.64 41.53 33.33 34.68 42.26 44.89 46.07 46.33 47.29 46.52 42.37 44.48 43.67 45.25 44.54 43.42 43.31 42.57
46.47 47.36 47.04 46.38 46.18 46.23 46.11 46.48 47.04 47.45 47.69 47.83 48.08 48.14 48.54 48.16 47.60 43.98 46.82 48.12 49.19 43.08 37.67 34.60 33.87 36.59 44.35 42.51 40.78 45.57 42.65 41.47 39.84 39.48 37.68 36.40 40.08 36.58 33.83 40.99 43.78 45.26 45.77 45.65 45.16 45.94 44.88 44.26 43.61 42.67 42.95 42.40 40.85 39.35
45.99 46.27 46.27 46.07 45.93 45.66 45.88 46.21 46.61 47.15 47.18 47.11 47.22 47.09 46.84 44.58 40.52 42.74 47.29 47.69 47.13 41.74 33.69 32.06 32.61 32.97 43.65 40.60 38.76 37.60 39.07 32.97 39.82 34.78 37.79 38.70 37.98 34.72 39.30 41.66 43.16 44.28 43.48 42.66 43.61 42.74 41.94 40.43 40.41 40.93 40.79 40.36 39.01 37.60
45.68 45.71 45.58 45.20 45.24 45.24 45.39 45.86 46.37 46.86 46.93 46.64 47.47 42.75 35.14 40.58 46.50 46.60 43.08 36.58 35.13 34.24 33.69 32.24 38.71 36.58 42.54 37.50 35.32 35.69 35.32 32.79 32.06 36.68 41.58 36.83 36.05 42.41 43.75 44.47 44.56 42.85 41.99 41.79 39.23 37.35 38.08 38.45 39.01 39.32 39.31 40.11 38.81 35.51
45.98 45.57 45.19 45.20 45.20 45.29 45.59 46.16 46.43 46.63 44.88 46.09 42.03 37.32 44.05 45.39 44.70 39.79 33.87 32.61 33.15 32.06 33.86 36.27 37.78 38.06 42.36 35.03 33.51 35.32 32.61 33.69 31.16 35.22 36.45 35.01 33.74 38.88 43.24 43.13 42.87 41.96 41.75 41.31 41.11 40.43 40.28 39.92 38.91 38.27 37.79 38.32 36.10 35.18
46.28 45.69 45.29 45.07 45.16 45.18 45.22 45.58 45.78 44.37 45.24 44.56 45.16 46.13 44.57 41.30 37.68 33.69 32.06 34.57 32.79 32.41 37.55 35.74 37.17 38.32 37.48 42.09 36.40 34.60 32.47 33.51 27.31 37.30 32.25 29.47 36.10 40.64 41.01 40.54 40.74 41.30 40.79 40.44 40.60 39.26 39.24 39.33 39.71 37.70 37.37 37.34 34.90 35.02
45.12 44.97 44.76 44.78 44.67 44.65 44.60 43.70 44.12 44.54 44.78 46.07 41.11 36.59 36.41 35.32 29.66 28.46 27.33 31.40 32.46 36.18 35.03 35.44 34.23 37.10 37.48 36.88 33.69 32.17 30.18 28.48 35.07 31.31 29.26 33.76 39.35 40.69 40.32 39.75 39.51 40.19 38.08 36.72 38.21 38.39 38.96 38.65 38.29 34.00 33.84 34.33 33.74 32.22
44.11 44.13 44.26 44.29 44.29 44.06 43.70 43.91 44.15 44.49 44.05 38.34 32.97 28.68 30.73 28.50 30.12 32.38 33.37 32.58 33.51 34.42 35.69 36.91 35.32 36.14 35.31 31.99 32.05 27.57 32.66 34.05 28.02 26.26 28.92 36.81 37.44 38.37 38.81 38.95 38.18 37.33 33.49 33.89 35.72 36.68 35.46 34.71 34.16 33.06 32.64 31.48 30.47 30.23
43.74 43.74 44.02 43.97 44.20 44.01 43.99 43.39 43.09 45.20 39.64 34.06 32.98 27.46 29.80 34.76 36.22 33.56 36.05 35.83 35.97 36.89 37.58 35.94 35.71 34.90 33.42 30.13 31.63 31.22 27.06 24.74 27.55 28.71 35.64 37.39 38.41 38.44 37.61 38.30 37.26 34.85 32.17 33.04 35.61 34.66 34.06 33.64 32.88 32.10 33.19 31.98 31.90 30.98
43.32 42.73 41.81 43.58 43.97 44.09 43.12 42.44 43.42 42.62 34.78 34.18 31.55 29.90 33.94 33.19 31.88 32.24 32.42 33.69 37.96 37.28 36.79 36.30 31.63 27.46 26.61 28.99 26.73 25.17 25.10 24.15 30.86 36.98 37.08 37.53 37.01 36.93 35.90 34.83 35.89 36.20 35.28 35.37 35.68 35.86 35.35 34.21 32.94 33.12 33.16 32.41 31.85 31.58
41.84 39.38 42.47 42.57 43.16 43.10 43.06 40.94 40.30 33.29 33.45 29.65 30.79 36.17 35.44 33.86 32.42 33.69 33.66 35.03 39.79 34.15 30.58 31.90 25.11 25.07 31.59 26.66 25.06 29.56 27.75 32.19 35.60 35.99 36.64 37.11 35.91 36.17 35.61 35.55 33.86 34.44 35.48 35.74 35.98 35.92 35.70 35.48 33.83 32.38 31.31 32.15 31.43 31.56
39.49 41.64 42.13 42.58 42.34 41.45 40.37 40.48 34.67 32.12 28.44 31.50 29.68 32.82 32.33 34.56 34.05 33.43 34.43 37.37 35.80 33.08 31.53 28.40 31.84 26.36 24.54 22.71 25.34 31.29 33.87 35.50 35.86 35.44 35.82 35.97 36.17 35.98 36.51 35.70 35.84 35.57 36.12 35.38 34.79 34.71 34.55 33.70 32.80 32.32 31.91 31.40 31.42 31.10
41.04 41.45 42.02 42.01 41.79 38.90 34.22 34.91 37.00 28.74 30.41 32.90 32.92 33.87 34.83 36.72 37.26 36.73 36.82 36.51 37.81 37.24 33.98 31.47 27.09 25.25 27.01 30.57 31.03 32.72 33.75 34.42 33.56 34.45 35.45 36.26 36.10 35.04 34.59 34.93 34.93 35.71 35.24 35.18 35.62 34.53 33.77 34.14 33.31 33.68 32.38 32.49 31.49 32.71
41.37 41.34 41.60 41.66 41.12 35.95 31.90 32.61 37.22 31.29 28.90 31.72 33.05 32.32 33.43 33.09 36.32 34.30 33.87 33.99 34.28 32.88 28.84 26.63 27.14 30.15 31.53 33.57 35.14 34.72 34.87 35.41 34.51 32.37 32.69 34.63 35.87 35.63 35.23 35.25 35.32 35.69 35.53 35.46 34.25 33.02 32.55 32.14 32.82 33.06 33.33 33.90 33.57 33.77
40.14 40.42 40.88 40.91 39.16 37.60 34.39 31.24 29.47 30.15 31.54 30.34 32.97 33.02 31.72 35.79 33.81 32.79 31.42 34.61 30.67 28.82 26.95 30.76 31.20 33.25 35.37 35.75 36.74 36.63 35.75 35.73 34.37 34.06 33.07 32.75 35.20 35.45 35.16 35.48 35.47 35.66 35.03 34.39 32.21 32.76 32.12 32.16 33.37 32.95 33.13 32.42 32.97 32.79
40.21 40.07 37.91 37.49 33.69 33.66 32.01 34.75 31.85 33.91 31.16 30.81 30.93 31.67 30.54 29.87 30.75 32.13 34.31 30.88 29.18 31.31 32.89 32.71 33.63 34.81 34.91 34.87 35.96 36.77 36.75 36.19 35.63 35.03 33.88 34.24 33.50 33.88 34.15 35.04 34.75 33.74 33.74 33.28 33.10 32.49 32.73 33.33 34.22 33.51 32.24 31.88 31.99 31.36
39.47 38.58 35.29 33.87 29.29 28.71 28.91 35.71 29.89 30.33 26.21 27.46 29.36 27.08 28.06 29.13 31.67 34.42 29.10 30.70 32.01 35.06 35.42 35.58 35.81 36.62 35.59 36.10 35.54 35.56 35.48 34.51 34.24 34.71 34.85 35.17 35.54 35.62 34.73 34.17 33.72 32.54 32.18 32.63 33.47 33.04 32.79 33.97 32.74 32.24 32.21 31.88 31.24 30.06
38.55 32.79 30.43 28.53 29.19 26.55 31.37 27.69 30.59 29.13 29.48 27.14 26.30 24.23 26.49 29.35 32.60 28.90 25.37 29.10 32.12 34.93 34.61 34.79 35.47 34.26 35.01 34.86 33.99 34.65 35.43 36.38 35.48 35.70 36.30 35.01 33.52 33.32 33.70 33.37 34.23 33.84 33.60 33.86 34.06 34.24 32.74 32.42 32.11 31.21 31.70 30.73 29.95 29.44
28.60 28.48 29.63 25.84 30.49 27.24 24.91 25.46 26.05 26.00 23.63 25.86 24.68 24.80 26.96 31.07 24.99 24.50 24.49 28.28 31.63 32.94 34.52 35.62 34.98 34.68 33.10 33.82 34.74 35.25 35.24 35.85 34.54 33.68 34.34 34.21 32.92 32.01 31.82 33.20 33.49 33.62 34.01 32.42 32.42 32.42 32.24 31.88 31.60 30.75 30.52 30.18 28.97 29.24
24.20 28.47 26.14 26.91 27.29 25.37 25.67 22.41 24.15 24.30 25.41 24.47 25.20 28.63 31.80 26.28 22.53 21.93 26.10 32.13 35.78 35.09 33.43 33.59 34.38 34.03 33.63 34.51 33.40 33.67 35.15 37.31 35.05 32.08 32.04 32.70 31.81 31.72 31.64 31.69 31.76 33.32 35.62 33.69 32.61 31.68 31.85 31.60 31.21 30.24 30.08 30.00 29.26 28.40
24.34 25.69 29.78 32.80 30.91 29.54 28.33 30.24 29.52 27.37 24.17 22.93 25.80 26.18 25.00 20.34 20.40 26.06 32.12 35.17 35.34 38.99 38.82 38.74 37.27 35.12 34.45 34.67 35.89 37.25 37.09 35.25 33.24 31.46 32.40 31.74 31.54 32.51 33.61 32.27 31.20 34.36 36.05 33.69 32.91 32.58 32.24 32.39 31.44 30.44 29.91 30.55 30.02 29.62
27.85 30.50 24.97 28.74 28.91 30.72 26.25 26.25 25.25 23.94 25.43 28.79 27.92 22.95 22.02 22.89 23.92 31.63 34.86 37.84 39.74 38.30 37.85 38.15 38.48 37.58 36.64 36.45 35.90 34.21 33.30 32.38 32.38 32.45 31.96 31.67 32.14 33.06 33.74 33.02 33.51 29.87 34.55 33.33 32.79 32.06 32.42 32.52 31.45 30.91 30.44 29.88 30.59 31.02
27.76 31.90 31.49 24.90 27.60 27.67 27.24 26.33 26.68 29.12 30.80 29.33 25.96 24.95 26.84 30.99 33.89 34.33 35.19 37.22 38.08 35.82 33.54 33.18 34.48 33.51 34.78 34.56 33.40 33.20 33.25 32.76 30.24 27.57 26.82 27.16 29.44 32.83 33.48 32.67 32.03 32.14 32.79 32.42 31.45 32.14 32.59 32.77 32.05 31.15 31.67 31.14 30.05 29.55
27.60 32.83 27.46 26.33 24.12 24.04 28.25 31.45 30.49 32.83 32.93 32.51 31.95 31.08 31.20 32.70 34.56 36.82 36.29 36.25 33.38 32.24 32.42 32.05 32.06 31.03 28.79 29.32 29.58 30.60 32.91 32.97 32.06 29.85 27.32 26.90 28.99 31.47 31.67 32.06 32.06 32.06 32.06 31.88 31.02 29.07 29.27 30.32 29.14 29.40 28.40 27.58 27.24 26.61
32.92 32.24 28.19 28.02 26.23 29.62 31.46 33.25 33.27 33.24 32.74 31.89 32.58 30.59 29.96 31.96 34.37 36.77 34.62 33.87 32.56 31.05 29.35 28.61 29.29 31.48 29.78 29.17 28.79 28.15 28.94 31.26 30.80 29.55 29.91 30.71 30.94 31.61 32.03 31.88 31.88 31.88 31.70 31.08 29.55 28.92 28.58 28.24 28.78 27.63 26.26 25.10 25.32 24.08
30.46 27.60 26.31 24.15 26.75 31.94 31.85 30.93 31.60 30.71 31.13 30.72 30.52 31.59 31.25 30.35 28.47 29.62 25.95 26.07 26.45 26.11 27.87 26.98 26.31 27.47 28.82 29.23 30.94 30.91 28.65 28.04 26.34 26.35 26.03 28.89 31.52 31.70 31.88 31.82 31.88 31.70 30.80 30.04 29.50 28.76 27.70 26.73 26.82 25.51 24.76 23.63 23.34 22.80
28.54 28.96 28.01 26.71 25.93 26.26 29.43 28.36 27.92 26.90 28.85 28.14 28.73 29.89 30.32 29.39 26.44 23.73 25.27 25.22 23.90 23.22 22.67 23.67 25.40 27.27 28.27 27.27 28.39 28.71 27.40 26.02 24.07 22.70 22.30 22.01 21.07 22.83 26.35 29.46 31.02 30.47 29.42 28.75 27.91 27.16 25.98 24.93 24.54 24.93 24.11 23.40 21.34 20.43

GFSWCAN_sfc_wetblb_012.txt.gz
Wetbulb
50.77 50.22 50.00 49.87 49.94 50.06 50.30 50.39 50.41 50.51 50.42 50.28 50.30 50.50 50.54 50.68 51.01 51.99 51.96 54.17 50.35 42.35 46.36 49.08 49.90 46.08 45.91 42.06 35.17 40.88 39.98 37.02 35.66 33.14 31.60 28.34 30.97 30.12 28.80 32.78 29.47 28.19 25.72 28.08 25.81 25.83 24.60 40.13 40.17 33.03 36.54 38.36 41.19 41.10
51.01 50.12 49.19 49.37 49.44 49.58 50.07 50.10 49.94 50.10 49.92 49.92 50.07 49.91 50.17 50.45 50.66 51.38 48.66 54.07 53.48 47.51 46.28 51.33 52.34 53.05 51.30 49.30 45.59 42.55 41.53 40.46 38.85 34.30 33.90 30.73 30.97 32.40 30.31 30.58 36.16 31.36 33.58 29.00 30.51 29.14 37.29 40.55 40.85 41.03 42.47 40.96 40.12 42.15
49.75 50.13 49.68 48.97 48.97 49.34 50.01 49.44 49.53 49.53 49.55 49.53 49.69 49.82 49.76 50.14 50.64 50.87 49.26 51.08 48.94 38.99 44.42 45.16 46.10 50.13 54.15 53.06 52.12 40.74 37.11 46.09 42.81 42.64 35.56 34.46 32.98 34.03 32.92 32.90 34.47 37.12 39.94 31.74 33.61 37.50 39.00 40.45 43.00 43.57 42.10 41.41 43.05 41.73
48.43 48.79 49.49 49.28 48.78 48.45 48.61 48.78 48.81 48.83 48.99 49.10 49.24 49.23 49.31 49.74 50.29 50.38 48.92 50.34 47.78 42.00 34.09 41.57 48.81 48.85 52.83 52.37 51.59 50.63 48.52 49.14 48.23 44.64 35.36 34.28 33.37 40.22 34.73 38.16 36.49 39.04 39.70 36.63 37.01 39.50 40.48 41.52 41.42 43.64 44.28 42.49 41.73 41.56
47.58 47.56 47.60 47.94 48.84 48.81 48.41 48.09 48.11 48.11 48.29 48.72 48.99 49.12 49.21 49.89 49.97 49.26 49.50 51.28 51.77 47.13 36.27 37.06 45.03 48.23 50.70 51.54 50.69 51.28 49.90 47.79 41.99 36.99 34.64 34.61 35.81 36.44 34.43 34.65 34.81 40.55 38.67 35.62 35.19 40.80 40.49 41.26 43.17 44.23 40.84 40.55 40.81 38.88
47.27 47.17 46.90 47.04 47.15 47.63 47.99 47.94 47.87 47.93 48.11 48.43 48.92 49.24 49.31 49.28 49.69 49.55 44.87 49.01 51.62 52.59 39.53 34.46 43.52 42.86 46.04 47.45 47.64 47.34 48.02 46.95 45.00 38.97 35.35 38.43 42.52 38.40 33.37 33.52 38.90 42.14 43.96 44.63 41.57 44.28 43.43 43.20 41.91 41.38 39.36 39.06 39.69 39.69
46.77 46.81 46.43 46.43 46.50 46.79 47.00 47.13 47.44 47.56 47.82 48.20 48.68 48.95 49.10 48.63 50.33 46.50 43.32 46.41 50.61 51.96 35.73 34.82 34.92 39.28 40.74 42.19 43.24 43.31 44.63 43.36 43.55 39.99 36.44 38.35 38.50 41.43 32.99 35.31 41.34 42.30 43.45 44.70 44.51 44.41 40.41 40.26 38.10 40.18 38.84 39.17 39.68 39.08
46.65 46.58 46.08 46.13 46.14 46.27 46.40 46.99 47.49 47.44 47.60 47.87 48.10 48.50 48.56 48.38 47.82 44.33 46.26 48.09 49.84 43.86 38.08 34.28 34.21 35.26 41.31 32.83 34.05 39.15 35.53 36.78 38.41 39.12 35.51 35.53 36.77 34.64 34.00 40.50 40.81 42.27 43.56 42.84 41.27 41.47 40.55 38.70 38.24 38.56 38.99 37.99 36.35 35.20
46.24 46.24 45.86 45.56 45.70 45.88 46.18 46.75 47.31 47.83 47.69 47.80 47.80 47.33 45.78 43.84 40.04 42.18 46.41 46.25 45.10 42.63 34.82 32.83 32.46 32.61 41.28 37.95 35.48 33.94 34.06 32.99 35.63 32.99 34.41 36.69 32.98 33.41 37.23 38.35 39.78 40.33 39.92 38.58 38.18 37.83 37.87 36.43 36.43 35.81 35.80 35.30 34.62 34.67
45.86 45.89 45.82 45.41 45.27 45.51 46.25 46.38 46.74 47.18 47.45 47.24 45.62 40.49 34.08 38.99 46.81 46.16 41.24 36.25 35.15 33.73 33.37 32.27 34.98 33.52 39.19 33.88 32.64 32.99 32.80 32.07 30.92 33.13 37.65 33.17 34.30 39.30 40.96 41.67 40.92 36.39 37.12 36.33 33.11 31.80 32.27 31.92 32.66 31.70 32.42 33.63 32.95 31.87
45.54 45.66 45.41 45.01 45.11 45.34 45.84 46.43 46.13 45.96 45.82 43.17 36.57 34.44 41.67 46.52 42.58 36.39 32.03 32.60 32.25 30.91 32.03 33.11 33.96 33.50 38.23 33.46 32.61 32.98 31.89 31.66 27.64 26.40 31.42 26.52 27.83 32.90 36.07 35.05 36.52 37.00 37.60 36.92 36.86 35.66 34.68 32.65 32.15 31.54 30.43 31.42 30.90 30.27
46.09 45.77 45.31 45.20 45.31 45.46 45.79 46.27 45.54 43.45 42.76 42.67 41.58 43.54 40.98 37.18 33.54 32.16 30.35 30.71 30.32 27.34 32.18 31.20 33.22 35.96 33.88 37.47 32.37 31.71 29.86 30.38 23.24 26.17 25.04 25.22 27.25 32.48 33.74 34.31 34.92 35.89 36.28 35.92 35.77 34.18 34.05 33.73 33.69 31.00 30.35 30.40 29.73 29.00
45.53 45.50 45.40 45.15 45.15 45.63 45.91 44.58 44.62 44.47 44.54 40.00 36.07 33.49 31.66 31.87 24.65 20.69 24.81 27.39 27.33 31.42 33.67 32.98 32.43 32.78 33.50 33.84 31.50 24.48 24.10 20.31 29.15 26.90 24.67 24.19 31.49 34.81 35.68 36.47 35.47 34.36 31.87 30.84 34.80 35.13 34.70 33.00 32.09 28.69 28.38 28.81 26.58 26.52
45.33 45.34 45.32 44.84 44.83 44.80 43.33 44.12 44.14 42.75 38.33 30.94 25.53 23.67 23.39 22.58 24.44 24.60 26.25 30.81 32.19 32.43 32.61 32.96 31.84 29.33 29.39 23.91 29.47 24.94 24.57 26.79 21.90 21.76 18.70 25.01 30.25 32.53 33.41 33.17 32.67 31.51 26.71 27.33 29.36 30.30 29.10 27.79 27.57 26.68 23.83 25.59 21.97 30.55
45.12 45.00 44.95 44.54 44.27 43.65 43.35 43.52 43.51 40.81 33.80 24.44 24.98 19.87 24.58 28.87 29.46 31.24 32.25 31.94 32.58 33.19 30.96 26.56 25.89 26.20 23.37 19.72 26.90 24.15 17.55 21.24 22.58 17.16 21.85 26.72 30.12 31.04 31.04 31.59 31.40 27.58 27.25 27.35 29.97 27.51 26.34 25.51 25.51 27.78 28.95 24.84 28.41 30.25
44.37 43.21 42.40 43.93 43.74 43.69 43.10 42.86 40.83 37.16 32.74 24.47 25.63 24.31 25.54 26.97 27.89 29.96 31.26 31.47 32.03 27.53 26.72 25.90 20.25 16.46 16.18 17.09 15.04 16.14 14.98 14.66 17.32 19.02 24.90 28.51 29.83 30.27 29.90 29.49 30.32 29.80 28.98 29.58 30.28 29.85 29.77 27.01 27.45 29.11 26.90 29.86 32.52 32.13
41.69 39.06 43.81 43.75 43.22 43.17 43.34 39.59 33.52 28.45 21.57 21.64 18.99 26.94 28.55 25.83 23.32 30.14 28.65 30.47 33.55 29.24 19.05 17.99 14.62 17.35 20.53 11.89 13.67 21.85 15.72 18.51 22.37 24.66 27.21 28.45 28.85 29.05 29.37 29.36 27.03 28.41 30.02 30.07 30.04 29.65 29.32 29.54 26.13 28.40 26.01 31.88 30.60 31.50
38.71 42.69 43.68 43.10 41.95 40.71 38.99 34.04 26.74 23.32 21.88 22.60 19.91 19.84 20.98 21.89 26.72 23.14 29.92 31.92 31.71 26.75 22.40 19.70 23.51 15.23 12.44 10.92 12.93 18.22 20.49 23.25 25.28 25.54 26.29 27.22 28.47 29.14 29.90 29.25 30.69 30.42 30.04 30.24 29.16 28.72 28.30 25.90 26.02 28.64 31.16 31.40 31.19 30.18
41.31 41.28 42.33 42.46 40.83 33.56 27.28 31.18 28.91 20.25 21.50 21.85 23.16 23.20 22.31 20.79 22.70 24.71 23.36 28.18 31.88 28.73 22.32 18.28 11.24 12.18 14.43 18.10 13.56 16.11 16.98 19.29 24.87 28.33 29.29 28.93 29.16 29.33 30.24 30.22 29.84 29.69 29.51 29.62 29.85 30.02 30.36 29.76 30.08 32.28 31.13 32.06 30.76 28.67
42.17 41.85 41.93 41.88 40.29 29.27 26.80 23.74 30.80 24.58 21.78 24.54 22.57 21.44 21.92 21.73 21.30 18.65 28.84 30.77 30.98 29.49 27.61 24.44 18.52 19.52 20.67 23.76 24.47 24.08 25.18 25.68 24.13 24.78 27.94 29.43 29.04 29.40 29.61 29.45 29.32 29.99 29.91 30.01 29.17 25.24 28.64 30.41 29.07 30.74 30.59 31.52 28.86 27.96
39.55 40.09 40.19 38.81 34.76 30.30 25.39 22.88 22.01 24.10 25.04 23.49 24.51 24.52 21.14 18.90 18.81 20.81 28.40 27.26 27.54 26.19 23.87 25.81 25.20 27.62 27.40 27.14 27.17 27.49 28.05 28.00 27.79 27.14 28.12 28.46 30.78 27.21 28.00 29.09 29.28 28.48 27.74 28.51 29.51 31.00 30.83 29.83 32.23 32.78 32.51 31.24 31.84 31.80
37.22 39.41 34.38 35.63 29.32 24.61 22.18 25.18 24.12 24.11 22.17 21.57 20.71 21.48 15.71 13.72 12.57 23.15 22.01 27.82 26.93 26.01 25.73 26.12 27.78 28.00 27.46 27.45 29.00 28.90 29.82 29.99 30.35 29.58 27.31 27.02 26.87 27.66 27.43 27.66 23.93 28.41 29.96 31.26 31.12 30.95 31.62 32.47 32.93 32.28 31.55 31.24 30.38 28.31
37.68 34.73 30.65 30.61 21.20 19.31 17.21 25.81 19.51 23.40 16.94 14.92 17.11 14.95 11.50 11.65 17.69 24.69 16.12 23.20 24.42 27.21 29.79 29.14 29.46 29.44 29.51 30.58 29.81 29.93 30.23 29.96 29.13 28.79 27.42 26.38 27.06 25.11 24.45 25.48 22.13 29.73 29.20 29.94 31.51 32.19 32.16 32.69 32.59 32.00 31.57 30.00 28.01 24.35
35.82 27.97 24.88 23.69 18.65 11.28 18.45 25.22 21.04 18.96 12.70 13.85 11.15 9.66 14.68 14.28 18.49 13.14 13.13 15.45 25.57 26.13 26.46 28.57 28.51 28.47 27.83 28.26 27.99 29.12 30.16 27.80 27.51 26.13 25.49 24.17 24.44 24.70 24.21 28.91 30.39 30.58 30.82 31.68 32.06 32.17 32.39 32.55 30.34 28.15 26.32 27.44 26.26 27.83
19.43 22.68 23.50 21.85 21.18 19.61 17.16 11.15 16.90 12.01 10.43 8.19 7.95 6.91 13.06 14.48 10.87 6.58 11.11 21.34 19.52 21.26 24.99 26.23 25.88 27.39 26.45 26.90 25.05 26.71 27.11 27.57 26.38 25.62 24.45 23.67 20.49 22.33 27.24 30.15 30.05 29.93 30.04 30.32 30.68 32.03 31.65 31.84 29.79 28.85 27.92 25.95 25.67 26.63
13.42 19.90 22.80 21.04 14.17 14.87 14.84 7.43 7.26 10.96 5.87 6.86 9.77 14.30 8.04 7.81 6.83 10.52 17.64 17.43 15.52 20.06 16.95 19.22 22.13 20.94 24.82 27.61 26.40 25.49 26.61 25.91 25.28 22.18 24.45 24.68 24.53 25.95 27.69 26.60 26.51 27.65 26.74 31.17 30.78 30.36 30.78 30.18 29.96 27.80 25.55 24.77 25.67 25.51
15.87 15.90 20.62 25.48 24.67 21.27 11.38 9.96 14.36 10.00 7.08 8.80 9.07 8.06 9.80 12.73 9.29 16.72 22.54 23.51 23.63 23.42 25.68 26.17 27.09 26.99 27.29 27.72 27.33 27.45 22.75 24.46 25.92 27.43 29.50 29.98 30.37 29.07 29.06 27.34 26.37 27.41 29.57 30.79 30.42 30.42 30.71 30.22 29.69 28.85 27.00 27.90 28.14 28.56
19.22 14.24 18.74 18.20 19.41 19.95 14.88 8.81 8.08 10.52 12.27 17.80 13.15 9.49 13.67 13.31 14.78 21.42 24.19 26.02 24.66 27.06 27.82 28.69 29.03 29.78 28.48 25.12 22.44 22.27 22.84 23.77 24.64 28.59 28.11 23.40 24.29 21.84 21.94 28.32 30.18 30.56 30.90 31.95 30.61 31.32 30.79 30.58 30.26 30.35 29.28 28.66 29.12 28.62
23.89 19.34 20.75 17.65 16.84 21.22 22.86 17.91 15.20 18.97 22.19 19.40 12.88 9.94 13.51 20.44 19.73 20.47 23.26 25.93 25.62 26.49 26.16 25.02 25.74 25.02 29.85 29.94 25.65 27.94 27.44 27.85 27.26 25.57 25.27 25.61 22.11 17.53 19.65 27.09 28.19 29.08 30.20 30.42 29.26 30.29 30.67 30.52 30.66 30.82 30.99 30.22 29.62 28.40
19.01 23.88 21.44 13.74 15.09 15.88 18.10 19.51 16.08 16.90 19.05 25.05 23.11 22.56 21.97 21.93 24.28 26.88 26.35 25.11 19.46 25.96 23.74 23.59 27.89 30.17 28.88 27.93 26.89 26.59 27.85 29.07 28.89 26.28 21.50 16.01 17.76 22.02 28.48 28.19 27.93 28.79 29.18 29.80 25.58 23.10 24.59 25.02 28.01 28.61 27.53 26.76 26.37 24.88
13.21 10.97 10.54 8.65 11.13 15.01 20.42 16.41 13.77 15.48 13.42 18.54 24.03 23.23 25.53 26.42 19.28 20.98 18.27 23.83 26.61 28.37 28.00 27.33 27.33 26.78 24.98 24.74 24.97 24.45 23.05 18.63 18.87 17.80 15.16 14.64 17.15 20.77 24.12 26.33 27.86 20.49 12.69 13.94 15.81 18.29 21.03 20.17 23.15 24.32 24.28 23.55 23.01 22.47
8.68 11.82 12.44 15.05 20.71 18.50 18.55 19.55 18.40 17.62 17.31 10.89 22.70 12.67 13.41 15.00 18.78 17.04 18.84 16.99 19.96 18.75 18.60 19.48 19.35 18.52 20.81 18.49 19.38 19.15 17.07 15.33 15.50 15.12 15.37 13.47 14.93 15.84 16.90 17.76 20.81 22.47 16.29 14.08 14.19 15.76 17.35 19.52 19.02 18.31 19.02 19.65 19.35 17.15
10.12 8.00 8.85 8.15 8.71 10.84 13.94 15.49 14.32 11.66 6.84 15.13 21.44 22.12 21.39 17.65 20.50 15.86 16.03 18.52 15.59 14.51 14.31 15.71 17.01 18.84 19.90 21.05 20.67 19.07 17.64 18.36 19.55 20.28 18.49 17.20 14.71 14.11 13.14 13.90 15.03 16.72 18.05 16.27 14.13 13.68 11.24 12.51 12.31 12.08 11.36 10.63 9.40 8.15

GFSWCAN_sfc_wetblb_015.txt.gz
Wetbulb
50.85 49.96 50.13 49.96 49.93 49.89 50.22 50.31 50.29 50.32 50.16 50.09 50.42 50.67 50.70 50.81 50.18 51.64 50.02 52.13 48.57 40.77 44.09 47.48 48.14 44.94 44.28 40.70 35.15 40.00 39.11 36.16 35.27 30.35 26.43 26.12 20.45 29.10 28.27 31.55 28.79 27.50 25.41 23.93 26.15 24.57 22.35 37.68 38.50 32.56 36.57 37.31 39.06 38.65
50.37 49.71 49.29 49.20 49.30 49.53 49.80 49.88 50.04 49.88 49.77 49.71 49.89 50.11 50.43 50.58 50.68 51.18 49.21 52.48 51.67 47.55 45.83 50.57 51.13 51.32 49.98 47.25 43.58 40.75 40.53 38.32 38.17 34.86 33.23 29.77 30.78 27.50 27.38 29.82 34.40 31.28 33.03 28.15 29.89 30.12 37.17 39.24 40.08 40.72 41.31 39.43 37.86 37.93
49.71 49.76 49.26 48.93 48.91 49.12 49.57 49.55 49.63 49.58 49.61 49.43 49.56 49.92 50.02 50.32 50.98 50.87 49.23 49.67 47.95 38.76 44.00 44.84 45.53 48.65 52.58 52.17 50.61 41.11 36.37 43.70 40.32 41.04 35.17 33.48 33.10 32.50 29.83 32.31 33.91 37.45 39.53 33.31 34.38 36.71 38.95 41.01 43.34 44.04 41.83 40.31 40.98 42.09
48.37 48.84 49.24 48.88 48.86 48.78 49.05 48.95 48.93 48.93 49.15 49.33 49.51 49.36 49.34 49.72 50.31 50.62 48.47 48.53 47.12 41.56 33.87 40.31 46.94 47.46 51.09 52.06 50.82 48.95 47.50 46.15 45.11 40.28 33.84 33.49 33.31 39.31 34.50 38.21 36.27 38.76 38.85 36.69 36.09 39.93 40.56 41.45 42.19 43.02 43.79 42.59 40.25 39.59
47.52 47.41 47.70 48.39 48.35 48.70 48.39 48.51 48.23 48.42 48.79 49.09 49.22 49.20 49.36 49.76 49.99 49.92 49.40 50.53 51.35 48.29 36.41 37.73 43.55 47.22 49.00 50.25 48.72 48.38 47.88 45.34 41.63 35.32 33.69 34.56 35.75 36.23 34.93 34.61 34.52 40.30 37.48 35.68 34.92 41.73 41.00 41.58 43.63 44.16 39.32 38.35 38.53 37.86
47.00 46.87 46.80 47.12 47.66 48.33 47.79 47.66 47.47 47.63 48.06 48.39 48.68 49.22 49.54 49.41 50.22 50.02 45.17 49.79 51.82 51.29 39.13 34.58 42.24 42.40 45.26 46.38 47.09 47.03 47.80 46.66 44.51 39.06 34.76 36.66 40.03 38.30 32.95 33.22 40.03 42.32 43.53 44.34 41.56 43.83 44.40 43.13 40.81 40.69 38.68 38.91 38.95 38.24
46.44 46.50 46.67 46.65 46.69 47.05 47.56 47.56 47.61 47.63 47.85 48.19 48.50 48.86 49.04 48.77 50.75 47.10 43.81 46.37 50.28 51.73 36.41 34.78 35.26 38.72 40.22 41.54 42.20 42.97 43.62 41.81 42.52 38.55 35.67 38.07 38.34 40.85 32.93 35.19 41.45 42.93 42.95 42.86 44.73 43.95 40.38 37.98 35.99 39.12 38.52 39.09 39.44 38.47
46.37 46.07 45.98 46.24 46.28 46.55 46.71 46.98 47.25 47.54 47.79 48.15 48.33 48.51 48.35 48.62 48.04 45.30 46.16 47.74 49.79 45.13 38.55 33.67 34.17 35.54 39.14 32.09 33.84 39.69 35.67 36.57 35.67 38.91 35.29 34.46 36.30 34.76 33.82 40.06 40.75 40.91 41.63 41.94 40.22 40.81 38.63 39.29 38.11 36.24 35.90 34.86 33.45 34.05
46.10 45.70 45.41 45.47 45.85 46.26 46.33 46.98 47.36 47.38 47.68 47.95 47.77 47.48 46.06 44.23 40.53 42.49 46.46 46.37 45.28 43.37 34.23 32.77 32.95 32.93 41.05 37.32 35.41 34.08 35.44 32.93 35.60 33.13 34.17 36.07 33.28 33.39 37.21 38.36 38.85 39.58 38.81 36.77 34.87 33.85 33.96 32.81 33.10 33.51 33.57 32.63 31.94 32.02
45.94 45.64 45.55 45.04 45.34 46.06 45.91 46.76 46.98 47.38 47.52 46.98 44.99 41.03 34.20 38.93 46.65 45.88 41.87 36.94 35.82 33.87 33.69 32.59 34.83 33.48 40.03 33.48 32.93 33.67 32.57 32.39 31.65 32.99 36.84 32.39 32.95 37.07 33.49 35.47 35.31 34.16 34.86 35.01 32.50 32.06 31.60 30.92 31.29 32.07 31.43 31.27 30.45 29.91
45.78 45.87 45.25 45.00 45.41 46.26 45.77 45.70 46.78 46.94 46.09 42.04 36.87 34.22 41.58 46.33 41.84 36.25 32.75 32.95 32.77 31.65 32.15 33.31 33.57 33.46 37.57 33.40 32.75 33.10 31.83 31.77 27.07 25.11 30.91 26.25 24.06 29.95 32.13 32.75 34.31 34.65 35.00 35.72 36.86 36.11 34.57 32.03 30.94 30.39 30.22 30.18 30.59 30.64
45.91 45.87 45.14 45.05 45.35 45.64 46.12 45.49 44.96 44.01 42.76 42.07 41.62 43.12 40.56 36.81 33.30 32.53 31.03 30.85 30.48 28.23 32.09 31.46 32.98 35.77 33.84 36.87 32.69 31.65 29.75 29.78 18.75 26.08 27.54 23.62 27.73 31.12 32.71 33.18 34.07 36.06 36.07 35.25 35.04 33.45 33.62 33.66 33.75 32.26 31.28 30.67 29.79 29.69
45.42 45.39 45.21 45.10 45.22 45.89 45.24 44.68 45.14 45.11 42.96 40.23 36.25 34.04 32.78 31.32 26.80 21.70 24.45 26.06 27.25 30.07 33.05 32.95 32.18 32.56 33.28 33.84 31.26 28.64 25.73 23.75 29.29 24.61 21.41 24.13 30.29 32.83 33.55 35.15 34.78 34.32 31.65 29.15 31.48 32.70 33.69 32.89 31.90 28.18 28.74 28.59 26.88 27.04
45.26 45.12 45.16 45.00 45.26 44.66 44.31 44.23 43.88 40.91 36.44 28.48 27.49 24.56 20.47 20.23 25.94 22.89 22.72 27.24 31.67 32.39 33.39 32.74 31.23 29.47 30.19 21.71 28.51 24.61 22.85 26.25 23.52 18.32 18.45 26.12 29.92 31.77 32.12 32.31 31.02 30.77 27.17 27.35 28.81 29.02 27.70 26.77 26.90 26.24 23.84 25.19 23.19 23.66
45.11 45.04 44.98 44.57 44.60 43.67 43.75 43.75 42.99 38.88 30.94 25.28 21.83 16.03 23.25 26.61 29.91 31.56 32.18 32.37 32.56 33.01 30.97 26.59 28.80 26.58 26.33 19.23 26.26 24.34 20.29 20.19 22.55 17.02 20.63 26.59 29.84 30.09 30.04 30.32 29.99 27.76 26.05 25.75 28.73 26.71 25.58 25.10 24.64 25.84 26.61 25.26 23.99 24.09
45.02 43.99 42.73 44.05 43.77 43.85 43.34 41.07 38.07 33.60 30.61 23.42 20.35 21.26 27.79 28.38 27.05 29.80 31.83 31.42 32.36 30.65 26.77 24.52 17.14 13.81 14.89 15.41 16.57 19.55 14.00 13.77 16.74 17.70 23.45 28.20 29.07 29.27 28.99 28.79 29.19 29.29 28.91 28.89 28.89 28.59 28.82 26.31 25.33 27.80 27.76 25.67 26.29 27.28
42.48 39.67 43.67 43.54 43.38 42.85 42.23 36.77 32.07 27.55 21.30 17.66 17.56 27.27 19.85 23.79 19.06 24.02 30.18 29.14 30.68 28.34 17.56 17.54 14.33 16.99 19.25 9.97 11.36 20.51 14.29 17.69 21.00 23.24 24.96 28.03 28.77 28.87 28.86 28.90 27.15 27.61 28.78 29.19 29.30 29.10 29.08 29.14 26.33 23.91 24.57 28.83 28.77 28.14
38.96 42.77 43.42 43.10 41.73 40.73 38.34 32.27 24.66 21.83 20.72 20.28 18.04 16.66 22.06 18.64 28.99 30.06 27.23 25.60 30.04 28.22 21.82 18.58 22.00 11.94 8.83 9.85 12.08 17.43 19.69 21.85 23.14 23.98 25.66 27.38 28.32 28.59 28.75 28.23 29.88 29.53 29.33 28.96 27.19 27.59 27.47 25.67 25.94 27.47 29.01 29.77 28.48 30.80
42.34 42.15 42.68 42.26 39.61 33.48 29.85 31.61 28.48 19.40 19.72 19.93 21.25 21.21 20.11 17.67 19.85 24.33 19.93 24.88 31.59 30.79 26.55 16.49 9.43 11.67 14.61 18.03 14.25 14.02 13.97 17.49 23.35 26.54 26.84 27.70 28.28 28.70 29.22 29.66 29.43 29.41 29.08 28.31 28.64 28.97 29.68 29.49 29.97 30.51 30.33 30.78 30.28 31.38
42.44 42.11 41.87 41.28 38.11 31.09 23.80 25.01 28.95 24.71 20.80 23.53 21.71 20.51 20.81 20.38 19.94 23.35 21.67 20.70 29.39 30.04 27.41 24.41 17.97 18.57 19.71 22.30 23.49 23.26 24.30 24.88 23.53 23.39 26.08 27.58 28.06 28.60 28.87 29.23 29.23 29.31 28.49 28.05 27.00 23.58 29.75 30.01 29.78 30.64 31.51 31.66 30.96 30.32
40.01 39.72 39.43 37.56 32.78 28.84 24.97 22.22 21.53 23.48 24.61 22.78 23.20 22.92 18.92 17.06 20.56 16.65 25.55 30.70 28.32 26.71 25.42 25.32 23.31 25.71 26.65 26.10 26.70 26.91 26.95 26.66 26.07 25.36 26.22 27.12 29.26 27.27 28.06 28.62 27.47 25.86 23.93 24.23 28.88 29.90 30.16 30.60 30.92 32.50 32.27 32.03 32.04 31.43
37.88 39.36 33.97 33.94 25.80 21.40 21.73 24.15 23.14 22.69 20.44 19.70 18.71 19.38 11.15 10.25 12.45 23.94 21.15 26.44 26.75 25.17 26.14 25.41 27.12 27.77 27.09 27.25 28.47 28.03 28.68 28.77 28.60 28.06 26.39 26.94 26.43 26.98 25.86 24.44 22.37 21.07 24.51 28.96 29.41 28.57 29.64 31.44 32.27 32.72 32.24 32.07 30.49 28.26
37.14 34.54 29.78 26.66 18.42 14.84 15.46 24.16 16.84 21.58 14.95 14.43 14.95 13.71 10.81 9.92 16.41 23.22 20.36 24.06 23.25 26.92 29.30 27.78 28.98 29.47 28.82 29.68 28.54 28.91 29.31 29.24 28.29 28.39 27.15 26.51 26.25 25.45 23.39 23.85 21.62 19.90 26.59 27.79 30.04 29.81 30.43 31.93 32.18 32.38 32.23 30.85 29.01 28.29
34.83 26.93 18.55 18.61 13.25 11.34 14.30 24.58 20.65 16.47 11.62 13.93 10.04 8.60 12.85 11.18 15.41 11.37 12.87 15.02 23.95 25.20 26.06 28.02 28.06 27.68 26.37 27.63 26.90 28.19 29.10 27.38 27.01 24.79 24.49 22.83 23.30 24.98 23.65 24.73 23.33 24.23 27.59 30.01 29.71 29.81 31.07 31.70 31.97 28.83 26.33 28.60 26.93 26.54
19.15 20.86 15.91 18.44 22.65 17.19 11.49 11.50 11.69 13.65 11.66 6.43 6.58 5.54 11.29 11.75 9.87 5.22 10.74 18.49 15.85 18.46 23.77 24.24 24.20 26.18 24.62 24.38 23.47 25.79 26.13 27.12 25.81 24.99 26.23 22.83 19.65 19.79 24.92 26.35 23.85 26.11 25.45 22.68 26.33 29.02 30.84 30.63 31.73 29.69 28.21 27.84 24.71 24.33
11.30 16.15 21.66 15.64 19.46 11.53 12.64 8.48 13.19 9.29 2.99 4.31 6.71 10.90 3.76 4.50 5.71 9.45 16.12 16.99 14.13 18.96 16.69 16.65 18.24 18.29 22.70 26.13 25.26 25.18 27.77 26.86 24.47 22.43 24.25 24.92 23.55 25.44 28.14 27.01 26.57 23.46 21.16 24.96 29.62 28.59 27.87 28.95 30.12 30.12 29.39 28.99 27.62 24.87
9.58 16.92 21.12 23.79 22.62 18.94 9.74 6.57 11.73 6.94 3.60 7.60 7.48 4.74 5.66 6.55 6.93 15.64 20.85 21.83 22.96 22.79 23.70 24.62 26.33 26.86 27.60 27.84 26.38 25.80 23.72 21.95 24.84 24.98 23.92 27.20 29.58 29.90 29.40 27.83 26.64 25.90 28.04 29.20 29.88 28.43 28.07 28.52 29.22 29.84 29.58 29.71 28.85 28.11
17.30 15.66 18.40 17.46 16.81 15.50 8.18 4.09 6.86 8.77 11.33 16.08 10.14 7.87 11.30 11.59 14.48 20.68 23.09 24.26 23.01 25.60 27.55 28.11 27.79 28.47 27.20 24.25 21.38 18.62 21.64 25.72 27.83 24.55 21.91 24.03 25.62 21.40 24.78 20.97 20.44 26.90 27.51 28.45 29.29 28.97 28.54 28.83 29.15 29.15 29.37 29.36 29.64 29.79
23.15 20.64 15.08 9.70 11.54 13.69 18.05 15.40 13.36 17.28 21.25 18.86 12.11 9.25 14.24 19.15 18.59 19.14 22.41 22.68 23.01 22.85 21.03 22.66 22.59 17.27 19.02 28.83 30.04 28.47 28.64 26.86 20.78 19.80 23.61 24.47 22.91 20.20 17.88 25.92 27.28 26.20 27.67 27.38 29.73 28.68 26.53 25.56 25.92 26.83 27.44 28.40 30.02 31.26
16.50 22.29 22.84 20.96 19.38 19.98 20.37 22.03 14.86 15.98 17.02 22.72 21.43 21.87 22.10 18.22 18.54 18.17 18.55 18.96 17.75 14.97 16.82 19.56 25.03 24.91 29.14 28.11 27.14 25.04 24.20 23.37 23.55 22.22 17.82 14.10 13.06 12.13 23.60 25.11 27.25 27.35 26.65 21.63 15.38 13.25 18.13 14.96 17.36 19.90 23.50 24.49 25.04 24.41
9.90 8.81 8.53 5.74 8.98 12.79 16.92 12.34 5.76 7.29 8.37 16.15 16.69 22.07 23.93 20.72 13.17 16.00 13.70 14.18 21.47 23.98 23.39 22.25 23.21 20.43 20.95 19.74 17.63 16.95 17.63 14.71 14.68 14.84 15.90 14.00 13.10 12.76 14.74 17.75 21.71 23.17 15.45 9.40 9.03 9.03 10.18 11.90 13.41 13.75 15.98 18.60 19.10 19.44
13.57 10.20 10.66 7.77 11.68 15.70 6.03 10.50 12.29 14.61 18.84 7.01 21.79 9.97 8.96 12.01 11.74 9.94 14.41 13.73 13.47 13.21 11.76 12.15 13.03 14.46 17.47 18.06 16.90 15.12 17.31 18.10 18.25 17.50 17.08 15.90 14.32 14.46 14.46 14.45 14.49 13.70 16.26 17.02 12.47 13.65 12.98 10.71 8.43 10.19 14.34 12.66 11.38 10.43
2.24 -1.94 -3.24 -0.81 5.05 10.36 7.67 8.28 6.74 6.55 2.02 5.12 16.97 16.31 12.74 13.56 12.28 12.69 14.50 14.67 12.75 13.70 13.64 14.71 15.82 16.94 17.66 17.90 17.19 16.74 18.39 18.66 19.05 20.12 19.23 16.22 12.91 12.37 11.22 10.01 8.87 9.53 11.34 11.48 11.11 8.75 6.50 3.81 2.70 4.41 5.79 5.60 4.72 4.18

GFSWCAN_sfc_wetblb_018.txt.gz
Wetbulb
49.62 50.01 49.73 49.58 49.56 49.74 50.07 50.05 50.06 50.16 50.13 50.16 50.24 50.67 50.94 50.42 49.30 51.74 50.36 50.66 47.31 39.37 42.23 46.25 46.05 43.01 41.99 39.39 34.95 38.74 38.46 35.04 34.84 30.56 27.93 25.60 19.63 28.54 27.81 31.02 27.80 27.39 24.30 23.27 25.14 25.03 21.21 36.15 36.82 31.37 36.17 37.97 39.33 39.16
49.57 49.89 49.07 49.17 49.20 49.43 49.80 49.95 49.82 49.77 49.51 49.55 49.87 50.08 50.33 50.51 49.99 50.68 48.69 50.46 49.73 45.58 43.61 47.17 48.67 48.28 47.04 45.79 42.78 39.08 39.27 37.54 37.37 33.32 32.38 28.43 24.54 24.04 27.14 28.18 33.15 29.19 33.33 29.98 31.67 28.55 36.16 38.83 40.34 39.91 41.29 40.50 39.15 38.57
49.29 49.27 49.07 48.55 48.76 49.19 49.47 49.48 49.46 49.59 49.57 49.30 49.41 49.98 50.24 50.41 51.00 50.68 48.36 48.13 46.29 38.38 42.55 43.58 43.50 47.41 51.15 50.40 49.03 40.05 34.97 42.02 38.84 39.73 32.79 31.55 27.84 30.01 30.39 29.96 31.99 35.37 38.33 33.04 33.71 36.42 37.83 40.91 42.65 42.04 40.42 39.75 42.08 41.69
48.22 47.91 48.28 48.73 48.35 48.67 49.01 48.92 48.95 49.12 49.25 49.29 49.29 49.32 49.68 49.91 50.57 50.51 48.04 47.44 46.33 41.21 33.85 39.83 45.48 44.95 49.16 50.61 49.09 48.00 46.31 44.64 41.61 38.73 33.39 33.12 33.11 38.65 33.83 37.26 35.56 37.61 37.65 35.59 36.37 39.83 41.13 41.17 41.78 42.32 42.46 40.52 39.47 39.48
47.21 47.17 46.99 47.95 48.00 48.13 48.51 48.60 48.54 48.74 48.99 49.27 49.30 49.36 49.38 49.88 49.98 49.44 48.60 49.29 49.98 46.15 35.61 37.02 43.24 45.44 47.00 48.34 47.49 46.10 46.19 43.38 41.00 35.66 33.47 34.36 34.83 35.83 34.51 34.73 34.31 40.44 38.19 35.66 34.73 40.75 40.82 41.44 41.53 40.56 37.18 35.77 35.29 37.24
46.65 46.62 46.74 46.70 47.79 47.68 48.00 48.13 48.19 48.20 48.51 48.84 49.20 49.65 49.52 49.37 50.42 50.75 46.21 50.21 50.24 51.70 39.63 35.12 41.77 39.39 42.18 44.83 44.79 45.12 45.25 43.57 42.51 38.84 34.90 37.90 41.37 38.18 32.94 32.87 39.80 41.93 43.50 44.40 41.16 44.08 41.03 39.31 37.83 37.09 34.84 35.82 37.06 37.82
46.28 46.54 46.54 46.47 46.88 47.61 47.44 47.48 47.48 47.84 48.04 48.38 48.58 48.89 49.42 49.25 51.11 47.57 44.23 44.84 50.31 50.71 36.75 34.57 35.98 35.54 38.39 40.60 41.25 41.56 44.18 43.98 43.15 38.00 34.90 37.02 37.74 40.12 32.73 34.79 40.77 42.31 42.79 42.50 43.68 41.38 37.69 38.65 36.29 37.73 36.56 36.16 35.04 33.66
45.94 45.99 46.17 46.24 46.34 46.76 46.99 47.06 47.06 47.41 47.95 48.17 48.19 48.17 48.55 49.00 48.56 45.83 46.03 47.64 50.19 44.68 39.25 33.83 34.33 34.98 38.56 32.64 33.83 39.45 35.64 36.57 37.08 38.33 35.09 34.18 36.28 34.19 33.42 37.75 39.60 40.81 41.59 37.41 34.70 36.22 37.33 36.96 35.38 32.73 33.51 33.18 31.09 30.93
45.62 45.37 45.39 45.68 46.13 46.26 46.67 46.97 47.17 47.59 47.77 47.95 47.75 47.71 46.60 44.59 41.25 42.99 46.60 46.85 45.49 43.65 34.01 32.75 33.29 33.11 40.82 36.95 35.22 34.68 35.24 33.09 35.42 32.93 33.80 36.05 32.91 33.15 32.20 33.07 34.06 34.16 36.47 32.25 33.76 33.25 33.66 32.91 33.03 33.13 32.82 31.90 29.63 28.41
45.60 45.42 45.16 45.16 45.92 45.83 46.51 46.78 46.92 47.41 47.50 47.01 45.29 41.40 34.36 38.73 46.52 46.00 42.21 37.46 35.99 34.39 33.85 32.94 34.84 33.83 39.42 33.27 32.93 33.82 32.73 32.17 30.55 32.90 34.58 32.35 32.50 32.76 32.97 34.08 34.34 33.12 33.44 34.20 31.79 31.02 32.04 31.63 32.08 31.86 30.46 30.04 29.10 28.54
45.81 45.72 45.19 45.27 45.96 45.69 46.49 46.52 46.83 46.65 46.06 42.48 36.72 34.38 41.56 46.25 41.83 36.46 33.47 32.91 32.56 31.82 32.52 33.71 33.36 33.45 37.40 33.38 33.09 32.91 32.50 31.93 26.39 24.41 30.11 29.10 28.29 29.20 31.63 32.58 33.02 33.35 34.26 35.42 35.29 34.21 34.74 33.73 30.81 29.90 30.18 30.07 29.99 28.90
46.19 45.78 45.12 45.19 45.78 46.10 45.46 45.78 45.87 43.92 42.74 42.38 41.97 42.96 40.36 36.67 33.45 33.38 31.42 31.07 30.84 29.17 32.10 31.78 32.90 35.49 33.64 36.50 33.06 31.43 30.09 29.38 23.23 25.88 24.96 18.82 26.31 30.11 32.31 32.11 32.14 32.76 31.84 32.30 32.19 31.56 30.81 30.52 30.87 30.15 30.26 30.35 29.24 28.98
45.58 45.32 45.21 45.19 45.39 45.71 45.06 45.10 45.13 44.93 42.95 39.75 36.31 33.83 32.44 31.05 28.82 28.21 22.57 25.90 27.60 30.41 33.00 32.75 31.99 32.16 33.26 33.80 30.86 30.29 25.32 20.06 28.11 21.63 19.62 22.41 28.25 33.10 32.86 32.60 31.60 32.55 31.25 28.00 29.72 30.07 30.20 29.09 28.55 26.82 27.43 27.72 25.92 26.27
45.15 44.94 45.21 45.25 45.26 44.51 44.32 44.67 43.34 40.85 37.49 30.93 28.90 27.68 25.26 24.57 25.05 23.07 23.63 25.94 28.73 32.35 32.37 32.52 30.48 29.78 29.82 27.64 27.85 24.22 24.51 25.55 20.10 15.12 17.23 23.23 30.18 32.00 31.58 30.43 29.06 29.18 25.99 25.51 28.07 28.45 26.85 25.95 26.27 26.22 24.41 24.76 22.87 23.82
44.98 44.87 45.26 45.02 44.04 44.13 43.76 42.77 41.83 38.15 32.64 26.74 24.38 19.98 22.14 24.29 28.04 30.89 31.98 32.52 32.17 32.97 32.04 30.26 28.39 25.49 26.14 21.01 26.08 23.18 21.83 19.16 18.06 15.30 17.82 26.72 30.03 29.49 28.81 29.67 28.90 26.67 24.74 24.74 28.45 26.47 24.40 23.64 23.51 25.19 26.70 24.55 23.74 23.16
45.00 44.35 42.64 44.07 43.82 43.89 42.32 40.42 37.46 34.97 28.02 23.37 20.40 22.07 25.85 27.88 27.41 29.01 31.63 31.25 32.50 30.93 29.22 27.09 17.31 15.09 16.91 19.39 19.74 20.11 16.44 13.52 15.50 15.67 24.23 27.21 28.30 28.63 28.81 28.11 28.27 28.37 28.28 28.65 28.73 27.70 27.66 24.83 24.18 27.42 27.75 26.53 25.13 23.81
43.22 40.06 44.06 43.58 42.34 41.44 41.03 35.58 31.90 27.27 23.79 18.95 19.09 26.83 21.63 20.37 22.40 19.67 31.29 31.36 32.61 28.95 24.78 14.83 12.16 14.40 17.89 10.72 13.88 18.23 12.36 15.52 19.41 21.41 23.93 27.37 28.22 28.34 28.63 28.50 26.23 26.78 28.48 28.58 28.47 28.23 28.28 27.93 24.63 22.93 24.66 28.42 27.03 28.20
40.42 42.98 43.51 43.04 41.17 39.78 37.06 31.85 26.01 24.16 22.16 22.48 19.73 17.79 27.21 21.61 22.56 19.82 27.49 25.66 26.27 22.42 21.07 20.73 20.39 10.45 7.85 8.03 9.24 14.94 18.98 20.23 21.39 22.76 25.26 26.91 27.85 28.04 28.55 27.72 29.01 28.85 28.60 28.33 25.97 26.32 25.66 23.12 25.02 28.29 28.22 29.12 29.27 30.54
41.79 42.28 42.66 42.28 39.24 32.36 29.64 29.65 28.91 21.20 20.77 21.55 22.02 22.04 20.53 18.74 20.65 24.58 22.39 23.14 28.88 30.49 27.16 21.49 8.37 11.66 13.55 17.21 14.21 12.61 13.12 16.89 22.81 25.33 25.85 27.17 27.69 27.72 28.02 28.73 28.56 28.67 28.29 27.46 27.77 27.46 28.31 28.13 29.20 28.71 28.34 28.64 29.81 31.07
42.04 41.21 40.70 39.96 38.11 28.60 22.78 28.49 28.64 24.56 21.78 23.87 22.46 21.14 20.34 20.37 23.94 25.40 23.27 19.13 24.38 25.36 25.96 24.34 17.96 17.88 19.14 21.46 22.87 22.13 23.14 24.08 22.55 22.08 24.98 25.08 26.82 27.60 28.01 28.42 28.60 28.98 28.26 27.19 25.12 21.64 25.33 28.07 30.02 27.22 25.91 30.75 31.23 30.81
39.49 38.95 38.41 36.34 29.71 27.63 24.56 21.36 21.14 22.73 24.59 22.59 22.91 22.02 18.24 22.39 23.90 23.85 18.45 24.00 21.76 20.27 20.21 24.28 21.44 24.60 26.49 25.40 26.40 26.60 26.69 26.34 25.54 24.39 24.39 25.60 26.78 26.54 27.50 28.40 27.45 25.37 23.23 21.60 21.08 24.79 25.85 28.45 29.31 30.28 31.08 31.89 32.37 32.20
37.31 38.87 33.58 31.87 23.31 20.34 21.55 23.49 22.45 22.24 19.69 19.22 17.88 18.65 10.36 10.50 15.54 23.20 21.01 25.63 25.40 23.31 25.72 25.09 27.60 26.77 26.73 26.89 27.56 27.81 28.42 28.25 28.07 26.79 24.37 25.49 24.29 23.86 23.83 24.57 20.34 21.63 20.70 21.41 23.52 24.17 27.94 29.45 29.11 30.39 31.65 31.46 32.29 29.72
36.66 34.11 25.40 20.48 16.49 13.92 15.37 23.36 15.97 20.62 13.89 13.34 13.37 13.04 10.31 8.33 14.04 24.17 23.36 25.74 23.51 26.30 27.17 26.98 27.86 28.85 28.45 29.13 28.24 28.40 28.53 28.00 26.71 26.88 26.14 25.68 25.95 24.78 23.63 23.09 20.83 24.28 23.58 25.37 22.51 23.19 26.70 29.39 29.82 30.83 31.69 31.47 31.14 28.96
34.15 21.71 15.93 14.08 12.25 13.19 13.10 22.47 19.56 14.53 10.24 10.45 9.04 7.99 11.77 11.01 16.52 20.50 16.52 14.08 22.59 24.30 25.61 27.68 27.25 26.25 25.29 26.88 25.68 27.33 28.07 26.89 26.09 24.01 24.19 23.00 23.54 25.11 24.10 22.95 20.55 21.08 26.92 26.11 24.60 25.01 25.98 28.33 30.74 30.11 29.45 27.70 26.48 25.84
21.23 18.48 14.55 17.48 22.02 16.47 12.76 20.04 18.57 12.90 8.11 1.93 6.82 5.14 8.97 9.69 8.92 7.20 9.74 17.18 14.14 16.29 21.33 22.30 22.75 24.93 23.39 22.14 21.76 23.90 24.84 25.98 24.83 24.10 26.32 23.71 22.22 19.93 21.18 21.59 22.19 26.63 27.98 17.45 25.05 27.26 27.56 28.57 28.09 27.94 28.38 29.22 27.35 24.61
10.37 17.61 11.87 9.01 19.69 10.51 9.36 5.21 13.54 10.82 1.40 2.67 10.07 7.70 0.93 2.32 4.82 9.39 14.83 16.05 12.94 17.58 13.49 14.64 16.54 16.58 20.53 24.47 23.22 23.03 26.16 23.96 22.43 20.51 24.74 23.78 23.42 24.08 21.92 27.30 26.92 27.59 24.36 26.30 26.88 26.84 26.84 27.38 27.07 27.21 27.13 27.40 27.95 28.63
11.01 17.49 23.37 22.42 20.68 16.39 7.60 4.79 9.76 5.06 1.76 6.25 5.44 2.80 3.50 5.47 6.08 14.93 19.72 20.79 21.77 22.22 23.09 23.09 23.74 24.02 25.04 25.63 24.90 24.28 20.82 19.99 23.08 24.60 22.65 25.67 28.74 29.96 29.46 26.85 23.90 23.40 24.24 27.49 27.49 27.21 26.84 26.59 25.67 26.27 26.28 27.13 28.03 29.09
14.22 15.67 16.37 21.06 19.48 13.39 6.76 2.11 4.04 6.75 8.88 14.15 8.63 6.70 9.10 10.03 13.25 19.70 22.12 24.18 23.69 23.43 23.52 24.93 24.99 24.09 22.88 22.18 22.20 18.61 25.49 24.66 20.21 22.39 20.33 20.72 21.40 19.77 20.93 19.80 19.11 25.83 26.37 27.23 26.28 28.11 27.49 24.05 23.96 24.45 24.64 24.61 25.71 27.82
22.35 18.98 14.33 14.99 10.64 7.74 11.54 13.18 11.82 15.59 20.09 18.49 14.69 11.18 13.54 18.72 19.98 20.47 20.11 19.03 17.97 20.73 19.07 19.16 20.87 16.71 19.92 19.27 18.21 25.94 28.85 28.45 26.04 23.83 19.39 13.73 18.89 19.96 20.40 21.95 24.71 26.51 26.87 26.18 19.33 18.44 17.67 15.47 13.71 12.28 17.51 21.26 23.05 24.31
18.03 14.29 12.09 5.34 9.49 12.54 16.46 19.73 14.56 13.69 14.53 16.76 16.18 19.16 21.08 17.50 13.76 16.46 16.89 19.08 21.04 22.35 23.69 24.11 25.56 25.81 26.02 25.85 23.64 23.94 19.38 20.48 21.73 21.82 16.20 14.04 14.69 15.76 17.70 18.38 21.84 24.57 24.39 22.57 21.87 16.04 15.15 10.71 12.12 11.15 13.45 15.00 16.74 16.58
8.36 8.54 10.50 8.44 9.80 11.53 13.17 5.10 1.67 3.01 3.62 10.36 13.11 18.51 22.60 16.68 16.11 14.56 14.67 13.64 15.43 16.47 15.56 13.24 15.59 16.05 15.33 15.44 16.63 16.28 16.49 14.49 13.95 14.49 13.66 12.78 15.10 16.47 16.59 16.38 16.57 16.59 16.52 20.65 17.77 8.84 4.48 2.75 2.41 2.49 12.66 9.08 7.78 8.44
16.99 7.56 7.77 5.20 8.97 8.97 1.44 3.38 1.74 2.77 6.78 2.89 16.90 5.76 5.96 8.10 8.31 12.47 14.79 13.68 11.91 10.50 11.41 11.40 10.60 11.61 16.12 17.78 17.73 17.72 17.93 16.99 14.83 14.87 13.91 14.49 13.78 13.73 12.25 11.46 9.73 6.88 4.29 6.54 4.75 2.03 -1.05 -2.25 -0.97 2.73 4.62 5.25 4.87 4.68
-3.67 -5.15 -7.51 -2.99 3.42 5.38 0.96 4.26 2.38 2.40 -1.15 -3.68 -1.64 -1.50 -2.41 5.29 4.44 9.41 13.62 14.38 13.30 11.63 10.86 11.93 13.59 14.91 16.72 16.86 16.16 16.00 15.93 15.45 15.58 15.49 15.63 13.68 10.79 9.09 6.59 2.97 -0.91 -1.23 0.76 0.95 0.23 -2.79 -1.59 -2.89 -2.80 -2.44 -0.76 -0.26 -0.43 -0.44

GFSWCAN_sfc_wetblb_021.txt.gz
Wetbulb
49.61 49.83 49.75 49.48 49.33 49.40 49.59 49.79 49.76 49.95 50.24 50.46 50.53 50.71 50.27 49.92 49.94 52.36 52.17 50.98 48.20 39.99 44.08 47.55 47.67 43.31 43.17 41.93 38.86 41.09 40.98 38.87 36.95 33.49 33.49 32.25 30.72 33.16 32.54 33.66 30.69 31.50 29.15 27.82 28.38 27.74 25.74 38.70 39.83 35.32 40.21 41.81 42.12 42.13
49.34 49.29 49.15 48.67 48.92 49.17 49.40 49.48 49.56 49.49 49.42 49.80 50.31 50.64 50.43 50.35 50.38 51.25 50.42 50.75 49.87 46.64 44.87 49.18 51.30 51.27 49.61 47.03 44.03 41.20 41.85 39.54 40.38 35.35 33.26 31.98 31.28 29.07 30.43 31.95 35.00 31.89 35.47 33.37 33.36 33.87 39.73 40.25 41.22 43.72 43.06 40.99 40.79 41.18
49.03 48.52 48.54 48.44 48.60 48.70 49.20 49.44 49.32 49.30 49.23 49.21 49.59 50.36 50.54 50.64 50.63 51.06 49.59 49.23 46.76 38.92 43.42 45.51 45.93 49.14 51.73 51.47 50.44 43.35 39.06 43.49 41.12 42.22 36.93 34.52 33.49 33.72 31.99 31.40 34.87 36.94 38.98 35.45 35.54 39.81 40.92 42.38 45.16 44.04 43.08 40.17 39.54 39.10
47.77 47.68 47.87 48.44 48.19 48.33 48.66 48.79 48.98 49.07 49.09 49.17 49.28 49.61 49.97 50.36 50.10 50.24 49.58 48.13 46.67 41.49 33.85 41.15 46.01 46.46 50.21 51.74 51.27 49.73 46.66 44.33 42.68 40.84 34.21 33.67 33.85 39.67 34.32 38.32 36.13 39.38 39.25 37.81 37.09 40.95 42.35 42.39 43.13 40.73 38.23 37.46 36.26 36.72
46.92 46.81 46.89 47.14 47.77 47.81 48.18 48.34 48.54 48.74 48.92 49.16 49.18 49.25 49.38 50.13 49.88 49.95 49.65 50.06 49.52 46.48 35.99 37.81 44.08 46.33 46.33 49.18 49.80 48.41 46.95 44.81 42.58 36.39 33.85 34.94 36.72 37.33 37.23 36.35 34.94 40.63 39.32 36.42 35.80 42.14 42.09 39.73 39.47 38.64 36.11 35.25 36.22 36.68
46.67 46.58 46.60 46.72 46.96 47.46 47.81 47.93 48.11 48.47 48.56 48.87 49.18 49.42 49.34 49.53 50.63 51.42 45.83 48.95 50.91 49.93 38.92 34.21 42.02 41.64 42.75 45.44 46.79 46.80 46.80 44.95 43.70 39.53 35.48 38.64 42.67 39.78 32.94 33.03 40.08 42.60 44.32 44.95 42.33 44.11 40.66 38.77 37.57 37.50 35.84 36.84 36.89 36.73
46.26 46.37 46.63 46.53 46.65 47.34 47.41 47.75 47.95 48.25 48.47 48.58 48.82 49.03 49.16 49.37 51.44 48.33 45.75 45.91 49.92 49.93 37.47 35.84 35.96 38.24 40.15 41.19 41.29 42.18 44.34 45.70 44.52 39.07 35.45 37.23 37.57 40.40 32.94 33.70 40.62 41.31 40.87 38.44 40.18 40.48 37.28 38.06 35.88 37.65 36.04 35.84 36.11 35.23
45.82 46.03 46.11 46.17 46.35 46.85 46.88 46.92 47.62 48.15 48.53 48.93 48.95 49.07 49.63 49.11 48.27 46.97 46.65 47.97 50.00 45.10 40.01 33.85 35.30 35.15 39.68 35.40 35.64 39.71 37.28 38.56 38.20 38.53 35.07 35.64 36.56 34.92 33.62 36.34 34.77 36.56 34.76 33.99 34.29 36.03 35.58 35.91 35.91 35.93 36.69 35.94 34.09 33.59
45.26 45.21 45.30 45.90 46.13 46.53 46.78 46.88 47.21 47.91 48.47 48.71 49.00 48.89 47.64 45.46 41.97 43.71 46.89 46.87 45.98 44.49 34.57 32.94 33.67 33.30 40.64 37.16 36.35 35.83 36.94 33.30 36.32 33.12 34.18 36.42 33.64 33.02 31.99 32.14 32.32 33.81 34.85 32.75 34.41 35.02 34.81 33.81 34.13 34.69 34.63 34.01 32.81 32.73
45.33 44.98 44.95 45.54 45.38 46.10 46.74 46.76 46.87 47.37 47.66 48.05 46.99 42.78 34.74 39.09 46.49 46.36 42.78 38.15 36.16 34.57 34.21 33.12 35.70 34.19 40.11 34.03 33.12 34.39 33.30 32.58 32.03 33.74 35.54 32.94 33.09 32.27 33.65 34.38 34.34 34.46 35.37 36.04 32.91 31.06 32.20 32.01 32.41 32.92 32.31 32.73 32.58 32.25
45.62 45.55 44.98 45.65 45.70 46.42 46.58 46.67 46.59 46.89 46.42 42.82 36.90 34.56 41.61 46.00 42.40 36.95 33.30 33.29 32.56 31.85 32.53 33.76 33.74 33.97 37.58 34.12 33.30 34.03 32.58 32.58 28.74 28.85 31.86 31.09 29.96 30.42 33.46 33.74 34.69 34.78 35.86 36.13 36.23 35.72 34.86 33.34 31.61 31.33 31.55 32.20 31.89 31.27
46.05 45.73 45.12 45.70 45.86 45.61 46.43 46.15 45.72 44.29 42.86 42.75 41.75 42.91 40.50 36.80 33.65 32.38 31.45 31.43 31.61 31.16 32.87 32.85 33.23 35.34 33.64 36.85 33.85 32.22 31.61 30.69 25.11 29.34 28.24 24.58 28.59 32.31 33.44 33.38 34.18 34.70 34.34 33.80 33.74 32.27 32.10 31.64 31.91 31.23 30.77 30.72 30.29 30.29
45.68 45.05 45.09 45.32 45.86 45.41 45.60 45.47 45.38 45.00 43.11 41.15 36.94 32.94 32.93 31.46 30.47 29.24 26.46 26.88 28.77 31.48 32.88 32.90 32.01 32.75 33.45 34.00 31.60 31.60 27.49 25.76 29.02 24.79 23.78 25.83 30.71 33.50 34.17 34.45 32.58 32.80 32.18 29.88 31.70 32.11 31.96 31.48 30.81 28.49 28.44 29.10 28.05 28.27
45.13 44.85 45.03 45.24 44.67 44.99 45.27 44.80 42.92 41.11 38.20 32.90 33.09 28.91 28.63 27.42 26.91 25.88 26.77 27.88 31.09 32.35 32.76 32.85 31.00 31.19 30.10 30.13 28.42 25.90 26.07 26.61 23.70 19.52 21.04 27.52 32.03 33.36 33.20 31.76 30.98 31.13 27.43 26.67 29.15 30.28 28.77 27.67 27.84 27.38 25.31 26.31 25.50 26.61
44.86 44.90 45.33 44.48 44.13 44.17 43.74 42.65 41.76 38.02 33.27 27.20 28.52 24.50 24.75 27.03 29.54 30.70 32.38 32.76 32.70 33.48 32.61 30.70 28.78 28.25 26.61 25.99 27.07 25.05 23.16 20.47 21.79 21.10 24.39 30.50 31.61 30.83 30.66 31.17 31.16 28.39 25.84 26.21 30.39 28.49 26.63 26.34 26.13 27.01 28.27 27.80 28.19 26.25
44.98 44.42 42.57 43.94 43.83 43.04 42.14 41.16 37.76 35.64 29.75 26.70 25.12 24.32 26.85 27.92 28.00 30.69 31.82 31.85 32.81 31.03 30.07 28.08 22.17 23.54 22.91 23.68 22.33 21.69 19.45 16.96 21.37 23.02 27.34 29.36 29.84 30.22 30.50 29.94 29.91 29.92 29.58 29.88 30.20 29.29 29.08 26.97 25.98 28.80 28.83 27.78 26.74 26.19
43.61 40.24 43.77 43.26 41.96 40.89 40.46 35.95 33.60 27.93 26.78 22.94 22.63 26.20 24.78 23.61 26.87 27.00 31.89 32.04 33.14 31.33 25.06 22.62 18.76 19.54 21.05 18.34 18.79 22.12 18.30 22.19 24.61 26.00 26.86 28.85 29.53 29.61 29.95 29.54 27.40 27.98 29.41 30.01 30.15 30.00 29.73 29.53 26.83 25.47 26.36 29.66 30.07 29.84
40.42 43.13 42.93 43.03 41.70 40.03 36.78 32.22 27.92 27.03 23.66 24.39 22.48 24.91 27.92 27.09 22.97 22.49 28.88 30.50 32.06 26.71 24.86 22.75 22.89 15.91 15.82 15.39 16.87 19.83 22.96 24.86 24.88 26.55 28.40 29.42 30.30 30.07 29.88 29.48 30.25 30.21 30.08 29.78 28.52 28.30 27.90 25.90 27.80 29.63 29.61 30.12 29.65 30.11
42.44 42.45 42.94 42.53 40.03 34.15 30.66 30.29 29.54 22.64 22.28 23.78 24.03 24.23 23.81 23.94 24.58 26.30 28.10 28.83 31.69 30.96 25.07 21.62 16.16 18.05 18.50 20.67 20.72 20.78 21.05 22.82 26.21 28.10 28.48 29.41 29.39 29.02 28.76 29.45 29.16 29.71 29.65 29.16 29.92 29.88 29.87 29.31 29.66 29.76 29.87 29.57 28.58 29.91
42.30 41.16 40.48 39.79 37.74 29.17 25.12 27.93 29.05 25.13 23.03 24.99 24.51 24.00 23.58 24.74 26.68 26.76 27.85 27.93 31.07 27.21 26.83 24.41 21.63 22.47 22.57 24.20 25.11 25.51 25.78 25.84 25.29 25.17 27.13 27.73 28.86 28.84 29.26 29.85 30.02 30.69 30.14 29.49 28.67 23.59 27.79 28.84 29.69 30.51 30.25 29.42 29.38 29.91
38.61 38.68 37.89 36.09 30.55 28.76 25.40 22.88 22.05 23.47 24.97 23.18 23.87 23.86 21.14 25.68 25.74 25.68 23.67 26.52 29.26 27.23 25.45 26.35 25.47 27.10 27.40 27.34 28.21 28.25 27.96 28.23 27.15 26.98 26.85 27.23 29.35 28.85 29.54 29.97 30.00 29.16 27.67 27.43 26.60 27.26 23.86 27.51 29.59 30.63 30.68 30.25 31.00 32.23
37.13 38.35 31.88 31.24 25.45 23.50 22.93 24.61 23.53 23.11 20.85 19.99 18.83 19.42 13.26 13.05 19.85 23.47 26.00 26.64 26.37 25.75 26.59 26.11 27.61 28.61 28.23 28.22 29.03 29.21 29.87 29.52 29.42 28.73 25.97 26.64 26.43 27.33 27.58 28.53 26.89 27.40 26.22 26.22 26.73 27.37 28.25 29.23 29.75 30.83 30.57 30.81 32.02 31.65
35.86 32.62 24.90 21.43 18.99 16.90 18.83 24.05 17.82 20.67 15.17 14.37 14.64 14.56 11.74 10.67 15.49 24.96 22.64 25.50 24.88 26.71 28.30 28.18 28.89 29.60 29.09 29.80 28.71 29.20 29.35 28.84 28.09 27.93 27.41 27.62 28.24 28.34 27.55 27.85 27.35 25.71 25.67 27.93 27.75 27.68 28.09 26.95 27.88 28.62 30.17 31.57 29.65 29.34
31.82 23.53 16.93 13.25 12.76 14.24 12.93 13.43 20.27 15.29 12.01 11.47 10.85 10.42 13.03 13.54 20.63 20.47 19.08 18.31 22.73 25.01 26.21 28.23 28.23 27.26 26.90 27.30 26.61 27.92 28.90 28.47 28.09 27.03 27.13 26.20 26.45 27.85 27.88 27.79 26.29 26.43 27.68 29.26 28.17 27.19 27.27 28.23 28.11 28.30 27.79 27.49 28.28 28.79
22.58 18.28 14.91 17.47 20.48 13.93 7.66 19.02 19.91 20.04 9.56 9.35 13.00 10.43 9.18 13.94 10.45 15.13 16.51 18.75 18.52 20.18 22.55 23.29 23.84 26.09 25.00 24.79 24.12 25.26 25.76 27.42 26.83 26.40 28.40 26.12 26.51 25.63 26.98 26.54 26.54 28.24 30.46 28.93 26.95 28.60 28.61 28.47 28.13 28.20 28.25 27.80 27.59 27.52
10.30 18.91 12.07 7.51 17.37 10.23 11.31 11.72 13.70 15.49 12.09 8.65 12.64 7.65 3.27 5.22 7.23 11.72 15.96 18.55 17.49 20.28 18.11 19.41 21.56 20.69 22.40 24.77 24.82 25.05 27.53 27.05 26.27 25.13 26.98 27.28 26.57 25.98 25.18 26.14 27.53 27.70 27.89 28.02 27.60 27.02 27.03 27.29 27.49 27.51 26.57 26.83 26.14 26.11
14.58 18.14 21.73 21.47 19.34 14.85 6.56 5.80 9.90 5.44 9.92 8.83 6.76 3.21 4.85 6.53 7.36 15.77 20.43 21.60 22.97 23.69 24.30 24.76 25.02 24.81 26.20 27.07 25.65 25.78 24.97 24.19 26.11 27.64 26.31 28.24 29.02 29.97 29.93 28.13 27.31 27.53 27.64 27.06 27.56 27.08 25.99 26.60 25.50 25.14 24.60 25.50 25.47 25.81
12.18 18.39 14.18 20.43 17.94 13.28 5.47 1.76 5.57 11.55 9.48 13.46 9.43 8.13 9.63 10.72 14.00 20.31 21.62 23.35 23.05 24.66 25.88 25.79 25.07 25.12 25.21 25.24 24.25 23.56 24.75 22.62 25.07 26.76 26.76 26.77 23.38 22.61 23.19 24.40 25.65 25.01 26.53 27.97 28.29 25.39 23.58 21.36 21.79 23.31 23.76 23.22 23.61 24.56
21.70 16.18 16.54 18.60 17.53 17.53 10.04 12.20 12.25 15.33 18.98 16.04 13.01 10.13 13.92 18.92 16.83 15.64 17.85 17.86 21.04 23.46 23.15 23.01 24.52 23.49 24.45 24.14 22.64 25.59 25.69 26.74 26.93 25.09 23.33 23.64 21.60 22.12 19.80 20.89 22.74 26.05 27.06 25.42 25.32 25.37 23.54 22.39 21.48 20.42 19.63 18.52 18.89 18.54
20.85 21.33 15.11 14.99 11.73 11.43 15.45 17.08 13.51 12.02 15.29 17.41 17.62 18.20 18.77 13.48 13.93 14.02 13.64 13.42 13.07 13.17 15.12 16.14 17.74 17.73 18.32 17.49 17.51 19.94 18.34 18.00 18.00 19.68 20.53 19.40 17.95 16.67 17.08 17.55 18.07 19.15 20.55 20.96 22.04 20.38 19.05 16.94 16.20 15.75 14.36 13.16 12.81 12.62
14.93 14.67 13.14 11.19 8.90 10.91 9.18 1.53 -0.31 1.76 1.73 8.15 5.55 14.66 14.92 10.19 11.91 12.79 11.84 12.42 12.98 12.19 11.08 10.25 11.79 13.72 13.94 14.10 14.70 15.63 17.78 17.81 17.76 17.33 17.13 16.44 15.54 15.01 14.33 13.75 13.88 14.00 14.82 19.18 18.20 14.84 12.80 10.09 9.69 11.05 9.63 7.96 7.22 6.85
17.89 16.92 10.10 13.50 8.20 4.61 -0.11 1.03 -2.05 4.04 -0.24 1.11 4.21 -0.80 4.09 7.21 4.03 7.90 11.06 9.95 9.13 7.67 8.29 9.79 9.35 10.99 14.45 17.57 17.41 16.49 16.09 15.57 14.97 15.35 14.57 13.72 13.03 11.92 10.87 9.60 7.66 8.34 10.10 8.80 7.87 6.74 5.25 5.45 5.84 5.51 5.30 4.39 3.83 3.28
-5.58 4.15 3.10 -2.44 2.88 4.32 0.66 3.16 1.86 3.42 0.22 -1.64 -2.33 6.27 -3.13 0.39 -1.57 4.68 7.59 11.10 10.10 8.82 7.47 8.87 11.05 15.42 14.15 13.21 12.32 12.50 12.60 12.32 12.28 11.03 10.26 10.76 7.36 5.75 5.48 3.52 3.04 3.75 5.43 5.14 3.94 4.01 3.12 2.69 2.12 1.58 0.86 -0.00 -0.21 -0.76

GFSWCAN_sfc_wetblb_027.txt.gz
Wetbulb
50.45 50.05 49.77 49.44 49.35 49.35 49.80 50.07 50.22 50.31 49.09 51.42 51.66 51.13 50.58 50.56 51.11 58.66 59.13 60.25 58.86 53.80 53.42 54.43 53.89 52.61 52.82 53.19 49.63 51.87 50.31 50.47 49.17 38.24 36.97 40.46 37.67 42.78 40.81 42.35 39.47 36.98 35.14 33.78 35.88 32.32 29.95 46.07 45.03 38.84 43.96 47.86 45.63 45.28
48.70 49.44 49.16 49.05 48.80 49.03 49.44 49.62 49.88 50.03 50.61 51.13 51.39 51.26 50.89 50.57 50.83 53.12 58.61 59.94 60.49 57.00 55.00 57.44 57.21 57.09 56.45 55.83 54.71 53.23 50.62 50.77 51.17 46.65 41.53 42.57 39.25 38.50 40.10 37.48 45.20 38.33 42.14 39.28 40.00 40.31 47.32 48.04 46.48 47.87 48.70 45.57 43.89 39.82
47.70 48.10 48.88 48.57 48.46 48.67 49.06 49.14 49.25 49.59 50.08 50.39 50.94 51.46 51.20 50.75 50.99 54.15 59.58 59.82 59.84 54.41 54.38 54.95 53.72 56.24 58.53 58.60 59.22 52.82 53.92 53.33 52.86 54.85 49.63 43.86 35.70 44.36 35.16 40.11 42.49 45.07 47.54 42.55 41.98 44.50 45.13 46.32 48.23 47.31 45.98 43.32 41.60 41.44
47.09 47.29 47.74 48.81 48.25 48.23 48.44 48.55 48.55 48.82 49.20 49.90 50.32 51.03 51.39 50.75 51.56 54.32 59.08 59.44 57.97 51.54 39.51 51.46 54.12 54.14 55.78 58.02 58.02 57.88 55.48 55.25 55.02 53.65 40.93 39.51 37.88 48.62 44.00 44.91 43.64 45.71 46.50 43.60 42.38 45.47 45.70 44.60 43.28 42.17 41.11 40.14 39.31 40.37
46.73 46.78 46.87 47.41 48.16 48.21 47.96 48.12 48.15 48.57 48.89 49.36 49.86 50.57 51.20 51.46 52.50 58.50 60.07 59.34 59.09 55.39 45.59 50.46 52.62 52.78 54.03 55.36 55.79 56.04 55.16 53.77 52.02 43.14 38.24 40.45 49.15 47.75 46.76 45.31 42.41 46.62 44.43 41.91 39.20 43.72 43.45 41.14 41.17 40.32 38.40 39.30 40.05 40.02
46.43 46.57 46.69 46.82 47.14 47.83 48.07 47.65 47.87 48.12 48.57 49.14 49.43 50.21 50.55 50.56 51.74 59.39 54.71 59.37 59.65 59.04 50.64 43.10 52.29 50.17 51.91 53.52 54.08 53.93 54.68 52.78 52.72 48.12 42.20 49.20 49.94 47.00 36.25 37.98 44.84 47.45 48.42 47.02 45.21 43.15 40.92 39.84 39.35 39.03 39.64 40.27 41.23 41.17
46.18 46.41 46.59 46.45 46.77 47.14 47.63 47.54 47.47 47.87 48.28 48.66 48.93 49.31 49.74 49.98 58.54 54.19 51.90 54.47 52.39 59.65 48.03 40.24 45.41 48.91 49.12 51.51 52.06 51.86 50.94 50.40 50.12 49.46 44.97 46.91 47.27 46.78 39.33 37.12 44.81 45.17 44.41 43.98 43.83 42.14 37.17 37.38 39.17 41.51 41.22 41.94 41.36 40.21
45.74 45.79 45.98 46.21 46.36 46.64 47.16 46.98 47.38 47.72 48.30 48.57 48.66 48.37 48.26 48.19 49.74 53.90 55.10 52.01 54.08 54.01 51.12 35.70 40.77 44.14 48.03 44.87 42.74 47.53 45.52 46.41 47.48 46.96 42.53 43.16 46.24 44.10 36.96 42.87 44.91 43.61 41.07 39.98 41.33 43.45 43.35 43.15 41.75 41.40 40.76 39.99 38.28 38.00
45.67 45.45 45.61 45.59 45.89 46.46 46.89 47.04 47.22 47.99 48.19 48.43 48.19 48.73 51.20 49.40 47.43 53.75 47.59 51.15 55.25 52.92 38.60 35.16 35.89 35.52 46.97 42.76 42.82 43.20 45.53 37.70 43.12 36.43 38.16 40.81 37.88 36.54 41.34 42.27 40.00 39.28 38.75 39.14 41.18 41.51 40.27 38.12 37.79 38.35 38.50 38.05 36.94 36.76
45.46 45.35 45.29 45.61 45.87 46.52 46.46 47.00 46.93 47.40 48.08 48.28 49.59 46.51 36.97 42.20 47.18 48.10 49.81 43.68 41.82 43.32 40.60 37.15 46.15 39.28 45.16 40.64 38.23 38.49 40.60 37.70 34.07 37.19 38.76 33.35 34.04 36.70 40.36 41.41 41.69 40.61 41.05 41.30 39.13 35.90 36.43 35.70 36.53 36.99 36.75 37.75 37.14 36.41
45.95 45.51 45.32 45.96 46.14 46.66 46.41 46.24 46.98 47.61 47.94 44.20 38.23 35.52 43.66 46.44 45.07 39.76 34.98 35.89 35.34 33.53 35.89 40.03 42.11 40.07 43.38 38.69 36.61 39.87 34.62 34.98 32.80 35.98 35.74 35.28 35.07 39.02 40.22 39.30 40.04 40.94 40.99 39.05 39.38 38.69 38.20 37.58 36.71 36.51 36.82 36.98 36.57 35.98
46.13 46.01 45.49 45.91 45.87 46.43 46.07 46.00 46.09 45.60 43.90 42.91 42.20 43.34 41.69 38.51 34.07 35.34 33.53 32.99 33.71 35.28 34.72 34.00 35.07 37.58 36.25 40.59 34.75 32.99 33.71 33.71 32.14 39.17 33.08 30.32 38.14 39.98 40.07 39.31 39.55 39.70 39.21 38.23 38.34 37.18 37.67 37.45 37.90 37.23 36.70 35.93 35.70 35.20
45.74 45.65 45.49 45.93 45.76 46.04 45.50 44.90 45.00 45.09 45.33 41.82 36.11 33.35 33.35 31.90 31.17 31.54 30.07 33.17 32.80 34.22 34.75 34.04 32.43 33.89 34.44 36.58 32.62 32.99 32.26 32.80 37.28 30.89 30.60 36.57 38.46 39.53 39.82 39.54 38.81 40.07 38.45 35.87 36.62 37.45 37.39 37.23 36.93 35.50 34.72 35.53 34.89 34.74
45.48 45.18 45.51 45.70 45.39 45.40 43.82 43.14 43.10 43.25 40.84 33.51 32.08 30.81 32.08 31.35 33.17 34.59 36.07 36.02 35.78 36.25 35.70 34.44 32.99 33.53 33.89 32.80 33.71 32.26 33.20 34.42 29.38 27.00 30.14 37.24 38.04 39.30 39.79 39.71 38.88 37.83 36.20 34.96 35.73 35.99 35.52 35.84 35.42 35.47 34.07 34.12 33.20 32.86
44.96 45.15 45.35 44.97 44.25 43.95 43.04 41.95 41.42 42.40 38.74 33.17 33.35 30.27 31.29 32.77 34.07 34.07 34.44 35.89 35.82 37.52 37.88 36.23 36.07 37.89 34.25 32.08 34.55 31.90 28.82 27.92 29.81 31.54 36.00 38.93 39.17 38.67 38.50 37.92 37.51 36.47 35.55 34.56 36.23 35.20 34.66 34.78 34.74 34.55 35.73 35.94 35.58 34.04
45.02 45.04 45.34 44.61 44.79 43.00 42.28 41.93 41.41 41.37 36.59 34.62 33.35 31.72 32.99 32.80 32.08 32.80 33.17 32.99 36.78 37.38 38.28 37.82 34.25 32.44 31.35 33.12 29.90 29.68 28.74 27.57 32.83 36.73 39.40 39.62 38.40 37.75 37.46 36.65 35.87 36.22 35.45 35.29 35.55 35.37 35.39 35.52 34.19 35.10 36.04 34.88 33.60 32.99
44.68 42.84 44.05 43.34 42.88 42.66 42.74 40.77 39.39 34.13 33.71 34.24 31.60 34.98 34.25 34.25 33.17 33.71 35.89 35.51 37.11 35.87 32.62 33.81 30.27 29.11 30.90 29.66 27.98 32.31 31.29 34.14 37.32 38.23 38.96 38.42 36.54 36.23 36.48 36.29 35.01 35.12 35.13 35.62 35.78 35.75 35.73 35.99 36.00 35.00 33.20 35.76 36.48 36.49
43.53 44.59 43.52 42.16 43.09 41.86 40.05 40.18 37.64 36.41 30.58 32.98 32.90 32.77 33.65 35.07 34.44 34.07 35.64 36.07 35.78 33.52 33.73 30.26 31.59 27.94 27.55 26.76 30.07 34.92 35.90 37.67 38.40 37.87 36.59 36.31 36.89 37.23 37.05 36.23 36.30 35.98 35.71 35.80 35.81 35.42 35.09 34.92 34.66 35.23 35.93 36.19 36.09 35.77
44.01 44.45 43.25 43.23 42.91 41.47 38.39 37.30 38.71 31.94 31.91 33.50 32.33 33.17 33.49 33.00 33.32 34.81 35.06 36.81 36.83 36.97 34.95 32.78 30.05 28.14 29.45 32.35 33.76 36.11 37.06 36.74 35.50 35.71 36.87 37.61 37.40 36.24 35.65 35.90 35.42 35.02 35.13 35.22 35.53 36.00 36.94 36.57 36.36 36.28 36.42 35.93 34.04 33.57
41.93 40.68 40.14 41.01 42.32 38.58 35.20 35.72 39.77 34.40 32.50 33.01 34.79 33.59 33.02 32.02 31.97 32.40 33.71 36.47 36.36 36.04 32.94 30.61 30.78 33.92 34.81 35.70 36.63 36.89 37.19 37.39 36.21 34.52 34.70 36.04 37.22 36.42 35.66 35.77 35.75 36.43 36.34 36.43 36.81 34.24 36.69 36.47 37.26 36.88 36.00 33.81 32.61 32.43
39.19 39.01 39.15 40.24 37.78 36.95 35.35 34.98 33.50 34.15 33.10 32.65 33.63 34.70 31.17 32.52 31.32 31.39 32.34 35.39 34.21 32.51 30.67 33.71 35.81 37.26 38.35 37.72 37.89 38.16 37.06 37.02 35.19 35.05 34.28 33.96 36.51 36.72 36.58 36.87 37.03 36.83 36.36 36.65 37.25 36.57 35.98 36.99 37.22 35.69 34.04 32.44 32.12 31.69
36.95 39.01 36.48 38.15 33.70 34.26 33.24 33.33 33.87 34.21 33.88 32.43 32.47 34.47 31.45 30.06 29.85 30.31 31.98 31.04 30.70 33.39 35.14 35.51 36.15 36.38 36.01 35.78 36.56 37.24 37.44 37.14 37.21 36.29 33.31 34.34 34.21 35.10 35.66 36.75 36.72 36.54 37.10 38.01 37.12 36.62 36.96 36.27 35.36 34.49 33.71 32.80 32.72 32.85
36.90 36.26 34.99 36.04 32.11 32.46 28.21 35.10 31.08 30.74 29.07 29.41 31.59 29.77 29.60 30.13 29.76 30.56 28.29 31.27 33.01 36.20 36.91 36.48 36.36 36.81 36.23 36.83 36.26 36.46 36.71 35.79 35.42 35.88 36.36 36.56 37.09 37.40 37.06 37.35 37.78 36.66 36.40 36.50 37.35 36.46 34.95 33.93 33.75 32.58 32.99 32.61 32.08 32.06
35.34 31.79 30.08 29.59 31.10 26.25 30.93 28.59 30.95 29.58 29.98 28.80 28.07 25.67 26.91 29.45 27.98 27.50 26.48 31.11 34.32 36.21 34.57 34.46 35.75 34.88 35.69 34.92 34.38 35.29 36.19 37.04 36.36 36.41 37.20 36.20 35.56 36.23 37.14 36.71 37.31 37.71 36.87 35.68 35.42 34.13 34.67 32.80 32.37 32.47 32.08 31.29 31.20 31.18
29.67 26.12 28.60 23.85 28.16 26.59 25.93 26.24 25.29 27.49 24.22 25.60 25.40 25.56 26.30 28.13 25.97 25.14 25.88 31.23 34.27 33.78 33.32 35.06 35.06 35.00 33.62 34.43 35.30 35.67 37.19 36.61 34.94 34.39 36.89 37.88 37.10 36.91 35.94 36.60 37.00 37.36 37.96 34.07 32.80 32.62 32.62 32.08 31.84 31.49 30.58 30.74 28.98 27.59
23.73 24.62 25.44 26.12 24.99 25.39 25.97 23.31 23.87 24.38 25.16 23.85 25.08 27.18 28.24 27.59 23.59 23.84 27.93 31.01 31.50 30.46 30.49 31.04 31.88 32.22 32.98 34.19 32.87 33.32 34.27 35.82 34.63 33.17 34.90 36.36 34.88 34.36 33.78 33.36 33.81 35.29 37.62 35.05 33.17 30.98 29.82 29.42 28.52 28.07 28.58 28.76 28.34 27.51
22.98 23.37 26.96 28.40 28.14 26.71 25.51 26.41 27.65 26.57 23.17 23.14 26.06 24.63 25.25 21.48 22.66 27.61 29.23 25.42 27.14 27.23 27.99 29.29 28.59 28.43 27.91 28.90 29.38 29.18 29.92 29.86 29.60 29.27 31.23 32.10 32.83 33.55 32.70 30.95 30.92 32.73 33.53 32.93 32.08 30.99 29.60 28.17 27.51 27.66 27.46 27.98 28.29 27.49
26.50 26.58 22.92 25.58 26.45 28.49 24.74 25.55 24.51 24.03 26.24 28.81 28.19 23.21 22.32 23.46 25.12 24.46 23.34 23.89 24.99 26.60 27.40 27.67 27.53 25.71 25.73 25.08 25.71 26.11 25.88 26.38 27.85 29.40 31.16 33.25 33.16 27.48 27.46 28.38 29.46 28.53 30.31 31.35 30.81 30.27 29.53 28.50 27.59 27.38 27.12 26.42 26.17 26.49
26.02 27.99 27.13 22.07 24.42 26.23 26.90 26.82 27.29 29.79 31.28 29.58 27.63 26.65 27.60 22.62 21.38 21.43 21.46 22.74 24.60 24.10 22.58 21.73 22.57 23.67 24.40 24.49 25.20 25.27 23.48 22.25 19.88 17.64 18.14 20.76 21.42 22.00 24.27 24.48 25.10 25.76 26.30 26.89 27.85 28.06 26.83 26.32 25.94 25.46 24.83 24.42 23.83 24.09
25.01 28.92 26.17 23.59 22.36 24.08 29.79 31.87 30.99 31.51 32.29 32.98 32.65 28.84 23.41 19.78 18.76 21.40 21.48 21.00 19.88 19.09 19.74 20.38 20.70 20.38 19.36 19.07 19.30 20.44 23.11 20.90 18.48 16.57 15.01 15.40 17.43 20.84 21.16 20.77 20.43 21.08 21.94 23.63 24.74 25.83 26.55 25.50 25.19 25.14 22.58 21.26 20.61 20.04
27.47 27.63 26.54 27.28 26.34 28.64 28.21 28.27 29.18 29.40 30.07 30.75 29.08 29.31 23.49 18.55 17.89 18.36 18.16 19.09 19.17 18.93 17.70 17.08 17.63 18.78 17.30 16.67 16.33 15.63 15.48 19.36 17.53 16.91 16.10 16.26 17.36 17.79 17.42 17.21 18.57 18.71 19.70 20.87 21.44 22.01 20.76 22.12 21.61 20.14 18.43 16.46 14.91 14.84
26.84 24.88 25.50 22.68 25.97 27.62 28.80 28.27 28.59 28.41 28.84 27.21 26.14 24.30 20.85 20.44 16.12 16.06 16.64 17.58 16.96 15.17 13.83 14.37 14.13 14.39 16.00 17.48 18.06 18.09 15.95 16.67 16.79 15.74 14.91 13.16 14.11 14.41 14.37 14.86 16.04 16.21 17.20 17.97 19.74 19.31 18.54 18.13 17.54 16.71 16.01 13.17 11.35 10.64
23.48 24.24 23.08 23.31 24.37 23.47 25.90 24.12 23.65 22.53 24.29 23.60 21.56 20.47 18.94 18.85 12.74 15.31 17.60 17.54 15.46 13.82 13.19 13.97 15.06 15.97 16.35 15.92 15.95 17.15 16.07 16.17 15.71 15.16 14.32 12.42 11.05 11.11 10.92 12.36 10.70 10.60 13.24 15.61 16.46 16.20 14.90 13.79 13.22 11.95 10.12 8.57 7.17 5.89

GFSWCAN_sfc_wetblb_030.txt.gz
Wetbulb
50.43 49.90 49.72 49.40 49.32 49.45 49.77 49.65 50.49 48.86 49.38 51.82 51.72 51.08 50.62 50.69 51.41 57.72 59.40 62.25 59.99 54.31 54.29 56.04 55.72 53.97 53.59 54.42 50.16 51.77 50.05 51.49 49.62 36.88 35.79 39.61 37.78 43.40 41.76 42.88 37.81 35.39 34.09 32.80 34.99 32.56 29.76 46.57 45.46 38.23 44.06 47.12 45.33 43.98
49.74 49.47 49.31 48.93 48.90 49.11 49.53 49.89 50.08 49.82 51.00 51.72 52.23 51.38 50.89 50.74 51.22 52.96 58.11 60.83 62.06 57.42 55.20 59.14 57.81 57.71 57.14 56.56 54.35 54.18 51.02 50.86 50.59 45.03 41.70 43.67 37.92 37.72 39.30 38.70 45.28 39.39 42.60 40.45 39.21 38.08 47.04 48.11 46.11 47.75 47.47 43.95 42.99 42.04
48.46 48.78 48.78 48.49 48.61 48.93 49.15 49.26 49.52 49.97 50.51 51.20 52.11 52.11 51.35 51.19 51.81 53.95 59.97 60.42 61.06 57.13 54.28 54.81 53.63 56.77 59.01 58.56 60.27 52.61 55.79 54.05 53.04 54.88 47.44 42.33 33.62 43.81 34.44 40.16 42.92 44.89 47.34 44.12 43.62 45.01 45.93 46.18 46.75 45.76 44.52 42.79 42.44 42.09
47.23 47.74 48.39 48.24 48.29 48.52 48.70 48.76 48.83 49.54 50.13 50.50 51.18 52.61 52.04 51.50 52.23 53.88 59.27 60.33 58.36 51.74 38.15 51.77 55.58 54.97 57.02 58.72 58.62 58.53 56.10 57.01 55.92 52.41 40.26 37.60 36.33 48.06 43.77 44.08 43.89 46.25 46.59 43.70 42.93 45.80 46.94 44.59 44.14 42.80 41.77 41.47 40.95 41.23
46.82 46.69 47.07 47.94 48.13 48.15 48.26 48.40 48.24 48.54 49.42 49.93 50.39 51.47 53.74 52.99 52.14 58.77 60.33 59.91 59.91 55.94 44.37 50.96 53.71 53.98 55.10 56.23 56.41 56.68 55.86 53.92 51.45 41.41 36.52 39.12 49.07 47.87 48.29 45.53 42.81 46.15 43.47 41.33 40.24 45.69 45.21 42.94 41.63 41.69 41.17 40.25 40.97 40.23
46.40 46.42 46.44 46.76 47.70 48.35 47.90 47.63 47.81 48.30 48.69 49.28 49.75 50.84 50.90 50.96 50.46 59.21 54.01 58.96 59.47 59.35 49.33 40.65 52.79 50.97 52.74 54.13 54.65 54.27 54.44 53.91 53.30 46.67 41.99 48.31 51.25 47.98 37.24 38.42 44.38 46.34 47.96 47.60 45.45 45.80 44.86 42.47 41.75 42.83 41.19 40.99 41.44 40.57
45.92 46.24 46.28 46.35 46.78 47.32 48.17 47.39 47.56 47.79 48.28 48.67 49.25 49.86 49.95 50.52 57.17 53.18 50.57 53.23 51.99 58.57 46.49 38.51 45.63 49.20 50.31 52.54 52.48 51.58 52.16 51.15 51.04 49.10 44.44 46.53 47.90 47.37 36.88 36.43 43.65 46.28 46.93 46.43 45.16 43.01 39.02 39.54 40.45 42.22 42.18 42.00 41.28 39.93
45.68 45.87 45.82 46.06 46.46 46.69 47.03 47.37 47.61 47.74 48.15 48.48 48.48 48.49 48.31 47.57 49.24 53.28 53.75 52.21 53.68 53.98 50.98 35.61 41.26 44.91 48.94 46.51 43.44 48.09 45.52 47.00 48.52 46.57 43.18 42.46 46.81 42.61 37.23 43.01 45.25 46.64 43.98 44.19 43.68 44.10 43.89 43.42 43.16 41.68 41.41 39.52 37.96 37.41
45.34 45.31 45.51 45.80 46.35 46.65 46.56 47.23 47.46 48.04 47.88 48.17 48.08 48.97 52.44 51.85 52.11 53.58 48.09 50.26 57.51 53.50 37.78 35.25 36.15 35.61 47.91 43.20 43.16 43.52 45.91 35.79 43.19 37.42 38.94 42.55 37.60 35.86 40.82 43.06 45.19 42.55 41.24 41.34 42.49 42.02 41.54 39.70 38.77 38.51 38.32 37.78 36.47 36.04
45.08 45.04 45.48 45.63 46.10 45.98 46.28 46.80 46.91 47.79 47.86 48.37 50.50 46.74 37.24 43.91 47.39 48.02 52.61 47.83 44.98 43.59 41.23 36.33 45.83 39.52 44.89 40.40 37.92 38.15 39.60 36.33 33.80 37.28 39.70 33.80 34.64 42.40 43.65 44.09 44.68 42.43 42.12 42.13 38.91 36.99 37.06 36.34 36.67 36.85 36.81 37.37 36.91 35.85
45.79 45.34 45.59 45.97 46.37 46.46 46.17 46.76 47.12 47.50 47.63 45.19 39.05 35.25 42.97 46.49 48.26 42.41 37.60 36.52 37.24 34.88 38.49 41.07 44.64 39.40 45.10 38.02 35.97 39.60 34.34 35.43 32.71 36.51 35.86 33.98 33.61 39.82 42.59 41.03 42.65 42.48 42.57 41.53 40.92 39.71 38.93 37.68 36.69 36.40 36.72 37.37 36.13 35.40
46.21 45.61 45.92 45.94 46.03 45.54 45.85 46.22 46.43 45.51 43.99 43.00 42.42 43.63 41.68 37.91 34.51 35.61 33.80 33.62 33.62 35.73 35.33 34.61 36.66 41.09 38.82 43.84 36.48 34.16 33.80 33.62 32.14 38.55 33.43 31.29 37.93 40.24 40.36 40.09 40.67 41.34 40.44 39.38 39.19 37.80 37.80 37.40 37.39 37.03 36.28 35.36 34.65 34.27
45.52 45.34 45.73 45.62 45.19 44.47 44.80 45.08 44.90 44.67 44.75 41.85 36.80 35.07 34.34 31.80 30.84 31.80 30.52 32.15 33.24 33.22 34.37 33.78 32.50 34.33 35.05 36.77 32.71 32.35 31.62 31.98 37.09 32.09 30.16 34.92 39.08 40.34 40.54 40.25 39.72 40.35 36.77 36.39 37.02 37.36 37.03 36.44 35.78 34.63 33.31 34.30 32.53 33.51
45.43 45.19 45.42 45.45 44.58 43.42 43.18 43.83 44.47 44.39 40.49 33.54 31.80 30.67 31.80 31.26 32.35 32.88 33.07 33.43 35.07 35.61 34.34 34.16 32.69 33.62 32.53 32.17 32.17 31.62 32.71 34.61 29.91 28.33 29.76 36.38 38.66 39.85 40.36 40.41 39.08 38.06 32.55 34.54 36.28 36.03 34.18 34.09 33.84 32.56 32.05 32.17 30.45 31.76
45.63 45.57 44.76 44.52 43.82 42.99 42.82 42.87 43.00 44.80 39.11 32.89 33.07 30.50 31.21 32.89 33.62 33.43 33.43 34.29 34.66 35.91 35.05 33.62 33.42 34.26 32.53 31.62 32.71 32.14 29.30 28.37 30.42 30.76 34.60 38.01 39.83 39.43 38.41 38.32 37.86 35.93 32.78 33.18 36.30 33.26 31.45 31.77 32.71 33.38 34.01 34.04 34.35 31.88
45.33 45.11 44.91 43.65 43.10 43.03 43.19 43.59 42.30 42.73 37.39 35.07 33.25 31.97 33.25 32.71 31.98 32.35 32.71 32.53 35.37 35.03 36.14 36.33 32.53 31.80 31.26 32.53 30.45 30.10 29.50 28.15 32.51 35.97 38.50 39.28 38.33 38.43 38.16 36.25 35.31 35.43 34.97 35.00 35.09 34.50 33.75 32.11 31.44 34.47 35.18 33.55 32.53 32.51
44.16 44.20 44.51 44.28 43.39 42.63 42.57 40.83 39.06 34.34 34.96 32.53 32.51 34.16 34.70 32.89 32.35 32.71 33.98 33.62 36.87 34.88 32.17 34.34 30.84 27.81 32.11 30.06 28.75 32.48 30.93 33.81 37.70 38.37 37.85 37.94 36.75 37.11 36.75 35.66 33.42 33.70 34.87 35.29 35.25 34.75 34.86 34.94 33.54 33.26 32.41 34.41 34.75 34.33
43.86 44.59 43.31 42.52 42.98 42.51 42.73 41.86 38.76 36.69 31.43 34.46 33.73 33.55 34.55 35.88 34.16 34.16 35.96 37.54 37.29 34.62 35.36 30.74 33.00 29.07 28.51 26.72 29.67 35.03 36.30 37.07 38.57 38.76 37.77 36.94 37.06 36.73 37.36 36.68 36.91 36.47 35.49 34.81 33.92 34.45 34.28 32.62 33.14 34.00 35.09 35.50 34.32 34.17
44.64 45.07 42.66 42.55 43.74 41.83 38.15 37.84 40.25 32.32 32.79 33.68 33.43 34.21 34.13 33.81 34.35 35.14 35.43 36.58 37.15 37.81 36.18 33.09 30.46 28.59 30.82 33.35 35.74 37.35 38.64 38.02 35.57 35.83 36.32 36.95 36.89 36.04 35.27 35.62 34.68 35.03 34.64 34.27 34.56 34.75 35.25 35.47 35.66 36.06 35.85 35.70 34.70 33.84
40.93 40.75 41.27 42.09 42.65 36.82 34.02 36.15 40.92 35.23 32.79 33.77 35.10 33.73 33.20 32.24 32.85 32.69 33.80 36.12 36.69 35.43 33.22 31.14 31.31 35.28 35.77 35.72 35.78 36.59 37.47 37.59 36.34 34.93 34.71 36.19 37.35 36.81 36.48 36.00 35.43 35.93 35.66 35.43 35.36 33.62 35.69 35.78 36.41 36.11 36.05 34.63 32.18 31.12
39.53 39.26 39.57 40.85 37.68 37.17 35.25 35.42 34.31 35.22 34.32 33.14 34.30 34.80 30.52 32.67 31.49 32.38 33.07 36.18 33.07 32.91 30.82 34.66 37.63 38.34 38.68 38.40 38.38 38.11 37.11 37.19 35.52 35.82 34.51 33.73 36.10 36.56 36.16 36.54 36.47 36.14 35.34 35.62 35.33 35.26 34.45 34.85 35.96 36.39 33.06 32.17 32.35 32.66
37.97 39.45 35.56 37.68 34.87 33.96 34.18 35.87 34.44 35.65 33.82 32.10 32.73 34.71 30.03 29.51 29.49 30.42 33.08 32.34 31.88 33.29 35.12 36.29 36.45 37.10 36.98 36.63 37.41 38.00 37.85 37.58 37.50 36.37 33.42 34.30 34.54 34.83 35.41 36.30 36.17 35.33 35.69 35.61 35.22 34.53 34.90 36.06 36.19 34.88 33.07 32.35 32.78 32.18
37.13 35.96 34.51 33.62 31.80 31.74 28.97 35.82 31.86 32.39 28.40 29.60 32.28 29.00 28.43 29.08 29.83 31.57 28.89 31.67 33.39 36.64 37.38 37.20 36.93 37.61 36.78 37.68 36.49 36.76 36.89 36.27 35.52 35.89 36.33 36.42 36.89 37.10 36.84 36.46 36.64 34.81 33.92 35.36 36.49 36.18 34.70 33.43 33.93 32.88 32.71 32.44 32.08 31.24
36.02 32.33 31.08 31.26 32.21 26.94 31.93 29.23 31.53 30.09 31.11 29.59 28.62 26.35 28.04 28.61 29.28 28.30 27.40 31.52 34.27 36.11 35.16 35.43 36.20 35.28 36.57 35.99 35.05 35.96 36.13 36.67 36.00 36.19 36.47 35.10 34.15 34.69 36.09 35.67 35.95 35.87 35.56 35.40 35.08 34.62 33.80 32.53 32.15 31.95 31.56 30.94 30.33 30.05
30.28 27.65 29.69 25.39 29.79 27.58 26.33 26.52 27.25 27.77 25.36 27.40 26.16 26.34 26.71 28.85 26.29 25.63 25.89 30.77 29.91 29.76 30.59 33.06 35.13 35.19 33.67 34.32 34.81 34.75 34.35 33.08 31.99 31.48 33.59 34.29 33.68 33.46 33.34 34.04 34.06 35.12 35.39 33.61 32.88 32.71 32.35 31.44 31.37 30.53 29.63 29.04 29.05 28.61
25.17 26.87 27.68 27.18 26.93 27.21 27.29 24.34 25.19 25.92 26.42 25.56 26.57 27.80 28.98 27.24 24.23 23.69 27.72 28.68 26.64 25.94 26.49 27.16 27.83 29.44 30.46 30.03 28.93 28.07 27.74 29.34 28.33 26.34 28.25 28.85 28.22 28.02 27.99 28.26 28.59 29.82 28.22 30.37 31.44 31.98 31.38 31.23 29.89 28.84 28.53 28.97 28.98 28.48
24.05 24.44 27.93 30.05 29.65 28.61 27.19 28.65 29.26 27.30 24.60 24.18 26.76 25.48 25.35 21.47 22.64 26.32 26.43 25.30 25.53 25.42 27.45 28.12 27.29 26.19 25.27 25.79 25.69 25.90 26.98 26.49 24.79 24.64 26.97 28.91 28.58 26.03 24.97 22.81 22.54 24.61 27.69 28.63 29.52 29.66 29.33 29.39 28.84 28.15 28.13 28.55 28.60 27.94
27.18 28.11 23.11 26.68 27.60 29.27 25.73 26.16 25.27 24.84 26.74 29.66 28.36 23.66 23.05 24.06 23.54 23.58 23.09 24.25 24.89 26.04 26.93 26.76 25.53 24.42 23.99 23.67 24.60 25.40 24.36 23.95 23.83 24.67 25.60 28.54 27.67 25.44 23.13 23.60 23.72 23.62 24.30 24.88 25.65 26.77 27.79 27.62 26.56 27.11 27.54 26.44 25.90 25.81
26.81 29.09 28.17 23.91 26.58 27.37 27.36 27.02 27.47 29.83 31.81 30.84 27.86 26.83 26.18 22.19 22.16 22.26 21.93 23.22 24.77 24.23 22.30 21.54 22.11 23.88 23.63 23.87 24.60 24.99 22.10 19.89 16.15 13.22 13.14 15.00 16.38 17.82 20.35 20.95 20.41 20.79 21.30 21.26 22.41 24.52 25.15 25.58 24.75 24.71 24.67 24.35 24.18 24.15
25.73 29.91 27.03 25.16 24.16 25.68 28.37 31.01 30.77 30.77 32.80 32.44 32.23 27.05 23.18 19.74 20.09 22.91 22.55 21.64 20.30 19.50 20.39 20.85 21.15 20.33 18.45 18.17 17.79 18.88 21.91 20.02 17.33 14.46 11.67 11.26 12.97 16.15 17.31 17.17 16.09 17.33 18.60 18.86 19.67 21.05 23.69 22.73 24.36 25.68 22.88 20.64 18.59 19.08
28.16 28.35 27.08 27.81 26.44 28.04 28.02 28.71 29.19 29.22 30.08 30.62 30.17 27.66 20.43 17.68 18.41 19.55 19.15 20.57 20.62 19.68 18.25 17.12 17.34 18.08 15.84 15.21 15.57 14.72 14.33 17.60 17.25 16.85 15.45 15.60 15.15 14.62 14.10 13.86 14.41 15.74 15.58 15.84 16.98 18.69 19.87 19.07 20.88 20.49 18.07 15.69 14.17 13.48
26.93 25.45 25.65 24.22 25.89 27.48 28.50 27.57 27.87 27.47 28.81 26.76 26.58 23.25 21.69 20.96 17.60 17.32 17.59 19.16 18.09 15.89 14.30 15.06 13.85 14.13 15.93 16.92 17.24 17.14 17.37 16.98 16.49 16.01 14.78 14.79 13.25 13.05 12.56 11.83 12.69 12.70 11.07 10.97 14.05 17.22 17.26 16.17 16.30 13.75 13.96 10.99 9.54 8.68
24.72 25.78 24.42 25.00 25.03 24.35 26.50 25.71 24.45 23.65 25.03 24.22 23.40 22.00 19.55 19.17 15.08 15.85 18.65 18.91 16.56 14.86 13.90 14.06 14.82 15.60 16.36 15.83 13.95 16.17 14.76 14.91 14.54 16.10 15.11 14.31 11.71 11.23 10.68 11.02 11.52 9.26 7.58 7.84 11.59 14.62 12.37 11.31 10.12 9.97 7.96 6.66 4.85 3.15

GFSWCAN_sfc_wetblb_033.txt.gz
Wetbulb
50.17 49.82 49.43 49.25 49.24 49.34 48.39 48.62 49.34 49.02 49.37 52.02 51.15 50.56 50.39 50.59 51.43 56.11 54.06 57.06 55.02 47.70 49.80 53.37 53.45 50.02 51.40 49.40 40.34 45.93 41.84 41.94 37.28 32.73 28.16 31.16 31.05 33.31 33.19 38.52 33.05 28.84 26.67 28.85 30.18 24.99 22.43 43.92 43.00 33.68 37.99 42.19 41.39 40.21
49.65 49.32 49.00 48.84 48.79 49.07 48.50 49.53 48.93 48.82 50.49 51.80 51.58 50.84 50.78 50.85 51.22 52.52 52.91 56.80 57.58 52.86 50.71 54.16 53.38 53.78 53.72 53.10 49.37 47.46 43.65 46.66 44.60 36.88 35.79 34.39 33.65 34.22 32.61 28.52 40.97 31.76 35.59 31.38 32.36 30.63 39.76 43.15 42.29 43.26 43.53 40.60 40.57 41.04
49.17 49.02 48.68 48.58 48.65 48.98 49.37 49.56 49.63 50.01 50.75 51.17 52.69 51.43 50.88 51.11 51.74 53.44 54.81 56.07 54.88 47.31 49.33 50.10 49.14 52.93 55.04 54.76 55.95 46.27 46.01 50.21 48.35 48.11 39.89 39.45 33.18 35.57 28.39 31.36 34.96 39.94 44.01 34.81 36.55 40.75 41.73 42.48 42.56 43.01 42.60 40.32 40.86 41.16
48.48 48.42 48.47 48.33 48.33 48.54 48.92 49.02 49.20 49.63 50.08 50.67 51.62 52.08 51.25 50.87 51.31 54.47 54.52 55.74 51.62 46.69 35.89 46.08 53.03 50.95 54.32 55.08 55.12 54.28 52.22 51.49 49.58 44.34 37.27 36.25 32.85 41.92 32.85 35.88 35.10 39.30 42.65 39.42 36.67 40.23 41.49 41.91 41.50 40.73 40.56 40.55 39.65 41.36
46.84 47.60 47.70 47.79 48.02 48.38 48.47 48.69 48.71 49.04 49.69 50.16 50.81 51.80 50.54 50.76 50.91 56.11 55.87 55.70 55.45 50.87 38.41 39.94 50.51 51.30 52.76 53.41 53.52 53.77 52.01 49.34 43.14 37.85 34.24 34.55 36.17 37.41 34.67 36.67 33.65 43.25 39.92 32.88 31.73 42.01 40.86 39.66 40.35 40.59 38.46 38.42 39.73 38.42
46.55 46.64 47.11 47.69 47.69 48.03 48.21 48.10 48.19 48.42 48.80 49.39 49.81 50.66 50.83 50.70 50.66 55.80 49.87 54.18 53.24 54.94 41.61 37.21 48.20 47.45 49.61 50.63 51.21 50.44 50.84 48.99 46.59 40.19 36.17 41.64 47.12 39.24 32.73 31.05 41.28 44.27 44.61 44.35 42.41 42.01 41.26 40.26 39.87 40.95 41.22 40.69 39.56 37.84
46.10 46.37 46.57 46.80 47.56 48.01 48.12 47.47 47.76 48.14 48.61 48.97 49.26 49.69 49.30 49.46 51.31 49.24 46.54 50.04 48.70 52.29 39.87 34.96 39.94 44.56 46.86 48.71 47.25 47.48 47.38 45.90 45.26 39.22 37.15 38.38 40.34 40.64 33.50 32.85 40.40 43.37 44.09 42.79 41.67 40.22 37.11 37.79 38.15 42.37 41.70 41.03 39.18 37.32
45.72 46.13 46.33 46.50 46.64 47.16 47.61 47.43 47.61 47.78 48.43 48.57 48.63 48.71 48.08 47.98 49.27 50.17 49.97 50.07 50.13 46.82 42.33 33.70 35.28 36.51 45.98 38.56 37.12 43.48 39.31 42.58 43.12 39.97 38.39 36.74 38.06 35.07 32.94 39.76 42.59 43.81 42.42 41.25 41.19 42.31 41.18 41.25 41.58 41.21 40.96 36.95 35.32 33.80
45.45 45.65 45.90 45.79 46.08 46.28 46.71 47.85 48.14 48.17 48.50 48.36 48.69 50.31 50.68 48.46 46.73 48.95 48.13 48.26 51.63 46.93 33.97 34.62 32.67 31.01 43.98 39.58 37.60 38.05 41.39 33.88 39.40 34.06 35.51 38.35 34.22 34.62 38.84 40.71 41.23 40.68 40.05 40.49 42.17 43.02 41.80 40.79 37.38 36.09 35.68 34.84 33.15 32.52
45.13 45.62 45.71 45.76 46.02 45.94 46.35 47.16 47.61 48.14 48.19 48.89 50.21 46.33 37.14 42.38 46.88 48.85 47.34 41.83 38.92 37.32 36.78 35.52 38.43 35.77 40.86 35.15 34.24 35.31 34.40 33.33 32.41 34.31 38.61 32.96 33.87 38.56 41.17 41.26 40.54 39.70 41.47 41.48 38.65 36.38 36.10 34.90 34.07 34.15 34.25 34.15 33.13 32.20
45.54 45.85 45.85 45.35 45.62 46.48 46.66 46.96 47.38 47.79 47.66 46.19 39.48 35.52 42.24 46.59 44.93 38.95 34.60 34.59 34.96 34.80 35.31 38.41 37.42 37.27 40.85 33.89 33.66 34.75 32.77 32.77 31.08 32.66 33.65 31.94 31.87 36.44 39.42 39.07 40.19 41.25 41.86 41.62 39.61 37.43 36.58 34.86 33.56 33.01 33.07 32.45 30.70 30.18
45.80 45.91 45.51 44.94 45.11 45.66 46.48 46.51 46.34 44.64 43.40 43.28 42.52 43.17 41.33 37.92 34.95 35.33 33.68 33.14 33.48 34.12 33.80 34.03 34.75 37.69 35.13 39.72 34.19 32.77 32.71 32.71 29.24 35.64 32.23 29.00 32.90 36.75 37.34 38.15 40.15 41.32 40.00 37.76 37.55 35.34 34.74 34.86 34.30 31.82 30.53 29.99 30.41 29.64
45.30 45.46 45.28 44.16 44.37 45.16 45.25 45.07 44.87 44.70 44.47 41.69 37.30 35.16 34.62 32.05 32.41 32.80 32.12 31.82 32.23 32.55 33.78 33.15 32.59 33.30 33.86 35.08 32.41 32.40 31.28 30.76 33.74 31.28 27.34 29.83 36.96 38.18 38.05 37.83 36.12 35.18 33.44 33.39 35.27 35.45 34.86 33.94 32.76 29.73 29.23 30.16 26.30 29.30
45.01 45.00 45.24 43.85 43.20 43.39 43.90 44.39 44.43 43.37 39.82 33.65 32.43 30.11 31.46 29.97 30.72 30.15 31.28 32.03 32.96 32.77 32.96 32.94 32.02 32.55 32.22 32.38 32.00 30.48 31.08 31.60 28.69 24.28 22.68 33.51 37.32 38.08 37.86 37.54 35.66 33.06 29.71 31.31 31.39 31.80 30.05 29.77 28.63 27.00 25.83 26.72 23.18 27.44
45.05 44.80 44.54 43.90 43.40 43.54 43.81 43.86 44.04 42.67 36.93 32.37 32.74 28.84 29.23 30.92 31.84 32.02 32.55 32.76 33.09 34.18 33.48 32.56 32.37 32.71 31.48 30.35 31.29 29.76 27.38 26.42 28.12 27.96 30.95 34.22 35.62 34.77 34.47 35.03 32.73 30.16 26.23 28.44 31.07 28.35 25.40 24.62 26.81 28.95 29.31 29.43 30.17 27.29
45.02 45.07 42.14 43.45 43.90 43.90 43.87 42.74 40.52 39.00 33.75 32.97 32.44 29.98 31.64 31.82 31.49 31.90 31.88 31.88 33.48 33.14 33.50 33.12 31.29 31.28 29.23 30.18 27.77 28.09 27.32 25.87 28.88 31.29 34.05 34.66 34.71 34.48 33.78 32.24 31.34 31.89 30.74 30.56 30.48 30.88 30.37 26.99 25.32 30.03 30.73 28.35 27.11 26.63
44.44 42.49 44.43 43.96 43.40 41.79 43.18 39.03 34.91 33.57 31.78 32.46 30.35 33.70 32.77 32.22 31.69 32.08 32.44 32.20 34.66 32.94 31.10 31.66 28.39 26.05 30.00 27.37 26.78 30.92 28.12 30.32 32.19 32.13 33.87 33.38 33.05 32.59 31.72 31.84 29.73 31.20 31.23 31.35 31.37 31.52 31.26 31.58 27.82 27.20 27.83 31.25 30.64 30.73
42.60 43.18 44.33 43.77 42.41 42.13 39.85 38.21 32.80 29.43 27.28 32.16 31.63 31.27 31.93 32.74 32.22 32.43 32.97 33.14 32.19 29.85 29.92 27.62 30.19 26.71 25.63 24.17 26.84 30.16 30.43 31.35 31.79 32.06 32.14 32.92 33.07 32.70 33.96 32.37 34.07 32.75 31.54 31.07 30.43 30.48 30.62 26.73 28.99 30.23 30.80 31.79 30.01 28.89
43.53 42.24 42.64 42.53 42.35 38.25 33.56 31.69 34.46 27.44 30.57 29.13 31.18 31.54 31.53 31.64 31.99 32.58 32.96 32.20 32.11 32.60 30.73 28.23 26.24 24.87 26.24 28.87 29.67 29.92 30.21 30.25 30.43 31.03 31.39 32.47 32.56 32.58 32.67 32.85 32.01 31.20 30.93 30.61 30.74 29.91 30.26 31.38 30.80 31.16 30.70 29.33 26.40 28.70
41.15 41.16 41.18 41.80 42.07 34.30 31.52 29.52 35.59 29.23 26.73 29.90 31.44 30.57 30.38 29.58 31.07 32.06 32.59 32.59 30.16 30.78 28.56 26.10 26.62 29.14 29.33 30.04 30.67 30.09 32.29 32.52 30.35 28.65 29.30 30.81 31.39 31.84 31.61 31.58 30.85 31.52 30.89 31.40 30.93 27.91 29.94 29.65 30.04 29.62 28.98 28.70 28.99 28.38
40.03 39.38 39.90 39.94 36.46 35.45 32.85 31.68 30.62 31.48 29.75 29.77 31.37 28.10 28.54 30.35 29.99 30.50 31.64 30.89 29.80 23.82 25.72 27.96 27.92 30.40 32.56 31.78 32.73 32.52 31.92 31.72 29.96 29.16 28.24 28.13 30.90 29.67 30.65 30.56 31.13 30.08 29.04 29.22 27.98 29.80 27.94 29.45 30.63 30.58 29.53 24.09 25.92 24.15
37.84 38.99 33.95 35.50 32.76 32.07 28.53 31.64 31.80 30.66 30.81 30.02 30.36 30.54 27.58 27.22 27.31 28.41 30.77 25.81 24.06 26.59 29.12 28.11 30.43 30.59 31.03 31.47 32.36 32.95 32.44 32.35 31.98 30.31 28.68 27.92 27.94 28.27 28.85 29.03 27.78 27.18 27.72 28.23 29.30 31.03 30.10 29.62 30.71 29.48 30.30 31.72 30.52 27.59
37.21 36.11 32.58 31.87 29.95 28.17 24.18 30.99 27.94 29.15 25.32 27.53 29.66 27.17 26.67 27.33 28.01 27.63 26.71 25.96 26.71 29.98 30.21 31.30 32.29 32.54 30.98 32.06 31.27 31.38 31.38 30.85 28.30 29.08 29.87 28.94 27.70 28.04 29.08 29.41 28.27 26.57 27.66 29.37 28.71 29.05 29.03 27.08 27.73 30.31 31.68 29.05 22.26 24.12
36.43 31.73 29.06 29.98 30.68 25.56 27.08 24.11 26.63 25.62 24.17 23.58 26.12 21.83 25.27 26.46 23.68 21.10 19.05 22.17 28.70 28.86 29.27 29.56 30.56 29.57 30.35 30.95 28.52 27.28 27.43 28.14 27.46 27.31 28.32 27.61 27.02 27.60 27.46 27.22 28.28 27.92 27.45 28.14 28.74 28.87 29.43 30.89 32.26 30.92 28.89 23.89 19.16 16.17
29.62 26.96 28.28 24.91 27.21 26.31 22.19 19.16 21.01 23.31 20.45 21.45 19.17 18.23 21.36 24.36 18.77 17.25 16.93 26.09 25.58 23.62 25.30 27.34 27.30 28.35 25.70 25.45 26.19 25.26 26.00 24.74 23.10 22.34 24.42 24.15 22.69 23.10 23.87 25.31 25.70 25.66 24.47 23.42 23.29 24.37 26.18 28.91 31.59 28.83 22.64 20.41 24.74 21.82
25.14 26.78 24.96 24.75 25.68 23.03 20.46 15.18 18.41 19.74 21.01 18.86 19.63 22.94 21.96 18.25 14.90 13.70 23.67 23.36 24.24 24.57 25.16 25.29 23.00 22.74 23.48 23.78 21.70 21.72 22.92 23.63 21.67 19.49 21.39 23.34 23.79 20.20 18.42 17.28 16.98 18.00 20.46 22.01 21.13 20.32 21.02 23.75 26.56 26.51 20.40 20.38 24.11 25.13
22.82 23.74 25.74 28.13 28.28 26.41 22.07 23.29 25.32 23.29 17.77 14.48 18.97 15.11 13.58 8.63 8.88 20.89 23.90 23.65 23.80 25.09 26.70 25.66 23.25 21.92 21.61 21.58 22.49 24.56 23.07 20.01 17.75 19.58 21.34 24.51 22.06 19.64 17.45 15.28 14.58 16.90 18.71 19.37 18.38 18.18 18.81 20.00 23.38 22.75 23.02 24.27 25.81 24.88
23.79 22.66 17.60 23.14 23.02 25.12 18.98 21.57 20.80 21.58 21.12 24.01 20.27 12.09 10.41 11.24 17.04 21.47 22.06 23.55 24.17 25.63 25.10 22.91 22.21 22.38 22.06 22.52 22.56 20.91 13.39 12.16 14.04 14.45 15.11 19.67 17.89 13.22 14.22 14.81 15.87 16.56 14.38 16.13 16.27 17.42 18.27 19.10 20.08 21.03 22.17 22.40 22.54 21.54
25.62 27.89 26.26 20.68 22.12 23.16 22.24 21.34 21.01 25.39 27.98 24.39 16.36 15.86 20.01 19.63 18.62 20.96 20.26 22.18 22.77 22.70 19.44 18.69 14.26 14.69 14.59 14.81 12.37 15.49 13.62 6.76 7.10 3.94 2.02 4.11 6.65 8.38 12.16 12.54 12.01 11.10 11.49 13.26 14.03 15.77 17.41 18.10 20.44 19.53 21.16 20.47 18.75 15.07
24.48 28.24 24.53 21.13 18.03 21.39 25.86 28.15 28.12 28.38 26.55 25.64 24.43 21.31 19.15 17.86 17.21 19.70 19.22 17.63 14.33 12.35 16.98 13.33 12.85 8.92 4.06 3.86 4.92 6.38 10.47 9.91 3.33 3.40 1.44 0.34 7.12 10.59 9.39 9.28 9.22 8.77 9.72 10.02 8.68 9.58 13.66 17.26 18.98 20.61 17.02 14.37 14.92 10.95
27.06 27.40 25.32 24.17 24.33 25.77 26.46 26.94 27.55 27.52 28.18 28.06 27.49 21.57 16.05 12.85 12.88 12.51 11.83 15.32 16.68 7.05 6.55 4.65 4.50 3.64 2.02 1.55 3.93 1.80 2.37 3.04 4.26 8.83 7.90 4.34 7.93 3.35 2.54 6.98 7.00 7.81 8.54 6.09 5.40 6.91 7.93 13.87 15.62 14.17 10.94 9.83 8.97 6.48
26.13 24.43 23.58 16.45 22.52 23.04 26.94 25.62 25.74 25.40 26.16 24.53 21.77 17.57 11.22 10.35 6.27 8.58 6.79 10.48 9.32 4.17 2.84 1.84 0.68 2.33 2.51 6.00 3.47 0.58 11.32 5.48 1.21 2.93 8.21 7.93 4.75 5.07 4.80 4.25 6.22 6.89 3.28 3.07 4.94 5.29 9.79 10.04 9.86 8.44 7.20 5.24 4.00 2.76
21.27 19.11 18.50 15.36 14.33 14.69 15.69 14.87 13.91 12.43 12.99 12.16 14.64 13.30 9.10 7.46 4.12 6.97 9.56 7.35 5.07 2.13 1.52 1.00 0.78 1.31 4.93 4.60 -0.10 1.89 1.35 -0.53 2.35 11.71 7.98 10.56 5.12 3.23 2.46 5.18 7.25 4.48 0.40 2.23 3.57 7.87 7.27 6.47 3.99 2.92 1.51 0.30 -1.10 -2.16

GFSWCAN_sfc_wetblb_036.txt.gz
Wetbulb
50.04 49.70 49.35 49.01 48.98 48.85 48.30 48.82 49.23 49.31 49.43 50.73 50.31 49.96 49.85 50.41 50.96 52.75 52.63 54.43 52.25 44.72 49.13 51.46 51.40 48.07 47.70 44.52 38.97 43.69 40.54 39.43 36.27 29.18 24.20 26.04 28.75 30.70 31.34 36.01 32.19 29.71 26.12 23.16 23.37 16.90 22.36 40.79 41.04 33.97 36.71 40.57 40.54 39.28
49.55 49.01 48.77 48.47 48.32 48.18 47.92 48.52 48.28 49.46 50.68 51.05 50.22 49.98 49.89 50.44 50.66 53.13 50.24 54.90 55.08 50.04 49.36 51.69 52.00 52.24 52.50 50.84 47.04 44.07 41.36 42.72 40.28 34.57 31.66 35.12 32.49 34.48 30.51 27.90 38.12 30.94 33.12 29.98 31.90 30.64 37.50 41.36 39.93 41.87 42.20 39.40 39.27 38.75
48.76 48.63 48.43 48.21 48.02 47.69 47.87 47.84 47.58 49.68 50.14 51.14 50.62 50.19 50.04 50.47 51.40 53.88 52.73 53.28 51.04 44.30 47.18 48.51 48.04 52.23 53.52 53.02 53.31 44.36 43.32 48.27 45.80 41.98 37.47 32.61 28.29 33.94 29.48 30.77 34.07 38.25 41.51 33.75 34.55 38.72 40.59 40.80 41.44 41.99 41.52 39.56 40.51 41.33
48.48 48.35 48.35 48.17 48.19 48.46 48.89 49.04 49.19 49.53 49.83 50.30 50.57 49.76 49.94 50.26 51.65 53.59 52.53 52.63 48.09 43.60 35.39 44.53 51.68 49.45 53.03 53.65 53.76 51.89 50.02 48.11 45.30 41.45 36.77 36.29 30.26 38.36 29.89 33.08 33.28 36.51 40.64 37.41 35.02 39.39 40.32 40.59 39.99 40.30 40.12 41.00 41.01 41.15
48.15 47.96 47.94 47.99 47.90 48.32 48.84 48.97 48.99 49.05 49.38 49.85 50.12 50.20 50.01 50.30 51.78 54.23 53.01 51.64 52.01 45.18 38.91 37.75 48.32 50.44 50.94 52.20 52.29 51.55 49.63 46.42 40.74 36.47 33.75 33.68 33.81 35.38 30.23 34.12 32.10 41.41 38.59 33.16 32.99 40.41 38.85 38.28 39.65 39.81 39.62 39.46 40.00 39.00
47.38 47.58 47.40 47.58 47.78 47.99 48.28 48.43 48.59 48.47 48.65 48.99 49.80 49.93 49.40 49.66 52.32 51.81 46.77 52.01 50.84 49.83 40.55 33.99 45.38 45.68 47.48 50.66 50.01 49.53 49.53 46.81 42.93 38.55 34.76 39.31 44.17 36.14 32.85 32.67 39.64 43.39 43.88 43.13 40.85 41.48 39.88 39.38 39.90 41.54 40.32 40.08 40.86 37.14
46.30 46.95 47.29 47.38 47.53 47.71 47.74 47.87 48.01 48.14 48.36 48.79 48.83 47.94 48.03 49.65 49.62 47.06 43.02 48.71 48.68 48.06 38.22 35.02 33.69 42.98 45.52 47.14 44.73 45.00 45.13 43.93 43.56 37.20 35.00 36.06 37.88 38.97 32.64 31.33 39.23 42.02 42.81 41.54 41.10 39.70 36.92 37.56 38.31 42.30 42.08 39.60 36.93 34.81
46.03 46.21 46.32 46.97 47.33 47.11 47.08 47.56 47.94 48.31 48.51 48.86 48.84 48.09 48.00 49.46 49.51 47.76 48.45 48.54 48.07 43.08 38.54 33.12 36.04 34.81 43.41 36.28 36.46 40.77 36.80 39.05 40.13 39.50 35.91 32.68 36.04 34.42 33.32 38.42 40.87 41.72 40.79 39.72 39.70 40.48 39.92 40.75 41.87 40.70 39.25 35.57 34.08 32.74
45.67 45.74 45.56 45.78 46.37 47.24 47.20 47.46 48.34 48.40 48.58 48.99 49.34 48.72 48.77 46.72 45.09 47.02 46.82 46.86 47.40 43.40 33.95 30.06 29.52 30.62 41.51 38.58 35.83 35.07 38.86 33.01 37.66 33.75 35.02 35.07 33.98 33.35 37.77 39.06 40.31 39.80 39.57 39.27 41.29 41.40 41.62 40.52 38.46 35.90 34.44 33.94 32.45 31.93
45.35 45.27 45.24 45.57 45.85 46.36 47.00 47.55 47.93 48.07 48.56 48.53 48.15 43.63 37.09 42.22 46.61 47.24 44.25 39.57 38.06 36.64 36.29 30.85 34.56 34.08 39.28 33.54 33.57 33.54 33.56 32.82 31.90 31.80 38.21 33.01 34.13 36.89 38.78 40.44 39.90 39.64 41.03 42.33 38.74 35.86 34.43 33.17 33.43 33.91 33.71 33.17 32.05 30.94
45.36 44.98 44.99 45.78 46.28 46.30 46.83 47.42 47.64 48.12 48.25 46.43 40.08 36.31 42.15 45.78 43.23 38.75 34.48 34.33 34.81 34.76 34.83 37.44 34.56 35.91 39.15 33.35 33.20 32.70 32.47 32.47 30.22 31.22 32.95 31.44 31.89 34.45 37.69 38.04 40.64 40.73 40.86 39.92 38.06 36.31 35.94 34.91 33.13 32.41 32.05 31.34 29.71 29.14
45.27 45.00 45.28 45.24 45.74 46.19 46.57 46.26 46.09 44.54 43.60 44.10 42.38 43.26 41.53 37.31 34.55 34.42 32.98 33.38 33.71 33.62 33.87 34.46 34.61 37.19 35.37 36.29 33.81 32.83 31.82 32.08 28.08 33.47 32.09 29.12 32.58 35.57 37.54 39.32 40.02 38.40 36.86 35.76 35.93 34.63 34.07 33.60 32.54 30.47 29.33 28.72 29.19 28.51
44.86 43.99 44.06 44.60 45.09 45.33 45.30 45.38 45.17 45.04 44.65 42.56 38.07 34.66 36.13 32.86 32.82 33.50 31.94 31.73 32.06 32.43 33.65 33.39 32.83 33.18 34.10 35.17 32.67 32.46 31.72 30.64 33.71 31.17 27.98 30.61 35.91 37.56 36.88 34.69 34.62 35.39 33.99 33.86 34.68 34.27 33.25 32.20 31.30 29.46 28.56 29.37 24.37 28.23
44.71 44.17 43.63 43.70 43.86 43.90 44.42 44.74 44.56 43.08 40.09 33.69 33.21 30.35 31.91 29.44 30.03 30.03 31.31 32.06 32.47 32.47 32.65 32.65 32.06 32.43 32.11 32.46 32.08 30.77 31.11 31.66 28.55 23.09 20.72 33.18 36.55 37.23 36.32 34.79 33.22 31.22 28.47 30.50 31.14 31.30 29.73 29.32 28.09 25.93 23.10 24.50 21.48 25.96
44.79 44.50 44.12 43.61 44.10 44.19 43.88 44.01 43.69 41.79 36.60 32.43 32.80 27.95 28.16 30.59 31.27 32.05 32.47 32.46 32.61 33.53 33.18 32.61 32.41 32.56 31.17 30.03 31.16 29.28 27.02 25.34 27.38 26.53 30.61 33.15 35.90 33.99 33.16 33.53 31.45 29.70 27.44 29.22 30.17 27.90 24.79 23.67 24.79 27.46 28.12 27.92 28.80 25.73
44.46 43.73 41.78 43.58 43.07 43.52 43.46 41.48 39.12 36.63 33.39 31.54 32.13 29.46 31.35 31.13 31.17 31.94 31.94 31.55 32.98 32.65 33.00 32.61 31.14 30.59 28.16 29.47 27.04 26.99 26.23 23.86 26.34 31.16 32.83 34.31 33.59 32.76 32.11 31.60 30.89 31.22 29.93 29.68 29.73 29.90 29.32 25.09 23.30 29.00 29.46 27.74 25.74 24.53
44.36 41.07 43.76 43.99 43.30 42.99 42.82 37.24 32.79 32.50 30.86 31.54 30.60 32.82 32.27 32.06 31.16 31.96 32.32 32.27 34.04 32.82 30.40 31.31 26.23 24.31 29.48 26.49 26.09 29.59 25.58 29.68 32.24 32.43 33.81 33.51 32.24 31.17 30.87 31.28 29.50 30.94 31.06 30.77 30.48 30.55 30.45 30.84 27.16 25.72 26.35 30.32 29.94 29.89
39.34 42.79 43.50 43.19 42.83 41.62 37.77 34.99 32.47 28.52 29.41 31.35 30.39 30.63 31.14 31.53 31.69 32.11 32.47 32.44 30.74 28.98 28.23 25.94 29.07 25.19 24.62 23.29 26.13 29.12 30.22 30.70 32.10 32.58 33.15 32.76 32.43 31.86 32.83 31.74 33.00 31.66 30.99 30.54 29.75 29.86 30.01 26.37 28.28 29.34 29.94 30.76 29.55 28.51
40.42 41.07 42.18 42.61 41.38 34.91 30.44 31.02 32.35 26.57 29.55 30.22 30.64 30.79 30.85 30.96 31.29 32.08 31.45 31.37 29.68 30.66 28.84 26.57 22.50 22.05 23.40 27.65 28.48 28.45 28.56 29.06 30.01 30.62 30.64 31.60 31.53 31.76 31.90 31.74 31.22 30.74 30.49 30.29 30.16 29.55 29.44 30.52 30.28 30.43 30.09 28.52 27.25 25.70
41.38 41.06 41.40 41.61 41.38 33.44 27.27 27.88 32.39 28.25 26.97 30.36 31.32 30.08 29.48 28.75 30.53 31.94 30.32 30.85 30.98 30.41 22.30 21.84 24.19 26.30 27.15 28.37 29.36 29.24 31.18 30.73 29.64 27.94 28.60 29.94 30.53 31.15 30.38 30.07 29.58 30.36 29.40 30.49 30.13 25.93 28.92 29.79 30.11 29.36 27.50 26.86 23.41 25.19
38.46 38.38 39.04 39.17 34.69 34.40 30.51 27.95 27.78 30.17 31.04 29.96 29.87 27.51 28.08 29.93 29.47 29.96 30.57 30.17 20.94 21.07 23.79 26.12 24.21 27.01 29.91 29.26 30.28 29.78 29.90 29.73 28.45 27.26 26.34 26.56 28.85 27.61 29.33 29.48 30.07 29.06 27.25 27.03 25.01 27.68 24.15 25.60 29.22 30.39 29.36 26.07 26.63 24.89
37.30 38.83 33.86 35.77 32.11 27.19 25.23 29.91 27.55 28.44 29.62 29.83 29.59 28.52 26.82 26.19 26.80 27.99 29.63 25.54 24.75 25.26 27.21 25.58 28.50 28.76 29.49 29.22 29.01 29.08 29.43 29.79 29.61 28.24 27.31 26.91 26.83 26.92 27.18 27.59 27.13 25.30 23.18 22.30 25.94 26.31 26.27 27.71 28.60 29.49 30.89 30.57 27.59 30.64
37.17 36.22 32.59 31.18 26.94 22.12 21.54 30.33 27.78 28.38 25.69 26.53 28.30 26.08 25.44 26.16 27.68 27.23 25.79 26.03 27.39 28.35 28.17 29.15 30.01 30.80 28.60 28.37 27.11 26.28 26.72 27.32 25.72 25.31 25.87 25.49 25.61 24.18 23.52 23.79 24.47 23.06 22.43 23.69 25.59 24.38 22.82 23.83 26.57 27.49 28.90 30.24 30.96 30.02
36.76 30.84 27.63 21.60 28.81 24.41 23.72 24.37 23.61 24.07 21.63 25.61 25.50 21.02 20.52 22.73 21.27 22.26 15.74 25.24 28.46 27.11 26.53 26.47 28.04 28.27 27.67 26.28 23.67 22.91 23.58 24.14 23.26 23.69 23.39 21.98 21.39 22.31 23.69 23.92 24.17 21.33 20.01 20.90 20.39 19.86 19.93 19.66 21.82 23.71 25.91 28.44 26.98 25.70
26.33 23.73 21.20 17.69 24.52 24.26 23.23 17.78 14.52 16.13 13.03 16.32 14.89 12.02 17.15 17.69 12.41 12.36 12.94 24.74 24.66 23.87 23.30 24.63 25.11 24.97 23.69 22.85 22.37 22.43 23.06 21.87 20.30 20.08 21.12 22.20 20.01 17.87 17.95 18.81 18.09 18.36 16.65 15.17 14.57 14.46 14.17 15.80 17.21 18.19 21.40 23.93 23.27 22.80
21.45 18.60 17.68 19.55 18.63 20.06 19.15 12.27 12.97 13.80 14.46 13.32 12.02 17.53 15.71 12.38 10.44 10.29 22.08 23.07 22.80 24.18 19.04 23.52 21.37 20.54 20.62 21.34 20.30 20.16 18.70 20.09 19.30 16.72 19.45 20.64 17.36 13.40 10.76 10.21 10.92 12.11 14.09 12.54 13.10 11.55 11.39 12.76 14.26 15.45 16.28 19.28 22.11 23.15
17.89 14.86 23.37 28.18 27.76 26.43 19.22 19.49 22.77 18.70 13.70 11.94 17.43 14.16 10.03 9.72 7.27 20.29 22.25 22.46 22.36 23.27 23.04 23.45 22.16 20.91 20.04 20.65 21.29 18.14 16.59 15.68 13.88 15.01 17.93 17.92 15.18 13.71 10.39 8.00 8.19 10.78 11.80 10.02 9.94 10.01 9.51 10.08 11.41 12.40 14.56 17.19 20.13 21.12
21.84 22.73 18.08 24.17 25.68 26.44 22.00 20.57 20.19 18.02 18.75 22.41 18.51 13.24 12.08 10.78 15.21 19.12 21.16 22.18 21.74 22.82 21.97 21.15 20.80 19.80 18.80 18.25 16.93 11.49 9.71 8.00 9.79 10.02 12.31 13.30 10.53 5.85 4.69 3.31 5.24 11.41 5.61 6.35 7.59 9.07 7.64 7.78 9.25 10.61 13.98 15.77 18.17 14.64
19.65 24.14 22.88 21.30 23.29 22.58 20.78 20.44 21.12 25.68 27.59 24.59 17.24 16.42 16.44 17.54 16.29 18.29 19.26 20.30 20.27 20.11 16.48 14.90 10.49 8.22 9.82 9.74 7.45 6.84 1.88 2.22 3.50 -1.89 -5.57 -5.93 -2.38 1.93 3.57 0.61 2.89 5.92 5.46 5.57 8.05 8.83 8.26 8.77 10.31 11.65 16.01 11.89 10.32 9.58
22.62 27.79 23.68 21.66 20.36 21.14 24.25 25.76 25.66 27.44 25.62 22.24 20.64 18.94 16.93 14.15 15.50 17.45 15.28 14.74 14.29 12.80 10.01 8.52 1.41 3.54 -5.21 -2.50 -2.85 0.87 4.34 0.90 -1.76 -1.23 -5.21 -5.75 2.67 5.80 0.18 0.91 3.79 3.78 4.01 4.99 4.30 3.58 5.79 5.56 9.17 13.43 11.41 11.01 7.78 6.01
25.58 24.83 23.68 22.46 22.53 23.86 24.59 25.70 26.76 26.66 27.36 24.93 22.21 15.03 9.35 8.29 9.98 11.00 11.01 9.49 4.72 4.29 4.23 -1.60 0.23 -7.56 -3.03 -2.85 -3.76 -8.47 -4.66 -0.22 -2.68 -0.10 -0.68 -1.05 -1.40 -4.48 -2.52 -1.06 0.13 0.73 2.99 4.17 0.42 1.50 2.74 2.62 6.68 6.19 4.69 3.67 2.97 2.44
24.06 22.68 21.87 17.87 20.35 22.32 25.78 24.70 24.43 24.27 20.75 22.53 15.88 13.51 3.27 0.38 -1.77 1.97 7.08 6.00 1.79 -0.70 -5.75 -8.29 -5.57 -3.58 -0.90 -0.20 -4.66 -6.29 -3.22 -5.93 -6.48 -4.30 3.06 0.39 -3.58 -4.67 -3.78 -2.56 -3.58 -0.72 -2.86 -6.16 -5.58 -1.16 3.01 -0.72 -0.79 -0.68 -0.85 -0.72 -1.61 -1.78
16.85 5.62 4.34 5.10 9.78 13.04 7.83 7.08 5.00 9.36 3.89 9.24 10.92 6.75 2.82 3.54 0.09 3.15 3.38 -0.76 0.31 -3.42 -5.21 -6.11 -7.74 -7.74 -2.50 -4.20 -5.68 -6.90 -5.05 -7.02 -5.75 2.41 3.86 5.48 -1.76 -2.31 -5.21 -8.29 -8.29 -12.82 -11.73 -10.47 -7.23 -2.71 -7.20 -7.38 -4.03 -4.53 -3.38 -4.06 -4.24 -4.59

GFSWCAN_sfc_wetblb_042.txt.gz
Wetbulb
49.38 49.24 48.93 48.78 48.51 48.15 48.11 48.29 48.66 49.92 49.72 49.69 49.53 49.61 49.92 50.47 51.28 54.92 52.36 53.05 49.27 44.37 46.18 48.16 48.61 44.71 43.67 41.82 38.07 41.65 39.64 38.24 32.13 28.84 24.99 24.57 23.08 29.66 29.85 32.26 31.86 29.64 27.41 26.48 21.93 14.00 21.63 36.18 37.56 33.02 35.67 35.80 38.65 38.67
48.78 48.57 48.31 47.81 47.67 47.81 47.92 48.17 49.06 50.18 50.05 50.23 49.89 49.58 49.97 51.20 51.30 54.08 52.75 52.92 51.86 48.16 47.20 49.18 48.81 49.46 48.59 45.89 44.01 40.87 41.48 39.86 38.35 31.34 24.58 25.45 25.65 31.40 27.68 25.79 34.56 28.88 31.50 28.16 29.31 29.12 35.46 37.11 36.64 38.15 38.61 38.20 37.91 38.28
48.18 47.92 47.47 47.47 47.25 47.70 48.10 48.23 49.03 50.55 49.80 49.85 49.81 49.88 50.49 51.45 51.14 53.04 52.24 48.39 48.62 44.03 45.68 46.38 45.64 50.10 50.81 49.89 49.42 41.77 40.66 43.07 39.53 38.12 32.84 28.87 25.28 30.10 25.98 29.31 30.60 34.90 36.27 30.56 31.94 35.03 35.87 37.29 39.20 40.30 40.01 39.01 38.70 39.72
47.56 47.29 47.13 47.11 47.36 47.58 47.80 48.23 48.53 49.20 49.72 49.05 49.71 49.89 50.32 50.75 51.22 51.67 49.63 48.12 45.71 42.48 35.65 42.83 48.87 47.08 50.02 51.65 51.07 48.68 45.73 42.61 40.45 38.11 31.41 30.54 26.73 33.85 27.52 30.49 31.47 34.69 36.26 33.47 32.75 36.46 37.46 39.93 39.79 38.94 39.04 38.99 39.63 39.75
46.75 46.75 46.60 46.64 47.18 47.62 48.27 48.35 48.25 48.66 48.74 49.18 50.48 51.07 51.05 50.77 51.26 51.60 49.44 48.29 47.69 43.26 37.70 37.18 45.38 47.11 48.94 50.33 48.69 47.82 45.95 43.34 39.00 35.20 33.12 33.06 31.92 32.36 32.06 31.37 30.86 36.63 35.27 31.86 31.19 37.72 37.22 37.26 38.09 39.10 38.05 38.58 39.63 38.04
47.11 46.96 47.33 47.72 47.98 48.30 48.10 47.92 47.96 48.03 47.47 47.34 48.60 49.52 49.70 49.94 49.15 46.66 43.87 48.27 48.87 45.90 40.86 34.15 42.45 42.99 45.59 46.87 46.36 45.61 45.73 42.06 39.56 37.83 33.61 36.06 39.64 34.44 32.87 33.34 38.05 39.91 40.52 39.48 37.40 38.40 37.84 35.75 36.74 38.40 39.16 39.47 39.27 34.99
47.15 47.33 47.67 47.74 48.37 48.21 47.99 47.63 47.92 47.87 47.07 47.83 48.54 49.21 49.45 49.47 49.36 43.08 40.33 45.88 45.98 44.32 38.43 34.35 32.73 40.09 42.10 43.40 41.15 41.46 41.54 40.02 40.23 38.14 34.46 35.63 36.80 37.17 33.28 31.55 37.39 39.58 40.02 39.31 38.66 38.01 35.13 35.54 36.76 39.58 38.88 36.34 35.38 33.88
47.04 47.20 47.43 47.71 48.12 47.72 47.33 47.52 48.12 48.21 47.65 48.10 48.48 48.34 48.52 48.62 47.77 46.84 46.37 46.50 45.52 39.75 37.25 31.98 31.35 34.09 40.81 36.54 36.53 40.59 36.81 37.65 38.79 38.32 35.80 33.58 36.44 33.98 32.88 36.57 38.60 38.87 37.88 38.16 38.01 38.52 38.86 39.64 36.21 33.68 34.96 34.42 32.82 31.88
46.68 46.79 46.93 47.02 47.58 47.33 47.38 47.81 48.34 48.24 47.86 47.76 47.77 48.05 47.94 46.14 44.43 46.37 46.68 46.00 43.89 41.22 30.54 26.04 29.75 29.26 38.84 36.86 35.32 36.73 37.06 33.60 36.73 33.48 35.11 34.47 32.71 32.59 34.81 36.09 37.34 37.41 37.18 37.06 37.91 37.71 36.05 32.99 32.83 33.84 34.08 34.21 32.64 31.66
46.10 46.33 46.50 46.57 46.89 47.33 47.29 47.53 47.80 47.61 47.48 47.18 47.26 43.38 37.27 43.05 46.34 45.76 41.87 37.65 37.19 36.53 34.90 31.43 35.19 33.70 38.92 33.81 33.30 29.72 32.89 28.40 23.44 27.71 37.06 32.90 33.45 36.04 35.03 35.79 36.63 37.05 37.68 38.11 32.21 30.83 32.94 34.00 34.92 35.32 34.89 33.63 31.60 30.38
45.88 46.12 46.31 46.71 46.91 46.95 47.36 47.52 47.33 48.39 48.05 44.76 40.32 37.28 43.21 45.03 43.05 36.82 33.63 33.10 33.81 33.16 35.78 34.64 34.60 35.08 38.21 33.90 32.72 30.42 29.43 30.93 26.67 26.25 32.02 29.95 30.87 32.20 34.60 33.01 35.36 36.11 36.79 36.91 37.28 37.42 37.57 36.24 34.37 32.20 30.63 30.76 29.94 29.40
45.56 45.67 45.93 46.31 46.33 46.66 46.39 46.34 46.52 44.22 42.86 44.08 43.15 42.58 40.53 37.53 34.90 34.39 31.98 32.89 33.39 31.30 34.14 34.37 34.54 37.02 34.37 33.06 33.43 32.71 25.24 30.83 27.09 33.18 31.37 28.23 32.42 34.27 33.95 35.86 37.50 38.40 38.62 38.38 38.71 37.85 36.68 33.65 31.74 30.24 29.02 28.61 28.72 28.55
44.19 44.47 44.93 45.30 45.40 45.45 45.28 45.26 45.16 44.77 43.65 40.19 36.57 33.57 34.18 30.67 33.25 33.13 31.39 32.14 31.97 32.89 33.93 33.30 32.92 33.09 33.83 34.44 32.71 32.74 30.85 29.43 32.38 30.70 28.69 31.22 32.38 33.33 35.27 36.77 36.42 36.66 35.13 32.80 32.50 32.28 31.77 30.87 30.07 29.46 28.73 29.26 26.23 28.04
43.82 43.90 44.00 44.15 44.52 44.98 44.73 44.51 44.58 42.84 40.11 33.37 32.55 33.28 32.27 31.56 30.69 30.67 31.77 32.75 31.98 32.36 32.74 32.90 32.15 32.71 32.20 32.69 32.18 31.50 31.58 31.74 28.46 26.64 23.93 32.17 35.50 35.56 36.39 35.04 31.61 29.98 27.47 29.49 29.97 29.91 29.03 28.75 27.69 25.67 23.38 22.56 20.43 24.73
43.96 43.68 43.58 43.73 44.02 43.84 43.27 42.73 43.22 42.08 36.60 32.71 33.18 27.98 27.86 30.16 31.38 31.77 32.18 32.32 32.14 33.25 32.90 32.90 32.51 32.84 31.40 30.93 31.03 29.71 26.93 21.78 21.95 19.71 29.39 32.18 35.76 32.86 30.46 30.08 29.53 28.80 25.60 27.84 29.46 26.60 23.74 23.19 24.14 26.41 26.89 26.59 27.13 23.40
43.56 43.15 41.46 43.38 43.72 43.04 42.05 40.94 39.25 38.89 33.46 32.68 31.47 27.41 30.88 30.69 30.69 31.83 32.03 31.80 32.89 32.74 33.09 33.22 31.22 29.32 27.85 28.03 24.63 24.46 23.22 18.20 21.35 30.14 32.17 34.59 33.26 30.41 30.01 30.01 29.39 29.85 29.44 29.18 29.19 29.56 28.49 24.29 22.36 28.11 27.42 26.08 24.50 23.01
42.72 38.46 42.26 42.99 43.00 41.74 40.90 36.58 34.86 32.49 31.97 31.58 29.93 32.00 31.97 31.77 31.26 31.85 32.04 31.82 33.58 32.72 30.69 30.48 23.74 22.53 27.36 21.52 21.22 24.45 18.28 26.60 30.87 31.95 33.28 33.10 30.40 29.77 29.66 31.11 29.32 29.80 29.57 29.27 29.66 29.61 29.61 29.71 25.03 25.77 26.71 29.39 29.17 29.20
38.54 38.43 41.98 42.56 40.96 38.19 35.46 32.18 29.36 30.88 29.08 30.66 29.32 29.77 30.87 31.62 31.62 31.79 31.43 31.58 31.99 31.41 28.94 27.51 28.58 23.92 19.50 17.97 19.64 25.22 28.72 30.13 31.98 31.06 31.99 31.75 32.68 33.92 32.48 30.72 30.49 30.29 29.97 29.97 29.14 29.31 28.56 26.33 26.75 27.17 27.62 27.68 26.91 26.19
38.88 39.40 40.92 41.26 38.42 32.90 29.89 29.79 30.34 27.43 29.20 30.31 30.31 30.48 30.66 30.70 30.88 31.35 30.61 30.84 30.99 27.89 26.75 22.96 19.91 19.23 20.71 25.42 23.33 24.73 25.55 26.90 30.16 30.84 31.50 31.31 31.25 30.17 29.82 29.86 29.58 28.73 28.07 27.75 27.13 26.20 26.10 26.92 25.83 24.58 24.03 23.81 23.40 24.69
39.74 40.12 39.87 39.61 38.01 28.96 26.96 27.02 30.51 30.21 28.32 30.30 30.71 28.95 29.07 29.20 29.95 31.20 30.09 30.07 29.87 21.76 21.86 19.65 21.41 23.15 23.73 25.69 27.40 26.65 30.13 29.14 29.93 27.91 25.50 26.65 27.75 27.33 26.40 26.26 25.74 26.12 24.71 24.34 24.01 20.86 22.40 22.37 22.62 21.23 20.64 21.28 21.51 21.84
36.37 36.49 37.57 34.44 29.42 29.84 27.89 26.06 27.44 30.44 30.47 28.73 29.80 29.37 27.87 29.72 29.13 25.25 22.62 27.80 21.15 24.91 22.56 24.81 21.80 25.66 27.72 27.14 27.69 27.78 27.58 27.91 26.18 25.66 24.98 25.35 25.03 24.66 24.38 24.20 23.75 22.38 20.37 18.88 17.78 18.33 18.08 19.11 18.60 17.54 15.93 17.31 18.42 18.17
35.63 37.47 32.62 32.15 25.07 24.98 25.80 28.95 28.61 29.12 29.40 28.09 28.05 28.91 26.50 25.64 26.80 27.42 28.18 24.38 25.67 24.84 25.76 25.16 27.65 27.11 26.36 25.88 26.09 26.22 26.35 25.76 25.38 24.26 23.21 22.24 21.19 21.51 21.40 19.61 17.29 14.57 15.19 14.09 15.00 14.58 14.66 15.16 13.80 12.62 11.18 11.70 13.87 14.93
36.77 33.11 28.19 25.17 22.20 21.06 23.74 30.21 27.64 28.14 25.52 26.36 26.92 22.57 24.82 25.00 26.58 27.37 25.18 26.71 26.83 27.05 27.53 27.87 26.79 26.50 24.27 23.96 23.53 23.12 24.48 23.18 21.44 21.65 21.79 21.40 21.06 21.08 20.34 17.33 15.09 10.18 9.19 11.19 12.16 11.39 9.87 8.51 9.14 7.50 8.58 9.07 8.87 9.65
34.69 28.96 27.03 25.20 19.04 15.83 17.90 24.43 27.22 25.99 25.57 26.00 23.29 19.04 21.09 24.35 25.49 23.46 20.86 24.98 26.05 26.68 28.50 26.35 25.64 24.12 24.25 22.53 19.39 19.34 21.09 22.43 20.34 19.82 20.58 19.82 17.04 16.62 16.63 16.06 14.19 11.82 10.05 9.47 7.83 3.93 5.14 3.51 3.28 4.49 4.54 3.85 4.52 6.03
18.15 20.00 17.38 12.83 20.76 12.75 8.24 12.28 19.79 21.16 16.27 21.84 21.85 20.20 20.22 18.53 12.09 18.90 20.09 22.67 22.68 23.17 24.16 26.52 26.83 25.32 22.90 21.18 18.97 17.74 18.85 20.94 19.21 16.62 15.88 14.49 11.57 11.18 11.35 11.98 11.32 10.68 9.18 2.33 1.04 0.02 -0.66 0.30 0.65 0.99 1.61 1.16 2.29 3.61
17.11 22.47 14.60 7.53 13.69 15.62 11.25 9.36 11.43 12.51 14.16 19.24 21.14 17.44 13.86 8.99 15.14 11.52 20.29 21.18 21.77 21.53 20.12 21.69 21.18 20.13 19.54 20.33 17.17 14.76 13.79 15.83 17.17 13.73 13.43 12.49 10.22 5.83 1.16 0.55 1.39 2.96 7.55 -2.05 -4.21 -2.95 -2.06 -1.19 -0.50 -1.49 -0.85 0.56 2.34 4.94
10.07 12.33 17.75 25.68 26.39 24.58 15.77 16.31 18.78 18.52 15.55 19.10 20.83 19.59 15.44 13.03 12.20 17.40 20.30 20.09 20.01 20.33 21.20 21.54 21.66 20.53 16.78 14.58 13.64 12.36 11.27 11.27 12.06 13.53 13.19 12.42 11.11 9.09 2.15 -4.39 -3.13 2.82 6.06 2.11 -5.12 -11.46 -7.29 -2.60 -1.45 -0.65 0.41 0.82 2.92 4.18
16.15 15.03 12.19 11.93 16.99 23.30 18.69 18.52 17.76 15.32 18.86 23.03 21.36 18.51 17.09 9.41 11.05 16.82 18.52 20.45 19.17 18.82 17.25 16.10 15.43 15.78 13.62 11.25 9.96 8.80 7.04 8.20 9.40 8.20 7.28 6.91 5.01 1.54 -0.86 -2.61 -2.39 5.55 -2.79 -8.21 -10.20 -7.66 -6.03 -1.53 -0.01 1.51 2.61 0.06 -3.87 -3.32
15.77 20.07 20.96 17.12 20.35 22.50 22.31 21.76 22.31 25.04 25.96 24.54 19.14 15.74 13.71 14.38 13.43 14.72 17.03 18.37 18.47 15.87 12.45 10.50 9.05 8.87 7.95 6.47 3.87 2.58 -0.47 -2.00 -2.99 -5.56 -9.11 -11.83 -11.10 -4.18 -4.39 -10.74 -10.38 -9.48 -10.20 -9.83 -3.67 2.29 2.65 1.37 -0.77 -4.21 -8.75 -4.94 -4.58 -9.11
18.15 23.47 22.86 19.93 19.89 19.92 21.78 23.97 23.82 24.75 22.66 21.05 19.08 16.37 13.95 12.01 12.62 14.51 14.93 13.28 10.54 6.42 2.92 3.42 0.28 0.19 -6.93 -7.12 -8.20 -4.76 -8.20 -12.91 -9.85 -7.53 -10.92 -12.55 -7.34 -3.61 -13.46 -14.18 -12.19 -10.56 -14.91 -17.99 -15.27 -11.88 -4.94 -11.13 -9.67 -13.89 -13.23 -13.73 -14.59 -16.36
22.23 22.76 22.67 21.55 19.93 21.99 23.62 25.47 26.59 25.46 21.39 16.85 14.39 10.94 9.23 9.81 10.20 10.10 7.41 6.05 5.47 1.61 -0.34 -6.75 -8.38 -15.63 -10.01 -10.92 -12.55 -12.55 -8.75 -10.59 -13.82 -9.11 -7.84 -9.83 -9.47 -14.00 -14.00 -12.73 -15.45 -18.72 -21.07 -21.25 -22.16 -21.44 -20.71 -20.17 -22.16 -22.52 -19.80 -16.74 -16.01 -17.99
16.99 13.38 14.01 13.15 14.45 18.28 18.47 18.96 17.87 17.79 18.18 16.30 9.73 5.81 1.10 1.33 -4.22 1.79 1.83 -0.35 -1.42 -6.39 -10.56 -16.18 -10.74 -7.11 -9.83 -10.38 -14.73 -14.73 -8.40 -11.47 -11.46 -11.83 -11.46 -10.01 -10.38 -9.83 -13.28 -14.18 -19.99 -21.62 -21.07 -21.44 -22.52 -21.98 -21.62 -21.62 -22.34 -22.70 -23.07 -21.98 -20.53 -20.71
11.53 12.00 9.66 5.60 8.74 13.49 2.36 3.13 2.51 3.01 5.84 7.64 0.26 -1.56 -2.99 -0.97 -4.06 0.66 1.26 -3.50 -3.64 -6.94 -9.47 -11.28 -11.65 -14.91 -13.10 -11.65 -11.32 -13.10 -12.55 -15.09 -13.82 -4.58 -2.76 -2.22 -7.48 -7.84 -14.73 -19.26 -21.62 -21.62 -19.99 -21.62 -23.07 -24.16 -21.07 -20.17 -21.44 -22.34 -23.25 -24.16 -24.34 -24.34

GFSWCAN_sfc_wetblb_045.txt.gz
Wetbulb
49.56 49.08 48.90 48.53 48.15 47.83 48.06 48.09 47.99 48.01 48.43 49.20 48.93 48.19 48.57 49.87 50.31 53.78 52.34 53.68 51.18 45.90 47.49 49.66 49.70 44.61 44.20 44.16 41.22 43.41 42.51 41.85 36.87 34.67 34.07 31.74 32.97 34.06 33.77 34.89 34.61 33.51 31.47 29.81 25.47 26.74 28.24 38.49 40.83 37.57 41.74 40.75 41.80 42.07
48.60 48.40 47.96 47.62 47.63 47.41 47.75 47.83 48.59 49.11 49.19 49.18 49.38 49.53 49.62 50.38 51.44 53.62 51.58 54.11 52.78 49.06 47.98 50.27 49.98 50.53 50.80 48.54 45.28 43.08 44.26 42.03 41.97 36.13 32.60 31.52 32.46 32.94 32.09 32.61 36.63 33.36 36.45 34.10 33.80 35.03 40.08 40.36 41.60 42.42 41.83 41.27 42.41 42.36
47.72 47.60 47.44 47.31 47.29 47.56 47.79 48.55 49.08 49.28 49.60 49.49 49.79 50.04 50.29 51.17 51.17 52.90 52.77 50.98 50.73 46.77 46.72 47.56 47.16 50.48 51.32 50.57 51.07 43.80 42.97 44.59 41.10 40.74 35.99 34.29 32.99 34.01 32.21 32.84 35.11 37.49 37.98 36.30 35.52 39.16 38.16 40.19 41.84 43.10 43.74 42.68 43.28 42.89
47.07 47.07 47.18 47.13 47.34 47.78 48.21 48.68 49.73 49.11 49.35 49.56 49.58 50.15 50.90 50.72 51.22 52.10 51.19 49.53 49.59 44.82 36.61 44.15 49.33 47.80 49.98 51.32 51.47 49.19 45.38 42.84 41.83 40.64 35.08 33.83 34.35 35.74 33.12 35.60 35.91 38.10 38.38 36.41 36.16 39.14 39.37 41.32 42.24 42.54 42.73 42.49 42.04 42.03
46.77 46.70 47.02 47.22 47.78 47.81 48.19 48.17 47.72 48.21 49.13 50.24 50.05 50.47 50.57 50.74 50.67 51.15 50.14 49.01 49.72 47.08 38.67 40.45 46.87 47.25 48.63 49.70 48.09 47.42 45.90 44.23 41.49 37.58 34.07 35.41 34.70 35.59 35.21 35.53 34.29 38.75 37.91 35.85 35.40 40.16 40.48 40.35 40.87 41.67 41.46 41.20 41.36 39.58
46.23 46.79 47.00 47.83 47.69 47.83 47.92 47.56 47.16 47.72 48.71 49.92 50.49 50.44 50.24 50.21 49.17 48.91 46.97 48.78 46.99 46.40 42.27 36.02 43.82 44.01 46.26 47.01 45.78 45.39 45.62 43.37 41.76 39.60 35.13 37.61 41.02 37.60 34.26 34.27 39.54 40.62 41.90 41.18 40.48 42.29 41.22 40.63 40.55 41.38 41.39 40.93 38.24 37.04
46.82 47.71 48.05 47.85 47.74 48.15 47.67 47.13 46.93 47.62 48.22 48.84 48.73 49.17 49.19 48.35 47.88 42.70 42.39 46.27 45.39 44.96 39.71 35.08 35.86 41.28 42.61 44.55 43.26 42.65 43.05 41.57 42.43 39.28 36.73 38.56 39.48 39.50 33.71 33.90 38.64 41.00 41.49 41.31 41.06 41.25 40.84 40.48 39.84 39.23 37.26 36.35 36.02 35.01
47.49 47.69 47.94 47.63 48.24 47.80 47.38 47.27 47.25 47.80 48.32 48.36 48.36 48.25 48.24 48.03 47.99 47.34 46.80 46.00 45.15 40.44 38.94 33.36 33.08 37.06 41.36 38.15 37.80 41.15 38.71 40.07 39.79 38.77 37.03 35.99 37.69 35.84 34.60 38.10 39.34 40.67 40.46 39.85 39.65 40.52 39.21 36.41 35.87 34.93 35.23 35.32 35.30 35.67
47.11 47.09 47.16 47.07 48.21 47.78 47.56 47.63 47.36 47.56 47.65 47.93 47.68 47.65 48.08 46.30 45.75 47.33 46.41 45.74 44.41 42.21 33.41 30.99 32.94 33.29 40.78 36.95 36.23 38.15 37.84 34.07 37.22 34.44 36.42 37.86 34.04 33.11 35.08 35.92 36.73 37.96 38.71 36.49 34.88 35.19 35.11 34.43 34.88 36.31 36.90 36.77 35.57 35.47
46.57 46.60 46.64 46.87 47.33 47.58 47.49 47.20 47.16 47.54 47.52 47.16 46.91 43.52 38.03 43.85 45.97 45.50 42.07 38.95 37.54 36.25 35.33 31.48 35.70 34.41 39.60 35.33 34.07 33.94 33.89 32.62 31.64 33.93 37.39 33.89 34.09 35.39 33.62 34.15 34.95 37.23 38.87 35.94 33.74 32.98 34.39 35.28 35.71 35.26 35.17 36.23 35.22 32.90
46.68 46.75 46.80 46.98 47.34 47.53 47.15 46.30 46.61 47.74 47.73 44.73 41.28 37.88 43.77 45.20 42.90 36.66 33.42 33.94 33.89 32.79 35.85 34.99 36.50 35.08 38.43 35.57 33.12 33.06 31.85 31.35 29.76 30.68 33.60 31.66 31.91 33.32 35.03 35.65 37.04 38.02 38.35 37.71 37.62 37.44 37.88 37.27 35.61 34.59 32.21 32.39 32.12 31.62
46.05 46.13 46.37 46.37 46.26 46.42 46.57 46.52 46.63 44.92 43.39 44.28 43.65 42.94 40.85 37.90 35.33 34.25 32.40 33.53 32.65 32.78 34.56 34.95 35.13 37.56 35.15 35.38 34.12 33.15 29.41 32.12 28.25 33.75 32.24 28.75 32.03 33.55 36.33 36.78 38.12 38.55 38.62 37.75 38.29 37.38 36.60 34.33 33.94 32.35 31.06 30.69 30.84 30.34
44.48 44.95 45.29 45.27 45.24 45.55 45.34 45.24 45.44 45.27 44.08 43.76 39.17 36.42 37.34 34.44 33.39 27.35 28.24 32.23 32.04 33.53 34.18 33.70 33.33 34.42 35.13 36.36 32.81 33.56 31.51 29.83 34.01 31.31 29.69 31.43 31.54 36.06 35.97 35.78 35.57 35.54 34.30 33.54 33.14 33.21 32.68 31.85 31.36 30.95 30.02 30.30 28.00 30.13
43.72 43.90 44.22 44.29 44.24 44.39 44.39 44.24 44.29 42.67 40.49 34.81 34.59 33.17 30.91 32.07 32.44 32.61 32.25 33.17 32.25 32.81 33.35 33.71 32.62 33.89 32.81 34.62 32.44 32.41 31.49 32.70 29.62 27.08 28.13 30.88 33.26 35.86 35.28 34.54 33.03 30.48 29.05 30.78 31.19 31.21 29.62 29.44 29.18 27.33 25.41 25.48 25.00 28.66
43.20 43.09 43.32 43.63 43.77 43.11 42.82 43.00 43.19 40.55 36.39 32.76 32.99 29.18 28.99 30.72 31.58 31.64 32.25 32.58 32.37 33.30 33.53 33.53 33.17 34.35 32.08 31.58 31.80 30.93 29.02 26.01 26.38 24.87 30.60 33.51 34.71 35.34 33.13 31.36 30.89 29.78 27.26 29.86 31.13 28.55 26.34 25.66 26.94 28.30 29.39 29.80 29.15 26.01
43.28 42.32 40.77 43.34 42.76 42.73 41.90 41.37 40.59 38.93 33.89 32.94 30.78 29.55 31.28 31.01 31.16 31.90 32.08 31.87 33.11 32.96 33.32 33.65 31.64 30.98 28.67 29.56 27.34 26.84 26.58 23.00 25.38 31.56 32.22 33.68 33.89 32.08 31.17 30.92 30.70 30.95 30.78 30.87 30.96 30.64 29.34 27.30 26.98 28.95 28.57 28.59 26.79 27.37
41.76 38.07 41.35 42.56 42.27 41.15 41.24 38.09 36.27 32.19 31.87 31.46 29.83 32.19 32.04 31.85 31.31 31.90 32.26 31.84 33.62 32.97 30.96 31.42 27.31 26.15 29.06 25.27 24.64 27.14 24.59 26.68 31.03 32.01 32.04 32.78 31.46 30.58 31.34 32.33 30.27 30.90 30.72 30.84 30.50 29.92 28.82 28.64 26.92 25.51 24.07 25.02 25.52 26.19
37.08 38.91 41.32 41.50 40.61 38.93 36.16 34.26 32.84 31.71 28.72 30.04 29.26 29.79 30.88 31.46 31.64 31.27 31.25 31.58 32.85 31.74 31.04 28.95 30.12 25.75 23.79 22.35 23.98 27.87 30.82 32.54 33.62 33.62 33.53 32.82 32.88 33.56 32.44 31.25 31.06 30.75 29.10 27.84 27.20 26.54 25.91 24.58 23.40 22.45 22.06 22.38 22.76 23.61
38.15 39.00 39.98 40.14 38.34 34.26 32.00 31.39 32.04 28.05 29.19 30.26 30.46 30.85 30.86 30.33 31.03 31.09 30.97 31.32 31.35 29.85 30.15 27.45 26.05 24.62 26.21 28.37 27.32 28.70 29.74 30.69 31.07 31.65 30.40 31.18 31.29 30.50 29.41 28.77 27.76 26.53 25.74 24.56 23.81 23.21 23.69 23.37 21.82 20.48 19.90 19.03 18.32 20.11
39.36 39.47 39.20 38.28 38.02 31.42 28.76 28.45 32.61 30.58 28.16 29.94 30.72 29.01 29.23 29.44 30.83 30.61 29.99 29.63 28.39 25.09 24.52 23.71 24.93 26.01 26.01 27.49 28.82 29.63 31.35 31.91 30.44 27.97 26.93 26.70 26.85 26.29 25.65 25.28 24.51 23.36 22.03 21.87 21.21 20.11 20.22 19.60 18.88 17.45 16.19 15.07 14.71 14.71
36.11 36.17 36.91 33.91 30.23 30.78 28.45 26.88 28.15 30.51 30.48 28.66 29.95 29.89 28.53 30.25 29.15 27.70 25.31 26.94 24.39 25.31 24.42 26.63 25.00 26.50 27.56 27.55 28.14 28.33 28.06 29.68 27.74 28.19 26.56 23.82 25.00 24.31 22.12 21.77 20.63 18.87 17.11 16.12 15.76 15.48 14.81 14.60 14.60 13.82 12.55 11.54 12.50 13.09
35.33 36.95 28.45 29.87 25.67 26.05 26.23 28.99 29.29 30.38 29.29 28.98 28.17 29.16 27.12 26.75 27.45 27.85 28.33 26.43 25.70 26.33 27.09 27.00 27.80 26.66 25.86 25.14 24.97 25.71 26.03 26.40 26.07 24.84 23.83 23.67 22.51 21.09 18.22 17.36 16.14 14.50 13.63 12.43 12.42 11.06 10.81 11.90 11.03 10.45 9.57 9.26 9.79 10.79
34.05 31.48 26.61 25.39 22.63 21.64 25.56 30.42 27.73 28.56 25.84 26.34 27.35 23.61 25.46 25.64 26.94 27.67 25.70 27.11 26.70 27.60 28.81 27.16 26.38 25.55 23.73 23.81 23.81 23.44 24.19 23.50 22.24 21.56 21.02 20.95 20.93 19.73 17.27 15.55 13.69 10.59 9.95 10.47 10.88 9.47 7.81 5.06 7.52 6.28 7.33 6.99 6.92 7.13
31.63 26.58 24.97 18.76 20.31 19.56 18.24 21.30 27.70 26.43 27.01 26.05 23.79 19.17 22.38 24.39 25.66 24.21 22.03 24.97 25.70 28.09 26.98 25.63 25.05 22.68 22.50 20.94 19.31 20.35 21.69 21.69 19.70 18.93 20.14 18.46 16.17 15.39 15.99 14.61 12.32 10.84 9.58 8.87 7.53 5.37 4.90 3.51 1.74 4.47 4.02 3.47 4.11 4.73
19.14 20.42 17.68 17.37 20.32 14.01 10.87 11.23 21.81 20.79 12.68 22.45 22.51 20.58 22.51 20.24 17.92 19.10 20.42 21.79 22.21 22.29 24.11 27.18 27.06 25.80 21.22 17.91 17.88 17.46 18.87 21.06 17.83 14.68 14.54 14.57 13.04 12.55 11.68 11.35 10.55 9.72 9.23 6.13 4.35 2.89 1.76 1.47 2.13 2.18 2.67 2.49 2.89 4.09
14.50 22.09 18.20 13.23 20.26 15.06 9.99 9.20 8.33 13.67 13.66 15.71 19.24 17.80 15.90 15.27 15.83 14.78 18.66 19.51 20.27 20.22 20.20 22.08 21.29 19.21 18.40 19.11 16.84 15.47 14.56 16.78 17.16 13.51 12.28 12.38 10.70 8.60 6.51 5.29 5.19 6.21 8.04 5.27 2.63 1.04 0.98 0.84 0.91 0.39 1.43 3.34 1.91 3.73
8.98 9.14 21.63 25.40 25.66 23.74 12.91 13.01 18.60 13.89 12.52 15.10 18.55 19.86 19.80 14.24 13.37 16.04 19.47 18.70 18.81 18.85 19.54 20.29 21.20 18.34 15.24 13.80 13.26 12.65 13.63 14.32 14.59 13.49 13.01 11.56 10.31 9.10 6.24 3.84 2.49 5.44 6.67 4.59 1.45 -0.55 -1.64 -1.82 -1.17 0.47 1.54 3.93 4.38 2.83
16.50 18.18 11.37 12.64 16.99 19.46 11.49 10.83 13.93 12.33 15.77 22.27 19.92 16.77 17.22 14.26 12.34 15.86 17.68 18.79 18.21 17.11 15.56 14.55 14.53 14.43 12.76 11.23 10.73 11.43 11.44 10.95 9.93 9.30 8.87 8.27 6.91 6.09 4.33 3.86 2.77 3.98 0.20 -1.14 -1.17 -1.65 -1.28 -1.09 0.40 1.93 1.92 0.92 0.73 1.29
14.85 16.75 16.24 9.94 11.85 17.64 18.56 17.52 21.05 24.12 24.01 24.49 19.32 15.75 12.61 13.02 12.82 14.16 16.61 17.52 17.37 15.75 12.56 10.67 8.96 9.58 8.18 6.77 4.70 3.79 4.09 5.99 5.61 -0.18 -0.94 0.38 -0.03 3.90 3.70 1.32 -0.00 -0.90 -1.91 -2.98 -2.39 1.95 4.31 5.36 3.47 1.06 -1.93 -2.88 -2.74 -2.80
17.03 20.22 16.53 13.32 12.04 14.39 18.76 23.78 23.42 22.69 21.87 20.07 18.16 15.31 13.05 11.10 11.54 13.37 14.31 12.92 10.40 7.09 5.67 6.17 5.28 6.69 3.03 3.12 1.24 1.73 -0.29 -1.66 0.82 1.65 0.74 -0.53 0.69 2.73 0.76 -0.91 -1.46 -1.69 -5.08 -5.93 -5.48 -4.27 -2.75 -3.63 -2.50 -4.52 -5.69 -5.84 -6.15 -6.15
18.41 17.83 16.36 15.85 13.07 16.28 19.88 22.93 26.41 23.23 19.72 14.89 13.18 10.99 9.02 9.85 10.61 9.42 7.22 6.44 6.13 5.64 5.39 1.73 -0.38 -5.99 -0.62 -2.00 -1.09 -1.75 -0.60 -0.36 -6.35 -2.73 -1.69 -2.03 -2.00 -1.28 -0.74 -1.82 -3.09 -5.63 -6.90 -7.02 -7.39 -7.44 -7.62 -6.52 -7.74 -8.68 -7.69 -8.24 -9.85 -10.36
12.90 11.50 13.50 12.83 13.00 13.78 13.57 14.58 15.51 15.99 15.99 12.69 7.53 5.69 4.39 4.52 1.53 5.82 3.92 3.56 0.74 0.44 -8.16 -9.25 -3.29 -0.21 -3.81 -3.81 -7.80 -5.82 -7.28 -3.47 -2.03 -3.27 -3.99 -3.09 -1.28 -0.56 -0.76 -2.22 -6.71 -7.98 -6.71 -6.71 -7.72 -8.60 -9.80 -8.72 -8.40 -8.99 -9.51 -10.10 -11.20 -11.98
3.30 10.10 7.90 5.01 8.41 6.43 3.12 3.03 2.52 1.56 3.08 5.92 1.32 -0.30 -0.52 0.83 -1.87 4.08 3.62 -0.88 -0.49 -2.56 -4.23 -3.86 -3.86 -5.99 -6.53 -7.26 -3.77 -3.47 -8.04 -4.40 -7.44 -4.36 -0.91 -1.09 -3.45 -1.09 -1.28 -3.63 -7.08 -7.98 -7.44 -6.90 -7.44 -9.63 -8.63 -9.13 -8.50 -9.89 -10.94 -12.90 -13.03 -13.97

GFSWCAN_sfc_wetblb_048.txt.gz
Wetbulb
46.95 47.00 47.15 47.27 47.60 48.78 49.27 48.94 48.54 48.56 48.16 48.12 48.10 48.14 48.55 49.29 50.70 55.96 56.32 58.11 58.19 51.97 51.76 53.13 52.34 50.64 50.16 52.27 48.65 48.39 48.08 47.49 46.69 43.71 39.98 41.63 42.08 41.35 40.14 41.13 39.72 39.40 38.24 36.18 34.88 34.68 33.16 44.06 44.33 40.72 45.88 47.36 47.11 48.04
46.84 46.06 46.57 47.73 48.16 48.26 48.19 48.11 47.89 47.59 47.43 47.54 47.86 47.89 48.27 49.84 50.87 53.34 55.40 57.14 58.46 54.53 51.99 54.22 53.52 53.97 53.69 53.54 52.24 50.34 51.17 49.63 50.62 46.64 43.87 42.37 38.65 36.78 41.23 39.64 42.28 38.83 43.13 42.16 41.24 42.04 44.71 46.31 47.69 48.65 47.32 46.36 47.47 47.51
47.70 47.63 47.50 47.68 47.61 47.66 47.47 47.32 47.36 47.76 48.32 48.28 47.97 47.97 48.63 50.26 51.64 54.00 57.13 57.12 57.21 53.73 51.86 53.40 51.58 53.79 55.30 54.62 55.65 50.84 50.54 51.17 48.99 50.00 47.27 45.26 37.26 44.14 37.03 41.09 42.28 43.39 43.56 42.28 40.72 44.23 44.97 46.36 48.04 48.33 48.42 48.00 48.06 48.07
47.11 47.09 47.12 47.16 47.27 47.38 47.50 47.92 47.90 48.05 48.57 48.73 48.62 48.53 49.14 50.20 51.51 53.75 57.38 55.93 56.31 50.80 41.79 49.29 53.87 51.61 53.44 55.01 54.92 53.80 52.24 49.83 49.16 51.09 46.37 41.51 42.48 43.49 42.14 43.01 42.92 44.82 43.78 42.70 42.28 45.38 45.95 46.19 47.04 47.58 47.50 47.03 46.73 46.70
46.64 46.73 47.14 47.27 47.50 47.65 47.94 47.97 47.96 48.35 48.61 49.09 49.27 49.13 49.73 50.81 51.05 54.58 53.94 52.93 54.86 53.15 43.31 47.93 51.36 51.58 52.48 53.13 52.05 52.49 51.68 51.16 50.56 45.75 39.44 44.15 43.47 43.22 42.92 43.08 42.19 44.53 43.79 42.10 42.23 43.89 44.50 44.56 45.83 46.15 46.18 45.93 46.18 44.68
47.30 47.49 47.65 47.56 47.49 47.18 47.05 47.49 48.43 49.06 48.73 49.05 49.67 50.27 50.08 49.99 50.96 57.64 51.30 52.14 49.89 53.79 48.83 43.05 48.92 48.81 50.95 51.88 51.03 50.09 51.31 51.02 49.89 46.39 40.49 44.38 43.55 45.42 37.61 40.94 43.30 44.02 45.00 45.07 44.49 46.00 45.97 45.59 45.82 46.37 45.91 44.92 43.86 42.15
47.32 47.70 47.67 47.30 47.00 46.80 46.80 47.90 49.11 49.38 49.12 49.55 49.49 49.40 49.29 49.24 54.04 51.13 48.79 50.45 47.69 50.83 46.59 40.15 45.13 47.13 48.25 50.03 47.97 49.29 49.25 46.70 49.52 43.35 41.36 42.59 43.06 46.02 37.08 41.02 42.01 44.16 44.81 45.14 45.50 45.69 44.24 43.76 41.63 43.46 42.49 40.08 39.40 39.05
47.68 47.79 47.50 47.43 47.03 46.87 47.32 47.65 47.90 48.43 48.98 48.68 48.91 49.26 49.03 48.67 49.26 51.43 48.64 46.60 48.01 48.80 48.89 36.36 41.04 45.80 47.20 44.12 42.32 45.08 43.75 46.52 43.35 41.30 41.54 40.52 41.48 42.43 39.34 41.11 42.02 43.41 43.88 43.37 43.08 44.18 42.65 41.14 39.70 37.82 38.82 38.60 37.43 35.85
46.85 47.21 46.94 47.99 47.48 47.14 46.95 47.14 47.39 47.95 48.50 48.23 48.11 48.12 53.69 51.06 52.11 50.99 46.11 46.82 50.18 49.75 38.35 35.27 38.89 37.59 44.62 40.01 40.51 43.84 43.50 36.54 41.39 38.89 39.85 42.44 36.76 36.11 36.77 37.55 40.57 41.12 41.47 39.84 40.94 40.52 38.49 36.75 37.09 37.92 38.18 37.94 36.25 36.64
46.54 46.62 46.71 47.86 47.54 47.02 47.14 47.14 47.09 47.34 47.32 47.85 52.26 51.14 46.91 48.38 46.36 47.48 48.99 48.60 44.61 41.84 39.96 34.18 40.49 36.72 42.75 40.98 38.75 40.76 39.54 37.26 34.18 37.96 39.76 39.07 38.75 35.32 35.50 36.85 39.31 41.87 42.42 41.05 35.48 34.20 36.02 36.66 37.12 36.90 37.18 38.19 38.67 37.77
46.71 46.56 46.58 47.18 47.11 46.91 47.09 47.00 46.54 47.99 49.33 50.58 47.59 42.86 48.71 46.60 49.28 44.12 37.61 37.62 40.13 35.81 39.36 38.58 40.81 38.19 41.27 38.74 35.63 38.21 34.72 35.91 33.45 36.95 37.05 35.72 35.33 34.17 36.57 38.16 40.34 40.27 39.49 38.94 38.84 38.80 38.51 37.52 37.24 37.31 35.65 35.37 34.94 34.25
46.62 46.65 46.44 46.40 46.39 46.62 46.41 45.79 47.00 49.91 49.29 48.99 48.40 47.98 47.84 45.38 41.73 36.90 34.00 36.54 37.40 35.07 37.83 38.12 38.27 39.51 38.34 42.01 38.37 36.72 32.55 35.84 32.76 37.54 35.58 31.62 34.12 35.68 37.31 38.19 39.88 40.16 39.66 39.07 39.31 38.57 38.31 37.11 36.18 35.01 34.40 34.02 33.74 33.37
44.53 45.11 45.25 45.16 45.27 45.58 45.26 44.90 44.84 44.96 45.95 50.11 45.76 38.17 43.06 36.36 35.09 36.54 31.99 34.68 33.85 36.54 36.10 36.65 34.89 38.30 38.27 40.96 35.27 36.36 34.36 32.50 38.01 34.07 32.40 32.90 35.05 36.71 37.45 37.31 38.07 38.30 38.18 38.18 36.45 35.66 35.32 34.48 34.12 33.93 33.16 32.69 33.75 34.12
43.48 44.14 44.14 43.99 44.10 44.21 44.21 44.35 44.57 45.35 47.59 38.17 36.17 34.00 35.09 34.72 33.64 34.90 35.86 36.65 34.18 35.09 36.90 37.74 35.27 36.90 37.08 36.54 35.63 34.90 33.45 35.06 30.72 29.49 30.12 31.40 35.28 35.43 35.84 36.76 35.18 33.19 33.53 34.42 34.18 33.93 32.43 32.58 32.13 32.41 31.94 32.28 31.61 30.72
42.72 42.75 43.48 43.52 43.46 43.38 43.50 43.55 43.36 44.23 40.64 35.45 36.72 32.00 32.19 32.19 32.70 32.91 33.45 34.72 34.51 35.90 38.17 38.35 37.23 39.47 35.27 33.27 34.18 33.27 31.10 29.90 30.79 31.17 32.65 33.84 34.77 36.14 35.56 34.66 34.05 32.77 33.19 34.07 34.36 31.86 31.19 31.97 32.31 32.14 31.86 30.35 29.40 28.73
42.87 42.07 40.43 42.56 42.25 42.82 43.03 43.67 42.85 42.39 36.54 34.71 34.01 31.64 32.37 32.37 31.82 32.37 32.55 32.37 34.98 35.45 37.23 38.21 34.00 34.00 31.46 33.97 32.55 31.61 31.59 29.92 31.54 33.33 33.92 34.65 35.05 35.83 34.99 34.09 34.21 34.38 34.24 34.21 34.22 33.32 31.73 30.05 29.22 28.90 29.08 27.54 26.84 26.99
41.88 39.33 41.06 41.93 41.80 41.33 42.06 40.30 38.02 32.88 33.09 33.64 31.42 32.91 33.64 32.55 31.82 32.00 33.27 32.73 34.57 34.54 32.37 35.09 32.55 30.34 32.99 30.91 29.30 32.23 31.30 32.61 33.15 32.84 33.41 36.13 35.99 34.59 34.75 33.93 32.94 34.01 34.15 33.70 31.96 30.61 29.61 28.78 27.61 25.99 24.71 25.50 25.34 25.97
38.50 40.39 40.70 41.32 42.10 41.32 37.72 37.04 33.23 33.45 30.80 33.47 31.91 31.64 32.52 32.73 32.55 32.19 32.55 32.65 34.16 34.00 35.09 33.05 34.74 31.00 30.63 28.58 29.91 32.33 32.51 33.59 33.51 33.33 33.17 34.53 35.44 36.02 35.50 34.40 33.94 32.89 31.03 29.43 28.45 28.31 27.29 26.12 25.22 24.79 23.92 23.45 23.63 23.88
39.65 39.72 39.70 39.92 41.48 39.77 35.39 34.73 36.38 30.52 31.80 33.18 33.38 33.84 33.15 32.17 32.68 33.12 33.44 34.13 35.15 35.71 35.38 33.75 32.52 31.27 31.59 33.62 33.63 33.37 34.02 34.06 32.47 31.21 31.03 32.88 33.92 32.81 31.76 30.72 29.91 29.17 27.87 26.93 26.96 26.56 26.17 23.84 23.15 22.68 22.01 21.25 20.29 21.30
38.85 39.57 38.85 38.76 41.45 37.47 33.32 32.89 37.73 33.07 30.28 31.49 33.99 32.16 32.86 32.43 32.85 33.06 32.91 33.89 34.02 35.04 32.82 31.73 30.76 30.24 32.62 32.06 35.11 36.56 36.97 36.38 33.96 31.13 29.27 29.96 30.89 30.67 30.12 29.62 27.90 26.80 25.89 25.11 23.40 21.91 23.25 23.05 21.86 20.28 19.15 17.81 17.98 17.58
39.75 38.95 38.05 39.43 37.15 36.06 32.51 32.18 31.97 32.72 31.81 30.31 32.92 32.62 31.60 33.68 33.32 32.73 33.17 34.55 32.45 28.47 28.23 27.40 27.46 28.18 29.34 30.58 33.57 35.30 35.16 35.36 32.20 32.70 31.22 27.75 28.79 28.53 26.46 25.29 24.51 23.83 23.04 21.96 21.22 19.67 18.61 18.36 18.02 17.78 17.52 17.46 16.59 18.10
37.78 37.55 37.47 36.73 34.52 33.50 32.98 33.65 32.54 33.25 31.83 31.32 31.36 32.27 31.16 30.62 30.60 30.94 33.01 31.06 27.42 27.27 28.49 29.44 28.67 29.81 29.16 28.29 29.62 31.38 31.22 31.37 30.40 29.00 28.18 27.43 25.34 24.46 23.35 23.09 23.00 20.79 19.39 18.27 17.97 16.70 16.87 16.43 15.15 15.47 15.94 15.31 16.08 17.12
36.40 36.84 34.00 33.30 30.46 31.17 28.99 34.35 31.12 31.05 28.48 28.86 30.61 27.96 28.54 29.06 30.08 32.39 27.85 28.68 27.51 29.31 29.51 28.42 28.31 29.42 27.68 27.78 27.54 27.81 28.98 28.75 27.34 26.52 26.16 25.43 24.02 23.25 21.64 19.90 19.32 18.08 17.38 16.17 16.68 16.12 14.87 10.85 13.62 12.89 14.57 14.75 15.10 15.19
34.47 29.09 26.91 26.44 28.18 25.10 28.53 27.79 30.43 29.70 30.49 28.48 26.57 24.22 25.32 27.18 29.57 27.73 24.67 26.34 27.44 29.14 27.09 26.33 26.23 24.51 25.60 25.29 24.50 23.98 24.67 25.65 24.19 23.79 23.95 22.84 20.61 19.39 19.66 17.67 16.58 15.44 14.57 14.50 14.29 14.01 13.56 12.96 10.34 13.17 12.30 12.35 12.45 12.22
26.96 24.22 26.34 22.88 26.06 24.33 23.34 24.23 25.76 26.31 23.63 25.76 24.62 24.50 25.37 28.02 24.19 23.00 22.79 23.56 24.44 24.99 27.26 28.95 28.94 26.98 23.22 22.10 22.22 21.76 23.06 24.00 21.79 18.78 18.95 20.45 18.75 17.87 16.51 16.10 15.17 13.89 14.29 14.14 12.68 11.73 11.44 10.87 11.24 10.76 10.45 10.92 9.50 9.34
20.81 24.29 23.94 23.06 24.34 23.98 23.37 21.97 22.06 22.47 23.29 23.35 24.35 24.36 26.70 24.85 19.35 18.29 19.82 21.84 22.64 22.80 23.88 25.79 25.19 22.99 21.67 22.65 20.97 19.73 18.66 21.37 21.24 17.55 16.51 17.41 17.06 16.64 14.92 14.06 14.61 13.70 13.49 12.43 10.69 9.48 9.40 9.08 8.75 7.78 8.84 9.56 8.79 8.61
21.21 22.44 25.28 27.61 27.11 25.94 25.18 25.36 25.67 25.41 22.41 22.07 25.12 23.94 24.21 17.86 16.70 17.63 21.62 20.92 21.64 21.10 21.45 22.94 23.26 21.59 19.02 17.57 17.37 17.58 18.49 18.96 18.69 17.02 16.23 15.44 14.72 14.47 13.56 11.59 9.44 10.70 11.56 10.28 9.11 8.52 7.45 6.89 7.10 7.54 8.22 10.07 10.00 8.61
24.61 25.50 22.32 24.05 25.20 26.11 23.06 23.32 22.96 23.08 24.72 26.08 26.21 20.41 18.63 16.83 15.07 18.10 19.29 20.55 20.49 19.63 18.06 17.22 16.93 16.88 15.67 15.48 17.22 16.92 15.84 15.15 14.43 14.75 14.70 14.03 13.86 13.13 11.25 12.27 10.46 7.51 8.26 7.96 7.26 6.85 7.48 7.48 7.18 7.89 8.15 7.04 6.65 7.45
24.75 26.66 26.30 19.48 23.10 24.99 24.19 23.66 24.27 25.10 24.65 27.13 23.57 17.99 14.46 14.30 14.29 15.57 17.92 19.16 20.49 19.52 16.76 15.34 14.52 15.48 14.33 12.96 12.67 13.38 14.73 15.58 13.08 9.40 8.46 11.31 11.85 12.15 12.18 11.00 10.71 9.65 9.05 7.90 6.50 6.60 7.69 8.49 8.15 6.56 5.30 4.96 5.24 5.55
24.11 27.23 25.08 21.66 20.32 21.14 24.31 26.45 24.89 24.00 22.64 21.53 19.49 16.60 14.50 13.35 13.39 15.89 16.34 16.02 14.49 12.65 12.43 12.51 13.33 14.93 12.17 13.84 11.79 10.88 10.95 11.37 10.45 10.14 9.26 8.25 8.84 10.26 9.85 9.46 8.95 9.01 7.39 6.68 6.13 6.02 5.61 5.69 5.76 5.89 4.06 3.92 4.48 2.99
24.98 27.04 24.42 23.76 21.91 24.34 24.20 26.17 26.22 23.81 20.91 17.48 17.23 15.16 12.64 12.93 13.88 13.26 11.93 12.30 13.21 13.80 13.59 11.70 10.30 10.68 11.32 10.51 11.28 10.94 9.70 10.04 6.11 6.80 7.20 8.00 8.46 8.82 9.35 8.68 8.86 8.12 6.81 5.33 4.60 4.22 2.86 2.86 4.14 2.50 2.39 0.85 -0.38 -1.16
22.42 19.40 20.87 19.84 21.41 21.98 20.71 22.73 23.00 21.59 19.74 17.67 13.41 14.04 12.90 12.67 8.90 11.31 10.31 12.31 12.89 11.13 4.15 9.61 11.30 10.32 9.38 10.11 8.45 9.55 0.89 8.13 8.47 6.77 6.10 7.05 8.54 9.48 9.00 8.53 7.38 6.28 5.32 4.32 4.21 3.19 1.78 0.96 1.38 1.29 0.80 -0.17 -1.41 -3.03
18.96 20.30 19.43 19.67 20.51 19.48 16.45 16.76 16.61 15.53 15.37 13.40 11.05 10.94 10.06 10.38 5.81 10.00 11.07 9.93 10.59 10.15 9.55 9.98 10.64 10.47 7.16 5.94 7.88 8.73 4.13 8.37 4.93 3.79 2.99 2.75 2.08 4.15 5.72 7.84 6.99 5.34 3.76 3.49 3.71 2.82 0.77 0.20 0.40 -0.01 -0.73 -2.79 -3.57 -3.95

GFSWCAN_sfc_wetblb_051.txt.gz
Wetbulb
45.31 45.38 45.28 45.56 45.59 45.87 46.53 47.34 47.48 47.79 48.21 48.13 48.32 48.88 49.02 49.20 49.33 52.97 56.16 61.50 58.80 55.21 53.83 55.10 54.60 52.14 53.09 53.90 50.17 51.71 50.15 50.73 50.29 44.91 41.76 46.08 44.66 45.34 43.93 45.28 42.40 41.16 40.79 36.93 40.74 33.91 33.27 47.14 46.31 42.09 47.56 49.29 49.12 49.51
45.09 45.02 44.90 45.14 45.73 46.59 47.01 47.38 47.50 47.75 48.03 48.40 48.30 48.44 48.64 48.77 49.31 52.05 54.58 60.39 62.06 57.87 54.59 57.91 56.64 57.11 57.08 57.47 55.16 53.30 52.20 52.03 52.77 49.68 48.95 49.51 41.53 41.17 45.13 40.43 46.93 41.76 46.02 44.57 43.65 43.27 48.01 49.01 48.27 50.99 50.35 49.20 49.63 49.80
44.90 45.28 45.92 46.36 46.58 46.61 46.27 46.05 48.10 48.40 48.42 48.31 48.35 48.52 48.50 48.77 50.08 53.00 58.55 60.81 60.77 56.03 53.78 54.73 53.89 56.05 57.91 57.84 59.48 52.99 55.52 55.97 54.34 56.29 52.25 50.84 40.49 48.61 39.51 44.48 45.90 47.04 47.65 44.66 43.61 45.99 47.09 48.06 49.44 50.15 50.40 49.71 50.31 50.57
45.73 45.85 45.89 46.24 46.17 46.91 47.70 47.70 47.86 47.65 47.72 47.76 47.68 47.93 48.29 49.47 50.90 53.59 58.70 60.15 58.39 54.06 47.92 50.17 56.58 53.72 56.46 57.75 57.87 57.99 57.35 56.31 55.57 55.49 49.88 43.75 42.98 49.34 47.28 47.33 46.03 47.69 47.06 44.85 44.78 46.86 47.31 48.31 49.33 49.68 50.16 50.01 49.24 49.37
45.97 45.79 45.88 46.42 47.15 47.04 47.09 47.00 47.00 46.97 47.02 47.43 47.59 48.00 48.50 49.87 51.49 56.55 57.59 56.69 58.88 56.19 46.81 49.04 53.58 53.97 56.08 56.60 56.08 56.23 55.71 54.54 53.06 49.48 42.85 47.40 48.90 47.94 48.06 47.38 45.50 48.07 45.79 44.20 43.21 46.95 47.04 47.51 48.43 49.02 48.70 48.62 48.54 47.57
46.68 46.70 46.64 46.66 46.88 46.88 46.86 46.99 46.97 47.20 47.52 47.72 47.77 48.19 49.72 50.67 52.61 55.77 53.14 56.67 57.60 59.34 51.50 44.83 51.64 51.28 54.15 55.37 54.81 54.63 55.40 55.06 54.52 48.19 47.30 48.98 47.48 49.70 41.19 43.62 46.83 46.88 47.47 48.20 46.89 48.17 48.57 48.12 48.41 49.27 47.77 46.47 45.93 44.35
46.70 46.86 46.86 46.89 47.11 47.53 47.73 47.56 47.51 47.65 47.96 47.89 48.32 48.96 50.13 51.29 57.45 54.00 50.72 53.12 53.41 57.53 47.81 41.22 45.16 51.02 52.08 53.73 52.54 53.21 53.50 51.75 52.96 48.19 44.67 48.11 47.87 49.31 40.66 42.39 45.65 46.04 47.16 47.42 48.31 48.41 45.85 46.85 44.18 45.49 43.59 42.81 42.37 41.76
47.04 47.22 47.38 47.27 47.42 47.89 47.67 47.83 48.12 48.43 48.68 48.79 48.87 49.38 49.42 48.90 49.07 51.67 50.41 48.42 50.32 51.97 49.42 38.32 42.32 46.21 51.13 48.72 46.27 51.15 48.99 51.18 46.80 44.20 45.53 44.33 45.67 44.91 42.94 44.73 45.22 46.09 46.36 45.75 45.91 46.98 45.55 44.08 43.32 42.23 41.98 40.60 38.49 36.93
46.97 46.86 47.09 47.15 47.38 47.81 48.13 48.86 48.90 48.96 48.61 48.71 48.98 49.73 55.08 54.88 54.06 50.93 46.56 47.98 54.08 51.77 39.04 36.69 39.59 38.14 48.18 44.28 45.84 46.35 47.36 38.86 46.30 40.86 43.26 45.05 40.19 38.88 39.54 40.69 42.29 43.40 43.69 43.25 44.43 43.77 42.72 40.53 39.45 39.59 39.70 37.88 36.72 37.05
46.53 46.64 46.83 47.15 46.99 46.63 47.08 47.24 48.27 48.29 48.17 48.62 54.09 52.93 50.11 51.23 46.96 48.37 49.37 50.21 47.90 47.39 43.81 38.32 44.18 40.74 45.41 43.64 40.57 42.87 41.44 38.48 35.60 40.15 44.80 41.57 39.75 38.56 39.74 40.34 42.56 44.29 44.89 44.21 40.51 37.61 38.20 37.20 38.50 38.46 38.37 39.83 39.73 38.85
46.91 46.53 47.11 46.49 46.03 46.03 46.84 47.34 47.25 47.79 47.65 54.98 50.53 45.79 50.78 46.94 51.08 47.16 39.55 42.67 45.22 38.68 42.30 41.84 44.67 40.98 44.74 40.53 36.62 40.49 36.32 38.08 33.79 38.84 38.75 37.66 36.57 36.43 39.61 40.78 42.63 43.77 43.06 40.84 40.87 40.15 39.95 38.84 38.14 38.29 36.94 36.05 35.86 35.72
46.25 45.94 45.96 46.00 45.53 45.34 45.73 46.40 48.72 50.30 49.49 50.64 50.92 50.82 50.91 47.81 44.08 39.59 35.24 38.50 39.59 37.28 39.17 38.64 40.10 41.61 40.76 44.71 39.43 37.99 34.51 37.14 33.27 41.04 38.28 33.71 34.71 38.54 39.54 39.80 40.81 41.03 40.77 39.92 39.69 39.48 39.70 38.44 37.44 36.31 35.77 35.20 34.67 35.37
44.60 44.51 44.73 44.89 45.27 45.37 45.25 45.11 44.97 45.64 47.62 53.10 48.29 41.04 45.21 37.77 35.96 34.87 33.05 35.80 34.32 37.92 37.80 38.62 35.80 40.08 40.19 42.57 37.20 37.96 33.79 34.35 40.29 34.85 33.59 34.94 37.41 38.63 39.20 39.07 39.28 40.26 40.45 40.07 38.25 37.54 36.56 35.25 35.72 35.26 33.88 34.52 36.55 34.64
43.74 43.76 43.89 43.96 44.38 44.58 44.50 44.70 45.61 48.41 49.50 39.77 37.23 35.24 35.60 33.79 35.05 35.78 37.65 36.98 35.60 36.69 38.50 39.67 36.69 38.40 39.75 36.50 38.32 32.88 35.16 36.81 32.10 30.99 32.00 35.03 36.49 37.68 38.72 39.43 38.96 36.62 35.93 35.77 35.53 35.32 34.29 33.87 33.29 33.23 32.67 32.45 30.90 29.73
42.97 43.00 43.15 42.91 43.73 44.24 44.43 44.47 44.40 47.49 42.98 37.05 36.87 32.88 32.52 32.88 33.79 33.79 34.87 35.96 35.72 39.47 40.39 38.80 39.01 40.25 36.69 34.51 36.84 33.42 31.79 31.41 32.71 33.53 34.60 35.28 35.89 36.27 36.78 37.14 35.52 34.28 34.31 34.75 34.94 32.98 33.06 34.67 33.37 32.20 31.00 30.00 29.29 28.31
43.02 42.89 40.64 42.58 42.95 43.55 44.26 44.19 44.07 43.13 37.56 35.04 34.33 32.52 33.06 33.06 32.15 32.88 33.24 33.24 37.14 39.85 42.90 42.07 37.00 35.96 33.42 35.86 34.69 33.92 32.63 31.47 32.59 34.85 35.23 35.56 36.16 36.99 37.05 36.58 36.54 36.66 36.23 35.96 35.49 34.08 31.83 30.05 30.24 29.86 29.57 27.91 27.78 27.41
42.48 39.00 40.84 42.04 42.15 42.00 42.61 40.95 39.10 33.79 33.24 33.24 31.79 33.06 33.97 32.70 31.79 32.15 33.60 33.97 36.85 38.14 34.15 37.57 34.33 32.20 35.48 32.31 31.13 34.43 32.46 33.57 34.24 34.06 34.93 36.64 36.71 36.70 36.89 35.94 34.36 35.69 36.31 35.14 33.93 32.86 31.21 30.21 29.02 27.78 26.58 27.07 26.75 26.90
42.73 42.65 40.95 41.82 42.77 41.44 38.64 37.60 34.87 36.15 32.20 33.26 31.80 31.97 31.92 32.67 32.52 31.97 32.70 33.51 35.58 35.40 36.46 34.50 37.50 32.85 33.42 31.29 30.59 32.81 33.15 32.44 32.67 32.94 35.30 36.87 37.74 37.40 36.82 36.24 36.55 35.77 33.71 32.07 30.87 30.20 29.17 28.10 27.69 27.26 26.11 25.44 25.84 25.62
40.36 40.99 40.02 40.81 43.04 40.26 34.11 34.67 37.28 32.19 33.02 34.45 34.81 35.16 34.28 33.06 33.76 35.20 35.20 36.97 37.27 39.18 38.37 37.31 33.98 32.72 32.51 34.58 33.62 33.15 32.22 33.47 32.12 32.44 33.45 34.19 35.79 35.49 35.04 34.07 33.05 32.03 30.90 30.32 30.45 29.69 28.26 26.23 25.40 25.35 24.74 23.88 22.94 23.59
39.75 40.11 40.03 40.48 43.09 38.91 33.69 34.14 39.65 34.65 31.78 33.45 35.71 34.51 34.39 33.68 34.65 34.33 35.60 37.61 38.08 38.27 33.62 32.27 29.84 29.27 31.30 32.06 35.70 36.28 34.88 35.73 34.05 31.96 31.42 32.71 33.59 33.02 32.47 32.28 31.08 30.29 28.86 27.47 25.54 25.60 26.90 26.50 24.99 23.47 22.44 21.50 21.38 20.75
41.55 40.42 40.86 42.92 40.60 38.15 35.29 34.26 33.18 34.06 34.03 32.45 34.59 34.56 33.60 35.89 34.92 34.51 34.97 37.57 32.96 29.36 27.58 28.51 28.47 29.87 32.17 34.17 36.27 37.30 36.48 37.37 36.20 35.67 33.49 30.35 32.25 31.92 30.22 29.71 29.22 28.76 27.57 26.53 25.63 23.37 22.77 22.43 21.90 21.47 21.54 21.51 20.52 21.62
40.36 39.75 39.97 40.61 36.85 35.65 34.69 36.37 34.31 35.87 33.68 33.05 33.78 34.38 32.69 31.94 32.06 32.35 35.05 31.37 27.99 27.90 29.55 30.31 30.61 31.60 32.10 32.57 33.31 34.44 33.85 33.12 32.59 30.76 29.91 29.98 28.14 28.07 27.58 27.86 26.97 24.83 23.97 23.36 22.92 21.89 21.87 20.46 19.17 19.15 19.93 19.54 19.93 20.89
39.20 39.95 37.48 37.34 33.36 33.36 30.00 37.26 32.56 32.70 30.02 30.83 33.12 30.12 30.22 30.60 31.13 34.88 28.78 29.36 28.64 30.54 30.54 30.13 30.99 31.94 30.70 31.07 31.48 32.23 33.36 32.39 30.22 29.09 28.40 28.40 27.81 26.94 25.20 24.29 24.64 23.53 22.24 20.61 21.35 20.83 19.63 15.35 18.37 16.99 18.94 18.77 19.12 18.96
37.35 32.66 29.94 29.86 31.47 27.62 33.42 30.33 32.67 31.07 31.81 29.87 28.41 25.63 26.94 28.78 32.36 29.38 25.91 27.02 28.41 30.05 28.49 27.99 28.35 27.66 28.76 28.91 27.53 27.34 28.55 29.77 28.35 27.97 28.37 27.02 24.64 23.36 23.00 21.43 20.79 19.87 19.49 19.78 19.73 19.23 18.89 17.65 15.27 17.56 16.97 16.24 16.79 15.46
29.55 26.76 30.33 26.62 31.04 28.64 26.97 27.31 27.76 28.09 25.83 28.04 26.53 25.68 26.71 30.02 25.65 25.08 24.32 24.57 26.18 27.25 29.71 30.70 29.14 29.02 26.28 24.94 24.68 24.06 26.22 27.22 25.05 22.42 23.58 24.23 22.38 21.65 20.68 20.27 18.69 17.66 18.44 18.27 17.64 16.48 16.32 15.71 15.68 15.15 14.00 14.47 13.31 12.69
23.73 26.22 26.40 26.84 27.27 27.11 27.26 24.79 25.28 25.30 26.44 25.72 25.05 27.29 29.00 27.27 22.74 20.34 20.34 22.71 23.49 23.10 24.14 26.26 27.44 25.42 23.29 24.52 22.91 21.32 21.50 24.62 24.18 20.41 19.82 20.93 21.22 21.10 19.48 18.58 18.55 17.52 17.48 16.84 15.30 14.06 13.95 13.78 12.91 11.80 12.44 13.28 12.54 12.37
23.70 25.01 27.93 30.41 29.04 28.98 27.65 27.84 28.78 27.18 25.04 24.79 26.43 25.67 26.35 20.76 18.72 19.08 23.08 22.08 22.09 21.86 22.25 23.26 23.74 22.61 20.44 19.58 20.03 20.49 20.62 20.56 20.62 19.04 19.01 18.55 17.94 17.75 17.42 15.80 13.41 14.20 15.01 14.44 13.15 12.91 11.57 11.13 11.39 11.45 11.51 13.07 13.34 12.32
26.24 27.38 24.21 26.26 27.07 28.48 25.14 26.00 25.63 24.91 25.63 27.17 27.94 21.94 20.40 18.85 16.69 19.32 19.98 21.87 21.80 21.09 19.76 18.98 18.33 18.32 18.42 19.27 20.22 19.44 18.65 18.55 17.92 18.42 18.19 18.05 17.65 17.07 15.44 16.20 13.96 9.30 12.38 12.43 11.24 10.60 10.90 10.46 10.47 11.18 11.50 10.78 10.08 11.36
25.37 27.46 28.08 23.21 25.77 25.73 24.98 25.72 25.57 24.93 25.43 27.09 25.14 20.56 17.12 16.70 17.27 18.42 20.16 21.59 23.54 22.33 19.43 18.02 18.10 19.16 18.06 17.61 17.44 17.85 18.28 18.30 17.04 13.47 13.30 14.92 15.70 16.05 15.86 14.79 14.56 14.22 13.66 12.84 11.26 10.89 10.47 9.04 9.74 9.64 9.02 8.72 9.60 9.88
24.98 28.53 26.57 24.68 22.89 22.90 25.43 27.85 24.07 23.67 24.32 24.06 22.02 18.55 16.61 15.74 16.74 19.98 19.86 19.56 18.30 16.87 16.94 17.07 17.60 17.97 16.82 16.96 15.26 14.39 15.24 14.46 12.96 12.34 11.90 11.16 11.58 13.37 13.45 13.43 12.96 13.09 12.61 11.85 10.53 10.57 10.36 10.04 9.77 10.39 9.33 8.97 8.80 7.86
27.39 28.36 25.68 25.35 23.76 25.03 26.32 27.75 26.54 25.23 23.12 20.75 21.93 19.08 15.48 14.98 16.77 17.04 16.44 17.81 17.41 17.87 17.46 15.92 15.03 16.27 14.99 13.73 14.60 14.22 13.32 13.84 10.58 10.77 9.75 10.83 11.88 12.56 13.22 12.33 12.53 12.26 10.93 10.25 9.39 8.70 8.17 6.82 7.32 7.26 7.35 6.46 5.40 4.48
26.21 23.32 23.84 22.00 23.06 25.22 27.83 27.13 26.52 24.09 22.67 20.96 17.65 18.75 17.81 17.26 12.50 13.68 14.60 17.55 16.36 15.06 11.92 15.54 14.73 12.47 13.16 14.27 13.64 13.67 6.38 11.69 12.17 10.26 9.66 10.16 10.86 12.06 11.99 11.89 11.69 11.42 10.07 8.70 8.03 8.00 7.57 6.24 5.54 5.62 5.27 4.79 4.41 2.35
24.12 24.67 24.45 23.90 23.21 22.44 22.81 23.29 21.86 18.95 19.32 17.10 15.29 16.06 14.97 14.36 8.91 12.77 15.73 15.68 14.06 13.32 13.05 13.82 14.54 14.30 11.57 10.96 11.43 12.53 10.72 12.85 10.33 8.98 8.51 6.87 5.08 6.44 7.65 10.04 10.44 10.08 8.61 7.88 7.69 7.32 6.54 5.62 4.73 4.33 3.49 2.60 1.96 1.07

GFSWCAN_sfc_wetblb_054.txt.gz
Wetbulb
44.22 44.29 43.82 43.99 45.30 46.04 46.49 46.59 46.96 47.20 47.37 47.66 47.62 47.18 47.65 47.74 47.82 49.39 50.88 53.16 51.64 53.58 54.48 56.45 55.57 52.68 52.91 53.43 49.32 52.10 49.81 51.38 52.03 42.36 38.38 46.53 44.32 46.12 44.33 45.75 41.84 39.88 39.97 35.80 41.06 34.03 32.95 48.24 46.08 42.07 47.56 50.48 49.29 49.53
44.60 44.60 44.68 45.04 45.55 46.09 46.26 46.46 46.77 46.97 47.22 47.46 47.29 47.08 47.56 48.28 48.69 49.37 48.90 54.33 56.14 54.38 55.07 58.64 56.70 57.17 56.28 56.67 55.69 53.35 52.88 51.63 52.82 49.69 48.18 50.05 40.03 40.70 45.25 41.85 47.79 41.63 45.79 43.83 42.93 41.74 49.62 49.29 49.07 51.15 50.72 49.07 49.64 49.80
44.56 44.73 45.34 45.39 45.62 45.76 45.95 46.21 46.48 47.11 46.95 47.13 47.09 47.02 48.02 48.72 49.20 49.19 50.62 54.39 57.63 56.05 54.09 54.90 53.85 56.57 57.80 57.77 60.28 53.03 56.60 56.49 55.43 58.79 53.11 51.48 39.90 49.52 38.65 45.59 46.46 47.75 49.13 46.44 45.08 46.82 47.69 48.68 49.90 50.74 50.48 49.71 50.03 50.34
45.08 44.94 45.16 45.18 45.21 45.30 45.69 46.23 46.60 46.81 47.11 47.33 47.49 47.81 48.14 48.54 49.21 49.45 50.18 54.62 57.25 56.03 46.36 50.47 57.41 54.59 57.14 58.25 59.13 59.63 59.37 59.17 58.29 56.90 51.56 42.16 41.64 51.82 48.35 48.95 47.74 48.22 48.22 45.31 45.26 47.31 47.97 48.39 49.06 49.38 49.73 50.22 49.78 49.80
44.78 44.73 44.81 45.21 45.65 45.82 45.86 45.93 45.93 46.41 46.89 47.56 47.82 47.94 48.15 48.73 49.19 49.98 51.86 55.30 58.34 54.34 46.17 48.84 53.80 55.19 56.57 57.05 56.85 57.21 58.30 56.25 54.81 48.17 39.09 48.73 50.78 50.21 50.06 49.34 46.99 48.86 46.55 45.07 44.41 47.12 47.51 46.91 48.41 49.47 48.70 48.11 47.87 46.25
45.58 45.41 45.84 45.55 44.84 44.38 43.99 43.80 44.64 46.64 47.32 47.78 48.01 48.32 48.36 48.43 49.22 51.68 50.12 56.94 58.90 57.67 51.80 43.62 52.05 52.39 55.12 56.15 55.55 55.39 56.47 57.25 55.11 49.01 49.08 49.94 49.97 51.26 41.15 44.68 47.71 48.47 49.12 48.93 47.18 48.96 48.23 47.73 47.84 48.25 45.55 44.73 43.98 42.66
45.32 44.97 45.15 45.28 44.59 45.20 46.42 46.21 46.10 47.21 47.41 47.46 47.69 47.98 48.34 49.04 52.60 50.96 48.40 51.09 49.83 57.51 49.24 39.65 43.72 50.33 53.53 53.74 53.53 53.08 54.77 52.90 52.90 49.33 47.53 48.54 47.68 48.50 40.19 44.02 46.25 47.46 48.34 48.02 48.88 48.66 45.60 47.08 41.99 43.47 42.91 41.88 41.30 40.60
46.13 45.80 45.96 46.18 46.52 46.51 46.47 46.42 46.70 46.94 47.19 47.42 47.55 48.03 48.73 48.81 49.19 50.28 50.75 49.74 50.28 52.21 49.98 37.29 38.38 44.70 51.00 47.67 46.85 50.48 49.38 50.23 47.11 44.32 46.00 45.41 45.72 47.12 43.48 45.42 46.47 46.95 46.79 46.04 46.27 47.22 44.97 43.96 42.99 41.76 41.74 40.49 38.03 37.03
46.87 46.96 46.79 46.85 47.01 46.78 46.74 46.90 47.16 47.37 47.55 47.87 48.76 49.24 51.71 51.85 50.49 49.88 47.11 48.67 55.50 51.58 38.38 35.84 35.83 36.73 48.94 45.00 45.43 46.22 47.82 37.65 46.05 39.83 42.90 45.65 39.99 38.54 42.92 43.73 44.45 44.64 44.21 43.97 44.35 44.03 43.52 41.20 39.89 39.38 38.75 38.36 37.22 37.42
46.07 46.49 46.80 47.17 47.08 46.90 47.06 47.23 47.68 47.89 48.39 48.79 51.81 50.93 42.19 48.15 47.19 47.56 49.12 50.17 46.48 46.65 44.76 39.47 43.55 39.83 44.99 43.43 40.56 41.75 41.72 38.38 36.20 40.21 44.90 41.54 38.56 40.86 41.53 42.62 43.72 44.92 45.36 44.26 40.56 38.55 38.78 38.12 38.13 38.14 38.52 38.92 37.97 36.49
46.44 46.19 45.89 46.72 47.44 47.55 47.50 47.74 48.12 48.63 49.38 54.26 48.79 41.97 47.91 47.26 50.14 45.86 40.16 38.92 41.69 37.29 42.75 43.65 43.55 40.80 44.86 39.70 36.37 40.01 36.39 38.20 35.12 38.61 39.47 37.00 36.67 37.35 41.59 42.07 44.17 44.10 42.87 42.85 42.55 41.30 40.85 40.11 38.60 36.90 35.25 35.59 35.26 34.17
45.79 45.95 45.99 46.10 46.08 46.28 47.01 47.92 47.88 51.91 52.21 52.04 51.45 51.79 51.47 48.91 42.53 37.84 34.94 37.84 38.89 37.40 39.45 40.63 41.23 42.03 41.49 45.86 38.96 37.11 34.94 36.57 33.97 40.85 35.78 34.43 34.94 39.07 40.16 40.24 40.98 41.04 40.94 40.06 40.17 39.24 39.53 38.39 37.23 36.07 34.78 34.31 34.30 33.26
44.36 44.76 45.07 45.27 45.14 45.48 45.73 46.28 47.39 48.22 49.40 52.94 46.55 38.74 43.46 37.11 35.12 34.21 31.66 35.58 34.22 37.08 37.98 38.79 36.36 39.55 40.98 41.96 36.39 36.02 34.21 35.24 41.09 34.48 33.75 35.18 37.51 39.29 39.81 40.19 39.88 40.74 40.33 39.44 37.72 37.10 36.52 35.50 35.21 34.13 32.25 32.46 32.47 30.79
43.82 43.67 44.14 44.45 44.64 44.83 45.08 45.68 46.83 49.44 48.34 39.42 36.93 34.21 34.75 34.21 34.94 34.75 34.94 36.20 34.75 36.02 38.38 39.24 37.47 38.60 39.10 35.30 36.02 32.94 35.39 36.76 32.51 30.94 32.56 35.40 37.49 38.32 39.30 39.53 38.75 36.17 34.18 35.18 34.99 34.14 33.07 32.09 30.47 30.08 29.16 28.60 27.36 27.31
42.97 42.75 43.20 43.28 43.99 44.49 45.08 45.25 46.11 47.21 42.37 35.84 36.39 32.04 31.85 32.40 33.30 33.49 34.21 34.75 35.25 39.42 39.96 39.06 38.69 39.06 36.02 33.85 35.84 33.35 31.67 30.91 33.51 33.59 34.70 36.83 37.88 38.30 37.96 37.70 35.24 33.89 32.71 33.61 34.10 32.52 32.14 31.63 30.45 29.07 28.36 28.40 27.71 25.04
43.45 42.62 40.54 42.68 42.90 43.52 44.77 45.48 44.75 43.55 37.26 35.12 33.49 32.40 32.76 32.94 32.40 32.76 32.94 33.12 36.09 37.28 41.79 42.31 36.20 32.94 33.67 35.91 33.67 31.60 32.78 31.78 33.49 34.36 35.40 36.79 36.32 36.91 36.47 35.15 35.22 35.87 35.09 34.40 33.50 32.21 30.37 29.10 28.54 28.65 27.64 26.29 25.59 24.37
42.23 39.02 41.06 42.69 42.73 42.44 42.70 42.80 40.93 34.39 32.94 32.58 31.49 32.37 33.12 32.40 31.67 31.85 32.94 33.49 36.91 37.65 33.67 37.65 33.49 31.98 36.71 32.90 31.41 33.38 31.49 32.93 33.62 33.86 35.67 36.39 36.39 36.53 36.52 36.03 34.48 35.28 35.37 34.46 33.15 32.04 30.31 29.62 28.80 27.92 26.35 25.87 26.53 26.35
40.80 40.70 41.78 42.68 43.67 41.25 38.92 38.30 37.26 35.58 31.68 33.26 30.97 31.49 31.76 31.81 32.04 32.04 32.58 34.71 37.41 36.49 36.85 34.34 37.69 33.80 32.65 30.46 30.08 32.11 31.60 31.81 32.66 34.49 35.74 37.05 37.74 37.10 36.36 35.85 36.45 35.77 33.39 31.98 30.87 30.14 29.23 28.80 27.88 26.15 25.81 25.01 25.67 25.19
40.00 40.74 41.44 42.40 42.57 38.71 35.12 35.75 38.48 31.44 32.35 33.47 33.11 33.24 32.90 32.40 32.91 33.79 33.83 35.17 36.90 39.63 40.05 38.64 34.27 31.66 31.08 32.96 32.16 31.20 31.75 31.86 30.86 31.33 32.64 35.65 36.62 35.93 35.67 34.74 33.54 32.44 31.54 31.13 31.14 28.91 26.59 25.97 24.94 24.84 23.94 23.68 22.59 23.04
41.18 40.55 41.30 41.99 44.10 37.41 34.28 35.11 40.38 34.34 31.48 33.41 34.51 33.62 33.61 33.26 33.47 33.30 34.94 36.75 36.47 35.79 30.76 28.82 26.88 27.64 30.12 30.97 34.70 34.48 33.80 33.28 32.36 30.42 30.16 32.11 33.48 33.22 32.90 32.25 30.76 29.66 27.46 26.17 25.87 27.12 27.03 25.70 24.27 23.28 21.92 21.70 21.05 20.06
42.75 41.16 42.16 43.77 41.01 39.35 36.13 35.37 34.07 34.48 34.98 32.64 34.16 34.47 32.91 34.56 33.30 32.94 33.29 35.64 31.56 28.07 26.72 28.72 29.25 31.42 33.54 33.72 35.62 36.98 35.96 36.41 34.77 33.82 31.76 30.74 32.89 32.04 30.81 30.59 30.48 30.18 28.52 27.27 25.90 23.16 23.26 21.92 21.39 21.37 21.94 21.91 20.54 21.02
40.73 40.94 42.17 41.75 37.02 35.48 34.72 36.84 35.08 35.58 34.20 34.18 34.16 34.69 32.75 31.48 31.63 31.83 35.58 29.96 26.82 27.71 29.85 30.63 32.24 31.39 30.78 31.27 32.33 33.41 33.90 34.51 33.93 33.22 32.43 31.84 29.45 28.48 27.96 27.99 27.29 25.47 24.41 24.15 23.42 22.21 21.67 19.83 18.70 19.02 19.88 19.79 19.02 20.97
40.40 41.15 38.14 37.13 32.87 33.00 30.17 38.46 32.49 33.16 30.26 31.10 33.34 30.30 30.50 30.15 31.29 35.24 28.73 28.87 28.41 29.97 30.60 30.74 30.80 31.61 30.62 31.33 31.89 32.27 32.43 31.20 30.08 29.92 29.50 28.56 27.78 27.13 26.06 25.63 26.05 24.44 21.69 20.41 21.59 20.81 19.59 15.37 17.64 17.11 18.71 18.85 18.56 18.94
38.41 32.81 30.73 30.67 32.23 27.44 33.67 30.76 32.90 31.09 31.62 30.02 28.25 25.65 26.88 28.67 32.64 29.61 24.32 25.56 28.98 30.64 29.25 29.31 30.24 29.17 28.86 27.72 26.30 26.85 28.79 29.67 28.12 28.01 28.28 26.36 23.85 22.67 22.70 21.25 20.36 19.94 20.34 20.44 20.40 19.59 19.29 18.33 15.12 17.35 17.23 15.66 16.23 15.64
29.30 27.25 30.55 27.18 32.70 29.71 27.48 27.10 28.03 27.76 26.08 28.27 26.47 26.05 26.90 30.37 26.42 24.90 22.55 24.20 24.36 24.55 25.49 29.55 29.12 28.43 25.57 24.56 24.03 23.91 26.28 26.99 24.51 22.60 23.84 24.03 22.54 21.52 20.23 19.27 18.10 17.79 19.09 18.38 17.05 16.55 16.50 16.72 16.37 15.25 13.82 13.90 13.08 12.92
23.62 26.47 25.80 26.47 27.13 26.93 27.06 24.39 25.00 25.55 26.70 25.88 24.37 26.51 29.95 27.57 22.47 18.11 19.57 21.86 21.26 21.31 22.10 23.40 26.81 22.93 20.76 22.20 20.69 19.77 20.42 25.20 23.03 18.93 18.97 20.44 21.09 21.28 19.94 18.94 18.12 15.07 17.02 16.59 14.72 13.21 13.51 13.77 12.81 12.00 12.31 12.60 11.63 12.49
23.02 25.02 28.07 30.87 29.11 29.08 27.31 28.36 29.53 28.19 25.70 25.21 26.50 26.80 26.83 21.36 17.29 19.28 21.27 21.23 20.33 20.74 21.00 21.93 22.54 21.26 19.60 18.85 19.28 19.67 19.98 19.95 19.50 18.20 18.84 17.92 17.46 17.45 16.54 14.67 12.56 11.42 14.21 14.12 12.72 11.38 10.00 10.33 10.57 10.88 10.92 12.54 13.05 12.15
25.91 26.43 23.08 27.06 27.46 29.59 25.91 26.84 26.06 24.50 25.35 26.26 28.33 20.67 19.01 17.41 15.09 19.10 20.49 22.39 21.71 21.06 20.01 19.57 19.45 19.33 18.86 19.58 20.60 20.87 19.99 18.98 18.68 18.96 18.43 18.08 18.12 17.54 16.49 16.33 14.31 12.64 13.33 13.58 11.86 11.49 10.42 9.86 9.02 9.08 9.75 9.42 9.17 10.89
25.18 28.49 28.98 23.43 25.95 25.84 25.34 25.75 24.39 23.53 24.32 25.64 24.35 18.83 15.94 15.91 18.58 20.11 20.74 22.17 23.46 22.38 20.14 19.64 19.38 20.23 18.88 18.15 18.49 17.84 16.93 16.46 16.95 14.26 13.81 14.36 15.20 14.26 15.89 15.22 15.23 14.91 14.58 13.44 13.62 13.11 12.18 10.95 9.97 9.30 8.92 8.92 8.95 10.02
25.55 29.80 26.71 24.97 23.79 22.67 24.79 25.31 21.44 23.96 25.18 22.99 19.63 16.39 14.97 15.42 17.73 20.92 20.10 19.92 18.83 17.17 17.87 18.58 18.56 18.62 18.22 16.81 14.93 13.84 14.07 12.99 12.01 10.61 9.88 9.38 10.18 12.97 13.76 14.04 13.21 13.22 13.28 11.97 10.95 10.84 11.97 10.96 10.41 9.57 9.82 9.87 9.62 8.63
28.27 29.57 26.67 25.73 23.20 25.55 26.21 26.23 26.09 24.59 22.67 21.08 22.50 16.89 14.01 14.52 16.33 17.36 16.76 19.15 18.37 19.45 18.68 15.80 14.73 15.65 13.84 12.72 12.95 13.24 12.39 13.15 11.79 10.90 9.78 11.05 12.13 12.78 13.29 12.75 13.06 12.91 11.99 10.85 9.82 9.00 8.55 8.27 7.93 6.97 6.96 6.39 6.47 6.14
25.48 23.99 25.07 23.47 22.82 26.11 29.01 27.88 26.74 23.49 23.20 19.95 18.40 18.77 18.80 17.95 12.21 13.08 14.88 18.11 16.39 14.68 13.82 14.80 13.46 11.97 12.94 14.80 15.15 13.50 7.02 12.65 12.20 10.58 9.58 8.37 8.91 9.24 10.06 10.62 11.07 11.57 11.06 10.01 8.92 8.53 8.03 7.24 6.90 6.43 5.55 5.36 5.04 3.73
24.82 25.03 24.80 24.74 23.75 22.97 23.73 24.26 22.13 19.61 19.41 17.35 16.24 16.58 15.08 13.79 8.64 12.90 16.77 16.65 14.27 13.37 13.06 13.93 14.72 15.24 13.83 13.36 12.05 12.91 11.71 13.13 11.74 12.62 11.27 8.44 5.05 6.85 7.00 8.53 8.36 7.65 6.74 6.81 6.98 6.84 6.50 6.18 5.95 5.50 4.38 3.41 3.30 2.72

GFSWCAN_sfc_wetblb_057.txt.gz
Wetbulb
43.93 43.64 43.62 43.35 43.66 43.81 44.02 44.49 44.95 45.89 46.79 46.92 47.63 48.32 48.37 48.73 49.09 48.22 45.27 49.62 49.45 47.57 48.86 51.81 50.11 48.43 50.01 49.39 42.88 46.82 45.32 47.45 45.28 35.04 34.68 32.75 30.51 37.03 36.73 42.54 36.79 33.70 30.53 27.98 31.28 30.55 26.69 46.05 42.92 36.27 41.45 43.83 44.77 44.97
43.60 43.39 43.21 43.27 43.83 44.89 45.62 45.45 45.78 46.23 46.61 47.00 47.84 47.77 47.96 48.47 49.00 48.20 44.11 51.02 52.70 47.84 49.30 54.82 53.28 53.74 53.33 53.01 50.57 47.63 45.71 47.26 47.32 40.36 38.16 38.02 35.46 34.81 35.42 30.76 43.68 34.69 39.88 34.92 35.76 34.82 43.55 45.40 44.71 45.46 45.36 43.93 44.65 44.37
43.70 43.71 43.68 44.81 45.12 45.51 45.77 45.87 46.17 46.38 46.72 47.16 47.43 47.20 47.37 47.59 48.37 47.96 45.88 50.88 50.72 46.86 50.11 52.92 49.99 52.87 55.52 55.14 55.91 47.41 48.62 50.37 49.61 50.21 44.62 40.83 34.91 38.43 32.89 34.77 38.89 42.89 45.75 39.53 39.42 43.01 43.15 45.15 46.53 47.02 46.62 45.22 45.89 46.24
43.94 44.31 44.69 44.83 45.12 45.40 45.79 46.07 46.21 46.44 46.67 47.18 47.00 46.63 47.09 47.75 48.14 47.98 45.25 49.21 50.55 49.32 40.21 48.54 55.42 51.84 54.29 55.95 55.79 56.71 54.57 54.50 52.69 49.42 40.07 36.64 35.11 44.66 37.20 41.60 39.51 42.50 43.32 41.49 40.21 42.66 44.67 44.86 45.18 46.18 46.80 46.82 42.36 40.99
44.65 44.91 45.26 45.40 45.52 45.54 45.73 45.70 45.89 46.37 46.77 47.17 46.90 46.47 47.16 47.95 48.61 48.73 48.21 48.89 50.97 49.00 42.18 45.49 51.54 52.84 54.19 54.46 54.60 56.05 54.15 52.48 48.32 39.46 35.63 37.64 42.86 41.39 41.33 40.94 38.22 43.21 41.99 35.27 33.86 43.61 42.99 42.73 44.65 45.25 42.72 41.67 40.33 38.44
44.75 44.78 44.90 44.92 45.12 45.34 45.38 45.59 46.15 46.24 46.58 46.88 46.90 47.05 47.72 48.13 48.64 47.94 44.37 50.05 50.81 52.23 47.06 37.64 48.53 48.68 51.79 53.00 52.13 53.55 53.56 52.64 48.68 42.88 37.67 42.95 45.91 40.89 33.62 32.29 42.68 44.67 45.52 45.66 43.12 45.27 43.12 41.18 41.53 42.20 40.23 39.46 39.32 38.34
44.75 44.85 44.85 44.96 45.34 45.57 45.83 45.65 46.12 46.28 46.60 46.90 47.20 47.63 47.99 48.03 48.65 46.72 46.17 49.90 49.89 52.08 44.81 36.75 39.33 46.83 50.10 50.56 48.40 49.14 49.78 47.37 47.47 42.97 39.04 41.20 42.58 41.95 35.42 33.14 42.59 44.52 45.16 45.68 46.30 43.97 39.97 40.34 37.56 39.13 39.17 38.92 39.19 38.18
45.21 45.58 45.52 45.02 44.75 44.47 44.17 44.33 44.72 45.47 46.19 46.97 47.18 47.60 47.78 48.39 48.60 48.72 50.28 48.72 48.85 50.36 45.56 34.75 36.19 41.90 48.33 43.04 40.67 45.91 44.55 43.55 42.76 42.36 40.92 35.50 40.10 35.37 33.68 41.48 43.57 44.00 43.49 41.97 42.16 43.11 40.45 40.42 40.03 38.93 38.26 36.94 35.29 34.76
44.58 44.87 44.78 44.41 44.44 44.44 43.42 43.92 44.55 44.99 47.26 47.60 47.62 47.80 48.31 47.53 46.48 49.45 49.13 47.26 50.93 46.70 34.92 33.23 36.01 34.74 46.10 42.35 42.54 41.00 42.47 35.28 42.40 34.74 38.55 39.27 35.96 32.81 39.74 40.99 41.81 42.16 40.85 40.04 41.21 40.58 39.59 38.20 38.22 36.40 36.18 35.26 34.36 34.14
44.21 44.26 44.64 44.68 45.02 46.02 45.50 45.69 45.46 46.76 47.33 47.62 47.80 47.69 41.82 46.63 48.03 47.96 46.56 41.84 38.68 39.17 39.23 35.84 38.76 36.75 43.38 37.95 36.20 35.79 35.82 34.21 32.93 35.94 42.02 34.69 33.89 39.72 40.28 40.95 42.06 43.01 41.74 40.99 37.09 35.56 36.29 36.53 35.38 35.84 34.75 34.70 33.20 32.11
46.39 46.21 46.10 46.19 46.14 46.20 46.31 46.58 46.85 47.42 47.94 49.25 45.03 39.47 46.37 47.75 48.10 41.11 34.56 34.92 36.38 32.76 35.32 39.97 39.06 37.71 42.97 35.53 33.63 34.92 33.48 33.45 31.96 33.57 34.22 33.51 32.16 37.84 41.83 40.88 41.68 42.28 42.53 41.95 40.74 39.74 39.43 38.08 33.83 32.67 32.42 32.24 31.23 30.04
45.91 46.59 46.72 46.57 46.50 46.56 46.63 46.86 47.35 49.15 50.05 49.12 47.10 48.29 46.66 43.96 37.09 35.60 32.53 33.59 34.92 31.90 34.74 37.08 37.34 40.12 37.24 42.21 35.61 33.67 32.90 33.08 30.09 36.73 33.99 27.84 34.62 39.32 39.75 38.49 38.59 39.89 40.13 39.60 40.10 39.24 37.60 35.19 34.31 33.31 32.21 30.54 27.88 26.77
44.92 45.30 46.04 46.14 46.86 47.39 47.28 47.94 48.34 48.80 49.50 48.27 42.41 36.57 37.83 34.21 32.65 31.92 29.32 31.99 31.88 33.83 35.79 34.83 34.01 34.71 36.32 37.43 33.65 34.01 32.62 32.14 35.27 31.72 27.46 30.94 36.95 38.67 38.49 38.24 38.39 39.21 38.76 36.97 35.31 35.06 34.54 33.16 32.11 30.91 29.54 28.59 26.84 25.34
44.42 44.48 44.17 44.69 45.25 45.42 45.92 46.26 47.61 47.27 45.25 37.23 34.59 32.87 33.08 31.99 31.58 31.58 32.55 33.48 33.08 34.03 35.30 35.10 34.75 33.80 33.85 33.26 33.11 31.89 32.37 33.74 29.73 26.24 27.34 33.83 36.90 37.80 38.48 38.64 37.33 33.54 32.28 32.31 32.42 31.17 28.91 27.92 26.98 26.53 25.29 24.34 24.35 24.29
43.26 43.50 43.48 43.08 44.19 45.40 45.22 45.14 45.23 44.62 38.12 33.23 33.33 30.06 29.90 31.19 32.35 32.37 32.74 33.09 33.79 36.34 35.79 34.74 34.74 34.66 32.76 32.67 32.52 31.70 30.33 28.62 28.53 28.11 32.35 35.81 36.84 37.23 36.01 33.85 32.59 31.31 30.82 31.00 31.41 28.87 27.29 26.74 26.14 25.79 26.04 25.32 24.20 20.75
43.45 42.70 40.52 43.00 43.37 44.69 44.93 44.01 42.52 41.09 34.89 32.99 31.78 31.55 32.17 32.17 31.84 32.22 32.40 32.40 34.34 34.19 35.46 34.75 33.14 31.98 32.19 32.29 30.67 30.07 27.36 25.45 30.19 32.02 35.43 36.90 36.43 35.73 33.54 32.86 33.35 33.48 32.33 31.93 31.33 30.00 28.51 26.26 24.55 24.34 25.12 23.59 19.31 18.19
41.57 37.91 41.96 43.28 43.06 42.89 43.50 40.75 37.72 32.65 32.14 31.62 29.91 31.76 31.99 31.92 30.86 31.43 32.23 32.19 34.99 34.54 32.38 32.88 30.50 29.88 32.75 30.42 27.98 30.29 27.99 29.83 31.78 33.21 34.50 35.47 34.61 33.31 33.46 33.31 32.39 32.64 31.99 29.91 28.75 28.11 26.92 27.30 25.70 24.17 22.43 23.66 23.70 22.36
38.70 40.80 43.12 43.68 43.66 41.33 39.08 38.58 35.01 32.88 29.82 30.84 28.78 29.92 31.03 31.61 31.43 31.58 31.99 33.27 33.98 32.93 32.19 30.47 33.80 30.97 29.79 27.63 27.84 29.44 29.87 31.75 33.71 34.72 35.05 35.01 34.67 34.68 35.06 34.15 33.98 32.68 30.39 29.20 28.55 27.92 27.19 25.23 23.88 22.42 22.68 23.26 22.71 22.20
40.49 41.10 42.51 42.62 41.88 37.90 34.11 34.64 36.56 29.56 30.30 31.63 31.64 31.64 31.63 31.28 32.35 33.03 33.63 34.57 34.69 36.18 34.30 33.20 28.61 27.43 27.50 29.90 29.34 30.05 30.66 31.54 30.64 32.05 33.98 34.20 34.27 33.98 33.44 31.48 30.19 29.33 28.40 27.77 25.68 23.87 23.43 23.16 22.35 21.41 21.28 21.29 19.26 18.81
41.79 41.27 41.79 42.60 42.96 34.69 32.39 32.77 37.35 31.85 30.11 30.87 32.00 31.25 31.45 31.08 31.64 32.56 32.61 32.37 32.46 30.70 26.44 25.25 24.75 26.63 27.79 30.26 32.82 31.68 31.46 32.20 31.63 29.53 29.41 30.73 31.75 31.47 30.58 29.56 26.96 26.08 25.66 25.24 24.87 23.96 22.75 21.42 21.59 20.54 18.57 17.48 13.62 12.66
40.72 39.38 42.10 41.89 37.63 35.90 33.96 32.10 31.69 32.52 32.32 31.34 31.66 31.99 30.89 32.44 31.62 30.45 29.32 31.38 27.22 26.49 25.25 28.36 28.36 29.81 31.72 32.50 34.07 34.26 34.19 33.93 32.17 30.58 29.62 28.97 30.52 30.12 29.39 29.46 28.83 27.71 25.32 22.89 22.27 20.37 18.54 17.29 17.80 17.96 10.94 9.36 8.43 8.82
37.10 41.12 35.09 36.88 32.52 32.27 30.66 34.39 32.04 33.00 32.41 31.64 31.96 32.29 30.66 29.35 29.17 29.66 30.28 25.48 24.86 26.63 28.49 28.45 28.75 29.43 29.36 29.89 30.65 32.02 31.36 32.51 31.83 30.92 30.19 29.19 26.69 26.31 26.07 25.60 23.67 21.33 21.04 20.76 20.67 17.20 16.33 16.89 15.66 12.77 6.95 5.41 9.38 9.57
39.17 37.42 32.84 31.88 25.51 24.97 24.91 33.18 28.54 30.66 27.82 29.43 31.00 28.68 28.41 28.24 29.95 31.33 24.90 26.73 26.55 28.99 29.36 30.11 29.62 29.29 27.52 27.68 28.62 29.11 29.65 28.62 27.27 26.62 25.82 24.64 24.04 23.40 21.89 21.82 22.35 18.98 18.02 18.61 19.72 17.69 14.72 13.83 12.49 6.76 7.68 6.87 2.79 3.40
36.99 30.88 24.70 24.95 25.20 23.85 28.18 23.72 29.02 28.56 28.34 26.93 24.32 22.45 24.45 26.46 29.30 23.76 20.70 22.47 23.68 24.33 25.41 28.03 29.75 25.60 25.01 23.96 22.83 23.81 27.41 26.32 24.85 25.99 24.85 22.11 19.95 19.41 19.84 18.56 18.34 18.26 19.08 19.20 17.60 15.36 14.46 8.52 8.37 6.52 3.48 -0.35 -1.44 1.58
21.12 21.55 23.52 17.77 23.89 19.72 17.77 24.70 25.89 24.66 22.73 25.60 23.80 22.95 23.36 26.98 22.05 19.08 18.31 19.60 18.81 18.31 20.35 24.41 22.46 24.23 21.37 20.73 20.68 20.51 24.05 24.02 21.11 18.80 21.09 22.35 19.88 18.58 17.36 16.89 16.32 16.02 16.98 13.80 12.10 10.16 7.58 6.33 3.15 0.55 1.85 -1.49 3.38 0.43
21.73 25.43 23.39 24.37 25.21 22.21 22.21 21.64 23.30 23.26 22.00 16.63 23.00 25.20 26.76 21.90 13.04 13.06 16.20 17.75 16.79 17.12 17.07 19.21 20.78 17.81 16.96 18.36 16.77 16.19 17.68 22.18 19.75 16.06 16.30 17.52 17.07 18.26 17.41 14.66 12.31 11.23 14.29 12.65 8.67 5.72 5.59 5.33 2.93 2.30 -0.02 3.38 2.61 1.94
21.83 23.42 27.24 29.92 29.01 28.31 25.72 25.14 24.74 20.68 18.07 19.74 22.10 20.94 21.43 10.80 10.79 15.88 18.44 18.57 17.52 18.03 18.72 19.38 19.69 17.91 16.69 16.58 17.48 18.04 18.54 18.47 17.48 16.63 17.17 16.42 16.02 15.32 12.82 9.65 6.29 8.13 11.34 8.52 4.12 0.75 -0.48 -1.01 -2.61 -3.49 -3.32 0.14 1.85 0.21
24.97 26.63 22.96 25.75 22.37 24.97 19.56 17.16 15.83 18.41 18.17 21.49 21.87 12.37 8.08 9.28 10.23 17.17 19.00 20.12 18.97 19.40 18.39 18.20 17.98 17.46 16.47 15.57 15.28 15.66 17.05 16.80 16.74 16.81 16.48 15.72 15.31 14.18 11.88 10.12 9.23 11.82 8.67 4.47 0.43 0.66 -1.76 -0.95 -5.11 -5.84 -5.84 -4.93 -5.66 -6.05
24.79 27.09 22.77 21.59 21.82 20.04 20.63 18.68 18.68 20.14 22.18 22.25 12.17 11.45 9.72 14.51 16.91 17.80 18.72 18.74 19.33 17.85 16.64 16.26 13.40 14.79 14.44 13.42 12.33 11.52 10.42 9.91 9.21 5.86 3.40 4.95 3.85 4.91 3.88 2.82 3.19 2.31 1.91 1.89 7.43 9.16 6.90 4.11 3.38 0.20 -4.22 0.20 3.46 -2.37
21.85 27.95 21.15 15.44 13.90 16.14 17.99 19.66 16.83 20.90 19.53 14.21 14.07 13.50 12.55 12.11 14.52 16.90 16.60 17.06 14.95 14.06 15.06 14.53 13.65 11.86 11.64 11.54 7.23 5.03 4.03 3.03 3.33 -2.09 -6.02 -6.20 -2.24 0.74 1.39 6.81 1.10 0.79 1.88 -2.14 -3.15 -1.13 4.85 -0.37 -0.58 -4.61 -5.72 -6.27 -1.60 -0.47
24.76 25.21 21.54 18.78 19.56 20.11 20.47 20.66 19.20 18.31 13.67 13.16 12.98 8.20 8.28 9.87 11.58 14.08 13.29 15.29 14.35 16.27 10.62 7.73 7.62 7.53 5.31 3.80 0.65 -2.24 -1.15 0.59 1.08 -2.07 -2.15 -2.95 -2.24 3.94 4.02 1.49 5.13 1.79 -1.34 5.19 0.24 -5.84 -7.11 -6.93 -6.38 -2.78 -6.02 -7.47 -6.03 -2.61
24.72 21.00 21.10 16.70 19.28 23.98 23.90 22.60 22.50 18.34 16.59 12.68 9.76 7.76 9.80 9.26 3.16 6.36 11.40 12.17 8.10 7.03 5.14 5.22 1.69 -0.94 -0.64 0.43 3.50 -1.39 -1.75 3.27 -0.32 -2.32 1.05 -3.85 -5.30 -6.93 -4.76 -2.99 -0.33 2.88 0.44 -6.40 -5.12 2.25 -0.67 -3.85 -4.75 -0.53 -2.41 -3.85 -8.76 -9.67
17.32 18.48 19.93 19.14 19.27 15.41 13.94 17.87 13.48 12.43 11.16 8.68 10.85 4.82 2.20 0.49 -0.24 5.50 10.55 6.05 2.91 1.59 4.47 6.24 5.25 6.99 4.89 0.88 -0.43 3.24 4.18 -0.22 0.87 8.89 6.55 2.21 -3.30 -1.86 -6.75 -8.57 -9.47 -10.37 -10.01 -10.01 -8.20 -9.47 -7.47 -2.10 -0.44 -0.77 -1.46 -3.50 -8.20 -8.38

GFSWCAN_sfc_wetblb_060.txt.gz
Wetbulb
46.03 45.14 44.63 44.58 44.15 44.10 44.27 44.49 44.44 44.66 44.77 44.80 45.20 45.00 44.88 44.93 48.32 47.23 44.91 48.68 44.16 44.06 45.63 50.99 48.59 44.92 46.00 45.39 41.26 45.15 44.49 44.17 42.06 35.70 34.69 34.97 29.74 36.07 34.74 38.65 34.50 32.87 29.68 27.75 28.25 20.45 25.49 42.75 41.04 35.95 38.15 41.61 43.66 43.81
44.72 44.58 44.21 43.84 43.38 43.84 44.11 44.18 44.30 44.44 44.78 44.94 45.30 45.18 45.98 48.37 48.73 48.42 42.78 47.47 48.34 44.13 44.36 49.50 51.30 52.86 50.89 50.05 48.81 46.40 45.80 45.40 45.63 39.70 37.49 37.49 34.54 31.72 33.47 31.12 41.00 33.38 35.81 32.59 34.44 32.79 40.58 42.96 42.32 42.94 43.90 42.94 42.68 43.27
43.49 43.32 43.13 43.15 43.50 43.67 43.87 43.90 44.25 44.57 45.84 45.82 46.14 47.61 47.89 47.97 48.56 47.14 44.36 46.43 45.88 44.39 44.92 49.09 49.16 52.27 54.06 53.75 53.57 46.12 46.47 49.40 47.58 48.20 44.15 41.06 34.72 36.59 31.18 31.19 37.04 41.08 44.26 38.64 38.68 40.36 41.52 43.34 44.59 44.72 44.46 43.35 42.97 44.23
43.34 43.34 43.38 43.49 43.57 43.60 43.97 44.37 44.96 44.57 46.22 46.33 46.95 47.34 47.46 47.94 48.78 47.58 43.87 47.58 47.83 46.99 39.12 45.77 54.63 50.72 53.81 55.55 55.27 54.25 52.91 51.43 49.11 45.99 38.87 37.29 34.30 41.40 34.05 38.84 37.22 40.57 42.29 39.73 38.29 41.48 42.81 43.23 43.72 43.79 39.86 39.43 38.34 38.25
44.50 44.02 43.54 43.51 43.72 44.56 44.66 44.93 45.56 45.81 46.28 46.86 47.07 47.42 47.65 48.18 48.64 47.85 47.42 46.97 48.61 45.56 39.98 45.00 50.21 51.77 53.23 54.32 54.13 55.27 53.41 51.47 46.36 38.70 34.56 37.80 40.73 40.32 38.72 38.27 36.87 41.20 40.23 35.81 33.93 42.47 40.48 41.29 42.08 41.74 38.37 37.59 37.75 36.65
44.66 44.87 44.94 45.17 45.27 45.43 45.52 45.75 46.03 46.33 46.46 46.65 46.67 46.99 47.32 47.47 47.67 46.08 39.73 46.34 48.25 48.73 41.06 37.08 47.37 49.38 50.97 52.43 51.33 50.25 49.85 49.66 48.25 43.15 40.01 43.02 45.42 38.42 32.26 30.39 41.08 43.11 44.23 43.80 42.58 42.08 40.77 39.60 39.43 39.57 37.47 37.52 37.38 36.66
44.95 45.18 45.16 45.23 45.14 45.27 45.46 45.72 45.94 46.26 46.31 46.12 46.23 47.08 46.86 47.15 47.01 42.54 40.87 48.19 48.01 49.42 41.98 36.37 39.04 47.89 49.48 48.86 46.77 47.60 47.26 45.47 46.43 44.67 41.06 41.48 42.59 39.70 32.02 31.11 41.36 43.27 42.98 41.21 41.15 40.21 37.04 37.75 35.13 38.08 37.87 37.69 37.64 36.27
44.65 44.71 44.86 44.93 45.00 45.04 45.28 45.60 45.99 46.42 46.33 46.40 46.65 46.58 46.49 47.72 48.04 44.58 49.68 49.19 50.63 46.97 45.72 34.39 37.90 41.57 46.79 41.44 41.05 43.74 40.80 41.88 42.39 41.14 40.27 36.98 40.59 35.87 32.23 39.93 41.89 41.60 42.47 41.25 40.05 40.95 38.18 37.70 37.24 36.26 36.75 36.05 34.52 32.60
44.41 44.65 44.92 44.94 45.20 45.31 45.42 45.88 46.04 46.56 46.67 46.76 46.99 47.42 47.28 46.05 44.74 44.29 49.85 48.60 48.44 46.52 34.93 33.30 35.63 34.56 44.49 40.78 41.04 40.15 38.66 35.10 38.74 35.28 37.11 38.61 33.74 30.78 37.51 39.85 39.94 41.46 40.21 38.40 38.85 38.47 37.72 35.89 34.99 34.94 34.92 34.56 31.15 30.32
44.86 44.57 44.33 44.13 44.06 44.06 44.47 44.77 44.80 46.05 46.83 46.95 45.65 43.90 38.91 46.07 49.33 49.36 47.81 43.73 39.33 38.53 37.83 34.56 38.20 36.40 41.39 35.43 34.75 35.22 34.90 33.47 34.15 33.41 40.16 31.44 32.82 37.54 38.87 40.87 41.45 40.48 40.05 39.27 35.84 34.18 34.42 33.51 33.66 34.09 33.86 32.78 31.04 29.59
44.54 44.54 44.27 43.75 43.94 43.77 44.19 44.42 44.39 44.55 45.74 44.65 41.52 38.56 46.28 48.56 46.97 41.96 35.64 34.39 34.83 31.45 35.43 38.92 37.60 37.72 42.08 35.09 33.62 33.82 32.73 32.85 31.36 34.58 33.60 32.73 32.28 36.49 39.62 40.48 41.34 41.34 40.80 40.60 39.43 37.66 36.77 35.65 32.67 31.27 30.51 30.19 29.65 29.08
44.75 44.53 44.64 44.86 44.70 45.24 45.01 44.16 44.58 43.81 45.06 46.94 46.45 47.06 45.80 42.35 36.02 35.27 31.81 32.87 32.51 31.59 35.00 36.32 36.35 37.08 37.09 39.81 34.66 33.27 32.16 32.05 29.31 36.01 33.18 31.05 33.59 38.75 39.30 39.19 40.56 41.14 40.84 40.00 39.35 36.24 34.75 34.37 33.25 30.77 28.59 27.16 26.67 25.74
45.89 45.87 45.66 45.19 45.84 46.07 45.37 44.45 44.25 46.82 47.91 46.49 41.49 39.47 37.97 33.47 31.96 28.38 28.07 30.53 31.12 33.41 35.22 34.68 33.26 34.51 35.83 37.01 33.26 33.08 31.18 30.16 31.09 29.41 29.21 30.05 37.24 38.02 38.29 38.37 37.95 37.80 36.89 36.07 35.06 34.78 34.10 32.68 31.46 28.11 25.20 25.47 25.51 24.56
44.39 45.16 46.30 46.18 46.18 46.43 46.38 46.28 46.99 46.93 43.30 36.57 35.46 31.40 32.55 31.86 30.66 30.66 32.13 32.74 32.85 33.29 34.36 35.13 33.44 33.59 33.11 33.45 32.37 31.58 32.11 32.06 23.04 19.59 26.28 33.45 36.40 36.86 37.79 36.61 33.98 32.47 32.18 32.30 31.61 30.90 29.60 28.45 26.92 26.46 25.25 24.57 23.72 22.33
43.45 43.54 43.87 44.33 45.36 45.84 46.32 45.62 45.00 42.47 35.39 32.25 32.10 28.45 28.78 30.86 32.14 32.17 32.53 32.93 33.44 35.07 34.33 33.14 33.59 34.13 32.37 32.32 31.49 29.43 30.44 27.89 26.25 26.05 31.58 35.54 36.74 36.80 34.48 32.68 31.68 30.71 30.10 29.42 29.28 27.55 26.40 26.06 25.28 24.83 24.94 24.67 23.59 20.54
43.42 42.98 41.52 43.71 44.51 44.98 44.52 43.40 40.87 39.47 33.91 32.58 30.85 31.12 32.11 32.28 31.82 32.19 32.20 32.41 34.33 33.65 34.31 34.35 32.87 31.72 31.08 31.56 29.90 28.18 26.79 25.46 29.49 31.79 34.70 36.20 34.00 33.48 32.49 31.92 32.37 32.07 30.19 28.54 27.81 26.90 25.89 25.08 24.34 23.94 23.64 21.84 19.17 17.92
42.05 38.91 42.69 43.81 43.13 43.30 43.46 39.68 36.55 32.99 32.44 30.84 29.02 31.18 31.43 31.52 30.18 31.07 32.02 31.99 34.46 33.09 32.03 28.31 29.83 30.00 31.38 29.39 28.09 29.80 27.09 29.06 31.43 32.53 35.05 33.80 32.57 32.03 32.42 32.02 31.31 31.02 29.71 29.08 27.95 27.08 25.63 25.40 24.80 22.80 21.02 21.75 22.69 20.89
38.55 40.62 43.19 43.66 42.50 40.93 39.40 38.06 33.09 30.66 28.95 30.41 27.68 29.20 31.03 31.37 31.22 31.76 32.16 32.88 33.44 31.10 30.39 30.50 31.88 28.85 27.75 26.50 26.88 28.91 29.88 31.93 33.29 32.83 32.69 33.15 33.46 33.12 33.31 31.79 31.54 30.30 28.58 27.69 27.16 26.69 25.39 24.38 23.08 22.57 23.76 23.15 22.14 21.70
40.21 41.19 42.83 42.93 41.45 36.87 33.80 34.45 34.84 28.86 29.92 31.25 31.61 31.61 31.43 31.27 31.87 31.75 32.23 33.15 33.20 32.75 31.61 29.26 24.26 23.54 24.36 28.84 28.81 29.73 30.29 31.24 31.06 31.63 32.13 33.26 33.33 31.73 31.32 30.83 29.64 28.22 26.91 25.91 24.94 23.54 23.42 23.28 22.26 22.13 21.85 20.60 18.02 17.92
41.57 41.47 42.03 42.16 41.45 33.78 31.28 32.20 35.77 31.38 29.19 30.51 31.79 30.95 31.24 30.86 31.42 30.19 29.81 30.50 30.44 28.82 26.03 24.49 24.19 26.08 27.42 30.06 31.39 31.16 31.37 31.92 31.19 28.78 28.43 29.54 30.43 29.32 27.71 27.12 26.13 25.92 24.95 24.08 23.02 22.44 21.91 21.15 21.11 20.61 19.28 16.70 11.94 11.79
37.77 38.12 39.50 37.99 34.88 34.81 33.26 31.24 31.54 32.13 31.94 30.97 31.63 31.76 30.47 29.60 26.67 26.07 26.05 28.76 25.56 25.71 24.69 26.03 26.09 27.75 30.38 30.53 31.65 32.68 31.84 31.84 30.45 29.71 27.84 26.58 28.57 27.99 27.55 27.63 27.03 25.53 23.75 22.15 20.23 19.13 18.71 17.63 17.71 16.94 11.87 6.40 8.56 8.61
34.67 39.25 31.23 33.41 28.93 29.23 30.44 33.63 31.34 32.53 31.90 30.87 31.37 31.72 29.16 27.35 25.85 25.81 27.44 23.78 23.56 24.93 27.34 25.53 24.91 25.18 25.80 26.69 28.10 30.27 30.67 30.19 29.44 28.35 28.14 27.43 25.10 24.29 23.41 23.41 22.14 20.71 20.49 19.90 18.64 16.59 15.91 16.01 15.21 13.73 8.26 7.13 10.58 10.83
35.58 32.71 27.79 26.66 22.26 23.31 26.89 31.77 28.47 30.98 27.05 29.02 29.90 27.55 27.10 27.29 29.37 29.56 21.39 22.18 21.72 23.73 27.06 26.54 25.99 25.93 24.38 25.48 26.13 25.85 27.60 25.96 23.98 23.35 22.32 21.28 20.76 20.67 20.60 20.39 20.29 18.25 17.25 18.27 18.39 16.53 15.09 14.25 13.21 11.34 9.13 7.45 5.09 4.78
33.89 26.59 25.80 22.47 21.10 19.70 20.72 23.69 28.74 28.92 28.10 26.45 25.12 22.74 24.71 26.66 27.01 21.95 17.35 17.77 19.53 21.29 22.18 24.54 25.17 22.91 22.47 21.67 20.41 22.63 24.05 23.86 22.21 22.15 22.50 20.18 17.80 17.50 17.73 17.03 16.74 17.30 17.30 16.95 15.41 13.97 13.21 10.97 9.91 8.06 4.25 -0.09 -2.13 -2.27
19.99 19.71 18.45 15.00 18.56 16.92 13.33 20.41 19.78 21.75 20.59 22.46 21.21 21.70 23.91 25.37 18.51 15.96 13.92 15.25 15.69 15.57 16.98 20.90 19.63 19.93 18.15 17.54 17.74 19.43 21.91 20.86 18.13 15.87 18.35 19.96 17.93 16.96 15.45 14.55 13.62 13.98 14.58 10.58 8.84 7.41 6.19 5.75 4.68 3.63 3.40 -3.51 3.62 1.23
19.34 19.71 21.91 21.52 20.79 19.70 21.69 19.01 16.79 16.57 14.32 19.33 21.19 22.16 21.89 14.52 10.62 10.15 13.05 14.86 14.28 15.14 14.77 17.23 16.22 14.95 14.36 15.91 14.77 14.95 17.01 19.96 17.57 13.85 14.42 16.03 16.31 16.06 13.96 12.23 10.59 9.23 11.94 8.09 4.37 1.74 2.10 1.23 -1.59 -1.49 -5.50 -2.31 -0.61 -1.87
16.53 16.24 24.59 28.79 27.78 24.77 17.60 19.12 20.05 14.77 12.40 13.18 17.58 15.33 9.75 3.68 5.29 12.81 16.82 16.89 15.67 16.72 17.65 18.02 17.47 15.72 14.92 15.14 16.17 16.75 17.07 16.69 15.45 14.55 15.39 14.56 13.52 12.43 8.03 3.95 4.30 7.11 10.12 5.57 -0.31 -3.02 -4.58 -7.47 -9.65 -10.55 -12.37 -12.55 -10.19 -10.19
23.67 23.42 17.33 21.30 15.12 18.88 10.55 8.25 11.36 13.29 13.15 19.56 12.95 3.24 0.27 0.97 7.29 14.37 16.83 18.19 17.53 17.83 17.07 16.69 15.52 13.86 11.83 11.44 11.43 11.05 10.64 12.55 14.01 13.63 12.71 11.86 10.82 8.74 7.27 4.88 3.63 11.62 4.46 0.08 -1.90 -1.35 -4.21 -2.77 -4.21 -5.30 -7.29 -11.10 -8.75 -7.17
21.93 23.10 17.54 10.60 10.41 11.77 14.21 11.59 12.22 17.38 17.07 15.80 1.30 3.90 5.53 11.73 12.60 15.12 16.32 17.03 17.68 15.96 13.99 12.94 11.74 10.86 9.37 8.32 7.23 6.24 6.08 4.74 2.69 -1.95 -6.02 -7.29 -5.30 -0.19 5.10 5.47 3.73 -1.69 -5.30 -2.99 1.77 4.19 2.37 0.38 0.43 -6.56 -8.74 -10.37 -6.93 -5.48
19.46 19.06 11.45 6.64 6.03 9.50 14.19 14.13 12.87 12.59 12.75 8.86 12.08 11.06 9.85 9.93 12.03 14.83 14.75 14.24 11.43 9.69 9.58 9.32 8.40 6.47 3.55 -0.52 -4.93 0.89 -2.09 -2.84 -2.18 -7.20 -11.46 -11.28 -6.04 -1.37 -2.76 -1.87 -2.39 -1.17 -2.06 -7.83 -2.08 -0.72 1.20 -8.02 -6.39 -7.68 -8.06 -6.59 -8.92 -14.36
18.21 13.88 10.82 10.29 12.22 13.55 13.49 13.77 14.76 11.83 5.44 6.32 5.15 4.13 2.57 8.04 9.30 12.09 11.92 11.99 10.66 6.89 4.25 -0.22 -0.47 -4.21 -0.76 -4.05 -10.92 -10.92 -6.21 -2.79 -8.01 -7.29 -7.65 -10.19 -13.45 -13.63 -14.00 -13.27 -12.73 -10.55 -9.47 -10.37 -10.92 -9.10 -7.29 -8.20 -8.56 -10.19 -8.56 -4.76 -6.02 -9.28
16.72 13.68 9.75 9.85 14.71 18.00 16.62 13.42 6.72 4.06 1.77 0.64 0.86 -2.39 -0.11 -1.73 -3.67 2.93 7.71 3.03 3.62 2.84 -1.85 -9.28 -6.20 -3.85 -8.38 -9.28 -6.02 -5.30 -0.84 -4.40 -6.56 -5.48 -3.66 -10.01 -12.37 -14.36 -13.09 -11.64 -15.09 -16.35 -16.35 -17.08 -17.44 -15.63 -15.81 -14.36 -12.55 -6.75 -5.51 -6.06 -5.54 -5.87
7.67 5.56 4.84 8.09 11.80 9.41 15.25 9.78 4.61 4.84 -0.25 -0.05 2.03 -0.45 -5.66 -6.65 -3.51 1.98 6.49 -2.58 -2.44 -6.20 -5.66 -4.75 -1.50 0.95 -4.93 -4.95 -4.94 -7.65 -7.83 -11.28 -8.92 -0.94 1.41 1.40 -2.95 -4.93 -12.55 -15.27 -15.27 -15.45 -13.63 -16.17 -18.35 -15.45 -13.82 -15.63 -17.80 -18.35 -15.45 -16.17 -14.72 -14.90

GFSWCAN_sfc_wetblb_063.txt.gz
Wetbulb
44.32 45.10 44.98 45.22 45.34 46.44 45.65 45.45 45.11 44.65 44.60 44.80 45.27 45.39 45.93 46.04 46.46 44.44 43.48 48.07 44.55 41.61 42.53 47.80 47.00 44.04 44.39 44.63 39.22 42.91 44.88 43.68 39.66 34.91 33.80 32.36 29.30 36.16 34.54 37.02 33.90 33.68 30.05 26.30 24.59 20.21 26.93 41.16 39.93 35.26 37.13 40.70 42.65 41.88
45.43 45.94 45.96 45.72 45.23 44.92 45.01 44.73 44.10 44.37 44.65 45.06 45.34 45.62 45.88 45.65 45.11 45.12 41.46 48.25 47.88 42.53 42.79 47.67 47.55 48.00 48.87 49.28 45.56 45.68 43.36 44.29 44.19 39.23 35.87 36.38 32.99 32.25 33.09 30.82 38.61 32.83 35.52 32.95 33.54 32.86 40.04 41.31 40.12 41.24 42.58 42.34 42.53 42.28
43.98 43.96 44.06 44.08 43.99 44.09 44.29 43.93 44.25 44.37 44.67 44.84 45.08 45.22 45.03 44.87 45.76 44.45 43.57 46.00 44.66 39.95 40.03 43.67 45.36 50.01 52.94 52.13 50.61 44.67 45.68 48.75 46.81 47.10 41.91 39.58 35.47 36.16 33.62 32.87 36.94 39.43 41.05 35.64 36.32 39.45 39.94 41.42 42.91 43.21 42.95 42.71 43.11 43.43
43.95 43.93 43.89 43.84 43.69 43.62 43.98 44.08 44.18 44.13 44.44 44.59 44.71 44.75 44.83 45.20 45.69 44.72 44.63 45.55 43.51 42.24 37.93 43.97 53.05 49.99 53.25 53.99 51.26 51.06 50.36 49.64 48.19 46.24 39.84 37.01 34.48 42.13 36.29 39.73 37.31 40.16 41.34 38.45 36.79 39.60 41.50 42.29 41.85 39.65 38.71 39.04 39.20 39.98
43.03 43.13 43.39 43.59 43.66 43.77 43.71 43.94 43.90 44.21 44.38 44.63 44.92 45.16 44.96 45.06 46.28 46.41 46.60 46.76 46.21 42.03 37.90 41.45 48.27 51.85 53.28 53.34 52.80 52.98 51.43 48.04 43.66 39.82 34.63 37.15 40.45 40.01 37.85 38.73 36.90 40.93 39.71 36.58 35.43 41.24 39.82 41.00 40.78 39.56 38.45 37.37 37.55 36.15
43.27 43.40 43.30 43.38 43.62 43.91 44.06 44.16 44.07 43.26 44.99 45.04 45.44 45.71 47.12 47.63 46.99 44.21 39.97 44.69 47.61 47.73 40.50 34.80 46.18 48.73 51.36 51.75 50.71 50.45 49.96 48.24 46.42 42.44 39.36 40.98 44.28 37.74 32.26 32.28 40.36 42.27 43.25 42.27 41.53 43.19 40.30 39.74 38.36 38.49 36.99 36.42 36.66 35.77
43.97 42.75 42.57 43.32 43.98 44.09 44.41 44.29 44.82 45.29 45.04 45.48 46.25 46.85 47.58 46.87 45.08 41.72 37.01 42.18 47.01 47.73 40.24 34.78 38.13 47.21 49.27 49.35 46.31 46.54 46.91 46.49 45.65 43.50 40.38 41.57 41.20 38.98 30.91 30.45 40.15 42.18 41.06 40.11 39.56 39.29 35.93 36.59 34.83 37.09 36.57 36.35 36.68 35.64
44.69 44.87 44.87 45.06 45.34 45.13 44.86 44.50 45.04 45.89 46.07 46.32 46.69 46.71 46.87 46.68 45.82 42.10 48.78 46.23 47.10 43.97 43.64 33.37 36.20 40.79 46.87 42.14 41.49 43.15 40.51 41.25 42.40 41.09 40.02 37.45 40.56 35.04 34.82 39.44 41.10 39.85 39.59 39.27 38.10 39.36 37.95 36.78 36.49 35.11 35.36 34.77 32.46 31.29
44.32 44.35 44.39 44.65 45.14 45.44 45.37 45.39 45.71 45.93 46.28 46.21 46.06 46.21 44.61 43.59 39.32 42.90 47.73 47.97 49.52 45.65 34.83 32.84 34.63 34.60 44.47 40.71 41.09 38.22 39.71 34.62 39.26 34.82 34.63 38.29 33.88 35.14 40.04 41.40 40.47 39.89 39.49 36.93 37.40 36.92 36.79 35.01 34.22 33.69 32.92 31.56 30.06 29.57
44.12 44.09 44.39 44.57 44.99 45.24 45.42 45.53 45.38 45.86 46.20 46.25 44.68 40.89 36.63 43.06 47.92 47.86 45.82 41.12 40.25 38.98 37.19 34.09 38.72 36.78 41.44 36.05 34.47 34.95 34.44 33.71 33.18 35.35 37.88 29.19 32.73 37.71 38.82 40.82 41.15 39.68 38.60 38.14 34.83 33.41 33.74 33.26 32.78 32.73 31.03 31.18 30.30 29.11
44.66 44.54 44.56 44.78 44.20 44.85 45.41 44.87 45.49 46.28 45.46 40.57 38.77 36.97 46.35 48.03 45.43 40.22 33.35 31.71 33.91 32.82 35.67 38.16 38.99 37.44 41.10 34.86 33.53 33.53 32.81 32.44 32.41 34.91 34.96 32.63 32.54 34.53 38.69 38.81 39.87 40.32 40.19 39.69 39.69 38.12 36.82 35.17 33.42 30.67 29.33 29.51 28.88 27.36
44.95 44.56 44.32 44.25 44.59 44.90 44.83 45.47 45.80 42.26 40.96 42.71 44.29 46.76 45.58 41.76 36.45 34.04 31.28 31.52 32.04 31.61 35.19 36.05 35.87 39.07 36.27 37.63 34.68 33.17 31.89 31.61 31.25 35.92 33.32 31.30 32.32 35.51 37.32 37.97 38.87 39.45 38.61 37.68 37.84 36.05 35.24 34.18 32.98 30.89 29.43 27.53 26.26 24.86
44.56 44.25 43.93 43.88 43.94 44.52 44.49 44.34 44.41 44.38 45.56 46.83 42.19 36.46 37.11 33.02 31.69 31.39 29.37 29.63 30.98 33.12 35.08 34.63 33.35 34.04 34.57 33.18 32.96 32.91 31.23 29.29 33.02 32.36 31.48 32.12 36.87 37.71 37.76 38.53 38.71 39.25 37.51 36.05 34.90 34.41 32.61 30.38 29.89 28.48 25.77 25.38 24.67 23.30
44.27 44.40 44.67 44.63 44.72 44.86 44.21 44.50 44.33 43.25 41.17 37.02 34.65 31.56 32.08 31.12 30.94 31.10 31.98 32.82 32.81 33.00 34.59 34.87 32.61 32.43 31.01 33.11 32.07 30.01 31.68 32.78 27.07 23.96 23.94 32.46 36.25 36.57 35.78 35.96 34.82 33.08 32.82 32.86 31.62 30.23 27.90 26.59 25.52 25.73 25.29 24.14 22.14 21.66
44.93 44.99 45.15 44.83 45.06 45.22 44.96 44.38 44.15 43.10 37.33 32.94 33.46 27.80 28.68 30.79 31.87 32.05 32.44 33.00 33.17 34.56 33.52 32.57 32.52 32.09 32.23 31.59 30.00 31.24 29.64 28.14 26.03 21.92 30.25 34.86 35.52 33.46 33.07 32.48 31.43 30.46 30.17 29.52 29.22 27.35 25.77 25.00 24.39 24.08 24.46 23.77 21.74 19.86
43.95 43.12 42.25 45.48 46.08 45.85 44.96 44.26 41.52 38.96 33.65 31.95 29.95 31.07 32.05 32.08 31.90 32.07 32.29 32.31 34.01 33.55 32.63 31.75 30.97 31.58 30.42 30.84 28.38 23.50 26.09 24.96 26.03 31.34 33.86 35.62 33.38 32.64 31.82 31.33 30.82 30.08 28.97 28.37 27.93 27.09 25.80 24.33 23.42 23.63 23.67 21.35 19.57 18.78
42.52 39.49 43.16 43.64 44.60 44.50 43.99 39.55 35.19 30.72 32.09 30.50 28.54 31.25 31.12 31.24 30.06 30.97 32.11 32.26 34.18 33.15 31.28 25.48 28.57 29.58 31.74 28.64 27.62 29.34 26.62 28.57 31.10 32.41 32.96 33.00 31.54 31.26 31.07 30.11 29.28 29.07 28.32 27.61 26.77 25.92 25.04 24.37 22.99 22.08 20.49 20.94 21.54 20.03
39.18 41.36 43.36 43.77 42.93 41.62 39.24 37.10 30.52 31.30 29.03 30.14 28.04 29.26 30.39 30.08 30.38 30.70 31.45 32.67 32.58 30.26 29.42 31.28 31.71 27.82 26.18 25.81 25.65 28.99 30.15 30.86 31.76 31.66 31.77 32.27 32.34 32.06 31.23 29.79 29.87 28.93 27.38 26.10 25.29 25.15 24.50 23.67 23.08 22.07 22.73 22.48 21.18 20.74
40.29 41.03 42.46 42.81 41.47 37.66 33.88 33.94 33.80 28.30 29.63 31.13 31.49 31.69 31.45 30.35 30.28 30.63 31.16 31.92 30.15 30.20 28.61 26.56 20.52 21.19 23.37 28.12 28.69 29.25 30.15 30.67 29.40 29.66 30.43 31.42 31.68 30.57 30.08 29.25 27.93 27.10 26.36 25.51 25.02 23.67 23.29 23.44 22.96 22.89 22.12 21.58 19.39 18.08
41.05 40.85 40.65 41.49 41.17 34.23 31.23 31.92 33.71 29.93 28.69 30.38 30.66 27.15 28.32 27.36 28.80 29.11 28.94 29.60 29.82 28.73 24.51 22.49 22.06 24.12 26.58 28.80 31.10 30.70 31.24 31.74 29.68 26.96 26.19 26.95 28.64 28.70 28.22 27.16 25.58 24.98 23.86 23.23 22.46 22.19 21.38 20.98 21.07 19.72 18.31 17.06 15.70 14.58
37.37 37.54 38.39 38.74 35.54 35.33 32.69 31.12 31.23 31.63 31.80 30.11 31.77 29.53 26.61 27.13 24.38 24.18 24.31 27.83 24.83 24.27 21.56 22.36 22.27 25.01 27.40 29.47 31.38 30.83 29.95 29.89 28.58 27.79 25.95 24.76 26.75 26.56 25.71 25.63 25.67 24.45 22.19 21.03 19.34 18.34 17.99 17.65 18.23 16.54 13.49 8.89 9.26 10.85
33.01 37.29 29.81 32.36 31.13 30.80 30.98 32.63 31.81 32.43 31.59 30.94 30.85 30.38 26.61 24.43 23.51 23.09 25.06 19.16 18.63 19.58 23.67 22.88 22.63 23.86 23.54 24.00 25.57 27.02 26.92 25.97 25.16 24.20 24.52 24.58 22.15 21.37 21.07 22.24 20.79 18.73 18.32 17.96 17.31 15.40 15.36 15.78 15.67 14.97 12.44 9.31 12.25 12.11
33.58 31.61 27.25 26.79 24.77 26.08 27.10 32.17 29.00 30.85 27.30 28.32 28.80 26.68 26.40 25.11 25.39 27.11 18.15 19.14 18.52 20.83 23.92 24.60 24.14 24.09 22.87 24.23 24.75 24.29 24.73 23.36 21.30 20.72 20.29 19.49 19.42 19.37 18.96 19.17 19.45 17.33 15.98 16.89 17.68 16.26 14.40 14.49 12.73 10.28 9.17 8.71 6.08 4.84
31.61 21.71 17.73 16.17 20.38 17.92 21.98 25.35 29.87 28.75 27.68 25.60 24.27 22.29 24.48 23.01 24.87 19.08 13.96 14.95 17.30 19.24 20.29 20.53 22.42 20.85 20.37 19.90 18.55 19.60 21.47 21.69 20.09 19.88 20.12 17.88 15.51 15.22 15.83 14.90 14.90 14.54 14.75 14.26 12.90 10.95 10.37 8.72 8.13 6.96 4.60 0.22 -0.48 -1.32
19.01 17.80 15.72 12.11 16.32 16.32 14.19 16.60 21.55 23.85 21.03 22.82 21.63 21.96 22.71 23.53 16.40 13.82 11.82 13.36 14.61 14.61 16.36 18.61 17.81 18.26 16.50 16.14 17.15 17.29 19.24 19.04 16.15 14.17 17.31 17.60 15.74 14.44 12.56 11.89 11.09 11.35 12.45 8.61 5.86 4.44 3.42 2.84 1.90 0.30 0.32 -4.85 1.44 -3.59
13.24 19.39 19.72 18.79 17.29 16.85 14.82 10.40 15.88 15.11 17.37 19.18 20.85 21.52 18.99 14.66 10.10 8.33 11.49 13.85 13.39 14.72 14.65 15.65 15.09 14.13 13.26 14.71 13.43 13.44 15.07 17.14 15.14 11.04 11.83 13.24 14.62 14.06 11.58 9.56 7.89 7.31 9.22 4.35 2.26 -1.69 -3.46 -6.31 -9.93 -9.75 -12.83 -8.48 -7.94 -12.29
15.02 17.72 23.04 26.13 23.95 22.58 16.06 14.36 16.17 12.19 10.99 11.88 13.83 9.66 7.99 2.35 3.95 11.45 15.65 15.75 14.57 15.71 16.06 15.91 14.96 13.36 12.48 12.70 13.54 14.11 14.39 14.11 12.67 11.55 12.22 11.25 10.64 10.09 6.57 2.84 2.56 6.72 7.45 0.46 -6.70 -8.30 -7.76 -9.57 -12.11 -11.92 -13.74 -17.00 -15.91 -15.91
22.48 21.73 13.20 12.63 11.56 15.43 7.97 4.80 7.96 9.25 10.90 16.60 6.73 -1.82 -4.14 -3.96 5.25 12.53 14.81 16.48 15.93 15.30 13.01 12.03 10.94 9.50 8.27 8.22 8.96 9.65 10.90 10.51 10.14 9.32 9.03 7.06 6.16 6.07 6.30 6.23 4.73 8.02 3.44 -0.02 -5.94 -9.75 -10.11 -5.40 -6.30 -7.57 -10.66 -11.74 -10.47 -14.46
17.94 20.43 13.98 5.84 6.09 7.85 11.01 9.04 8.13 10.88 12.43 9.75 -2.61 -1.41 2.72 8.43 8.63 12.36 14.42 15.10 15.06 12.88 9.62 8.15 6.44 4.83 5.80 5.19 3.55 3.57 3.85 1.64 -1.72 -5.29 -10.47 -12.29 -9.75 -3.62 -0.61 -3.24 -3.59 -4.13 -6.49 -6.67 -1.41 4.21 2.73 -2.68 -7.94 -10.29 -10.11 -13.19 -12.11 -10.84
12.39 13.21 8.84 2.09 2.88 5.83 8.29 10.56 5.28 5.52 10.45 7.42 10.21 9.61 8.36 8.20 10.67 14.27 12.05 10.59 7.94 5.71 4.73 4.52 1.90 -2.98 -9.93 -5.43 -8.48 -0.83 -3.96 -8.85 -7.72 -8.19 -12.29 -13.56 -9.94 -8.48 -15.73 -16.64 -14.64 -13.74 -14.46 -15.55 -15.01 -10.49 -3.40 -11.02 -7.04 -12.11 -13.74 -12.68 -16.64 -17.91
11.92 10.76 7.68 6.81 8.97 8.10 7.64 9.82 10.26 6.65 2.60 5.19 2.59 3.93 1.76 5.25 5.86 9.89 8.29 6.47 4.66 0.99 2.26 -2.36 -5.04 -13.19 -5.04 -10.84 -14.83 -13.38 -8.84 -4.88 -9.75 -10.11 -10.84 -14.28 -17.91 -18.45 -18.09 -17.91 -18.63 -20.45 -20.99 -20.63 -20.63 -19.36 -17.91 -19.00 -19.54 -19.00 -17.55 -15.19 -12.67 -11.74
6.97 -0.70 5.65 4.84 8.14 12.28 10.18 0.37 -0.70 0.96 -1.43 -2.03 -1.09 -2.36 -2.17 -4.89 -7.04 1.38 5.09 0.82 1.43 -2.88 -6.67 -11.92 -8.66 -4.67 -10.47 -9.75 -11.92 -11.02 -7.94 -11.92 -11.20 -9.39 -7.57 -9.93 -12.65 -16.09 -17.00 -15.73 -19.54 -19.72 -19.18 -21.17 -22.80 -21.53 -20.81 -20.45 -21.90 -22.98 -23.53 -21.35 -20.26 -19.00
3.66 0.28 -1.37 2.84 6.74 6.96 11.27 7.81 1.77 0.53 0.25 -1.07 -1.25 -3.23 -12.11 -9.67 -6.69 -0.81 1.74 -6.86 -7.95 -9.57 -9.21 -10.11 -9.75 -8.66 -7.60 -10.85 -11.75 -13.38 -13.19 -16.46 -14.10 -3.22 -2.50 -3.22 -8.84 -9.57 -15.19 -19.00 -20.08 -19.72 -18.27 -20.45 -19.90 -20.63 -19.90 -20.45 -23.17 -24.43 -25.16 -26.79 -25.52 -26.07

GFSWCAN_sfc_wetblb_066.txt.gz
Wetbulb
45.66 45.99 45.64 45.69 45.85 45.61 45.97 45.82 47.34 46.68 46.24 45.89 45.61 45.45 45.41 45.44 46.06 43.42 40.82 43.54 41.15 38.89 41.19 45.25 44.72 41.26 41.78 41.09 35.49 38.84 41.61 41.24 36.42 32.90 30.14 30.53 28.88 35.20 33.38 37.18 35.29 35.09 31.30 26.09 24.49 22.17 27.60 40.13 38.73 34.18 36.95 38.33 39.78 39.43
45.14 45.52 45.45 45.38 45.38 45.05 45.54 47.07 46.47 46.06 45.76 45.45 45.16 45.22 45.29 45.52 45.55 44.91 40.26 44.06 48.10 42.39 41.48 45.43 44.52 45.16 45.82 45.11 42.30 43.92 41.08 41.66 41.95 37.51 33.84 33.97 31.76 32.48 34.12 31.55 37.87 34.47 37.88 34.36 34.61 34.24 40.59 39.77 39.28 39.39 40.26 40.76 41.49 41.19
44.55 44.88 44.98 44.88 44.85 45.50 46.59 46.18 45.55 45.44 45.13 44.96 44.76 45.14 45.33 45.31 45.29 44.74 42.10 43.95 44.76 40.08 40.34 42.08 41.79 46.31 48.37 48.59 49.02 43.06 42.80 46.27 43.91 45.48 40.07 39.33 34.14 36.28 31.97 32.84 36.79 38.44 40.02 35.12 35.89 38.79 39.40 40.56 41.25 41.04 42.15 41.72 42.05 41.28
43.94 45.12 45.24 45.52 45.79 45.42 45.08 44.98 44.87 44.81 44.52 44.27 44.88 44.83 45.09 45.40 45.92 44.53 41.46 45.56 43.77 41.33 34.96 41.45 51.33 49.12 51.64 51.41 50.06 47.84 48.41 47.38 45.75 44.15 37.95 36.94 35.36 40.85 35.29 39.11 37.17 39.31 41.26 37.21 35.45 39.65 40.65 41.55 41.58 40.89 39.74 41.05 40.48 38.31
43.43 43.34 43.38 43.66 44.17 44.19 44.32 44.27 43.98 44.20 44.32 44.83 44.64 44.93 45.29 45.99 45.83 44.08 44.63 45.76 45.85 41.98 36.09 38.37 44.94 49.56 50.95 51.00 50.81 48.63 48.43 45.01 41.91 38.43 34.06 36.62 40.31 39.97 37.58 38.01 35.49 40.65 39.19 36.46 35.81 41.84 41.15 40.28 40.65 39.49 38.99 38.51 38.14 35.77
43.38 43.30 43.41 43.46 43.42 43.57 43.61 43.63 44.02 44.35 44.31 44.64 45.03 45.14 45.10 45.48 45.31 43.86 40.07 45.60 46.75 46.52 38.46 32.84 44.93 48.17 51.26 51.28 49.98 47.08 47.97 46.48 44.20 40.66 36.76 41.17 43.38 40.24 33.15 31.73 40.15 42.17 42.57 42.62 41.88 43.33 39.76 39.01 37.46 38.03 36.76 35.97 36.12 35.62
43.40 43.69 43.73 43.81 43.74 43.85 44.07 44.12 44.26 44.45 44.42 44.47 44.72 44.77 45.08 45.39 44.44 40.77 38.24 42.32 47.52 46.50 38.25 32.88 36.14 46.27 49.03 49.18 46.17 45.15 44.04 43.58 43.68 41.24 37.11 40.38 41.04 38.49 29.92 30.54 39.43 40.50 40.38 40.83 40.06 40.13 36.94 37.27 36.15 36.23 35.73 35.49 36.09 35.13
42.92 43.38 43.56 43.85 43.75 43.63 43.80 43.72 44.00 44.24 44.51 44.71 44.94 44.86 45.00 45.59 45.66 41.68 46.76 47.35 46.26 43.70 41.51 32.05 35.17 40.30 46.81 42.33 41.26 42.97 39.56 40.46 41.11 40.73 38.52 35.37 39.79 36.09 34.25 38.74 39.93 38.91 38.94 37.77 37.29 38.16 37.89 35.99 35.16 33.95 34.55 34.36 32.73 31.58
44.20 43.86 43.65 43.71 43.63 43.94 43.83 43.15 44.10 44.83 44.94 45.57 45.52 46.29 45.15 42.70 38.46 41.09 46.45 46.85 47.79 43.09 33.79 32.61 33.51 34.03 44.07 41.22 40.47 39.38 39.94 34.77 39.54 35.69 35.87 39.33 33.33 33.78 39.45 40.37 38.98 39.03 39.56 36.46 37.19 36.84 36.21 33.52 32.87 32.58 32.97 31.87 30.31 29.66
44.40 44.56 44.46 43.84 44.12 44.59 44.56 44.45 44.88 45.30 45.39 45.81 44.28 39.76 33.51 38.01 46.61 46.80 44.96 40.28 40.31 40.17 37.16 33.51 38.64 35.89 40.81 36.00 34.59 35.43 34.41 34.22 33.32 35.52 39.74 33.71 34.79 37.79 38.68 40.52 41.25 40.41 38.49 37.59 34.25 32.77 32.50 32.25 31.97 31.86 31.48 32.01 31.01 30.14
44.58 44.64 44.77 44.54 44.65 44.55 44.80 45.38 45.27 45.92 45.20 39.01 37.43 36.76 41.98 47.32 44.73 39.41 32.38 32.94 33.68 32.59 35.28 36.00 38.76 37.00 40.45 34.69 32.97 34.21 32.59 31.84 32.02 33.24 34.59 33.09 33.12 35.18 38.29 39.11 39.77 38.97 38.43 38.60 38.03 36.62 36.03 34.43 32.37 29.70 29.28 29.54 29.88 28.95
44.81 44.55 44.07 44.13 44.03 44.27 44.61 45.12 45.33 41.76 38.79 39.99 41.98 45.55 43.88 40.97 34.77 31.69 31.79 31.04 31.39 31.18 34.89 35.82 36.67 38.95 36.04 39.00 33.85 32.93 32.70 32.10 30.80 35.92 33.62 31.34 32.78 35.33 36.48 36.65 37.08 37.18 37.04 36.21 36.48 35.27 34.66 32.68 31.87 30.65 29.26 28.40 27.12 25.50
44.40 43.59 44.11 44.85 44.72 44.98 45.38 44.69 44.98 44.85 44.56 43.86 41.55 38.42 36.22 32.77 31.13 29.14 28.12 26.73 30.56 32.91 34.69 34.60 33.33 34.51 34.75 36.02 32.77 33.12 31.34 29.98 33.23 32.44 31.62 30.63 35.87 37.41 37.10 37.08 36.90 37.26 36.17 35.38 34.52 33.89 32.35 30.97 30.77 28.70 26.08 25.24 24.89 23.95
43.90 43.98 44.21 44.48 44.65 44.78 45.06 44.74 44.47 43.28 40.15 35.30 33.48 30.98 31.46 30.53 31.25 31.39 31.76 32.55 32.59 32.59 33.68 34.01 32.74 33.59 32.40 32.70 32.38 31.39 31.32 32.25 28.19 26.17 26.60 29.70 35.32 35.42 36.90 35.89 34.61 32.93 32.15 31.40 30.62 30.31 29.08 27.76 25.98 25.42 24.37 24.05 23.41 22.25
44.25 44.25 44.58 44.42 44.64 44.60 44.52 44.35 44.17 42.30 36.56 31.64 31.74 27.42 28.48 30.72 31.99 31.99 32.20 32.93 32.74 34.18 33.32 33.08 32.31 32.85 31.55 31.13 30.82 31.51 29.56 25.50 23.62 21.51 29.16 32.87 33.56 33.16 32.49 32.64 31.98 30.95 30.16 28.99 28.13 26.18 25.47 24.90 23.76 23.15 23.28 23.15 22.06 20.53
44.21 43.77 42.80 44.44 44.47 44.81 43.96 43.42 41.67 39.79 33.30 31.45 29.69 30.77 31.82 31.93 31.08 31.45 32.26 32.08 33.63 32.96 32.85 33.05 30.95 30.53 29.54 29.85 24.73 24.41 20.24 18.07 27.17 30.72 32.93 33.10 31.85 31.41 30.96 30.70 30.14 29.68 28.64 27.61 26.98 26.30 25.63 24.71 23.56 22.00 21.53 20.63 19.71 18.93
42.95 39.74 44.87 44.80 44.41 43.96 43.38 39.43 35.63 31.81 31.27 29.94 28.06 30.69 30.90 30.71 29.62 30.54 31.39 31.03 33.94 33.27 30.33 27.55 28.96 29.01 31.17 28.25 27.31 28.56 25.63 28.61 30.30 30.65 31.44 31.74 30.28 29.01 29.08 28.93 28.76 28.46 27.46 26.64 25.73 25.04 24.22 23.72 22.37 21.22 19.55 20.56 20.89 19.89
39.73 42.64 44.55 44.09 43.33 42.06 39.22 36.60 31.94 31.86 28.94 30.11 27.42 29.01 28.39 27.92 28.27 28.80 30.44 31.26 32.17 31.95 31.44 29.01 30.77 26.16 24.63 24.84 24.64 28.55 29.34 30.05 30.74 30.73 30.87 31.02 30.52 30.35 29.94 28.19 27.81 27.30 26.19 25.47 24.59 23.99 23.89 23.29 22.34 21.30 21.62 21.09 20.46 20.34
40.48 42.37 43.92 43.69 42.21 37.69 32.68 33.09 33.09 28.16 29.22 30.69 30.24 30.59 29.46 28.27 29.27 29.86 30.18 31.15 31.08 30.94 27.36 24.74 20.70 21.33 22.36 27.30 28.27 29.02 29.56 29.28 27.19 27.83 28.78 29.60 29.32 28.27 27.65 27.10 26.49 25.96 25.60 25.27 24.69 23.87 23.88 23.84 22.64 22.53 22.13 21.54 19.39 18.50
40.66 40.37 41.97 42.86 41.85 34.02 31.21 31.58 34.89 31.02 28.19 27.88 28.27 25.53 26.27 25.22 26.84 27.21 26.36 28.31 27.73 25.56 21.25 19.44 18.80 20.70 22.22 26.20 30.27 30.44 30.02 30.02 27.92 24.86 24.07 25.56 27.06 26.74 25.70 25.02 24.23 24.17 23.36 23.06 22.71 22.73 21.57 19.77 19.49 18.87 18.41 18.08 16.31 15.03
37.95 37.42 38.07 39.55 36.60 34.59 31.93 31.43 31.01 31.78 31.01 27.77 29.18 28.38 25.63 25.52 22.30 21.18 21.25 24.65 20.42 20.73 18.77 20.67 20.78 22.90 25.15 25.98 27.63 27.47 27.06 27.64 26.43 25.73 23.85 22.46 24.62 24.39 23.70 23.61 23.33 22.41 20.44 19.05 17.62 17.01 17.10 16.12 16.28 15.49 13.17 11.34 12.31 13.21
32.09 36.11 31.25 33.67 31.75 31.31 30.84 31.93 31.40 32.37 31.12 29.73 29.27 28.64 24.72 22.03 20.74 20.50 22.47 16.83 16.21 16.77 21.23 21.05 20.76 22.38 21.92 21.77 23.12 24.56 24.67 24.15 23.83 22.67 22.51 22.39 19.89 19.60 19.34 19.98 18.64 16.78 16.35 15.84 15.46 14.23 14.78 15.38 14.54 12.91 11.28 10.64 13.23 12.10
32.66 30.97 26.64 27.03 25.91 26.22 26.74 32.52 28.98 30.43 25.94 26.27 27.56 24.85 22.80 21.56 22.39 23.83 15.54 16.97 16.34 19.19 20.93 22.56 22.11 22.45 21.19 22.22 22.69 22.43 23.10 21.57 19.43 19.06 18.55 17.67 17.59 17.47 16.39 16.70 17.58 15.55 14.26 14.65 15.33 13.49 11.51 11.46 10.18 8.42 7.85 7.31 5.67 4.61
30.07 19.78 15.52 15.13 19.38 15.41 22.33 24.70 29.63 27.91 26.87 25.22 23.88 21.87 21.41 21.15 22.73 16.41 11.79 13.49 16.07 17.90 18.52 19.26 21.19 19.74 19.29 18.13 16.36 17.76 20.10 20.29 18.06 17.80 18.08 15.86 13.09 12.41 12.98 12.27 12.53 12.47 12.49 11.64 9.75 7.69 6.91 4.38 3.03 3.05 0.51 -3.30 -2.62 -3.84
18.85 18.44 14.57 10.92 14.18 14.00 12.36 16.09 21.50 22.84 20.97 22.60 21.82 19.71 19.53 22.08 13.82 11.97 10.52 12.30 13.67 13.69 15.46 17.60 16.49 16.96 15.12 14.75 15.11 15.18 17.32 17.05 14.54 12.85 15.34 15.23 12.84 11.37 9.18 8.87 8.47 8.58 9.25 4.60 1.36 -0.91 -3.16 -2.55 -4.01 -6.09 -6.01 -13.79 -4.56 -10.16
13.89 19.00 18.74 16.11 20.62 15.02 13.41 9.76 13.60 16.27 18.25 18.58 18.24 18.51 17.67 13.29 8.86 7.21 10.78 12.91 12.45 13.27 12.80 14.37 14.44 12.89 11.54 13.10 12.16 12.14 12.89 14.89 12.99 9.11 9.64 10.73 11.52 9.97 7.19 5.35 4.57 5.57 6.02 -0.23 -2.74 -7.08 -8.17 -10.70 -13.24 -10.52 -13.60 -9.80 -11.79 -16.51
12.32 15.17 20.75 22.06 20.31 19.96 11.62 12.20 15.15 11.73 9.80 9.14 10.67 9.69 9.90 4.84 5.12 10.52 14.29 14.73 13.16 12.55 12.89 13.57 13.39 12.01 10.93 10.83 11.64 11.59 11.20 10.75 9.46 8.61 8.86 8.07 7.85 7.75 5.50 2.23 1.03 4.38 5.81 -0.26 -8.35 -9.62 -9.25 -11.79 -13.79 -14.69 -16.14 -19.04 -19.22 -15.24
20.22 17.68 7.74 7.88 7.94 12.11 1.05 3.41 5.69 6.99 8.72 12.62 6.17 -0.66 -3.14 -4.56 4.45 12.09 13.16 14.13 12.71 12.12 10.62 9.83 9.03 8.37 7.23 7.29 7.07 7.27 7.35 6.47 7.36 6.37 5.88 4.09 3.13 2.17 0.82 -0.30 -0.95 3.80 -6.00 -9.98 -10.16 -12.15 -8.89 -7.62 -9.25 -11.25 -14.87 -14.87 -15.78 -17.23
11.05 13.64 10.18 1.77 2.48 4.72 6.06 4.81 3.41 6.78 10.15 6.30 -6.25 -4.00 0.50 6.72 8.09 10.70 12.56 12.46 12.12 9.80 6.26 4.32 1.70 2.53 3.89 3.31 1.05 -0.32 -1.75 -5.56 -4.73 -7.92 -13.06 -15.42 -13.06 -6.93 -8.17 -12.88 -12.70 -11.61 -13.97 -11.25 -4.36 1.08 2.51 -3.63 -5.08 -11.25 -12.15 -15.42 -16.69 -22.85
10.89 9.62 4.84 -1.41 -1.15 0.30 3.16 5.56 0.45 5.28 9.72 6.11 8.85 7.82 6.70 6.68 8.47 11.42 9.77 8.55 6.05 2.67 0.12 -6.90 -11.79 -8.58 -12.52 -6.92 -10.16 -2.29 -5.27 -10.18 -11.36 -10.59 -14.15 -15.78 -12.88 -12.70 -19.77 -19.22 -18.68 -19.41 -22.85 -22.85 -21.04 -14.72 -6.53 -14.69 -11.28 -17.08 -16.73 -17.99 -19.22 -20.86
6.68 7.43 3.65 2.80 2.56 2.38 6.99 4.39 8.58 5.58 2.31 3.23 1.88 1.13 -1.07 2.04 3.85 6.88 5.08 1.65 1.42 1.04 -0.23 -6.17 -7.62 -16.87 -9.80 -14.51 -16.14 -13.79 -9.25 -8.71 -14.51 -12.34 -12.15 -15.05 -17.96 -19.59 -20.13 -20.31 -21.22 -23.94 -24.30 -23.76 -23.39 -23.03 -22.31 -23.21 -25.93 -26.48 -24.48 -21.58 -21.40 -24.12
3.12 -0.55 1.91 1.88 2.50 4.50 1.89 -6.20 -4.54 -0.99 -1.34 -3.50 -2.43 -5.29 -6.41 -7.44 -8.71 -2.05 0.25 -2.79 -4.57 -7.08 -11.43 -15.96 -11.07 -8.17 -14.15 -15.24 -17.96 -18.14 -12.88 -15.78 -15.42 -13.06 -10.34 -15.78 -16.87 -18.68 -19.04 -17.96 -22.49 -23.21 -23.03 -23.21 -24.12 -23.76 -23.94 -24.66 -26.11 -27.02 -27.38 -26.48 -26.84 -27.93
-3.24 -4.04 -3.34 1.20 3.81 4.23 5.25 3.50 -2.91 -1.02 -2.10 -3.45 -3.81 -10.89 -15.96 -11.70 -8.73 -4.07 -2.77 -12.52 -10.35 -11.25 -10.89 -11.61 -10.70 -11.25 -10.89 -13.97 -15.42 -18.14 -16.51 -19.41 -17.41 -3.81 -4.90 -7.62 -11.43 -11.61 -18.68 -22.67 -24.48 -23.94 -20.86 -23.39 -25.39 -25.39 -23.58 -22.67 -24.66 -26.30 -27.75 -29.74 -28.29 -29.92

GFSWCAN_sfc_wetblb_069.txt.gz
Wetbulb
45.99 45.99 45.74 44.92 45.11 45.20 45.52 45.47 45.88 45.67 45.16 47.33 46.71 46.34 46.23 46.40 46.51 42.93 39.97 43.30 40.43 36.81 39.41 41.71 43.78 41.53 41.28 41.28 36.37 39.37 40.72 41.68 39.29 34.79 33.61 34.19 33.70 37.84 37.47 39.13 37.04 36.42 34.15 33.44 31.81 31.94 32.10 42.64 40.84 38.78 44.00 42.61 43.20 43.71
45.62 45.43 45.34 45.11 45.07 45.43 45.34 45.59 45.69 43.61 47.02 46.70 46.39 46.15 45.99 46.10 46.49 44.66 38.27 43.16 43.98 39.05 39.84 44.98 44.84 45.21 45.61 46.27 42.56 43.31 41.01 41.27 42.11 38.76 36.44 36.52 34.64 34.39 37.76 34.85 40.06 36.63 39.57 37.39 38.09 39.22 44.83 43.29 45.62 44.69 44.37 45.13 44.26 44.60
45.30 45.25 45.30 45.18 45.08 45.08 45.22 45.03 43.61 46.45 46.61 46.36 46.15 46.01 46.04 46.00 46.27 44.21 40.59 41.93 40.66 37.86 36.47 39.62 40.31 46.76 47.63 47.24 49.63 42.02 43.23 46.07 44.23 46.46 41.33 41.07 35.93 38.70 34.85 36.13 39.48 40.26 41.98 40.00 40.68 42.75 42.48 43.27 44.16 45.37 44.45 45.29 44.86 45.22
44.72 44.84 44.92 44.91 45.17 44.87 44.70 44.63 45.72 46.13 46.06 45.97 45.83 45.88 45.66 45.63 46.15 44.21 40.57 42.54 41.47 40.99 33.28 38.08 48.77 43.76 50.54 49.68 48.72 49.49 47.96 48.32 47.45 46.43 40.29 37.00 37.91 42.32 38.78 42.01 40.89 41.78 42.16 39.68 39.86 41.78 43.33 44.46 44.92 45.08 44.22 44.61 42.42 40.97
44.60 45.27 45.17 45.35 45.79 46.22 46.20 46.07 45.86 45.74 45.69 45.79 45.76 45.74 45.74 45.85 45.57 43.68 43.84 44.01 43.78 41.21 35.06 36.62 43.56 46.95 51.19 49.81 49.32 49.85 49.14 46.85 45.32 40.66 35.74 39.91 42.12 41.61 40.38 40.70 38.96 42.81 41.33 39.38 39.24 43.93 44.61 45.31 46.27 44.88 43.43 43.21 40.95 38.49
43.17 43.87 44.20 44.75 45.04 45.00 44.98 44.88 44.92 44.99 45.07 45.14 45.25 45.15 44.84 44.96 44.58 41.29 36.70 43.29 44.34 44.57 38.01 32.30 43.98 44.26 50.46 50.64 49.54 48.49 48.54 47.45 46.06 42.78 39.85 43.14 44.40 42.58 37.18 38.47 42.71 44.03 44.73 44.75 44.81 45.12 42.10 40.39 39.90 41.85 42.11 40.92 39.17 38.51
43.59 43.44 43.60 43.68 43.89 44.09 44.25 44.25 44.41 44.40 44.46 44.50 44.51 44.91 44.89 44.85 42.92 39.22 37.69 42.42 45.22 46.05 38.22 32.50 34.23 44.91 49.21 48.58 47.25 45.89 46.00 45.51 46.39 43.14 40.37 42.61 42.84 41.79 35.49 37.31 42.08 42.39 42.28 42.86 41.88 41.57 40.23 39.90 39.96 38.89 38.73 37.87 37.50 36.84
43.77 43.76 43.77 43.79 43.79 43.81 43.60 43.63 43.93 44.08 44.44 44.77 44.77 45.21 44.97 44.61 45.02 42.43 46.20 46.54 46.30 42.65 41.18 31.68 34.05 39.43 47.18 42.25 40.98 44.56 42.00 42.63 42.50 42.11 40.78 41.09 41.22 37.73 36.96 40.31 40.88 39.92 39.78 39.74 39.12 39.38 40.46 37.46 36.71 35.78 36.52 36.22 34.39 33.34
43.37 43.73 43.63 43.81 43.97 44.13 44.01 44.10 44.42 44.75 44.61 44.80 44.70 44.71 43.44 42.24 38.73 41.20 46.75 46.98 47.54 42.74 33.72 32.51 31.76 34.51 44.24 41.47 41.08 39.25 41.45 36.14 40.60 37.23 38.58 41.63 36.85 36.51 40.93 41.66 40.05 39.97 40.63 38.99 37.34 36.95 37.07 36.52 35.08 35.00 34.93 34.39 32.75 32.26
43.36 43.40 43.54 43.42 43.51 43.64 43.88 44.18 44.37 44.48 44.50 44.51 41.96 38.61 33.84 40.84 46.46 46.71 43.51 39.07 39.42 40.49 37.95 33.24 38.14 35.74 41.03 38.07 35.78 37.18 35.20 34.29 33.96 37.17 40.92 37.21 35.97 39.79 41.19 42.83 43.62 42.66 39.83 38.06 34.67 33.28 33.89 33.70 33.85 34.31 35.04 34.44 33.46 32.31
43.52 44.22 44.45 44.49 43.79 43.47 44.40 44.22 44.12 44.69 44.37 41.76 38.55 35.94 41.78 46.23 42.04 38.12 32.84 32.32 33.93 32.12 35.52 36.91 38.93 37.18 39.99 35.50 33.77 34.44 32.68 32.86 33.42 36.21 37.26 34.85 34.76 37.44 39.11 40.41 40.99 39.93 39.33 38.86 38.59 38.11 38.30 36.67 34.10 31.91 31.53 31.81 31.58 30.30
44.51 44.62 44.76 44.65 44.68 44.77 44.56 44.28 44.05 42.70 40.52 40.35 41.75 44.84 44.02 39.94 35.22 32.33 31.14 31.74 32.60 32.19 35.33 35.67 37.28 38.78 36.12 39.03 35.22 33.24 32.65 32.33 32.13 36.41 34.48 32.94 34.61 36.72 37.73 37.12 37.47 38.29 37.83 36.99 37.33 35.45 34.44 33.12 32.97 31.53 30.22 28.77 28.08 27.30
43.98 44.33 44.40 44.80 44.78 45.28 45.06 43.78 43.50 44.12 44.34 43.14 38.75 35.05 33.93 32.69 29.90 28.22 25.81 28.83 30.78 33.19 34.91 35.03 33.58 35.38 34.79 35.97 32.69 32.33 31.76 31.35 34.94 32.84 32.97 32.33 36.25 37.30 36.82 36.23 35.68 36.11 35.65 34.21 32.85 32.57 31.71 30.62 30.33 28.89 26.86 27.06 27.26 26.23
44.39 44.40 44.47 44.86 44.58 44.25 43.95 43.44 43.50 42.70 40.04 33.45 32.51 30.94 31.88 30.31 31.53 31.90 29.65 31.66 33.19 33.42 34.13 34.46 32.69 33.96 33.06 32.87 32.33 31.76 31.58 32.23 30.31 29.44 28.77 33.03 33.93 34.73 35.04 34.99 33.70 31.67 31.32 30.76 29.93 29.09 27.77 26.34 25.12 25.60 25.69 25.46 24.83 23.82
44.26 44.50 44.55 44.70 44.33 43.96 43.49 43.42 42.92 40.66 35.48 31.15 32.10 28.24 28.73 30.96 31.86 32.10 32.69 33.42 33.01 34.22 34.05 33.03 33.69 34.56 31.94 31.18 31.53 32.09 30.51 27.87 28.28 27.08 30.30 32.09 32.67 32.43 31.86 31.31 30.17 28.96 28.10 27.31 26.94 25.35 24.60 24.60 23.96 23.92 24.50 24.35 23.09 21.91
44.12 43.23 42.56 44.01 43.90 43.84 43.19 42.20 40.87 39.32 33.21 31.49 29.24 29.41 31.32 31.73 30.51 31.13 32.09 31.76 33.33 33.19 32.95 33.81 32.30 31.31 30.34 29.68 28.81 27.23 25.70 24.64 27.76 30.46 31.91 31.57 30.05 29.54 28.97 28.86 28.25 28.08 27.33 26.61 26.30 25.66 24.78 23.45 22.40 21.80 21.87 21.23 21.02 20.67
43.32 40.16 44.01 43.48 43.59 43.00 42.54 38.51 35.94 32.50 30.94 29.49 27.39 29.19 28.30 29.41 27.80 28.94 30.24 29.62 32.74 33.03 30.78 31.86 30.03 29.39 31.92 28.66 26.27 28.03 25.42 27.31 29.77 29.72 30.21 29.87 28.54 28.34 28.39 27.94 27.18 26.70 25.94 25.61 25.12 24.33 23.37 22.84 22.67 21.95 20.23 21.05 21.39 20.83
39.96 43.44 44.04 43.85 42.42 41.25 38.94 36.14 32.41 31.67 28.51 29.73 26.00 26.84 27.40 27.31 26.63 27.15 29.19 30.41 31.91 32.05 30.04 27.72 30.76 25.44 23.66 23.69 23.87 27.87 28.55 28.69 29.17 28.96 29.00 29.35 28.99 28.45 28.12 26.40 26.39 26.10 25.32 25.07 24.73 24.63 24.52 23.90 22.54 21.71 21.24 21.22 20.78 20.62
42.74 43.83 43.56 43.37 41.51 36.73 32.56 32.66 33.55 27.49 26.58 28.26 27.85 27.16 28.06 26.56 26.57 26.11 26.78 28.82 30.24 29.78 28.15 24.65 20.35 19.38 20.68 25.06 26.08 28.39 27.44 27.47 25.35 25.59 26.17 27.38 27.62 27.06 26.80 26.79 26.64 25.77 25.50 25.09 24.56 23.71 23.81 23.74 22.86 22.55 22.25 21.82 19.98 19.67
41.66 42.88 42.66 42.04 40.89 32.94 31.32 31.50 35.55 29.47 25.43 26.11 27.27 23.86 24.18 23.16 24.04 24.04 22.61 24.10 25.37 23.36 19.38 17.55 17.14 19.28 20.40 23.64 27.34 29.35 28.74 28.55 26.28 23.47 23.11 24.57 25.84 25.59 25.21 24.71 23.93 23.98 23.07 22.39 21.94 21.65 20.34 19.10 19.09 19.40 19.60 19.70 18.67 16.70
38.80 37.80 40.50 39.63 36.66 33.81 31.70 31.53 31.13 31.26 29.37 26.17 27.78 26.75 24.37 24.85 20.88 19.43 18.98 22.28 17.67 18.12 16.91 18.83 19.96 21.72 24.20 25.06 26.27 26.60 25.91 26.26 25.01 24.19 22.21 21.07 23.05 22.97 22.14 22.15 21.67 20.91 19.40 18.54 17.49 16.50 16.80 15.98 15.89 16.21 16.54 16.34 16.60 16.54
33.41 36.96 32.98 35.07 32.23 32.14 30.94 32.11 31.50 31.88 29.68 28.27 28.53 27.75 22.88 19.85 19.17 18.59 20.50 15.14 14.62 15.93 18.85 19.60 19.73 21.31 20.63 20.71 22.22 23.45 23.42 22.91 22.58 21.39 21.50 21.48 19.10 18.58 18.44 19.09 18.01 16.17 16.10 15.98 15.43 14.25 13.88 14.06 14.13 13.56 12.98 13.03 13.35 11.95
32.64 31.20 27.11 27.83 27.57 27.65 27.15 32.95 28.64 30.13 24.41 25.39 27.10 22.14 20.91 19.82 20.51 21.68 14.43 15.45 15.19 18.03 20.00 21.32 20.80 20.67 20.26 21.57 21.54 21.09 21.75 20.00 18.01 17.44 16.94 16.15 16.11 16.21 15.32 15.84 16.47 14.58 12.95 13.00 13.46 11.65 9.97 9.36 8.60 8.66 8.68 8.17 8.20 7.41
29.56 19.31 15.21 16.05 20.77 18.62 23.93 25.26 29.16 27.22 26.83 25.50 23.42 20.04 20.25 19.94 21.11 15.43 10.80 12.54 14.93 16.85 17.48 18.04 20.03 18.30 17.98 16.86 15.13 17.09 19.00 18.57 16.68 16.14 16.40 14.29 11.49 10.85 11.68 11.42 11.22 11.09 11.23 9.90 8.37 6.89 6.24 5.03 3.78 5.03 3.88 3.49 2.24 2.91
18.51 17.61 14.91 13.79 14.77 12.69 10.72 14.35 18.43 21.43 21.02 22.80 19.37 17.16 17.89 20.02 13.01 11.07 9.54 11.38 12.94 12.49 14.25 16.56 15.12 16.16 13.92 13.53 13.92 13.77 16.57 15.89 13.71 12.34 14.03 12.89 11.03 10.16 8.76 8.35 8.37 8.40 9.33 6.51 4.33 3.50 2.08 1.62 1.26 1.56 1.64 0.91 1.78 0.82
13.32 17.53 11.33 14.11 16.81 11.99 13.24 8.86 12.58 13.60 15.40 14.65 15.54 17.28 16.75 12.59 8.15 6.58 10.03 12.25 11.49 11.42 11.59 13.68 13.69 12.02 10.55 12.19 11.46 11.14 11.53 14.21 12.21 8.31 8.25 9.97 10.63 9.04 7.33 6.00 5.66 5.97 7.12 5.69 5.35 3.70 2.40 1.07 1.12 1.22 1.77 0.97 -6.14 -1.44
8.79 12.29 17.30 18.45 17.33 16.56 10.92 11.80 14.21 9.92 7.23 7.39 9.54 9.88 10.08 4.79 4.80 9.50 13.31 13.17 11.51 11.06 12.02 13.07 13.26 11.59 10.05 9.45 9.70 9.72 9.58 9.32 8.14 7.21 7.46 6.63 6.09 6.27 5.70 3.73 2.69 4.75 5.61 3.36 2.81 2.99 2.80 1.31 0.42 -0.48 -1.03 -0.12 -1.47 -2.84
17.03 13.97 4.50 4.89 6.35 9.24 2.79 3.32 3.90 4.53 6.98 10.37 6.91 0.26 -0.05 1.13 4.73 10.84 11.70 12.61 11.78 11.53 9.90 9.40 8.74 8.25 7.08 6.61 7.01 7.70 7.11 7.04 6.27 5.64 5.28 3.34 2.08 0.27 -1.39 -1.03 -1.41 0.79 -1.79 -1.43 0.37 0.40 1.10 0.47 0.19 -0.67 -2.11 -1.93 -2.51 -4.06
9.85 9.34 7.51 -2.79 -0.28 0.83 2.31 1.79 1.56 4.90 8.80 6.52 -0.93 -0.22 1.54 5.78 7.37 10.04 10.71 11.23 11.63 10.10 6.96 4.87 2.36 3.64 3.70 3.29 1.04 -0.15 -0.88 2.47 1.72 -3.12 -4.25 -4.13 -3.73 -0.92 -3.89 -4.34 -3.44 -4.66 -5.15 -0.38 -0.87 5.27 2.69 2.17 -0.60 -2.82 -4.58 -5.39 -7.13 -9.38
6.69 7.38 1.30 -5.31 -5.00 -1.77 0.90 3.65 0.51 4.32 9.28 7.43 8.00 6.88 5.01 4.91 6.83 9.72 9.26 8.02 5.21 0.71 -2.64 -1.86 -2.72 -0.93 -4.14 -0.37 -2.14 -0.63 -3.58 -5.47 -4.02 -2.64 -4.02 -4.54 -2.72 -1.72 -5.74 -5.01 -4.47 -6.46 -8.10 -4.71 -3.99 -2.25 -2.90 -5.84 -3.77 -7.32 -8.17 -8.33 -8.61 -8.28
4.48 4.78 0.98 -0.05 0.12 3.12 4.17 -0.18 6.69 5.59 0.75 1.54 0.59 -0.91 -1.10 2.33 4.83 5.77 3.92 3.13 3.66 2.21 1.48 -2.15 -5.19 -9.19 -3.58 -4.40 -4.19 -4.04 -4.11 -3.74 -8.10 -5.56 -3.46 -4.48 -5.56 -4.65 -4.83 -6.46 -8.28 -10.09 -9.91 -8.46 -7.73 -7.03 -7.20 -8.47 -10.45 -10.32 -9.51 -10.59 -12.69 -13.19
0.52 -4.29 -0.97 -2.48 -0.17 2.75 4.35 -2.15 -1.76 1.35 1.16 1.66 0.65 -1.13 -2.29 -0.73 -1.88 1.44 1.48 1.96 1.39 -1.27 -8.82 -8.28 -3.20 -2.29 -7.01 -7.91 -12.08 -11.00 -12.46 -7.01 -5.56 -6.10 -5.74 -4.65 -3.20 -5.56 -6.65 -7.91 -11.90 -11.18 -9.36 -9.36 -10.09 -9.91 -10.84 -10.35 -10.25 -11.19 -11.55 -12.29 -13.91 -14.80
-5.49 -4.85 -4.89 -0.54 1.19 1.28 0.84 -1.03 -2.54 -1.47 -1.17 0.10 -1.13 -6.28 -7.91 -6.84 -7.23 -0.34 0.02 -5.75 -2.91 -2.34 -2.14 -2.73 -5.38 -6.83 -9.73 -11.54 -8.10 -8.28 -11.58 -8.64 -10.81 -2.66 -4.29 -5.01 -9.18 -7.37 -7.38 -8.64 -9.73 -9.73 -8.31 -8.50 -9.91 -11.01 -10.71 -11.23 -10.51 -12.12 -13.02 -15.47 -15.69 -15.88

GFSWCAN_sfc_wetblb_072.txt.gz
Wetbulb
45.54 46.00 45.96 46.07 45.63 45.19 45.16 45.70 46.98 46.98 46.52 46.58 46.69 47.32 47.45 47.19 46.56 44.97 44.58 49.23 45.12 40.70 42.36 44.20 44.91 41.96 42.72 42.69 40.06 43.59 43.40 44.90 44.55 40.03 38.28 40.04 39.49 41.30 39.80 41.48 40.91 40.08 39.33 38.46 40.44 37.08 35.92 46.22 44.80 43.87 49.78 49.92 50.64 49.96
45.38 45.51 45.50 45.17 44.99 44.83 45.78 46.51 47.04 46.42 46.12 46.22 46.64 47.02 47.24 46.96 46.26 46.04 41.57 47.81 47.84 42.68 41.95 45.87 45.44 47.10 45.11 47.12 46.08 46.72 44.45 45.04 46.15 42.64 44.15 43.63 41.05 42.43 41.78 36.89 45.27 39.76 44.30 43.03 43.13 44.11 50.99 48.87 51.05 51.49 51.77 51.67 50.10 50.91
45.05 45.35 45.27 44.82 45.03 44.42 45.15 46.92 46.14 45.94 45.68 45.92 46.82 47.21 47.07 46.77 46.33 45.46 43.36 44.84 45.01 39.54 40.79 40.60 41.54 44.82 46.48 47.90 51.37 44.42 47.18 48.09 47.59 51.02 46.93 46.45 42.35 44.71 39.29 40.64 43.06 45.37 46.23 44.51 44.67 48.74 49.14 50.50 51.01 49.07 49.77 49.38 50.42 50.89
45.40 44.65 45.26 45.26 44.82 44.76 45.08 44.73 44.57 44.61 46.07 46.19 46.82 46.81 46.58 46.35 46.14 45.05 42.56 44.78 42.99 40.27 35.32 38.52 46.09 45.18 49.69 49.73 50.03 50.78 49.89 52.46 51.45 50.82 48.47 44.14 43.52 47.45 44.11 44.62 44.39 47.39 47.22 45.59 46.80 49.17 47.51 49.18 50.32 51.46 50.40 50.73 49.56 49.26
45.59 44.91 44.33 44.67 45.09 44.91 44.27 44.19 44.73 46.24 46.31 46.61 46.60 46.40 46.37 46.49 45.39 45.00 46.32 45.67 45.42 40.97 35.37 36.60 42.66 45.29 45.79 47.11 48.20 50.28 50.70 50.44 50.17 46.40 39.96 42.86 47.50 47.50 47.88 46.86 45.33 48.04 47.16 44.79 44.30 50.44 49.57 51.25 52.73 52.04 50.74 49.99 50.09 48.04
44.82 45.48 45.41 44.47 44.31 44.40 44.41 46.15 46.19 46.19 46.10 46.26 46.37 46.26 46.08 45.49 44.59 42.82 37.64 44.49 46.53 46.62 38.79 34.39 44.08 42.38 43.34 47.16 48.46 48.55 49.49 49.98 50.01 47.68 47.41 48.11 48.96 48.12 43.68 43.35 48.26 50.39 51.33 51.73 49.59 48.32 48.93 47.07 45.97 45.83 49.34 50.88 50.19 48.28
44.10 44.78 44.83 45.20 45.56 45.70 45.56 45.47 45.67 45.78 45.71 45.64 45.68 45.91 45.36 44.43 44.24 39.89 37.85 43.69 45.82 47.07 37.60 33.96 36.50 43.23 44.25 45.28 48.39 48.62 49.24 49.65 49.59 48.63 46.33 48.12 48.23 47.26 42.34 41.63 48.08 50.28 50.67 48.73 47.41 46.36 47.85 46.30 47.13 44.65 45.62 45.88 44.83 45.51
44.12 44.18 44.39 44.50 44.61 44.73 44.73 44.96 45.11 45.35 45.37 45.44 45.23 44.17 44.11 44.47 44.15 42.50 48.18 45.68 46.45 40.97 39.58 33.66 34.47 36.60 47.24 43.70 42.33 49.35 46.64 48.35 46.15 46.17 44.82 45.49 44.81 44.17 41.95 46.89 49.20 48.77 47.06 46.44 46.34 46.70 46.59 44.05 42.85 42.62 43.37 42.42 41.21 40.59
43.44 43.75 43.82 43.91 44.14 44.19 44.15 44.33 44.37 44.41 44.43 44.39 44.35 44.36 44.19 42.14 40.03 43.28 45.80 45.18 47.79 41.87 34.37 33.30 33.04 32.20 44.61 41.37 43.04 44.10 47.47 38.74 44.45 41.64 44.13 47.18 41.76 41.07 46.02 47.77 47.84 47.10 45.44 47.95 45.41 44.13 42.30 42.84 42.16 41.56 41.89 41.63 39.90 38.41
43.68 43.79 43.69 43.56 43.69 43.75 43.68 44.05 44.20 44.76 44.65 44.27 42.16 38.37 34.13 39.87 46.29 45.98 43.25 39.64 39.27 40.46 40.38 33.66 35.48 32.02 40.43 37.24 35.46 39.79 41.93 37.11 33.84 39.76 45.86 42.02 42.96 47.20 46.90 46.81 48.22 48.29 47.27 44.67 41.75 39.58 39.62 40.58 40.57 40.59 41.27 41.06 39.69 38.62
43.62 43.77 43.93 44.14 44.23 44.07 44.28 44.31 44.47 44.48 44.23 42.73 38.24 36.73 43.58 46.42 43.86 38.94 33.60 33.66 34.90 32.57 37.74 37.84 37.35 34.49 40.35 32.76 33.99 37.45 35.11 36.20 35.29 39.71 41.32 39.61 39.68 43.01 43.02 44.10 45.62 45.54 45.49 43.79 43.69 43.13 42.12 41.84 40.09 39.53 37.75 35.82 33.88 33.31
44.24 43.86 43.89 44.00 44.03 44.17 44.33 43.72 43.50 43.66 42.66 41.53 42.83 45.72 43.79 40.85 38.12 33.13 32.21 33.48 32.83 33.22 38.32 37.67 39.26 38.76 38.33 39.89 35.37 34.39 34.75 32.57 32.74 39.05 38.90 36.10 38.05 39.08 39.74 40.46 42.17 43.40 42.86 41.35 41.43 40.22 40.17 39.23 38.44 36.42 34.73 32.51 31.46 29.71
44.22 44.05 43.90 43.99 44.04 44.29 44.11 43.80 43.85 44.30 44.79 45.56 41.66 36.42 38.31 34.70 30.02 29.10 28.50 30.08 31.89 36.34 37.74 37.21 35.61 39.50 40.36 39.92 33.84 34.21 33.66 32.57 35.02 32.76 32.11 32.71 36.49 37.59 37.18 37.85 37.85 39.53 39.07 38.23 36.65 36.02 34.08 32.60 32.67 32.06 29.55 29.63 29.30 28.15
44.49 44.33 44.26 43.89 43.88 44.00 44.03 43.33 43.54 43.40 42.44 37.41 34.39 31.31 33.66 30.19 32.23 34.46 35.00 36.00 39.12 37.98 37.47 38.15 36.38 37.77 35.11 34.57 33.84 33.84 32.76 33.77 32.94 32.70 29.64 33.53 33.83 34.32 34.09 33.90 32.78 31.05 30.49 29.82 29.10 28.87 28.17 27.71 27.12 27.76 28.30 28.69 27.90 27.47
44.56 44.06 43.87 43.50 43.52 43.66 43.67 43.52 43.06 43.69 38.52 32.94 34.13 30.76 31.67 33.30 33.48 32.54 33.30 34.57 34.64 38.51 37.96 37.53 37.12 36.40 33.66 33.12 33.84 33.12 32.03 29.29 29.15 28.00 30.77 31.39 32.05 31.50 30.45 29.66 28.63 27.76 27.31 26.83 26.76 26.07 25.98 26.31 26.12 26.38 27.37 27.22 25.99 25.44
44.09 43.93 43.14 43.54 43.53 43.51 43.35 43.66 43.38 41.48 36.35 33.83 30.70 29.52 29.65 31.83 30.46 30.83 30.87 32.21 33.68 34.57 35.85 36.80 33.30 32.76 32.39 33.12 31.28 28.68 29.07 25.18 26.96 29.55 30.95 30.41 29.03 28.40 27.54 27.67 27.43 27.39 26.71 26.08 26.18 26.08 25.74 24.91 24.43 24.22 24.39 24.27 24.37 23.98
43.94 41.48 43.20 43.07 42.86 42.18 42.18 41.70 40.08 33.47 33.12 31.67 29.32 29.62 28.69 29.27 26.78 28.48 29.57 29.22 32.95 33.84 32.39 34.39 32.03 30.94 35.02 30.06 26.35 27.80 24.74 27.07 28.57 27.78 29.01 29.16 27.89 27.38 27.75 27.26 26.95 26.87 26.80 27.15 26.76 25.89 25.53 25.57 25.78 24.72 22.92 23.29 23.22 22.41
42.04 43.38 43.24 43.39 43.33 41.69 39.24 37.63 35.91 33.85 27.97 28.70 26.36 27.08 26.78 27.01 26.12 25.84 26.75 30.01 32.91 33.06 32.08 29.12 32.20 27.37 25.36 24.45 24.99 28.55 27.25 27.57 28.17 27.46 27.48 28.00 27.74 27.60 27.56 26.96 27.55 27.47 27.01 27.22 27.22 27.06 26.99 25.99 24.66 23.50 23.55 23.66 23.51 23.40
43.43 43.79 43.03 43.03 42.20 37.97 34.52 34.01 35.62 27.38 26.47 28.10 27.70 27.64 28.15 26.73 26.14 25.44 25.47 29.45 30.31 31.11 28.43 25.52 22.30 21.59 23.05 25.61 25.98 28.69 28.08 26.51 24.42 25.47 26.75 28.21 28.92 28.67 28.84 28.69 28.39 27.74 26.99 26.76 26.18 25.38 25.60 25.58 25.08 25.03 24.88 24.62 23.05 23.32
42.75 41.96 41.58 41.38 40.72 34.56 32.57 32.76 35.99 30.04 26.10 26.25 27.32 24.33 23.97 23.58 24.19 23.62 22.35 24.15 25.72 24.42 20.47 19.14 18.76 20.91 22.48 24.89 29.76 29.06 28.28 28.65 27.34 25.27 25.05 26.49 28.05 27.57 27.13 26.48 25.79 25.74 24.93 24.49 24.21 23.98 23.19 22.35 22.92 23.07 23.41 23.30 22.37 20.78
40.10 39.04 40.07 40.12 37.10 36.18 33.10 32.74 32.15 31.55 30.39 27.38 29.28 27.81 25.34 25.95 22.34 19.82 18.93 22.20 18.59 18.07 18.04 20.53 21.98 23.40 25.87 27.21 29.10 29.35 29.00 29.18 27.43 26.33 24.30 23.18 25.22 25.19 24.50 24.83 24.85 24.21 22.30 21.73 20.68 19.79 20.37 19.93 20.67 21.53 21.48 20.27 19.84 19.62
36.10 38.17 36.36 37.34 35.44 34.45 33.93 34.13 33.15 33.92 31.80 30.22 29.51 27.43 24.06 21.95 21.31 20.37 22.24 18.36 15.96 17.61 20.75 20.80 21.69 23.21 22.20 22.64 23.82 25.07 24.79 24.20 23.71 23.54 23.85 23.86 22.34 22.13 21.81 22.55 22.19 20.43 19.84 19.73 19.22 17.63 16.93 17.51 18.33 18.42 18.17 17.61 17.08 15.05
36.10 35.71 33.37 32.88 31.50 32.31 29.62 35.86 31.40 31.67 27.95 27.96 27.59 23.18 22.08 21.43 21.84 23.88 16.88 16.93 16.57 19.69 22.06 22.31 21.15 22.39 22.21 22.48 22.13 21.98 22.53 21.02 19.43 18.81 19.08 19.16 19.20 19.99 19.74 19.86 20.28 18.58 16.63 16.03 17.31 15.99 13.91 13.32 13.22 14.23 14.20 14.15 14.43 13.60
32.49 26.74 24.70 25.14 27.42 24.53 29.55 27.91 30.31 28.89 28.89 25.54 23.10 19.94 20.06 21.31 22.40 17.69 12.75 14.14 16.33 18.45 18.85 19.66 21.53 19.96 19.15 18.16 18.19 18.93 19.68 19.88 18.33 18.31 18.52 16.77 14.79 14.52 15.46 14.86 14.95 14.84 14.82 14.43 13.55 12.82 12.44 11.60 11.00 11.87 11.61 11.22 10.45 10.27
23.74 20.93 23.24 20.23 24.72 22.54 21.71 21.97 22.30 24.99 22.05 22.68 18.99 18.51 18.69 22.09 15.66 13.33 11.97 13.64 14.83 14.65 16.94 17.68 17.83 17.96 15.61 15.27 15.47 15.91 18.62 18.69 16.27 14.44 16.05 16.31 14.74 14.14 13.07 13.01 12.71 13.23 14.95 13.39 11.52 10.66 10.14 10.90 10.48 9.90 9.43 8.58 7.83 7.69
16.94 18.75 18.11 18.04 19.52 18.79 18.70 16.78 17.39 18.22 19.81 17.13 17.29 19.18 19.82 15.76 11.16 9.48 11.98 14.59 13.52 13.06 14.07 16.11 15.59 13.39 12.23 14.24 13.16 12.75 14.20 16.60 15.41 11.60 12.39 15.33 15.91 15.19 13.36 11.88 10.75 9.73 12.82 13.25 12.25 10.89 9.38 9.12 8.37 7.70 7.91 6.87 3.98 6.42
13.92 15.36 18.65 19.01 18.03 18.75 16.81 16.99 17.38 15.46 12.70 12.16 14.47 14.03 14.23 8.01 7.78 11.19 14.89 14.45 13.37 12.83 14.33 15.57 15.37 13.43 11.78 11.22 11.39 11.62 12.10 12.70 11.72 10.27 10.66 10.50 10.77 12.04 12.66 10.48 7.78 8.80 11.10 10.58 10.38 10.15 8.80 7.75 7.22 6.69 6.52 7.90 7.05 4.76
18.06 16.37 9.66 10.49 10.23 12.04 8.10 8.37 8.51 8.52 10.34 12.48 13.01 6.62 5.99 6.96 7.99 12.79 14.00 14.67 14.13 13.54 12.20 11.75 11.85 12.06 11.51 11.66 12.31 11.43 10.38 10.02 9.85 10.00 10.29 9.64 9.03 8.24 7.38 7.68 5.70 5.31 7.97 7.74 8.82 8.64 7.96 7.27 6.55 5.81 4.80 4.21 3.51 3.41
13.86 15.44 11.92 2.05 5.90 6.81 5.84 5.41 6.04 8.24 10.50 11.53 8.55 6.05 5.87 8.51 11.37 13.63 13.53 14.74 15.79 14.42 11.81 10.00 9.54 11.15 10.15 9.50 9.32 9.88 11.88 13.29 10.92 6.90 6.23 6.07 6.87 5.49 6.65 7.15 7.15 6.65 8.11 8.47 6.91 8.05 6.02 5.35 3.52 3.28 1.56 3.08 2.78 3.68
12.90 15.65 8.28 4.21 2.21 2.94 6.30 8.54 6.86 10.28 13.04 12.20 11.08 9.10 8.25 8.25 10.05 13.72 13.71 13.12 11.26 8.99 8.80 8.93 9.28 10.93 9.70 9.69 7.57 6.52 7.07 7.96 8.35 9.61 7.29 5.74 5.46 5.88 6.02 6.00 5.81 5.11 6.03 6.68 5.91 6.09 3.43 4.36 4.04 3.75 2.23 2.17 1.93 1.41
16.94 15.31 9.55 8.12 5.54 8.77 10.59 11.80 12.53 11.85 10.89 9.73 10.96 7.74 5.97 8.16 10.36 10.62 9.64 10.42 9.54 9.45 9.35 7.62 6.71 9.12 8.59 7.86 8.30 6.97 5.14 5.56 3.83 4.83 6.15 6.15 5.85 6.32 5.52 4.06 4.48 4.95 4.86 4.19 3.81 3.76 2.87 3.13 2.29 0.75 -0.25 -1.54 -3.22 -2.82
14.73 12.00 8.70 5.85 7.58 12.18 12.69 12.43 12.14 10.68 11.19 10.52 8.93 10.30 9.17 9.18 5.18 8.39 7.98 10.81 10.54 8.38 2.75 8.76 8.47 6.16 5.11 4.89 4.01 4.19 1.16 4.88 5.05 4.59 4.76 5.86 6.18 4.54 4.75 4.04 2.83 3.97 3.72 2.95 2.59 1.89 -1.25 -1.66 0.58 -0.96 -0.95 -2.77 -4.06 -5.05
13.61 14.15 13.05 11.29 9.81 9.18 11.65 12.07 10.36 9.24 10.24 9.25 7.44 6.06 4.86 6.17 3.23 6.95 6.45 5.55 9.20 10.20 8.91 8.44 7.92 6.27 3.42 3.34 4.53 3.94 2.74 4.68 0.42 3.06 1.65 1.10 -0.83 0.79 4.61 4.87 4.18 2.98 0.43 2.19 2.01 0.40 -3.54 -4.43 -1.98 -3.49 -3.85 -5.22 -5.23 -5.40

GFSWCAN_sfc_wetblb_075.txt.gz
Wetbulb
45.31 45.18 45.44 45.50 45.59 45.85 46.40 46.75 46.57 46.89 46.78 46.88 46.88 46.69 46.59 47.95 47.83 45.87 43.81 51.15 46.91 41.69 43.02 45.26 45.75 42.51 43.18 43.00 38.71 42.50 42.91 44.91 44.56 39.41 38.17 38.95 39.11 40.27 39.66 40.79 40.89 40.19 39.51 39.65 41.65 38.52 36.25 49.49 47.65 44.70 50.28 54.01 53.38 53.26
44.96 45.46 45.34 45.66 45.47 45.18 45.66 45.92 46.61 46.29 46.45 46.90 46.66 46.65 47.25 47.69 47.60 46.50 42.16 50.07 49.93 44.27 43.83 48.65 48.32 49.93 49.03 47.59 43.31 43.98 44.15 44.73 46.00 42.79 44.15 43.17 43.06 45.88 41.57 36.71 44.12 40.81 44.44 42.86 44.21 44.51 51.75 51.08 51.38 53.32 54.29 53.77 54.14 53.66
45.13 45.19 44.77 45.54 44.57 44.13 44.34 45.53 45.50 45.87 46.18 46.59 46.56 47.02 47.62 47.60 47.50 46.26 44.92 48.07 47.23 42.70 42.76 44.21 43.91 48.52 50.55 49.95 51.78 42.66 47.46 49.40 48.05 51.37 46.46 45.37 40.81 44.50 40.99 41.83 42.25 45.27 47.87 45.63 45.84 48.43 50.54 52.34 53.48 53.73 54.32 53.84 54.24 54.03
45.59 44.53 44.65 45.15 42.88 44.54 45.79 44.69 45.24 45.35 46.22 46.26 46.52 46.75 47.12 47.27 46.54 46.49 45.06 47.68 46.00 42.70 37.64 39.76 48.29 46.38 49.19 48.98 48.86 48.93 48.98 51.31 52.16 50.59 48.48 45.77 43.77 46.81 44.36 44.41 44.23 46.46 47.52 46.22 46.15 48.43 50.25 52.07 53.59 54.39 54.52 53.74 53.14 53.77
45.82 44.54 44.32 44.78 43.84 44.20 46.19 45.84 45.89 46.01 45.85 46.33 46.48 46.93 47.07 46.26 46.34 46.17 48.02 48.00 48.70 42.86 36.97 38.70 45.40 47.40 49.21 49.01 46.91 47.91 47.14 48.73 47.32 47.82 45.57 43.43 46.79 46.22 47.26 46.99 44.89 47.74 46.37 45.79 44.89 50.02 50.14 50.92 53.41 55.83 54.75 53.93 53.77 53.33
45.61 44.96 44.64 44.53 44.35 44.55 45.01 45.43 45.62 45.75 45.85 46.08 46.85 47.18 45.53 45.25 45.82 43.57 37.32 44.78 48.00 46.48 40.21 34.27 44.01 44.21 46.28 47.67 46.55 46.68 47.82 48.56 48.11 46.31 46.38 47.29 48.78 46.72 44.47 42.09 46.79 47.95 49.32 50.95 49.34 52.54 52.44 52.90 50.94 51.60 53.49 54.55 54.66 53.90
45.31 45.63 45.61 44.73 44.37 45.43 45.48 45.22 45.45 45.98 46.17 46.49 46.97 45.46 44.94 45.07 45.43 40.54 39.46 44.14 46.12 47.08 41.38 35.55 37.20 44.11 45.40 45.26 44.79 45.68 47.50 47.21 47.45 48.06 46.57 46.92 47.86 47.63 46.44 41.93 45.71 48.52 50.27 50.79 53.05 51.72 49.74 51.40 51.38 49.20 49.83 50.32 49.15 51.67
44.83 45.01 45.20 45.27 45.59 45.75 45.68 45.75 45.68 46.03 46.40 45.72 44.36 44.28 44.95 45.00 45.33 43.72 47.80 46.03 48.68 42.44 42.94 33.63 34.82 38.64 45.62 41.71 40.29 46.05 44.36 46.86 45.76 46.50 48.50 46.49 48.20 47.93 42.21 45.92 47.70 48.95 50.97 51.27 51.65 51.92 51.60 50.13 48.73 48.24 48.34 47.60 47.22 46.78
44.18 44.37 44.62 44.58 44.77 44.93 44.98 45.13 45.20 44.82 44.39 44.55 44.64 44.26 43.10 42.56 40.27 43.61 45.89 45.68 48.42 44.00 34.84 32.81 33.08 31.24 37.37 41.75 44.82 45.65 47.31 41.19 46.96 44.08 44.23 46.39 44.59 41.32 45.82 47.13 48.30 49.94 49.25 50.14 51.30 49.57 47.74 47.39 47.03 46.29 45.81 45.77 44.69 43.65
43.80 43.72 44.10 44.15 44.30 44.31 44.28 44.21 44.28 44.36 44.21 44.17 43.33 39.07 35.83 42.77 45.15 44.54 41.15 38.60 39.46 41.67 41.84 34.63 38.42 33.35 37.01 32.99 40.49 42.17 43.63 38.91 35.35 40.78 46.46 42.32 42.52 47.56 48.93 48.78 50.39 51.26 50.99 49.17 46.62 45.49 45.47 45.58 45.36 45.27 45.37 45.55 44.61 43.43
44.25 44.02 43.93 44.04 44.04 44.02 44.07 43.82 43.75 44.18 44.50 43.94 40.51 38.07 44.64 45.51 42.25 39.02 33.52 33.35 34.94 33.35 39.30 38.99 38.32 36.27 39.88 33.50 33.90 39.32 36.80 38.21 34.44 40.41 40.88 39.85 40.00 45.12 46.90 47.51 48.39 49.32 49.47 48.05 47.88 47.79 47.54 47.49 45.43 44.47 42.93 42.52 41.61 39.82
44.44 44.25 44.32 44.17 44.17 44.00 43.79 43.52 43.96 45.12 44.24 42.63 43.89 44.41 43.46 39.27 37.50 34.08 33.17 34.62 33.12 33.33 38.54 37.78 37.88 39.18 37.91 36.25 32.23 36.25 36.25 35.53 34.63 42.89 40.79 37.01 36.57 39.49 42.40 43.76 45.68 46.59 46.14 44.79 45.80 44.61 44.07 42.61 40.90 36.58 35.01 32.97 31.19 29.99
44.02 44.19 44.23 44.03 44.13 44.00 43.67 43.84 43.87 44.47 46.36 47.50 41.50 37.60 37.75 36.11 30.09 29.71 27.68 31.74 32.90 37.67 39.66 39.47 35.75 39.06 38.38 34.86 31.90 34.62 33.90 33.90 37.86 34.97 32.69 32.28 35.32 36.75 37.44 39.21 40.11 42.01 41.30 39.90 37.96 37.47 36.00 34.09 33.94 32.85 30.75 30.77 30.56 28.56
43.87 43.67 43.85 43.86 43.74 42.92 43.38 43.79 43.89 44.74 45.96 39.36 35.71 30.99 33.53 30.07 34.30 35.62 36.65 36.96 37.77 37.52 38.76 38.85 35.87 34.44 34.62 31.72 32.81 31.90 33.35 33.70 32.63 32.22 29.40 31.39 32.25 32.29 32.67 32.49 32.12 31.31 30.79 30.25 29.70 29.45 28.51 28.22 28.15 29.06 29.34 29.32 28.96 27.92
43.91 43.84 44.15 44.15 44.00 43.82 43.48 43.95 43.73 45.00 40.56 34.02 36.10 29.73 31.27 33.35 33.71 33.71 34.80 35.89 35.36 38.22 39.93 39.20 37.32 36.16 32.99 32.81 33.53 32.81 31.72 29.33 30.22 28.82 29.68 30.53 31.14 30.24 29.10 28.74 27.78 27.28 27.20 27.13 27.49 27.24 27.44 27.33 27.11 27.60 28.41 28.45 27.49 26.23
43.98 43.47 42.68 43.77 43.98 43.72 43.84 43.69 45.50 43.62 38.45 34.80 31.60 30.98 30.53 33.35 31.36 30.58 30.51 31.90 32.94 33.97 37.41 39.16 34.08 32.45 32.45 34.06 31.54 28.84 29.99 26.33 27.32 29.66 29.70 28.89 27.54 27.32 27.09 27.10 27.17 27.40 27.18 27.22 27.68 27.82 27.83 27.17 26.89 26.52 26.92 26.39 26.34 26.01
43.94 41.38 43.20 43.14 42.70 42.78 43.01 45.83 42.86 34.41 34.70 33.46 28.85 30.69 30.30 31.54 28.54 26.78 26.69 27.26 31.64 32.79 32.63 34.44 31.90 30.45 35.13 30.35 27.35 28.83 25.22 26.88 27.80 28.20 29.46 29.58 28.23 28.26 28.57 28.49 28.69 29.13 28.93 29.03 28.79 28.32 28.16 28.25 27.46 26.04 23.88 24.39 24.10 23.58
42.09 44.12 43.46 43.78 45.37 43.89 42.59 41.65 37.36 33.82 29.29 30.54 27.97 28.85 29.66 28.30 25.81 24.75 25.46 29.21 31.89 32.94 32.54 29.80 33.50 27.68 26.39 25.72 26.19 27.30 26.27 27.21 28.47 28.48 28.70 29.49 29.66 30.03 29.93 29.27 29.92 29.70 28.99 28.91 28.18 27.90 27.66 27.13 25.88 25.03 25.40 25.83 25.37 24.70
43.48 43.74 42.42 42.07 42.60 40.06 36.50 35.85 37.56 28.09 28.03 29.67 30.30 30.21 29.63 28.23 28.22 28.33 26.64 28.62 30.73 30.82 30.27 28.73 24.53 23.27 24.47 26.57 29.08 29.37 29.11 28.46 27.03 28.21 29.14 30.26 30.57 30.11 29.97 29.71 29.10 28.52 28.07 27.46 26.81 26.90 26.85 26.73 26.70 26.62 26.00 26.00 24.89 25.42
42.29 42.03 41.37 41.20 41.43 36.58 33.17 33.70 37.11 30.85 27.50 27.77 29.78 26.44 25.85 25.32 26.27 26.54 25.54 25.90 27.92 25.97 22.54 20.71 20.25 22.11 24.79 28.58 31.08 29.41 29.23 29.83 28.92 27.33 26.96 28.42 29.67 29.23 28.49 27.88 26.93 26.81 26.59 26.16 26.14 25.78 24.99 23.88 24.21 24.13 24.41 23.78 22.27 21.02
40.65 39.66 40.61 40.76 38.45 36.85 34.26 33.35 31.32 31.67 30.34 28.11 29.07 28.13 26.40 27.52 23.40 22.13 21.95 23.69 20.29 20.09 18.50 21.86 22.97 25.61 28.11 29.83 31.68 33.10 33.00 32.39 29.25 27.42 25.72 25.22 27.70 27.05 26.66 26.65 26.86 25.93 24.40 23.64 22.65 21.49 22.03 20.94 21.43 21.90 21.69 20.79 20.89 20.76
38.17 39.74 37.58 38.98 35.66 35.65 34.63 35.28 33.70 34.15 31.90 29.52 29.44 28.78 25.72 22.93 22.05 20.98 22.16 18.58 16.71 19.89 21.89 21.91 23.95 24.93 24.13 24.61 25.90 27.36 27.42 27.51 27.77 27.53 27.34 26.43 24.29 23.97 23.94 24.11 22.95 21.65 21.15 21.27 20.56 19.46 19.15 19.70 20.30 20.57 20.70 19.67 18.10 16.70
37.52 39.38 36.83 35.73 33.53 34.06 30.78 37.16 32.02 32.96 29.43 28.56 29.09 25.19 24.37 23.34 23.70 26.38 18.27 18.57 18.32 22.21 24.40 23.06 23.71 25.24 23.56 24.25 24.22 24.52 24.86 23.49 22.46 22.34 22.55 22.59 22.78 22.95 22.61 22.29 22.36 20.44 18.72 18.78 19.54 17.73 16.32 16.31 16.75 17.66 18.13 18.20 18.15 17.21
35.92 30.83 29.04 28.79 30.24 27.49 33.17 29.27 31.32 30.23 29.26 26.34 24.32 21.14 21.41 23.17 25.90 20.75 15.55 16.97 18.89 22.03 21.60 23.34 24.13 21.64 21.91 21.75 20.50 21.10 22.31 22.37 21.01 20.96 21.11 19.14 17.55 17.74 18.88 18.20 18.31 18.43 18.38 18.32 17.86 17.02 16.44 15.76 15.36 16.00 15.57 14.73 13.88 13.74
26.94 22.14 26.43 23.27 27.60 26.70 25.42 25.22 25.50 26.03 22.31 23.87 20.98 20.60 21.25 25.46 19.46 16.75 15.05 17.01 17.49 18.15 20.25 20.97 21.61 20.96 18.18 17.82 18.10 18.82 22.15 21.45 18.83 17.27 19.00 19.52 18.16 17.31 16.23 16.02 16.01 17.33 19.13 16.93 15.05 14.72 14.30 14.77 14.01 13.11 11.94 10.95 11.36 11.19
18.74 20.38 19.97 20.45 21.81 21.43 21.54 19.95 20.25 20.82 21.71 19.61 19.41 21.70 23.87 20.56 15.45 13.20 15.10 17.04 16.42 16.52 18.63 19.59 17.81 15.74 14.90 16.77 16.03 16.34 17.15 19.42 18.25 15.34 16.70 19.90 20.14 18.90 16.81 14.70 12.95 12.67 17.08 17.69 16.63 14.26 12.82 12.41 11.42 10.86 11.45 9.75 7.11 9.52
16.79 18.33 20.09 21.70 20.45 21.51 20.28 20.61 21.28 19.26 16.54 15.80 18.18 18.18 18.46 12.63 11.19 13.57 16.81 17.07 16.24 16.69 18.30 19.00 18.22 15.89 14.23 13.68 13.92 14.46 14.98 15.32 14.06 13.19 14.33 14.23 14.42 15.74 16.17 13.43 10.60 12.50 14.91 14.40 14.16 13.76 12.25 11.39 10.39 10.27 10.15 10.90 9.34 8.15
19.36 17.88 11.62 14.91 14.85 16.53 12.45 13.19 12.64 11.90 13.13 15.24 17.53 11.18 10.40 11.24 10.51 14.99 15.90 17.06 17.09 16.54 15.48 15.29 15.82 16.10 15.29 14.73 15.12 14.69 13.97 13.90 13.56 13.86 13.69 13.09 13.10 13.11 11.44 10.93 10.48 9.56 10.96 12.13 12.56 11.66 11.26 10.74 10.36 9.34 8.01 7.84 6.44 7.62
17.21 19.03 14.23 5.94 11.43 11.88 9.68 10.01 10.26 11.57 13.64 15.34 13.90 10.62 8.74 11.31 16.33 16.12 17.06 18.09 19.15 17.93 15.40 14.08 14.08 15.00 14.12 14.09 14.48 15.58 16.81 17.63 14.41 10.93 10.26 10.22 9.78 8.90 11.84 11.92 11.23 11.83 13.30 11.77 9.57 9.57 8.22 7.74 6.73 7.31 5.95 7.68 8.19 8.75
15.48 20.02 12.09 9.21 7.35 7.38 9.37 11.78 11.33 15.79 15.75 14.67 13.36 11.01 10.80 11.26 13.81 18.26 17.62 16.84 14.43 12.92 13.83 14.72 15.71 15.63 13.55 12.61 10.47 10.04 12.25 13.31 14.76 14.48 11.43 9.24 8.38 10.11 10.51 10.17 10.20 9.72 11.41 10.99 10.28 9.22 5.53 8.77 8.15 8.63 7.16 6.90 6.50 6.12
21.95 19.25 14.18 12.83 9.62 11.82 14.18 15.97 16.01 15.51 15.15 14.25 15.36 12.50 10.79 12.00 13.78 14.16 14.40 14.80 14.71 14.74 13.74 12.43 12.81 13.61 13.04 12.98 12.98 10.24 7.59 9.29 7.67 9.25 10.49 10.70 10.53 9.93 8.76 8.38 9.27 10.20 10.10 9.31 8.64 7.83 7.00 7.96 7.78 5.09 3.97 2.14 0.27 1.67
19.54 16.06 12.91 9.86 11.05 15.44 17.61 17.17 15.40 14.70 14.74 13.45 12.59 13.90 14.11 13.63 9.75 12.44 12.56 15.60 14.16 11.94 11.08 12.84 10.67 8.59 9.90 10.46 9.82 9.51 8.82 9.60 9.06 9.08 9.15 9.73 9.40 8.45 8.71 8.60 8.45 9.60 8.16 7.63 7.15 6.65 3.07 2.38 5.43 3.45 4.00 0.47 -0.01 -0.19
19.22 18.55 17.32 15.28 13.56 13.21 15.71 16.64 14.51 12.79 14.61 13.29 12.15 12.63 11.29 11.88 7.70 10.85 13.18 13.13 15.00 13.70 12.85 12.28 11.34 9.85 8.19 8.82 9.49 9.14 9.26 8.02 5.13 5.99 4.94 3.63 1.75 4.31 8.72 9.42 9.05 7.70 4.60 6.29 6.78 5.37 0.96 -0.39 2.53 0.81 1.13 -0.37 -0.34 -0.50

GFSWCAN_sfc_wetblb_078.txt.gz
Wetbulb
45.05 44.86 44.94 45.01 45.30 45.53 45.81 46.06 46.11 46.20 46.22 46.24 46.47 46.30 46.25 46.51 46.65 44.94 43.49 47.11 43.46 40.03 41.88 43.76 43.43 40.57 42.67 42.47 38.05 41.56 41.24 41.71 41.66 37.15 35.95 36.95 36.55 38.45 37.32 39.15 39.33 37.05 36.47 37.13 38.94 35.11 33.96 49.70 48.10 43.12 48.07 52.77 53.86 53.31
44.70 44.85 45.12 45.49 45.63 45.60 45.80 45.97 46.10 46.08 46.29 46.29 46.31 46.48 46.41 46.48 46.56 46.66 41.50 47.05 48.18 41.92 42.30 48.13 47.67 48.50 48.17 47.47 44.33 44.25 42.02 42.20 43.56 40.89 41.62 41.23 38.76 39.54 37.73 32.67 43.98 37.71 40.78 40.00 42.27 42.03 51.56 51.10 50.48 52.59 53.93 54.18 53.97 55.45
44.96 45.64 46.11 45.69 44.85 45.09 45.06 45.39 45.28 45.34 46.19 46.25 46.38 46.59 46.68 46.66 46.37 46.77 43.36 45.32 45.61 41.65 41.26 43.52 43.16 48.72 51.65 51.36 53.31 43.35 45.13 46.88 46.16 50.27 44.18 44.10 39.37 41.49 37.18 38.56 40.49 43.80 48.43 44.36 44.55 46.75 48.00 50.71 50.72 53.58 53.94 53.12 55.26 56.43
45.64 45.88 45.22 45.22 44.82 44.00 43.33 42.96 43.62 45.31 46.17 46.34 46.48 46.57 46.48 46.68 46.41 46.56 43.46 46.16 45.22 41.54 37.13 39.09 48.59 46.80 50.87 50.34 50.78 50.32 48.19 49.18 47.73 47.45 44.78 44.25 41.20 46.03 40.73 43.32 42.36 45.13 46.20 44.92 45.28 47.57 48.32 49.90 51.29 53.59 54.27 56.09 54.42 54.96
45.86 45.00 45.02 44.93 44.65 45.17 45.75 44.29 44.44 45.78 46.10 46.38 46.55 46.50 46.59 46.64 46.94 46.22 46.38 47.29 48.29 42.56 36.32 38.79 45.88 47.47 48.90 48.55 47.63 49.08 47.50 46.24 44.27 42.92 40.57 42.02 45.43 45.91 45.97 45.07 42.33 46.78 44.83 43.13 44.19 49.30 48.90 49.98 53.18 56.50 54.51 53.10 53.89 53.48
45.64 45.22 44.76 44.16 45.47 44.21 44.71 45.15 45.76 45.71 45.96 46.43 46.38 46.46 46.62 47.05 46.70 44.88 38.14 46.17 48.64 48.94 41.81 34.91 44.56 44.36 46.45 46.93 46.58 45.94 46.82 45.56 44.31 43.38 44.12 46.52 49.56 46.55 43.25 40.79 46.16 48.42 49.63 50.04 48.37 52.64 52.61 52.95 51.90 51.50 51.70 54.02 54.57 54.52
45.46 45.86 45.30 45.06 45.72 45.15 45.06 44.94 45.74 46.04 45.95 46.27 46.41 46.70 46.34 46.56 45.50 41.72 39.89 43.93 47.15 48.46 40.92 35.97 36.88 43.64 45.53 45.71 45.14 44.36 45.94 44.77 43.59 44.11 43.33 45.52 46.47 46.40 44.09 38.78 44.70 47.73 48.67 48.79 50.77 50.53 50.37 51.75 49.67 50.29 50.72 50.04 50.64 52.47
45.23 45.70 45.68 45.26 45.47 45.54 45.40 45.54 45.81 46.06 45.90 45.73 45.60 45.87 45.96 46.20 46.05 43.28 46.06 46.07 48.00 43.83 42.47 33.45 34.38 38.50 41.81 40.58 40.00 44.64 42.06 43.75 43.21 43.30 46.39 44.62 46.70 46.60 39.73 43.90 46.76 48.45 48.68 49.29 51.96 52.14 51.47 49.84 49.81 48.70 48.95 49.10 48.04 47.73
44.82 44.66 45.23 45.06 45.49 45.53 45.37 45.49 44.69 44.87 45.40 45.40 45.23 45.62 44.93 44.39 41.43 42.92 45.67 46.21 47.80 43.67 34.96 33.04 33.58 32.01 37.08 38.34 41.36 42.73 43.81 35.70 43.85 39.76 42.29 45.01 42.69 38.88 43.38 45.17 46.71 47.64 47.30 47.56 50.29 51.69 49.28 48.24 47.91 47.15 46.88 46.88 44.99 44.52
44.32 44.07 44.09 44.27 44.25 44.10 44.08 44.03 44.45 44.31 44.68 44.93 44.04 38.58 33.40 41.24 45.06 45.20 42.47 38.25 39.51 41.07 41.33 34.71 39.46 33.63 36.11 35.02 36.94 40.43 41.89 37.91 34.82 39.18 44.28 37.91 40.85 46.25 47.78 49.88 50.14 51.21 50.53 50.97 47.64 45.90 46.91 46.52 46.05 46.18 45.97 45.69 44.70 43.74
44.59 44.26 43.89 43.76 43.91 43.89 43.99 43.97 44.48 45.03 45.47 43.93 39.86 37.54 41.22 45.40 43.11 39.47 33.33 33.36 35.05 33.30 38.01 38.57 38.55 34.68 38.60 33.49 32.50 40.28 36.26 37.54 33.22 38.13 37.74 38.13 38.27 44.07 47.52 47.57 49.36 49.54 49.06 48.50 48.50 47.69 48.56 48.26 45.65 42.01 36.96 35.22 35.52 33.14
44.57 44.29 44.02 43.98 43.70 44.13 44.33 44.60 44.95 45.73 44.59 43.86 42.55 44.04 43.80 39.18 35.53 33.87 31.95 32.68 33.05 31.62 37.90 37.25 37.53 39.85 36.95 39.29 34.81 34.31 35.76 34.85 31.74 42.39 38.29 35.22 35.59 40.75 43.35 44.78 45.76 45.54 45.53 44.99 45.08 42.65 40.50 39.50 37.25 34.87 32.06 30.40 29.49 28.83
44.16 43.97 44.07 43.55 43.33 43.59 43.80 44.00 44.39 45.15 46.01 47.15 42.01 36.81 37.20 34.08 29.86 30.49 26.70 29.62 32.84 38.18 39.31 38.49 35.08 37.88 35.00 36.42 32.86 32.86 32.50 32.84 38.15 36.34 34.42 31.21 33.83 34.83 35.94 37.33 37.15 37.78 37.88 35.58 34.49 33.92 32.87 32.15 31.84 30.82 28.38 28.30 27.52 26.39
43.71 43.60 43.79 43.71 43.23 43.21 43.39 43.91 44.27 46.02 46.73 38.39 34.67 30.14 31.60 29.54 32.84 32.63 34.82 36.76 36.74 39.81 39.60 38.75 35.03 32.84 32.13 31.59 32.32 31.59 33.04 34.91 32.10 29.81 28.13 29.66 30.26 30.21 30.71 31.12 30.19 29.38 29.96 29.76 28.89 28.81 28.46 28.09 27.75 27.94 27.66 27.59 26.58 25.73
43.82 43.65 43.79 43.76 43.54 43.72 43.84 44.04 44.65 46.61 41.43 33.94 35.09 29.26 29.82 32.10 32.41 31.70 33.77 35.20 33.69 36.66 38.63 37.36 34.84 33.75 31.77 31.77 32.13 32.68 31.41 29.46 29.45 27.18 28.71 28.63 28.75 27.90 27.03 27.34 27.03 26.93 27.04 26.96 27.33 26.56 26.43 26.21 25.75 25.41 26.32 26.34 25.73 24.86
43.91 43.78 43.30 43.51 43.40 43.67 43.12 45.76 45.89 44.15 38.94 33.72 30.22 29.57 30.25 32.39 29.94 28.30 26.88 29.31 31.73 31.28 35.74 35.89 31.95 31.77 31.77 32.32 30.99 29.14 28.89 25.09 25.65 28.35 28.75 28.10 26.74 26.79 26.50 27.11 27.33 27.58 26.98 26.69 26.84 26.79 26.57 25.73 25.00 25.23 26.04 25.86 25.74 25.45
43.95 42.45 43.01 42.92 42.80 42.94 43.64 44.14 41.41 35.60 34.69 32.30 28.39 30.46 29.95 29.50 26.25 25.22 25.60 26.47 30.85 31.53 31.95 32.66 30.28 29.20 34.41 29.61 25.56 25.94 22.95 25.20 27.18 27.69 28.56 27.95 26.99 27.51 28.47 28.45 28.36 28.47 28.25 28.03 27.62 27.38 27.06 27.08 26.15 24.69 23.09 23.53 24.01 23.99
43.01 43.40 42.84 43.34 44.66 44.97 42.95 41.83 36.84 33.47 27.14 28.60 26.52 27.89 26.48 26.79 26.24 25.93 27.00 28.46 29.83 31.31 31.56 28.71 31.93 25.11 22.52 23.24 22.75 24.49 25.91 27.63 28.56 28.28 28.45 29.08 29.98 30.04 29.89 28.86 29.04 28.93 28.45 28.32 27.80 27.47 26.93 26.20 25.15 24.51 24.90 25.15 24.66 24.34
42.58 42.83 42.01 42.30 42.88 41.44 35.39 35.60 37.73 27.79 27.92 29.76 30.17 30.49 29.52 27.66 28.27 28.23 27.25 28.68 31.48 30.55 29.70 27.32 21.85 20.04 22.75 26.66 26.07 26.97 28.39 28.02 26.91 27.95 28.88 29.64 30.08 29.39 29.12 29.13 28.68 27.83 27.01 26.75 26.45 26.05 26.28 26.31 25.86 25.91 25.74 25.51 24.06 23.93
41.84 41.44 41.71 41.77 42.54 38.21 32.50 33.91 38.14 31.18 27.95 29.02 30.07 26.49 26.54 26.14 26.95 27.48 26.59 26.96 27.43 25.41 22.25 20.23 19.60 21.55 23.61 28.97 30.19 28.96 29.04 29.71 27.87 25.61 25.77 27.65 28.64 28.25 27.56 27.09 26.20 26.18 25.57 25.32 24.89 24.39 23.28 22.29 22.69 22.71 22.53 21.58 20.23 19.99
40.83 40.15 40.91 41.53 39.02 36.77 34.08 33.52 31.54 31.88 31.24 28.79 30.46 29.06 27.34 27.79 24.32 22.68 21.73 25.12 22.28 20.43 18.38 23.04 23.28 24.78 27.77 28.57 31.84 32.93 31.82 30.54 27.93 26.94 25.52 24.81 27.19 26.99 26.30 26.10 25.46 24.61 22.95 22.21 21.08 20.83 20.97 20.27 20.64 20.80 20.39 20.44 20.63 19.38
38.58 39.96 38.42 40.01 35.37 34.59 33.87 34.68 32.35 33.82 31.18 29.35 29.24 28.61 25.13 22.71 22.19 21.36 22.47 18.83 17.76 20.30 20.97 22.27 22.96 23.94 23.64 24.15 25.89 28.39 28.42 28.38 27.98 27.54 27.29 26.35 23.76 23.37 23.15 23.10 22.14 20.65 20.41 20.24 19.78 19.12 19.11 19.95 20.86 20.90 19.04 16.73 16.34 16.05
37.99 39.66 37.59 36.92 33.28 33.27 30.85 35.40 32.09 32.55 28.40 27.69 28.89 25.17 23.73 22.45 23.14 25.43 17.53 18.07 18.63 23.05 23.79 23.83 24.40 25.16 23.73 24.51 24.71 25.06 25.55 24.08 22.91 23.05 23.17 23.08 23.13 23.12 22.32 21.75 21.63 19.49 17.84 18.24 18.98 17.41 16.76 16.38 17.38 18.28 18.63 18.53 17.78 15.87
36.83 31.71 29.78 29.08 30.65 27.67 34.25 29.42 32.16 30.22 28.68 26.55 24.24 21.27 21.80 23.53 24.84 19.25 14.31 16.16 19.49 22.32 22.93 24.47 24.05 21.67 21.95 21.60 20.85 21.46 22.79 22.68 21.34 21.41 21.54 19.83 18.28 18.57 19.36 18.87 19.02 19.36 19.13 18.73 18.12 17.27 16.53 16.12 15.29 16.30 15.70 14.61 14.19 13.60
25.81 21.47 26.49 24.08 27.84 27.20 24.88 24.75 25.44 25.58 21.78 23.97 21.59 20.92 21.92 26.23 19.46 16.83 14.75 16.69 17.64 19.80 20.36 22.31 21.57 20.14 17.50 17.49 18.73 19.99 23.01 21.59 19.08 17.81 19.32 19.39 18.08 17.50 16.71 17.24 17.65 18.39 19.27 17.26 15.47 15.12 14.73 14.58 13.12 11.52 10.30 11.30 11.43 10.77
18.58 19.95 19.84 20.29 21.66 21.96 21.89 20.24 21.12 21.47 22.16 20.39 20.44 23.09 24.74 20.82 15.71 12.90 14.41 16.27 15.76 17.11 19.78 19.07 17.30 15.27 14.82 16.51 15.58 16.04 17.59 19.30 18.01 15.48 16.98 20.42 20.13 17.76 15.13 13.27 12.03 12.97 17.61 18.49 16.02 13.47 12.19 12.14 11.86 11.65 10.32 8.06 5.30 9.37
16.60 18.36 20.42 23.54 21.87 23.07 21.50 21.51 21.84 18.71 16.15 16.05 18.77 19.07 19.63 13.86 11.25 13.48 16.51 17.28 15.79 17.64 18.95 19.32 17.85 15.08 13.23 13.12 13.93 14.51 15.33 15.75 14.45 13.55 14.63 14.34 14.06 15.49 16.14 12.77 10.61 12.42 15.01 14.86 14.78 13.85 12.03 10.95 10.80 10.80 10.21 9.69 8.09 8.57
19.43 17.73 12.42 16.81 15.99 18.20 14.44 14.79 13.08 11.45 13.01 15.79 18.46 11.95 10.54 10.52 9.85 14.85 15.73 17.46 17.73 17.18 16.57 17.17 17.99 17.40 16.24 15.18 15.44 14.76 14.09 14.52 14.32 14.37 14.46 14.30 14.45 12.86 11.64 11.39 11.00 12.26 11.28 12.25 11.86 12.20 11.70 11.34 10.34 9.24 8.51 6.90 6.53 8.10
18.18 19.40 15.38 8.72 13.34 12.48 10.82 11.53 10.79 13.45 15.57 16.18 15.41 11.08 9.04 13.31 17.47 16.62 17.69 18.91 20.24 18.16 15.62 14.48 14.80 15.89 15.27 15.39 16.14 16.80 18.11 18.44 15.46 11.80 9.75 8.39 8.09 8.95 12.26 11.82 12.32 13.49 12.96 10.23 10.34 9.75 7.97 7.39 7.70 7.72 7.51 7.78 8.19 8.54
17.14 20.95 13.47 10.98 8.98 7.75 10.63 14.54 14.57 16.61 15.88 14.82 13.50 11.81 11.22 12.34 15.55 18.94 17.78 16.95 15.42 14.87 16.03 16.70 17.11 15.32 12.80 11.09 9.39 9.54 11.65 12.92 13.34 14.40 10.68 7.89 7.95 10.98 11.24 10.88 10.53 10.84 11.95 11.35 10.39 8.35 7.48 8.84 9.09 8.35 7.01 7.04 5.72 5.40
22.56 20.68 15.87 13.75 10.92 13.48 15.43 17.50 18.04 17.28 17.12 15.78 15.77 11.68 10.31 11.55 13.78 16.06 16.68 17.16 16.54 16.46 14.99 13.08 12.19 13.72 13.40 12.83 12.27 9.44 6.46 8.98 9.95 10.94 11.87 11.60 10.66 9.63 9.27 9.09 10.09 11.10 10.35 9.58 8.79 7.22 6.79 7.67 7.41 6.52 5.23 3.62 1.78 1.60
21.23 17.41 14.31 10.79 11.79 16.16 18.48 18.71 17.35 15.51 15.80 14.11 12.65 15.29 15.67 14.53 10.16 12.56 14.57 16.73 15.50 13.91 13.35 12.52 9.89 9.08 11.06 10.82 10.79 10.68 9.99 10.27 9.87 9.89 9.69 10.07 9.18 9.21 9.42 9.17 9.29 9.30 8.19 7.75 7.12 6.65 5.19 4.73 5.35 4.14 4.22 3.59 1.64 0.12
20.39 19.78 18.38 16.17 14.44 15.31 16.54 18.08 15.71 14.55 15.79 14.00 12.83 14.25 12.81 12.84 8.35 11.03 15.22 15.74 16.93 14.63 12.48 11.34 10.60 10.09 10.30 10.36 10.41 9.89 8.12 7.25 5.94 7.21 5.19 3.85 1.52 3.87 7.99 9.28 8.81 7.50 6.47 6.30 6.76 5.71 4.30 3.59 3.29 2.35 2.03 0.91 0.40 -0.31

GFSWCAN_sfc_wetblb_084.txt.gz
Wetbulb
45.58 45.65 45.61 45.38 45.35 45.33 45.53 45.56 45.63 45.79 45.95 46.21 46.12 46.35 46.58 46.88 47.23 45.37 42.20 44.18 39.18 34.02 37.11 38.48 39.69 37.30 37.56 36.74 32.27 34.90 34.20 33.58 32.99 27.39 26.20 27.25 24.80 31.96 33.64 35.96 34.28 32.83 29.32 25.61 29.79 26.73 27.28 44.68 44.67 39.29 41.83 46.01 47.11 46.95
45.26 44.84 44.48 44.53 44.67 44.88 44.98 45.19 45.35 45.46 45.44 45.65 45.58 45.79 46.26 46.52 46.86 46.65 40.37 44.13 43.20 37.28 37.56 41.83 42.54 44.35 43.32 42.82 39.33 38.68 35.11 34.65 35.84 31.29 29.23 31.24 28.12 29.76 32.93 28.80 38.65 33.18 35.49 32.48 33.10 33.08 42.50 46.30 46.96 47.53 47.99 47.18 47.63 47.34
44.74 44.92 45.20 45.32 45.57 45.64 46.00 46.21 46.05 45.85 45.98 45.63 45.42 45.82 46.21 46.38 46.54 45.95 42.36 42.90 41.26 37.07 35.68 36.64 38.16 43.23 46.82 45.09 46.88 38.33 37.18 39.73 39.51 40.44 36.64 34.25 28.60 34.59 28.01 30.55 33.91 39.62 42.61 36.68 37.46 41.77 43.45 45.70 48.62 49.32 48.11 47.81 48.86 48.32
44.88 45.60 45.67 45.71 45.74 45.80 46.01 45.92 45.61 45.63 45.73 46.30 45.66 45.82 46.09 45.98 46.10 45.86 41.96 42.98 40.47 37.38 31.21 35.51 43.95 42.81 47.20 46.73 45.72 46.23 43.99 43.51 41.71 40.79 35.47 33.09 28.99 38.90 33.04 35.96 34.68 38.26 41.76 38.46 37.84 42.38 44.97 45.91 47.04 47.43 48.41 49.50 49.12 49.20
45.52 45.77 45.67 45.74 45.67 45.17 45.46 45.41 45.25 45.22 45.29 46.53 46.15 46.03 45.84 46.42 46.00 45.11 43.59 43.66 42.64 36.84 31.85 33.64 40.85 44.84 45.52 44.83 44.15 45.63 45.46 42.00 38.35 34.47 32.81 34.74 37.68 37.29 37.29 37.26 35.22 39.20 38.63 36.61 36.09 43.88 43.84 44.56 47.38 48.44 47.55 47.22 48.67 49.72
45.57 45.81 45.62 45.37 45.56 44.45 45.33 45.54 45.01 45.02 45.30 45.48 45.89 46.21 46.39 46.42 46.07 42.78 36.89 42.83 44.26 42.21 36.90 30.94 40.86 42.29 43.99 44.20 43.90 43.72 44.31 42.70 39.78 36.13 34.48 38.14 42.71 40.07 33.26 30.75 38.95 41.47 42.24 43.80 42.40 45.72 46.18 47.39 47.13 48.23 47.55 47.25 47.83 48.59
45.59 45.60 45.60 45.63 44.74 44.38 44.86 44.89 44.64 44.88 45.64 45.73 46.14 46.19 46.19 46.21 44.44 37.49 35.95 40.57 44.67 44.18 35.15 32.51 33.37 41.08 44.39 43.42 42.37 40.80 40.86 40.95 38.30 35.65 33.31 35.60 37.48 40.50 33.82 30.93 39.63 42.29 43.32 44.85 46.24 47.36 44.38 45.87 44.81 46.03 46.17 45.01 44.50 43.76
45.36 45.72 45.44 45.47 45.34 43.49 43.65 44.03 45.02 45.36 45.42 45.91 45.87 45.97 45.94 45.96 44.18 40.06 43.48 45.28 45.16 41.06 37.15 30.56 32.42 34.68 39.99 36.31 34.42 38.71 35.16 35.91 35.76 34.74 34.18 33.79 35.97 36.31 30.50 37.89 40.92 43.18 44.26 44.02 46.71 47.18 46.31 44.64 44.81 43.70 43.42 42.21 37.88 34.87
45.07 45.08 44.97 45.35 45.69 45.51 44.93 45.10 45.47 45.63 45.89 45.93 45.92 45.73 43.83 42.02 39.44 42.31 46.21 46.17 46.62 39.45 30.56 26.03 25.62 28.70 35.23 35.01 35.97 35.26 35.07 29.42 34.41 29.50 31.42 35.31 32.41 30.10 36.32 39.06 41.21 42.34 43.21 43.16 45.48 44.80 44.24 43.20 42.31 41.32 39.42 35.52 32.32 30.44
44.27 44.55 44.56 44.73 45.10 45.20 45.62 45.73 45.62 45.87 45.37 44.54 42.56 37.37 31.91 41.03 46.03 45.21 40.90 35.15 36.97 38.12 32.32 23.59 30.24 29.89 34.00 32.07 33.34 33.46 30.61 26.38 27.21 33.18 36.58 28.74 30.17 37.27 41.91 41.80 40.31 39.68 41.23 43.86 41.63 39.93 40.09 36.99 34.99 33.15 31.52 31.00 29.25 27.66
44.69 44.77 44.83 44.76 44.91 44.83 44.88 44.79 44.88 45.08 45.32 39.70 37.09 33.16 42.41 46.28 41.39 36.02 31.29 30.88 32.01 30.01 30.74 31.56 31.24 30.66 35.46 28.89 30.34 28.50 30.72 26.68 26.90 28.43 31.15 31.64 31.23 36.94 40.28 39.13 37.98 36.63 36.52 36.30 37.65 37.23 37.25 34.76 31.27 28.60 27.19 27.17 26.52 25.43
44.78 44.70 44.85 44.97 44.96 44.77 44.62 45.02 45.01 42.08 39.88 40.62 40.51 41.96 40.86 37.80 33.58 29.35 27.41 29.62 27.52 25.85 29.68 30.53 30.58 31.83 31.16 33.37 27.96 30.72 28.62 31.26 25.65 32.23 27.33 29.91 32.87 34.66 34.36 34.47 34.95 34.69 34.39 33.85 33.29 31.88 31.05 29.98 28.82 27.53 26.50 25.40 24.96 24.77
43.91 44.10 44.39 44.32 44.40 45.08 45.16 44.42 44.53 44.28 44.17 42.46 37.71 33.62 32.83 29.02 22.64 17.27 20.27 25.77 21.99 30.30 29.99 32.03 31.82 32.71 33.97 34.79 30.17 30.84 27.83 28.09 33.26 26.89 25.24 29.07 31.29 32.27 31.66 31.39 30.99 31.69 30.80 29.55 28.98 28.60 27.84 27.06 27.30 26.31 24.87 25.16 24.98 23.73
43.72 43.56 43.84 44.07 44.41 44.32 44.80 45.08 45.08 44.49 40.27 33.78 26.35 25.74 25.51 25.18 27.06 26.65 29.87 30.87 30.96 32.01 28.97 31.63 32.36 31.96 32.22 30.69 31.41 27.58 28.33 32.18 27.99 26.79 26.29 27.92 28.15 28.11 29.34 29.52 28.16 26.99 27.79 26.99 26.36 25.97 25.55 25.04 24.33 24.45 24.13 24.31 23.31 22.30
43.70 43.22 43.11 43.36 44.09 44.34 44.45 44.69 43.79 39.84 33.73 26.90 27.36 21.82 23.77 27.37 26.88 26.50 28.11 29.70 28.58 30.89 32.93 32.33 32.53 32.83 30.35 29.59 30.48 29.92 28.70 26.58 24.84 23.51 24.08 26.41 27.24 26.89 26.38 26.53 25.90 25.50 25.12 24.78 24.74 23.69 23.40 23.24 22.89 22.72 23.68 23.80 23.14 22.26
43.86 42.50 41.04 42.99 43.91 44.51 44.17 43.20 39.99 37.75 31.92 26.42 23.70 22.63 24.71 22.32 21.87 23.74 23.97 25.21 28.59 28.29 31.61 33.08 31.08 29.24 29.00 29.21 26.18 20.80 22.19 18.31 19.62 20.36 24.62 26.04 25.73 25.64 25.59 25.71 25.23 25.10 24.52 23.92 23.90 23.61 23.47 22.75 22.13 22.40 23.04 22.67 22.05 21.24
42.35 37.53 42.25 43.00 43.60 43.64 42.91 38.05 33.75 28.57 25.71 21.47 19.97 24.73 23.02 20.29 18.18 23.36 24.08 25.21 29.02 27.83 30.37 31.08 24.44 22.44 27.97 23.15 18.17 21.52 16.22 19.54 22.88 23.78 25.53 25.51 24.78 24.51 24.78 24.47 24.24 24.02 23.45 23.40 23.45 23.30 23.22 23.92 23.73 22.21 20.51 21.72 22.10 21.79
38.93 37.98 42.54 43.04 42.65 39.00 36.19 34.22 28.64 26.06 22.24 23.47 18.77 18.14 22.90 22.30 20.77 22.20 23.47 26.55 27.65 28.61 27.71 23.87 26.60 21.21 18.82 17.99 15.90 21.48 22.97 24.78 25.69 25.45 25.81 26.20 26.16 25.98 25.77 24.68 25.09 24.80 24.36 24.37 24.40 24.25 23.90 22.72 21.20 20.38 20.86 20.86 19.95 19.54
39.60 39.91 42.00 42.34 40.28 34.08 29.74 29.77 28.98 21.87 22.58 21.68 24.08 25.69 22.85 22.84 23.15 23.27 23.60 26.13 28.14 27.87 26.28 23.00 17.54 16.33 16.95 23.34 22.44 23.41 23.94 24.11 22.32 22.69 23.58 25.11 25.98 25.40 25.01 25.07 24.50 23.97 23.92 23.73 23.34 22.22 22.66 23.18 21.93 21.14 20.37 19.48 17.13 17.18
41.87 41.66 41.59 41.80 40.40 30.44 27.07 29.15 30.78 25.35 22.11 23.00 23.69 20.59 20.73 19.73 20.15 20.29 21.88 22.56 24.13 23.11 18.98 16.67 16.05 18.10 19.59 24.10 25.40 24.69 24.76 25.01 23.48 20.95 21.02 22.51 23.73 23.23 22.61 22.38 21.65 22.00 21.27 21.24 20.77 20.16 19.06 18.02 18.18 18.57 18.52 16.73 14.10 12.65
40.14 39.44 40.52 38.23 34.16 33.62 32.17 29.29 28.40 28.63 28.74 25.47 25.25 25.52 20.28 21.06 17.85 17.33 17.94 22.10 18.55 17.31 15.98 18.23 18.81 22.28 26.07 26.61 27.04 26.48 25.63 25.40 23.00 21.93 20.16 18.94 21.41 21.38 20.91 21.16 21.38 20.38 18.50 17.49 16.25 15.44 15.19 14.70 15.64 15.24 13.92 12.89 12.16 11.63
37.40 39.70 34.30 36.26 32.68 31.88 31.41 32.12 29.89 31.41 26.60 26.32 25.91 25.19 19.44 16.24 14.63 15.69 19.84 16.06 16.35 17.69 19.15 18.56 19.24 20.82 20.76 22.29 23.63 24.38 24.08 23.69 23.06 22.22 21.93 21.17 18.23 17.83 17.51 18.08 17.36 15.74 16.40 16.56 15.69 13.86 13.53 13.74 13.49 12.73 11.30 10.19 9.41 7.69
37.77 36.53 32.05 31.69 28.99 28.36 28.74 33.28 27.72 29.14 23.41 24.60 25.03 20.63 17.83 17.45 19.17 21.79 13.46 16.53 17.13 21.12 21.05 20.45 20.16 21.20 20.18 20.86 21.11 21.14 21.82 20.88 18.90 18.78 18.58 18.04 18.14 17.96 17.08 16.81 16.64 14.69 13.53 14.14 15.23 13.82 12.38 12.14 10.93 9.70 8.77 7.69 5.47 2.97
31.47 24.31 24.37 23.17 25.20 23.77 27.16 25.25 29.59 27.34 25.83 23.64 21.62 18.05 19.86 18.28 20.10 13.54 10.13 12.24 14.74 18.49 18.39 18.13 19.18 17.90 18.46 18.35 16.90 17.78 19.14 19.57 18.03 17.83 18.22 16.70 14.97 15.31 15.96 15.24 15.11 14.86 14.22 13.41 11.77 10.27 9.57 7.79 7.04 6.55 4.76 2.61 0.78 -0.33
15.78 13.90 15.94 12.18 18.98 20.20 19.26 18.57 18.41 20.43 16.33 18.57 16.18 15.76 20.65 21.92 13.82 11.27 9.27 10.66 12.63 14.15 14.86 14.59 13.53 14.64 13.91 13.86 14.11 14.71 18.09 18.31 15.75 14.36 16.53 16.84 15.28 14.35 13.75 14.07 13.56 13.33 13.10 8.83 6.54 4.71 2.86 3.26 3.28 1.74 1.00 0.08 0.20 -4.00
8.83 13.22 10.49 11.77 11.94 14.30 15.13 8.52 11.00 10.58 10.70 12.86 13.91 17.92 14.07 7.79 4.43 4.35 8.58 10.34 10.90 12.34 12.67 12.79 12.01 10.94 9.83 11.43 11.08 11.39 13.03 16.44 14.90 10.92 12.73 16.17 14.93 12.92 11.04 9.76 9.06 9.37 11.62 8.09 5.72 2.83 2.08 1.44 1.21 -0.46 -2.55 -2.95 -4.01 -5.70
3.73 5.01 14.90 18.17 16.34 16.51 9.52 8.96 11.68 5.76 1.89 3.56 7.46 4.17 3.39 -1.91 0.33 7.68 12.24 12.73 12.21 13.33 14.44 14.70 13.68 11.79 10.71 10.58 11.78 12.19 12.15 12.23 11.40 10.60 11.74 11.15 11.06 11.39 10.14 7.38 5.51 7.39 9.14 6.93 5.08 4.12 2.99 -1.68 -3.65 -4.65 -9.07 -15.05 -13.06 -9.12
9.80 10.32 1.42 3.95 5.08 9.80 -0.50 1.31 2.91 3.17 4.37 10.33 7.61 -1.69 -5.26 -3.27 1.23 9.55 11.33 13.80 13.97 15.01 14.80 14.84 15.02 13.83 12.80 12.36 12.60 12.06 11.20 11.55 11.35 11.14 10.57 10.07 9.98 8.57 7.79 7.68 8.41 9.02 3.97 2.57 1.84 0.77 1.11 -1.20 -4.11 -7.20 -5.89 -9.79 -13.78 -18.49
6.54 8.83 6.49 -2.77 -0.94 1.43 5.81 1.62 1.09 6.71 10.20 9.13 -3.99 -2.36 0.89 9.12 10.26 11.05 12.84 13.71 16.21 14.52 12.06 11.02 11.16 11.83 10.35 10.14 10.00 10.37 11.05 11.90 7.84 3.91 2.26 1.68 2.33 4.31 5.26 4.38 3.32 0.94 1.10 2.64 6.72 1.72 -0.14 -3.22 -6.40 -7.98 -11.43 -10.73 -15.23 -19.22
4.65 7.39 0.20 -5.63 -4.22 -0.54 3.68 4.09 3.18 -0.97 6.44 5.02 9.07 8.88 8.17 8.56 11.56 15.19 14.61 13.69 11.59 10.86 11.94 11.34 10.67 9.34 7.30 6.87 6.00 6.66 8.06 8.47 8.43 4.95 1.42 0.07 0.52 0.34 -0.11 2.53 1.01 -1.87 -5.54 -4.45 -7.47 -6.18 2.90 -5.83 -5.10 -12.98 -11.68 -12.00 -13.78 -15.59
9.47 3.58 -0.20 -0.66 0.87 3.11 2.54 -3.81 3.36 5.72 -0.09 -1.91 -4.68 -2.06 -2.04 4.24 8.27 12.02 11.64 13.18 12.08 10.98 9.12 7.57 7.39 8.14 7.05 6.80 5.02 4.12 2.85 4.99 5.53 5.46 5.26 3.43 1.00 -0.25 -1.08 -2.61 -5.13 -4.47 -7.24 -9.33 -13.50 -15.06 -15.23 -13.78 -15.95 -16.86 -17.09 -17.06 -19.04 -19.94
0.51 -5.16 -2.99 -5.26 -0.55 2.57 5.48 7.79 -1.85 -0.93 -3.81 -2.38 0.92 -6.53 -1.15 -3.02 -3.26 3.98 10.67 9.01 9.19 7.72 8.13 7.93 6.28 5.88 7.48 6.38 4.72 3.78 3.64 1.80 1.28 1.41 1.50 -0.15 -3.27 -5.62 -5.63 -6.23 -11.67 -10.79 -13.60 -14.68 -15.78 -15.97 -15.46 -15.95 -17.77 -18.85 -17.95 -16.86 -18.49 -19.76
0.54 -1.28 -5.99 -3.81 -1.99 -0.36 1.34 6.26 0.67 2.83 1.36 -5.62 -3.09 -2.73 -3.81 -4.97 -4.92 1.81 8.98 11.55 7.49 6.15 6.01 6.58 6.43 6.04 4.59 3.40 1.61 0.60 -0.15 -1.28 0.08 2.53 -1.47 -2.18 -4.58 -5.26 -12.58 -16.14 -14.35 -14.15 -9.71 -12.69 -16.50 -17.26 -15.61 -14.90 -17.40 -18.13 -20.85 -20.85 -21.21 -22.30

GFSWCAN_sfc_wetblb_087.txt.gz
Wetbulb
44.49 44.67 44.92 45.30 45.41 45.50 45.71 45.83 45.85 45.85 46.15 46.29 46.34 46.48 46.71 46.70 47.04 46.03 43.18 44.81 40.43 34.87 36.65 38.73 39.07 35.88 35.96 35.77 30.54 34.40 34.00 32.97 30.73 25.35 22.33 25.26 23.42 28.51 29.06 33.08 32.60 31.92 31.17 29.92 31.00 26.96 25.02 41.51 43.78 36.60 40.30 45.65 46.64 45.52
44.41 44.81 44.88 44.66 44.68 44.89 44.94 45.05 45.15 45.35 45.50 45.80 46.06 46.26 46.64 46.57 46.69 46.34 40.15 44.77 44.80 37.57 37.06 40.73 40.75 41.11 41.10 41.21 37.79 37.44 36.07 34.98 34.64 29.13 27.63 27.74 24.14 25.25 29.06 25.44 37.42 29.97 34.69 33.33 33.82 31.48 39.15 42.51 45.70 47.56 47.58 46.54 46.92 46.65
44.81 44.85 44.63 44.82 45.04 45.25 45.48 45.46 45.48 45.41 45.31 45.42 45.50 45.89 46.40 46.61 47.13 46.13 42.31 42.18 40.59 34.88 35.50 35.96 34.67 40.23 44.31 43.16 45.14 36.37 37.35 39.77 39.16 39.96 33.63 31.88 26.53 30.04 23.55 28.86 32.57 37.05 40.98 36.79 36.69 39.43 40.43 42.65 44.77 47.69 48.38 47.15 48.39 48.44
44.53 44.32 44.68 45.17 45.52 45.86 45.90 45.94 45.83 45.83 45.85 45.67 45.50 45.55 45.99 46.34 46.61 46.40 42.72 43.16 40.36 36.93 30.31 30.86 40.18 37.51 42.36 42.99 45.80 44.96 43.20 44.33 42.82 41.06 34.87 29.98 27.51 35.20 29.78 32.44 34.56 36.88 40.61 38.57 36.56 39.81 40.90 43.73 45.40 46.81 48.49 49.11 48.67 48.68
44.42 45.18 45.59 45.64 45.78 45.88 45.83 45.76 45.65 45.76 45.92 46.33 46.10 45.92 46.10 45.99 46.01 45.25 44.46 44.05 42.79 35.82 27.02 28.03 38.08 39.90 41.78 42.21 43.25 44.19 43.33 41.82 39.72 36.30 33.72 33.09 34.28 34.78 34.31 34.66 33.31 38.31 37.24 34.25 33.63 41.28 39.94 42.09 45.40 47.73 46.77 47.13 48.35 48.37
45.69 45.82 45.60 45.49 45.35 44.12 45.10 45.22 45.01 45.48 45.71 46.30 46.15 46.40 46.17 45.41 45.68 42.44 34.04 42.61 43.74 40.66 33.39 28.62 36.72 38.50 41.81 43.21 42.36 42.23 42.70 42.04 41.01 38.11 35.27 36.38 39.71 36.51 28.62 29.89 36.97 41.01 40.72 41.64 40.51 43.34 43.43 44.71 46.40 46.99 47.32 45.62 47.25 48.03
45.60 45.66 45.61 44.66 44.14 44.78 44.99 45.18 45.56 45.12 45.51 45.55 45.55 45.80 46.10 45.60 43.88 36.64 34.27 39.85 44.38 41.60 35.41 29.91 32.92 38.34 42.14 41.96 41.35 40.80 42.13 41.58 41.04 38.36 35.06 35.04 37.06 38.44 31.77 27.93 37.52 39.93 40.29 40.79 42.67 44.22 43.12 44.63 44.38 44.18 43.33 41.20 40.44 39.27
45.07 45.43 45.52 44.30 43.76 44.29 44.03 44.52 44.88 45.20 45.33 45.35 45.59 45.70 45.51 45.72 43.11 39.93 42.38 44.42 43.66 39.51 37.23 28.62 31.97 35.37 39.93 37.20 36.18 40.95 38.04 38.59 38.23 37.20 36.20 34.34 34.04 32.88 28.44 34.83 38.47 40.09 40.55 40.68 41.86 42.85 44.75 44.51 43.20 41.40 39.08 36.59 33.02 31.34
44.89 45.09 45.28 44.87 44.78 44.82 44.93 45.12 45.35 45.39 45.49 45.77 45.69 45.80 43.56 40.55 37.95 40.82 44.92 44.62 43.52 39.28 30.37 30.11 28.25 27.91 37.61 36.29 37.88 36.27 37.77 31.98 33.60 30.50 31.54 33.54 29.23 28.47 33.33 35.78 39.66 40.13 39.23 39.97 43.95 42.81 42.65 40.85 39.81 37.54 35.35 32.69 29.17 27.53
44.71 44.77 44.89 45.21 45.14 44.94 45.18 45.23 45.27 45.79 45.42 44.35 41.54 37.58 32.22 41.04 45.41 44.90 40.77 36.42 36.97 37.86 34.32 28.07 32.89 30.45 35.41 32.92 31.62 31.57 27.87 26.30 28.28 31.93 34.55 30.34 28.77 35.06 39.63 40.37 38.55 37.46 36.97 36.90 39.67 38.34 37.09 34.53 32.73 31.18 29.67 28.77 27.41 25.94
45.00 44.84 44.98 44.84 44.71 44.54 44.19 44.37 44.65 45.03 44.42 40.87 35.83 35.97 42.40 44.76 39.14 34.74 30.49 30.64 31.59 29.81 32.15 32.68 32.25 31.49 34.78 29.21 30.64 27.76 29.50 26.76 24.67 27.13 28.83 29.79 29.13 33.47 37.94 36.96 36.02 35.41 34.77 33.92 34.44 37.15 36.90 33.42 29.29 27.19 26.32 26.53 25.84 25.05
44.90 44.81 44.82 44.91 45.07 44.91 44.64 44.96 44.88 41.26 39.10 40.47 40.78 42.78 41.42 37.04 32.45 29.59 27.28 29.93 27.50 26.92 28.75 31.05 29.81 32.08 32.83 30.79 29.05 30.93 25.09 29.94 24.57 31.19 30.01 26.52 31.14 34.62 35.05 33.97 33.37 33.86 32.63 31.51 30.94 29.71 29.11 28.09 27.25 26.17 25.37 24.40 24.26 24.14
43.77 44.20 44.45 44.65 44.75 45.11 45.18 45.04 45.02 44.63 44.46 41.32 37.82 33.22 32.80 28.46 21.06 20.43 21.98 26.05 24.84 24.59 28.35 32.18 29.82 32.59 33.57 32.06 28.34 28.66 26.18 24.73 31.11 29.98 26.16 29.06 31.73 31.54 31.57 31.44 30.27 30.24 29.89 29.25 28.00 27.96 27.45 26.89 26.90 25.57 24.19 24.33 23.92 22.73
42.98 43.50 43.72 43.98 44.25 44.42 44.55 44.35 44.74 42.61 39.16 32.06 26.31 20.52 19.08 18.24 23.94 24.06 27.35 29.75 29.39 31.03 30.78 31.78 31.32 30.99 31.92 28.80 29.49 25.94 25.53 31.08 26.76 23.15 24.42 28.05 27.78 28.36 29.42 29.65 29.11 27.16 26.96 26.29 25.94 25.71 24.95 24.23 23.55 23.75 23.46 23.38 22.05 20.73
42.99 42.93 42.89 42.98 43.99 44.52 44.01 43.11 42.32 37.93 32.32 25.99 26.13 20.15 20.77 25.43 25.70 25.74 27.29 28.34 27.72 30.04 32.69 32.09 31.87 32.10 30.43 26.43 28.77 27.67 26.91 23.60 25.37 23.36 23.67 26.54 27.18 26.94 26.22 26.21 25.59 24.93 24.53 24.11 24.12 23.16 23.01 22.94 22.37 21.91 22.58 22.42 21.71 20.20
43.03 42.01 40.81 42.85 43.70 43.60 43.68 40.55 38.06 36.31 29.80 24.94 22.31 21.13 22.49 21.66 20.27 22.68 22.98 24.07 28.22 27.84 31.52 33.31 30.63 28.30 24.17 25.98 25.54 21.43 20.11 15.89 17.60 21.44 24.70 26.25 25.54 25.40 25.19 25.16 24.67 24.47 23.85 23.31 23.34 23.28 22.69 21.72 20.88 20.89 21.54 21.31 20.67 20.17
41.52 37.60 41.39 42.99 43.30 41.73 41.60 36.40 32.39 27.94 25.32 21.47 19.37 21.98 21.01 17.45 19.28 21.07 22.12 23.57 27.50 27.37 29.59 29.12 23.28 21.45 27.36 21.44 18.23 21.10 16.15 19.31 21.30 23.44 24.86 24.86 23.69 23.19 23.73 23.70 23.55 23.52 22.84 22.48 22.47 22.56 22.08 22.75 22.33 20.71 18.50 19.57 19.82 19.11
36.31 37.71 42.06 42.90 41.54 37.78 35.60 32.73 28.60 25.68 21.76 22.29 17.66 18.77 19.28 18.23 17.30 17.09 20.64 23.96 26.20 27.90 26.14 22.21 25.24 19.70 17.31 16.83 17.06 21.14 22.95 24.23 24.74 24.15 23.93 23.94 24.10 24.11 24.46 23.30 23.85 23.92 23.38 23.23 23.09 22.58 22.06 20.90 19.60 18.71 19.07 19.30 18.35 17.70
38.99 39.72 41.85 42.01 38.21 33.16 29.28 29.17 28.17 20.43 19.99 20.45 21.39 20.38 18.22 16.73 20.01 22.27 22.88 25.00 27.17 27.11 25.29 22.08 16.80 15.58 16.03 22.21 21.18 21.54 22.08 21.70 20.39 20.87 21.90 23.42 24.44 24.03 24.07 24.39 24.19 23.23 23.14 22.98 22.40 21.09 21.19 21.36 20.22 19.61 18.93 17.84 15.36 15.14
41.60 40.94 41.09 40.60 38.10 29.13 26.94 27.30 28.76 23.46 17.95 18.01 18.01 17.67 18.16 18.21 20.04 20.36 21.64 22.89 23.52 21.64 17.13 15.38 14.94 16.95 19.00 23.20 24.16 23.20 23.42 23.70 21.68 18.82 18.62 20.27 22.06 21.96 21.49 21.49 20.74 21.12 20.42 20.26 19.73 19.24 18.51 17.78 17.92 17.36 16.37 15.04 13.25 12.24
37.31 37.01 39.32 36.23 32.13 32.60 31.88 25.74 27.42 25.34 23.79 21.32 21.05 22.28 18.47 20.47 16.99 16.74 18.01 22.06 18.01 16.18 14.69 16.39 17.29 22.05 23.78 24.15 25.02 24.77 23.93 23.32 20.92 19.97 18.73 17.48 20.30 20.65 19.87 20.09 20.31 19.49 17.63 16.61 15.53 15.22 15.08 14.14 14.38 13.89 12.09 10.54 10.32 9.95
35.61 39.15 31.94 35.09 31.63 31.67 30.09 31.47 28.78 29.82 25.56 25.15 24.74 23.96 19.17 15.23 13.95 15.55 19.17 15.37 15.22 16.21 17.67 17.28 18.11 19.53 19.32 20.03 21.39 22.42 22.08 21.68 21.23 20.38 20.49 19.91 17.21 16.97 17.01 17.78 17.43 15.78 15.54 15.29 14.81 13.19 13.16 13.39 12.38 10.89 8.96 7.75 7.98 7.20
35.32 34.17 29.94 29.92 27.70 27.50 27.94 32.53 27.33 28.50 23.52 23.78 23.78 18.67 15.79 13.94 17.19 20.19 12.16 13.80 14.37 17.35 17.92 18.62 19.03 19.72 18.92 19.75 20.01 19.63 20.61 19.63 17.83 17.53 17.34 16.80 16.94 17.15 16.67 16.58 16.72 14.83 13.39 13.73 14.33 12.54 10.65 10.55 8.88 6.90 5.44 4.11 2.07 0.40
30.64 22.89 21.93 21.12 23.89 21.82 27.01 24.47 27.75 24.75 24.07 22.86 20.81 18.16 17.68 15.94 18.64 13.03 8.76 10.75 13.09 16.14 14.65 14.27 17.14 16.46 16.67 16.12 14.83 16.41 18.22 18.81 17.12 16.91 17.55 15.97 13.99 14.07 14.94 14.06 14.00 13.77 13.50 12.88 11.42 9.89 8.26 6.60 5.43 3.77 1.55 -0.90 -1.92 -3.84
16.35 13.71 14.69 12.37 18.55 17.23 14.13 13.64 14.18 17.93 13.85 16.90 14.44 15.39 17.90 19.26 11.24 8.52 6.56 8.78 11.13 11.54 12.64 14.34 13.10 13.14 12.27 12.76 13.57 13.60 16.60 17.61 15.15 13.68 15.62 15.88 14.44 13.55 12.39 12.49 12.09 11.89 12.44 8.86 6.25 4.76 2.79 3.68 2.56 0.76 -0.59 -1.79 -2.68 -7.52
8.12 11.41 10.97 11.52 12.51 13.02 12.56 5.61 6.55 6.36 6.36 7.94 9.67 12.88 10.07 5.25 2.07 2.74 6.81 8.69 9.96 10.85 11.15 11.86 11.83 10.72 9.40 10.89 10.34 10.28 11.72 15.92 14.20 10.34 11.40 15.25 14.52 12.57 10.65 9.15 8.33 7.58 9.35 7.04 5.66 3.31 1.82 0.74 0.47 -1.42 -4.62 -5.68 -7.66 -10.56
2.32 2.42 12.52 15.22 14.29 14.17 6.57 7.96 10.33 5.07 2.33 0.66 3.30 -1.29 -2.70 -7.13 -2.94 6.35 11.47 11.35 11.38 12.54 13.65 13.78 12.94 11.33 10.19 10.02 10.86 11.26 11.75 11.67 10.69 9.83 10.94 10.58 10.22 10.60 9.97 7.51 5.70 6.26 8.46 5.98 3.79 3.01 0.58 -3.49 -5.54 -6.97 -12.01 -16.72 -15.63 -11.03
8.48 9.19 0.80 1.69 3.18 8.17 -1.97 0.17 0.51 0.63 3.04 8.61 4.78 -3.53 -4.99 -5.32 1.02 9.18 10.51 13.18 13.26 13.42 12.52 12.23 11.72 11.69 11.38 11.45 11.69 10.97 10.63 11.16 11.02 10.68 10.10 8.99 8.27 7.22 6.30 5.89 6.90 7.87 1.45 -0.06 -0.37 -1.67 -3.41 -5.45 -7.12 -9.20 -8.65 -11.83 -16.72 -21.98
2.50 4.78 4.74 -5.54 -3.20 1.16 3.77 -2.40 0.48 5.90 8.24 6.19 -8.38 -5.84 -0.24 7.18 8.27 8.54 11.86 13.84 14.44 13.01 10.41 9.39 9.86 10.92 10.16 9.95 9.63 9.63 10.47 9.78 5.63 2.71 1.56 1.18 1.58 2.78 3.45 1.96 1.80 0.76 -0.09 2.56 5.45 -0.89 -2.99 -6.44 -8.29 -8.25 -12.10 -12.73 -21.44 -23.97
1.55 4.23 -2.29 -7.86 -4.08 -0.77 -1.31 -2.08 -2.60 -1.78 4.96 4.92 8.28 7.95 6.84 7.41 10.10 13.93 12.63 11.41 9.66 8.86 9.43 9.57 9.42 8.65 6.90 6.85 5.97 5.55 6.13 6.53 7.12 4.52 0.51 -0.59 -0.27 0.61 -2.64 -0.41 -0.82 -4.63 -3.45 -1.01 -0.81 2.86 2.26 -7.48 -7.66 -15.09 -13.83 -16.18 -19.26 -19.26
3.72 0.44 -2.42 -1.95 0.10 0.79 -3.76 -8.75 -2.73 0.24 -4.82 -5.00 -9.47 -4.85 -1.72 2.23 4.26 9.37 9.88 8.39 8.36 6.93 6.63 5.60 5.59 6.51 6.68 5.79 4.38 2.42 1.34 3.51 4.12 4.59 4.88 3.46 1.25 -1.75 -4.23 -6.21 -7.30 -6.33 -5.02 -5.41 -11.28 -14.18 -16.90 -18.72 -21.07 -21.07 -18.92 -19.80 -21.62 -21.62
-3.98 -9.50 -4.95 -4.76 -0.44 2.65 2.72 -3.85 -6.49 -6.69 -9.11 -6.58 -6.21 -12.01 -6.62 -8.14 -9.47 -2.46 7.43 4.51 4.90 4.02 4.97 3.53 2.26 1.52 2.57 3.31 2.38 2.02 1.72 -0.20 -0.25 -0.09 -0.02 -1.07 -2.95 -4.07 -3.69 -5.57 -10.08 -8.43 -9.84 -12.95 -17.09 -17.63 -16.90 -17.09 -19.26 -20.17 -21.07 -20.53 -21.80 -22.71
-5.54 -7.11 -9.84 -6.58 -1.77 -1.32 0.56 3.51 2.17 -0.46 -3.16 -4.94 -3.13 -5.48 -7.66 -10.11 -7.85 -1.61 3.38 5.69 1.28 1.99 2.72 2.59 2.22 0.34 -0.66 -0.42 -0.94 -1.84 -2.15 -2.47 -0.31 2.46 -0.64 -1.51 -4.31 -5.12 -9.19 -14.55 -15.27 -13.28 -11.19 -18.17 -21.07 -19.81 -18.36 -17.81 -21.44 -21.44 -22.89 -23.61 -24.16 -25.06

GFSWCAN_sfc_wetblb_090.txt.gz
Wetbulb
43.20 43.26 43.33 43.77 44.11 44.19 44.75 45.35 45.68 45.86 45.46 45.41 45.74 45.76 45.79 45.90 46.02 44.59 41.81 44.47 39.57 33.81 37.12 37.09 37.90 35.07 34.91 34.48 30.06 34.12 34.10 32.43 32.23 28.10 25.54 24.78 23.86 27.57 26.83 28.83 28.43 27.67 29.98 30.05 31.83 29.29 26.75 41.21 41.89 37.39 39.46 43.62 44.63 44.73
43.45 43.56 43.94 44.19 44.34 44.76 45.11 45.04 45.24 45.50 45.88 45.85 45.95 46.02 46.02 46.23 46.38 46.16 39.93 44.33 44.67 37.98 37.03 41.15 40.77 42.05 40.66 40.12 36.91 36.74 33.93 33.77 34.16 30.53 27.24 26.63 23.24 23.55 27.67 24.10 33.08 28.15 33.37 31.55 33.73 33.12 40.91 41.47 42.24 44.24 46.94 44.79 45.02 44.93
43.61 43.71 44.06 44.47 44.63 44.86 44.87 44.96 44.97 45.34 45.41 45.55 45.67 46.32 46.45 46.39 46.44 45.82 42.52 43.44 41.51 34.00 34.48 36.68 36.34 40.74 43.08 42.01 44.20 34.44 34.36 38.22 38.22 40.76 35.92 31.46 25.04 28.13 22.01 25.49 29.57 33.20 38.23 33.95 34.73 38.50 39.83 40.86 43.46 44.18 45.99 45.75 47.38 47.47
43.92 44.36 44.56 44.75 44.59 44.66 44.94 45.03 45.31 45.35 45.67 45.51 45.51 45.57 46.08 46.32 46.51 45.97 42.16 43.10 40.40 36.74 31.07 32.70 40.27 37.63 42.17 42.64 42.23 41.89 40.20 42.15 41.57 40.74 35.51 33.76 27.01 33.14 27.66 29.69 29.52 33.35 36.13 35.01 35.61 40.08 41.69 41.75 43.29 43.87 45.40 47.91 47.45 48.65
44.30 44.12 44.31 44.89 45.46 45.69 45.55 45.75 45.93 45.82 46.05 46.13 45.91 45.64 45.76 46.22 46.55 45.18 43.78 43.26 42.91 36.07 30.14 29.22 36.59 38.83 40.93 40.43 40.96 42.16 41.80 40.35 38.94 35.94 33.61 32.84 35.78 35.17 32.53 32.39 29.83 35.26 33.92 31.85 31.32 39.95 38.34 39.24 42.78 45.82 44.16 45.17 44.70 45.78
45.49 45.51 45.53 45.69 45.70 44.93 45.04 44.92 44.77 45.52 45.95 46.02 46.16 46.09 46.02 45.57 45.90 42.85 35.85 42.99 43.31 41.69 34.48 27.56 34.25 36.06 38.46 38.73 38.68 39.40 39.96 40.72 40.44 36.81 33.67 34.29 37.80 36.32 29.48 26.58 33.97 37.12 38.66 39.16 38.31 41.11 40.19 42.02 43.77 43.72 44.67 41.57 38.51 37.36
45.39 45.49 45.55 45.24 44.04 44.69 44.65 44.81 45.10 45.26 45.20 45.88 46.21 46.15 46.04 45.48 43.92 36.30 33.83 39.98 44.42 43.28 34.82 26.65 25.45 35.69 38.25 37.22 36.83 38.22 39.45 39.04 39.40 37.76 35.85 35.63 34.55 37.88 26.24 28.80 34.40 37.80 39.15 39.34 40.02 39.82 37.90 40.83 41.12 40.23 40.02 38.94 37.93 35.81
45.34 45.37 44.71 43.72 44.27 44.80 44.56 44.77 45.35 45.52 45.15 45.77 46.00 45.93 45.82 45.79 42.96 39.28 42.08 44.30 43.96 38.90 37.17 24.21 22.49 34.90 38.61 32.99 34.25 39.10 36.03 38.01 38.54 36.11 36.50 35.58 36.24 33.34 29.92 33.39 36.53 38.66 39.42 39.06 39.60 40.44 40.67 40.94 38.69 37.22 36.48 35.04 32.12 30.78
44.95 45.24 44.94 44.79 44.97 45.11 44.64 44.64 45.30 45.54 45.56 46.02 46.05 46.02 42.40 39.29 36.44 40.23 44.77 44.72 43.88 38.45 29.99 28.62 20.21 27.67 38.02 36.44 37.87 37.24 38.46 31.03 35.33 32.46 33.10 35.61 32.55 29.80 32.51 34.10 35.29 37.11 38.50 40.28 41.60 42.51 41.33 38.14 36.13 35.17 34.19 32.84 29.97 28.06
44.75 44.78 44.84 44.66 44.76 44.63 43.53 43.88 45.25 45.43 45.20 42.53 39.85 34.96 31.83 40.03 44.96 44.13 40.28 36.25 35.38 37.42 35.12 25.03 32.66 29.93 35.44 33.64 32.92 32.18 33.75 31.59 29.34 32.21 34.64 32.13 30.48 33.34 35.57 37.10 37.46 39.01 39.24 38.59 37.57 37.90 35.80 33.52 30.84 28.88 27.94 28.74 27.27 25.92
45.09 44.62 44.30 44.37 44.49 44.84 44.98 44.85 44.82 44.45 44.29 39.98 37.32 35.46 41.45 44.46 38.85 35.79 30.31 29.06 31.38 28.50 31.20 30.77 31.62 31.47 35.03 30.86 30.82 31.86 30.49 29.42 22.61 26.27 28.41 28.51 27.84 31.51 35.71 35.91 34.52 34.16 34.36 33.91 34.60 32.65 35.57 32.70 27.42 26.16 25.76 26.25 26.01 25.01
45.42 45.01 44.89 44.90 45.04 45.05 44.86 44.70 44.21 41.66 41.01 41.33 40.69 42.27 40.50 36.74 32.73 26.85 23.16 29.05 28.68 25.91 31.13 29.31 31.82 33.98 32.36 34.71 31.42 30.49 27.58 29.33 22.66 29.93 29.13 25.67 28.10 34.17 34.71 33.52 33.37 32.68 30.60 29.68 29.77 28.36 27.87 27.40 26.75 25.81 24.93 24.31 23.84 23.50
43.94 44.12 44.36 44.38 44.60 44.70 45.08 44.97 44.90 44.74 43.06 39.72 35.13 30.64 31.39 28.38 23.87 24.17 15.69 24.61 25.30 28.26 31.47 31.56 29.76 31.80 32.36 30.55 28.98 28.68 25.08 25.10 29.69 28.68 26.76 27.20 30.59 31.43 31.57 30.68 29.60 30.30 29.49 28.26 27.39 26.71 26.47 25.84 26.05 25.19 23.52 23.53 22.78 21.42
43.13 43.62 43.65 43.83 44.11 43.89 43.49 43.31 42.85 40.71 36.53 30.32 25.58 21.62 19.02 11.23 18.22 23.11 25.61 28.15 28.16 30.44 31.83 28.63 30.01 30.33 31.02 28.92 28.77 24.32 22.29 28.23 26.87 23.26 24.77 28.01 28.26 28.57 29.26 29.52 27.98 26.51 26.76 26.28 25.66 25.34 24.59 23.56 22.84 22.79 22.02 21.88 20.80 19.45
42.88 42.92 42.75 42.73 43.78 43.66 42.55 42.58 41.80 35.30 29.99 23.40 23.91 16.43 19.85 24.13 24.53 24.98 26.62 27.49 27.50 29.53 32.12 29.76 31.58 30.98 28.87 27.56 28.46 26.89 25.92 23.28 25.02 17.33 20.86 25.92 26.97 27.09 26.28 25.91 25.51 24.58 24.16 23.68 23.54 22.53 21.96 21.54 20.84 20.29 20.87 20.90 20.02 18.86
42.68 41.71 40.39 42.59 43.39 43.39 41.69 39.42 36.46 33.65 27.59 22.61 19.90 18.66 20.55 20.60 18.76 21.29 21.12 22.97 27.15 26.94 30.75 32.14 29.06 26.65 25.30 24.11 26.24 21.74 21.01 16.91 13.66 18.19 22.12 25.78 24.63 24.52 24.40 24.40 24.00 23.75 23.18 22.68 22.64 21.94 20.72 19.70 18.99 18.93 19.97 19.78 19.44 18.62
41.25 36.56 41.19 42.68 42.58 41.33 39.90 33.95 30.93 26.72 22.93 20.00 17.22 20.63 19.68 17.76 17.28 18.58 19.80 21.99 26.29 26.67 27.56 27.41 22.76 19.73 24.74 19.13 17.69 20.28 14.93 18.25 19.23 20.64 22.37 23.46 23.19 22.49 23.19 23.14 22.64 22.54 21.82 21.50 21.12 20.84 20.35 20.69 20.13 18.40 16.18 17.45 17.91 17.18
37.00 37.98 41.64 42.14 40.50 37.75 34.71 31.89 27.55 24.90 20.95 21.27 16.79 17.28 17.88 17.65 16.48 16.16 20.49 22.67 25.15 27.02 25.59 21.22 24.35 18.86 16.43 15.96 16.42 20.53 21.21 21.74 23.05 22.83 22.67 23.22 23.41 23.43 23.68 22.60 23.16 22.90 22.18 22.03 21.94 21.56 21.04 19.51 17.91 16.78 17.01 16.94 16.02 15.61
38.17 39.17 41.37 41.10 37.65 32.70 29.72 28.41 26.95 18.23 17.88 19.20 17.41 17.97 17.98 17.78 21.01 22.46 22.87 24.62 26.03 25.91 24.25 21.17 16.05 14.50 15.32 20.74 19.90 20.25 20.80 21.04 18.92 19.79 20.67 22.53 23.80 23.40 23.37 23.30 23.08 22.16 21.93 21.39 20.88 19.70 19.59 19.74 18.59 17.69 16.91 15.78 13.19 12.81
40.76 40.37 40.47 39.51 36.78 28.51 26.92 25.94 27.66 20.98 14.51 16.33 17.59 16.88 17.74 17.91 19.77 20.61 20.66 21.90 21.97 19.90 15.07 13.37 12.78 15.32 18.28 22.25 23.70 22.54 21.60 21.63 19.61 17.53 17.59 19.41 21.36 21.29 20.81 20.47 19.68 19.85 19.35 19.28 18.71 18.02 16.74 15.80 16.66 16.40 15.59 13.96 11.77 10.42
36.08 36.14 38.28 34.98 30.90 31.47 29.90 25.47 25.00 21.12 20.50 19.22 20.89 21.09 18.34 19.75 16.90 15.85 16.21 20.52 16.16 14.17 12.89 14.95 15.65 18.72 22.01 22.13 23.01 22.88 22.12 22.16 19.90 19.15 17.73 16.80 19.43 19.67 19.02 19.22 19.45 18.62 16.94 15.96 14.54 13.79 13.50 12.40 12.68 12.61 11.15 9.95 10.03 9.46
32.34 37.66 28.97 32.17 29.03 30.86 28.99 30.06 26.91 26.52 22.37 20.63 22.15 22.77 16.69 13.93 14.09 15.26 17.68 12.75 11.81 12.60 14.58 15.82 16.47 17.90 17.35 17.66 19.18 20.62 20.51 20.16 19.84 19.11 19.59 19.40 16.51 16.45 16.67 17.26 16.47 14.70 14.65 14.42 13.88 11.98 11.40 11.40 10.96 10.00 8.56 7.86 7.99 6.79
32.53 33.09 29.14 29.18 25.50 23.64 27.20 32.28 23.80 27.23 22.59 22.64 23.39 17.85 14.42 13.20 16.04 18.96 11.22 12.38 12.39 15.01 15.57 15.73 17.78 17.56 16.96 18.46 18.96 18.52 19.53 18.77 16.78 16.50 16.49 16.14 16.45 16.65 16.18 16.09 16.22 14.08 12.30 12.50 13.06 10.92 8.85 8.75 7.56 5.99 5.38 4.48 3.07 1.72
29.39 21.97 20.63 19.45 22.54 19.47 25.43 22.36 26.16 23.61 22.63 21.56 19.35 15.29 15.02 14.96 17.36 12.48 7.64 9.48 12.20 13.88 13.41 13.88 15.37 15.57 15.70 14.92 13.45 14.98 17.10 17.86 16.30 16.01 16.87 15.22 13.13 12.85 13.76 13.08 13.25 13.81 13.20 12.60 10.75 8.70 7.24 5.26 4.85 3.88 2.64 1.10 0.58 -0.91
14.64 11.68 13.56 9.94 17.08 15.23 13.48 11.92 12.74 15.67 13.71 15.06 14.51 12.63 13.82 16.84 9.23 7.19 5.31 7.87 9.85 9.92 11.00 13.47 12.96 12.43 11.40 11.52 12.48 13.05 15.31 16.58 14.53 13.16 15.09 15.28 13.66 12.84 11.57 11.28 11.23 11.86 12.59 8.97 6.86 5.58 4.26 3.81 2.73 1.51 0.64 -0.57 -2.21 -5.41
5.14 8.21 7.61 9.04 9.11 8.72 9.53 3.95 4.92 5.40 5.22 5.92 7.16 9.39 7.24 3.30 0.67 1.08 5.44 7.53 9.18 9.74 9.89 10.59 11.11 9.87 8.15 9.60 8.87 9.23 9.95 15.06 13.92 9.78 9.80 13.58 14.46 12.64 10.86 9.70 8.69 7.68 9.29 8.69 6.09 3.59 2.38 1.53 0.36 -1.26 -2.85 -4.30 -6.54 -10.57
2.23 4.62 11.15 13.43 12.99 12.40 5.31 6.66 8.34 3.60 1.05 0.82 2.00 -2.77 -1.90 -6.26 -4.04 5.04 10.44 10.55 10.15 10.60 11.69 12.16 11.82 10.11 8.93 8.95 9.99 10.57 10.88 10.99 9.81 8.99 9.89 9.75 9.36 9.78 10.16 8.08 6.05 6.74 8.66 6.76 5.65 4.13 1.53 -1.18 -2.39 -4.99 -10.39 -17.45 -17.27 -13.49
8.44 7.87 -1.82 -1.22 1.67 6.47 -3.98 -2.38 -2.52 -1.33 1.46 7.46 1.97 -5.54 -6.98 -6.94 -0.23 7.91 9.92 12.57 12.09 12.31 11.38 11.22 11.20 11.14 10.31 10.93 11.54 11.37 10.83 11.21 11.01 10.63 10.06 8.54 7.38 6.34 5.94 5.68 7.18 8.23 2.87 1.78 0.02 0.32 -0.44 -2.00 -5.53 -8.13 -8.48 -12.38 -18.18 -24.34
-0.31 2.69 3.00 -5.74 -2.87 -0.28 1.28 -1.35 0.08 4.44 6.26 3.68 -10.56 -6.39 -0.80 5.89 6.79 8.07 10.73 12.64 13.44 11.51 8.85 8.18 9.14 10.60 9.79 8.84 8.13 7.42 8.30 8.78 6.50 4.12 2.58 1.91 2.24 2.35 3.03 2.51 2.04 2.19 2.60 3.80 6.05 -0.20 -1.88 -4.25 -7.61 -8.77 -14.03 -14.55 -23.07 -27.60
-0.74 2.27 -3.53 -8.96 -6.44 -4.22 -4.41 -2.86 -2.99 -2.69 3.78 4.18 6.95 7.14 5.53 5.66 8.67 11.96 10.51 9.45 7.34 5.68 6.08 6.75 6.92 5.98 5.48 5.45 4.39 4.09 4.65 4.72 6.05 5.27 2.83 1.62 2.09 1.09 0.31 0.27 -1.12 -3.02 -0.58 1.83 1.94 -0.08 1.04 -8.57 -9.29 -16.91 -17.46 -19.45 -21.44 -21.26
0.54 -2.34 -4.17 -3.04 -2.59 -3.17 -5.45 -11.15 -9.48 -4.87 -5.64 -6.28 -9.84 -5.43 -3.33 -1.72 3.20 6.71 7.19 6.58 5.88 5.64 4.49 2.78 2.57 2.42 1.73 2.03 0.50 0.93 0.90 2.60 3.22 3.88 3.83 2.22 1.21 -0.20 -2.66 -5.33 -7.51 -4.53 -4.01 -2.44 -5.92 -11.29 -17.45 -20.72 -22.17 -21.08 -18.90 -19.99 -21.26 -21.26
-7.00 -13.11 -6.57 -5.67 -0.61 -0.38 -3.50 -11.67 -12.40 -11.31 -14.01 -10.39 -7.86 -14.01 -11.33 -9.08 -9.84 -1.47 5.43 2.20 3.08 1.53 2.31 1.52 0.97 -1.50 -1.87 -1.73 -0.26 0.60 0.70 -0.24 -0.27 0.29 0.54 -0.65 -2.92 -4.32 -5.72 -5.48 -7.66 -4.85 -5.46 -11.87 -16.18 -16.73 -17.65 -18.18 -21.62 -22.53 -21.80 -21.62 -23.25 -23.98
-9.72 -11.11 -12.38 -8.03 -5.85 -5.49 -3.68 0.05 -0.70 -4.94 -6.94 -8.21 -8.57 -12.01 -14.55 -13.17 -8.94 -3.23 1.56 3.35 -0.52 -1.05 -1.53 -2.95 -4.41 -4.08 -1.59 -1.90 -2.33 -3.53 -2.86 -3.19 -1.03 2.45 -0.25 -2.22 -4.39 -4.41 -10.79 -16.73 -14.57 -13.02 -11.46 -17.81 -21.26 -21.08 -19.08 -19.45 -22.71 -23.07 -24.52 -24.34 -25.25 -26.52

GFSWCAN_sfc_wetblb_093.txt.gz
Wetbulb
42.50 42.71 42.59 42.77 42.94 43.13 43.28 43.63 43.90 44.24 44.47 44.85 45.03 45.07 45.54 45.47 45.61 43.76 41.17 43.93 37.95 33.35 35.92 37.51 37.86 34.59 35.37 35.11 30.27 34.74 34.06 34.63 33.70 29.98 28.64 27.51 26.68 28.99 28.24 30.41 29.10 30.37 28.16 27.18 28.77 27.03 24.31 42.64 43.01 37.23 40.65 44.37 45.58 47.27
42.55 42.71 42.90 43.12 43.38 43.81 43.92 43.91 44.23 44.54 44.78 45.41 45.62 45.25 45.32 45.66 45.94 45.29 39.18 43.87 44.00 37.19 36.09 41.53 41.45 41.88 40.89 39.94 36.52 36.95 35.00 34.48 35.25 31.89 30.70 30.63 27.78 29.41 29.88 25.04 34.10 27.99 34.07 33.01 33.35 31.09 41.64 43.30 42.29 44.98 47.44 44.49 46.53 47.40
42.87 43.21 43.40 43.79 43.88 44.02 44.28 44.45 44.71 44.97 45.04 45.17 45.26 45.46 45.71 45.71 45.89 45.35 41.67 42.73 40.95 36.16 33.72 37.26 36.72 41.56 43.37 42.96 44.31 34.97 36.66 39.16 37.35 40.31 35.79 32.57 27.89 31.39 28.04 29.09 32.07 34.88 38.46 35.29 35.29 38.71 40.31 42.24 44.67 45.39 45.72 45.83 47.82 49.31
42.98 43.14 43.45 43.62 44.02 44.45 44.72 44.85 44.82 44.81 45.08 45.19 45.42 45.58 45.86 45.86 45.93 45.67 41.94 43.11 40.57 35.94 30.98 34.41 41.53 39.06 43.87 43.62 43.05 43.17 41.10 42.40 41.66 41.05 36.19 33.91 30.96 35.82 31.41 33.06 32.60 35.68 37.81 35.88 35.11 38.22 41.19 43.03 43.99 44.25 45.40 47.61 47.98 48.74
43.17 43.84 44.16 44.63 44.55 44.82 44.96 44.94 44.91 45.18 45.13 45.42 45.66 45.75 45.93 46.52 46.22 45.28 43.70 43.47 42.65 37.26 31.31 32.47 37.01 40.02 41.96 42.13 41.16 42.25 41.65 40.32 38.91 35.74 33.25 32.41 36.09 35.83 35.87 34.67 33.34 37.39 36.09 33.49 32.40 39.16 40.05 41.27 43.19 44.51 45.62 43.39 42.76 45.42
44.79 45.52 45.61 45.61 45.63 45.84 45.79 45.74 45.65 45.65 45.48 45.71 46.03 46.12 45.96 45.86 46.08 42.62 36.16 42.13 43.78 42.37 34.79 28.92 36.34 36.35 39.08 40.26 39.62 39.53 39.86 40.26 39.02 36.45 35.36 37.04 39.20 37.58 31.54 30.31 36.46 39.63 40.58 40.84 38.09 41.72 42.59 42.76 43.46 44.32 44.30 41.23 39.64 39.80
45.41 45.73 45.65 45.41 44.85 44.53 44.77 44.86 45.12 45.42 45.65 45.90 46.13 46.30 46.10 45.56 43.51 37.52 35.65 41.14 44.13 43.25 34.98 29.49 28.83 34.73 38.47 38.20 37.98 37.75 40.14 39.42 38.49 35.66 34.14 35.63 36.71 38.54 32.66 29.58 36.37 39.24 40.42 40.65 41.51 41.57 40.12 41.02 41.07 42.14 41.22 39.09 37.40 36.31
45.46 45.33 43.75 44.19 44.77 44.75 44.86 44.56 44.66 45.21 45.34 45.64 46.01 46.12 45.89 45.55 43.67 39.17 43.23 44.80 43.92 38.63 37.18 26.62 25.86 32.65 38.36 33.67 32.61 37.86 35.96 37.77 37.63 36.20 36.41 35.45 37.25 36.80 31.66 35.67 38.43 40.11 40.82 41.00 41.07 41.82 41.87 42.53 40.88 38.61 38.55 38.09 35.49 33.67
44.95 44.95 44.58 43.40 43.65 44.32 44.62 44.93 45.24 45.58 45.54 45.62 46.10 46.06 44.36 37.10 33.96 39.26 45.09 44.86 44.31 38.80 31.05 29.07 23.84 25.66 37.36 34.96 36.59 36.66 37.76 31.80 37.89 32.92 34.22 35.62 33.56 30.23 34.80 36.10 37.62 38.95 38.77 39.49 41.92 41.82 43.27 41.10 39.11 37.39 36.39 34.26 31.22 29.29
44.54 44.47 44.29 44.44 44.09 44.52 43.80 44.98 45.26 45.73 45.45 45.66 42.41 33.88 31.22 37.59 45.16 44.31 40.66 34.27 35.28 37.16 34.39 28.29 31.04 28.13 35.32 34.49 32.02 31.78 33.97 31.64 28.00 31.72 36.52 32.42 31.77 36.85 37.94 38.99 39.25 38.56 39.77 41.00 39.17 39.51 39.22 36.96 33.85 31.78 32.44 31.90 30.29 28.36
44.70 44.80 44.77 44.69 44.53 44.30 43.57 43.60 43.85 43.80 43.27 37.80 33.58 34.44 41.49 44.36 39.87 35.97 30.67 30.33 31.35 29.16 31.55 31.42 32.09 30.95 36.26 31.85 31.62 33.58 31.41 31.23 26.49 30.79 31.32 30.37 29.77 33.71 36.42 36.42 34.83 34.61 34.96 34.55 35.11 34.81 35.79 37.99 31.86 28.71 27.43 27.60 27.71 26.66
44.63 44.65 44.62 44.66 44.98 44.98 44.70 44.41 44.46 42.53 41.40 40.90 39.87 42.10 40.75 36.55 32.27 28.57 27.13 29.74 27.43 25.84 31.07 30.52 32.12 33.73 33.56 35.66 32.70 31.53 28.69 29.80 24.89 32.44 30.40 26.55 31.19 33.71 34.35 33.77 33.34 33.04 31.66 30.47 31.04 30.33 30.31 30.03 29.71 28.58 26.65 25.99 25.04 23.35
44.09 44.11 44.50 44.02 43.65 44.81 44.62 44.33 44.18 43.93 42.80 39.64 34.57 31.55 32.06 26.05 19.93 17.09 21.43 25.28 25.97 29.44 32.36 32.30 31.06 32.35 32.33 33.37 30.38 29.86 27.51 26.85 31.57 29.14 26.99 29.05 29.70 31.50 31.48 31.07 29.90 30.35 29.68 28.76 27.71 28.13 27.54 26.89 27.30 26.22 24.43 24.00 22.93 21.13
43.43 43.87 43.90 43.62 43.44 43.20 42.12 41.67 41.59 40.12 36.79 29.39 23.92 15.84 16.79 15.32 19.33 21.30 24.75 26.66 28.14 29.88 32.03 31.80 30.66 31.03 31.92 29.74 30.20 25.91 27.34 30.18 26.35 25.11 25.60 26.10 27.49 28.27 28.47 29.34 28.16 26.78 27.58 27.14 26.63 26.10 24.97 23.83 22.89 22.63 22.03 21.50 19.74 18.24
42.86 43.10 42.70 42.64 43.57 43.01 41.78 41.27 38.93 34.65 29.80 22.86 22.91 15.73 16.12 22.47 22.34 23.88 25.39 27.66 27.32 29.15 32.48 31.69 31.94 32.18 28.93 28.28 29.59 27.50 25.45 24.25 25.66 22.61 21.29 24.43 26.56 27.08 26.49 25.96 24.99 24.28 23.88 23.59 23.54 22.05 21.50 21.37 20.37 20.12 20.92 20.45 19.34 17.29
42.23 41.74 40.58 42.44 42.85 41.45 40.64 38.11 35.75 32.19 26.75 20.38 17.67 16.46 18.10 19.73 18.12 19.79 20.32 22.82 26.35 25.97 30.07 32.99 29.50 25.85 25.57 27.65 25.74 21.74 23.04 20.30 18.39 20.77 23.11 25.33 24.48 24.24 24.06 24.32 23.61 23.39 22.52 21.83 21.64 20.82 20.10 19.21 18.08 17.79 18.10 17.49 16.63 15.96
40.62 36.33 41.15 42.43 42.12 39.59 39.16 34.18 31.28 26.49 23.18 19.25 16.49 19.90 18.92 17.04 15.20 17.31 19.63 21.64 25.57 25.44 27.57 26.56 21.46 19.69 25.24 20.95 17.34 20.21 16.30 19.56 21.99 22.16 23.05 23.15 22.85 22.68 22.82 22.51 22.11 21.87 21.23 20.71 20.15 19.94 19.41 19.76 19.15 17.72 15.31 16.36 16.37 15.48
36.04 37.13 41.45 41.50 40.14 37.78 33.87 31.30 27.78 24.48 17.57 18.83 16.21 17.80 19.53 19.28 18.26 18.60 21.67 23.89 25.21 26.82 24.83 21.30 24.41 18.46 15.86 15.27 16.01 20.76 21.43 21.08 22.21 22.75 22.91 23.32 23.37 23.47 23.91 22.66 22.53 22.30 21.38 20.88 20.45 19.85 19.24 18.00 16.67 15.76 15.85 15.85 15.02 14.54
38.11 39.07 40.41 40.17 37.67 33.23 29.61 27.90 26.93 17.02 17.15 18.43 18.63 19.45 19.47 19.15 21.14 22.06 21.95 24.33 25.67 25.35 23.68 20.67 15.59 13.79 15.02 20.30 20.81 21.05 21.05 21.01 18.88 19.95 20.98 22.61 23.71 22.91 22.58 22.89 22.51 21.61 21.19 20.67 19.87 18.77 18.63 18.63 17.44 16.93 15.98 15.09 12.53 12.09
39.75 39.96 39.83 38.90 36.37 29.36 26.36 25.77 27.41 20.13 14.81 17.46 19.54 18.46 18.85 18.62 19.47 19.75 19.06 20.43 20.92 18.77 14.29 12.45 12.00 14.75 17.09 20.02 23.52 22.05 21.57 21.62 19.84 17.47 17.63 19.69 21.53 20.86 20.22 20.22 19.25 19.32 18.57 18.33 18.12 17.82 16.59 15.77 16.43 16.13 15.08 13.48 11.72 10.73
35.30 35.25 36.90 34.29 30.68 30.48 28.79 26.21 21.96 20.80 19.76 19.38 20.72 21.14 18.99 20.10 16.72 15.09 15.03 18.23 14.27 12.22 11.71 14.35 14.69 17.40 19.19 20.44 22.35 22.39 21.46 21.44 19.74 19.43 17.65 16.81 19.57 19.60 18.87 19.11 19.48 18.75 16.89 15.80 14.05 13.51 13.54 12.52 13.17 13.38 12.31 11.09 10.97 10.33
30.41 36.12 28.80 31.57 29.07 29.46 27.76 28.27 25.91 24.30 22.42 22.00 22.14 20.77 16.21 14.47 14.70 14.68 16.16 11.33 9.93 11.20 13.03 13.40 14.94 15.99 17.09 16.68 18.31 20.07 20.24 20.01 19.51 19.14 19.34 19.10 17.05 16.87 16.63 17.10 16.14 14.78 14.55 14.12 13.42 11.91 11.65 11.90 11.89 11.16 9.70 8.98 8.91 8.23
31.39 30.95 27.37 27.04 23.28 21.64 26.45 31.47 22.94 26.31 20.12 21.41 21.86 16.65 14.71 14.35 16.16 18.09 10.41 11.52 11.52 14.02 14.39 15.05 16.45 17.52 15.86 17.51 18.45 18.10 18.74 18.03 16.49 16.54 16.30 15.99 16.46 17.00 16.69 16.46 16.19 13.85 12.05 11.92 12.41 10.74 9.39 9.34 8.89 8.32 8.15 7.52 6.38 4.80
28.47 21.06 17.96 17.09 19.84 14.41 21.32 18.24 24.09 22.60 21.20 20.83 17.86 13.69 14.69 15.01 16.73 11.42 6.89 8.52 11.38 13.20 12.63 13.65 14.55 14.96 15.29 14.48 12.89 13.73 16.77 17.64 15.77 15.48 16.30 14.97 12.99 12.88 13.75 13.15 13.31 13.68 12.89 12.14 10.64 9.53 8.70 7.61 7.59 7.08 6.02 5.22 3.89 2.92
14.18 9.41 12.45 8.44 14.89 12.45 10.48 9.88 11.93 14.38 11.85 13.54 12.83 10.99 11.84 15.72 8.96 6.71 5.06 6.88 9.56 9.31 10.37 12.81 12.60 10.67 10.48 11.26 11.72 12.34 14.71 15.42 13.44 12.17 15.10 15.41 13.82 13.26 11.84 11.16 11.35 12.38 12.77 10.23 7.95 7.06 6.24 6.38 5.95 5.53 5.00 4.16 2.32 0.57
4.55 7.89 7.89 8.09 8.51 8.29 9.00 4.99 5.67 6.31 6.33 6.63 6.83 7.81 8.70 5.36 2.17 1.57 4.78 7.05 9.09 9.12 9.08 9.97 10.57 9.62 8.14 9.03 8.31 8.60 10.21 14.43 13.64 9.80 9.59 13.00 14.66 13.63 12.22 11.10 9.96 8.85 11.33 10.67 8.74 6.50 5.60 5.50 4.83 3.57 2.31 1.00 -0.75 -1.04
-0.92 0.59 9.41 11.70 11.39 10.81 4.60 5.52 7.61 4.10 2.18 1.64 2.99 -0.00 0.47 -4.05 -1.86 4.60 9.91 10.17 9.28 10.46 11.29 11.79 11.52 10.01 8.88 9.08 9.93 10.55 10.92 10.86 9.66 8.91 9.72 9.51 9.30 10.27 11.69 10.14 8.17 8.55 10.78 10.15 9.10 7.64 5.58 4.04 3.06 1.54 -1.17 -0.70 -0.16 -0.04
7.92 7.44 -0.28 -0.32 2.34 4.71 -4.05 -2.64 -1.88 -0.51 1.61 6.05 2.65 -3.77 -4.52 -4.71 0.37 7.80 9.96 12.43 12.49 12.37 11.64 11.65 11.50 10.58 9.58 9.70 10.94 11.90 12.10 12.34 12.20 11.81 11.28 9.76 8.30 7.56 7.74 7.98 8.96 8.86 7.24 7.54 7.30 6.53 5.66 3.97 2.03 0.77 0.61 -0.46 -4.63 -7.27
-1.05 2.34 2.77 -6.15 -2.49 -1.26 -0.77 -2.16 -1.28 2.81 4.79 1.92 -7.61 -3.90 0.47 5.15 6.90 8.93 11.00 12.24 12.75 11.22 8.97 8.64 9.15 11.04 10.02 9.27 8.23 7.57 7.47 9.30 9.56 6.60 5.28 4.76 5.37 4.75 5.42 5.85 5.99 6.39 7.26 7.14 7.59 4.52 3.40 1.71 0.87 0.82 -1.25 -1.65 -5.78 -7.58
-2.08 1.54 -4.17 -9.07 -7.41 -4.26 -1.95 -1.68 -1.61 -1.15 3.33 5.09 7.22 6.50 4.91 5.25 7.44 10.11 9.02 8.31 6.59 5.21 5.93 6.74 7.13 7.91 6.73 6.81 5.95 5.38 5.61 5.44 6.22 7.46 4.85 3.19 3.05 3.46 3.92 4.27 4.41 4.84 6.49 5.20 3.77 3.60 4.30 0.07 -0.16 -3.98 -4.47 -5.21 -3.69 -3.41
-0.88 -2.28 -3.93 -3.33 -2.28 -0.10 -3.87 -9.95 -8.81 -5.48 -4.42 -4.04 -6.66 -4.56 -2.53 -1.09 4.85 6.55 5.60 6.05 6.58 6.05 5.25 3.18 1.92 1.28 1.75 1.07 2.03 3.40 2.26 3.61 4.16 4.90 5.33 4.23 3.57 2.56 1.52 0.68 1.71 3.35 3.27 1.66 0.78 -0.23 -1.53 -2.70 -2.41 -3.04 -2.68 -3.99 -6.64 -5.32
-7.02 -12.97 -5.75 -5.17 -1.92 -2.23 -3.97 -9.56 -12.06 -8.10 -6.62 -4.47 -5.62 -9.52 -7.51 -5.02 -5.18 1.48 4.47 3.96 4.52 2.44 1.61 1.67 0.86 -0.46 0.24 0.84 0.39 0.91 -0.01 0.61 0.77 1.21 1.37 0.78 -0.04 -0.38 0.26 -0.24 0.11 1.31 0.84 -0.17 -0.67 -1.73 -2.46 -2.49 -3.70 -3.42 -3.95 -4.97 -6.94 -7.31
-10.83 -12.60 -12.06 -7.17 -5.00 -5.17 -2.34 -2.57 -2.58 -6.62 -7.34 -6.80 -6.08 -12.06 -14.05 -9.25 -8.28 0.43 4.02 3.09 2.36 1.59 0.13 -1.44 -1.84 -1.57 -1.59 -1.23 -1.05 -0.71 -0.99 -0.47 0.33 2.42 -0.65 -1.36 -3.05 -2.90 -3.08 -2.80 -1.79 -1.43 -2.00 -3.07 -3.74 -3.15 -3.92 -5.18 -6.08 -7.16 -8.25 -8.63 -9.35 -10.29

GFSWCAN_sfc_wetblb_096.txt.gz
Wetbulb
42.04 42.18 42.71 42.37 42.52 42.88 42.60 42.74 42.73 43.18 44.12 44.46 44.62 44.91 44.95 45.23 45.11 44.62 41.93 45.54 39.62 33.70 35.40 36.98 37.36 33.58 35.64 35.26 31.24 35.67 34.48 35.81 34.79 30.03 29.92 29.13 28.65 31.21 30.56 33.50 32.72 31.51 30.06 27.95 28.71 27.31 24.79 42.76 42.52 36.63 40.69 45.78 47.02 46.20
42.26 42.54 42.81 42.96 43.12 43.33 43.60 43.59 43.83 44.09 44.10 44.19 44.44 44.86 45.17 45.28 45.40 45.31 38.41 44.39 44.87 37.15 35.69 40.79 40.73 41.88 41.23 40.03 37.45 36.97 35.62 35.23 36.21 33.38 33.93 34.21 30.99 33.08 31.86 27.77 37.73 30.56 35.02 34.08 34.16 32.50 41.39 43.73 42.36 44.14 44.98 45.30 46.29 45.66
42.42 42.94 43.08 43.15 43.44 43.70 43.95 44.17 44.05 44.04 44.26 44.81 45.05 45.04 45.15 45.54 45.76 45.27 40.96 42.35 40.46 35.69 34.61 36.68 35.70 42.39 45.21 45.14 46.48 35.84 38.32 39.60 38.59 42.01 37.31 35.88 31.06 36.01 29.43 31.76 34.44 38.04 40.68 36.57 36.89 39.08 40.87 41.52 42.54 44.49 45.56 46.98 48.17 49.40
42.49 42.65 42.74 43.13 43.39 43.37 43.62 43.67 44.02 44.49 44.57 44.60 45.01 45.05 45.48 45.55 45.95 45.51 41.70 42.70 40.84 35.72 31.07 35.09 42.41 40.46 45.30 45.75 45.22 45.08 42.47 43.37 42.60 41.94 36.59 35.22 33.09 38.36 34.09 35.66 35.08 38.74 39.75 37.32 37.28 39.65 40.93 42.35 44.45 45.09 45.95 48.34 47.05 47.73
42.34 42.58 43.11 43.52 44.16 44.44 44.40 44.20 44.23 44.38 44.88 45.04 45.34 45.43 45.38 45.61 45.61 45.13 44.09 43.29 43.01 37.91 33.67 34.97 40.81 42.50 43.73 43.53 43.06 43.71 42.66 40.95 40.20 36.58 34.62 33.46 37.45 36.93 38.05 37.22 35.50 40.70 38.49 36.12 35.22 41.51 41.07 41.20 44.29 46.08 45.46 47.37 46.70 46.14
42.85 43.35 44.66 45.28 45.61 45.77 45.54 45.22 44.82 44.89 45.14 45.37 45.57 45.71 45.80 45.47 45.50 42.93 33.73 42.84 43.99 42.64 35.75 31.94 40.89 39.11 42.21 42.56 41.80 41.27 42.24 41.88 40.17 36.28 36.85 37.80 41.41 38.72 34.28 33.11 39.31 41.94 43.37 43.85 41.24 44.41 44.43 44.90 45.35 46.81 46.80 45.64 44.14 45.15
43.39 45.30 45.79 45.19 45.36 45.54 45.63 45.75 45.75 45.64 45.45 45.46 45.74 45.83 45.68 45.71 44.49 37.66 37.27 42.02 44.27 42.83 35.43 32.18 34.29 39.23 41.46 41.59 40.86 40.75 42.04 39.97 38.95 35.80 35.86 36.80 38.83 39.13 35.13 31.55 38.46 41.25 42.97 43.69 44.61 44.27 42.30 44.35 43.43 46.06 45.38 43.13 41.73 41.06
45.28 45.35 44.64 44.67 44.13 44.18 44.63 44.82 45.05 45.25 45.73 45.81 45.64 45.90 45.57 45.59 43.79 40.28 45.73 44.78 44.04 39.12 38.08 31.72 32.57 35.88 41.18 37.09 36.54 41.16 37.74 38.93 37.64 37.15 37.86 36.87 37.49 36.93 33.31 37.61 40.08 41.97 42.96 43.12 44.06 45.74 45.07 45.57 45.51 44.35 44.64 43.74 40.37 37.60
44.95 44.36 44.52 44.28 44.38 44.67 44.80 44.73 45.07 45.39 45.45 45.92 45.94 46.13 44.45 38.33 36.49 39.92 45.06 44.55 45.58 41.11 32.84 32.28 30.93 29.63 40.76 37.81 39.05 38.84 39.35 33.24 39.46 34.43 34.85 36.03 33.86 30.88 35.34 37.66 39.12 41.30 41.91 42.77 44.71 44.93 45.08 44.49 45.55 43.29 41.49 41.16 38.27 33.94
44.73 44.54 44.40 43.96 43.76 43.37 44.40 45.08 44.90 45.13 45.37 45.75 40.71 33.91 31.74 36.39 45.18 44.56 40.48 34.73 36.18 38.23 37.47 33.58 37.57 31.54 36.74 34.55 35.10 34.87 36.41 32.80 29.15 33.34 38.04 33.40 33.18 38.51 40.09 41.03 41.73 42.17 43.02 43.73 41.55 41.57 42.85 43.49 42.06 39.73 39.96 38.90 36.50 31.00
44.37 44.55 44.62 44.63 42.80 43.46 44.07 45.28 45.35 45.16 44.14 38.12 32.99 34.95 41.02 45.00 41.36 36.21 31.92 32.46 33.68 31.34 34.96 35.83 36.51 34.01 38.92 33.68 33.65 36.38 32.12 33.24 27.87 31.93 31.73 31.28 31.10 37.23 41.26 41.29 40.91 39.56 39.89 40.00 40.78 41.40 41.77 41.83 41.96 37.79 35.62 35.15 33.17 29.77
44.45 44.80 45.00 44.92 43.04 44.09 44.68 44.91 44.50 43.32 41.52 39.84 40.46 42.37 41.74 36.43 34.24 32.21 30.86 32.02 30.21 29.25 32.22 30.91 34.11 37.96 35.22 39.23 35.59 33.79 32.04 31.87 28.19 35.68 31.45 29.20 33.71 34.09 36.25 36.18 36.03 35.70 35.00 35.14 36.34 36.46 36.56 36.99 38.82 36.34 33.75 31.16 28.47 25.78
43.94 44.31 44.07 43.50 43.12 44.24 44.41 44.28 44.20 44.19 44.26 43.01 38.77 33.07 34.73 31.68 28.82 27.11 22.90 26.56 27.76 32.55 32.87 33.80 32.27 34.36 35.26 37.12 34.62 32.46 29.74 29.90 36.59 30.86 29.75 30.32 29.36 31.08 31.20 32.05 31.79 31.88 30.99 30.44 30.71 32.86 33.57 33.36 33.22 32.26 27.47 26.00 24.57 22.92
43.24 43.30 43.30 43.54 42.84 42.08 41.58 41.82 41.97 41.30 39.70 32.30 31.92 22.92 27.43 25.62 26.45 28.23 29.99 30.79 31.74 33.13 33.37 34.26 32.54 34.50 35.20 32.64 33.90 28.57 31.65 32.85 28.61 27.12 27.23 25.88 27.61 28.85 30.11 29.90 29.43 27.84 28.22 28.22 27.86 28.31 27.80 27.22 26.02 25.40 24.34 23.30 21.14 19.96
43.30 42.86 42.93 42.65 42.34 41.98 41.09 39.43 38.07 37.39 33.28 27.54 28.10 20.91 22.00 25.29 26.43 27.15 29.47 30.72 29.94 30.92 34.41 34.42 34.29 33.65 31.68 31.19 32.28 30.25 27.47 26.92 28.41 25.27 25.15 27.24 27.64 27.53 27.68 28.16 27.31 25.90 24.92 24.12 24.08 23.10 22.78 22.45 21.77 21.10 21.70 21.40 19.95 18.83
42.64 43.30 41.60 42.80 40.68 40.68 40.11 38.77 38.02 35.48 29.84 24.73 22.78 22.44 24.79 26.03 24.50 25.78 26.83 28.16 29.14 28.31 32.56 34.95 32.10 28.76 28.39 30.52 27.54 25.17 26.44 23.75 22.61 24.90 26.49 27.37 26.63 26.22 25.81 25.47 24.92 24.51 23.45 22.05 21.32 20.95 20.53 19.22 17.67 17.47 17.65 17.47 17.31 17.02
41.66 40.66 41.04 42.44 41.48 39.24 39.50 36.10 33.58 27.21 25.25 22.60 20.83 23.73 23.56 23.26 21.89 23.48 25.11 26.24 28.79 27.96 31.37 32.45 27.96 24.28 29.91 24.89 20.60 23.81 21.48 22.57 24.71 25.88 25.96 25.71 25.66 25.25 25.01 24.23 23.48 23.51 22.76 22.38 21.85 21.00 19.96 19.76 19.77 18.93 16.49 17.09 17.02 16.47
39.99 41.19 41.16 41.37 41.95 38.63 34.90 33.86 28.81 24.75 19.39 21.98 20.15 21.39 22.80 23.23 22.82 23.91 25.20 27.49 29.04 30.05 29.52 24.95 28.02 22.17 20.10 17.46 20.02 23.29 24.70 25.20 25.18 24.90 25.27 25.83 25.78 25.60 25.74 24.33 23.64 23.49 22.55 22.09 21.08 20.52 19.66 18.60 17.33 16.80 16.62 16.17 15.15 14.86
40.06 40.85 40.23 40.47 40.57 36.93 30.92 29.02 29.02 19.72 20.57 22.40 23.05 23.51 23.27 22.88 23.77 23.93 24.70 26.45 27.69 27.67 26.34 22.93 18.01 16.49 17.96 21.37 21.23 24.83 24.97 24.45 22.95 23.02 23.71 24.87 25.02 24.30 24.36 24.07 23.66 22.83 21.85 21.69 21.18 20.14 19.54 19.11 18.28 17.43 16.89 15.98 13.70 13.34
40.07 39.27 39.18 38.90 39.46 33.76 27.83 26.63 30.58 23.37 20.17 21.18 23.29 20.96 21.16 20.88 22.08 22.06 20.60 21.69 21.81 20.01 15.46 13.84 13.85 16.28 16.63 19.89 22.96 24.84 24.82 25.38 24.33 21.78 21.15 23.17 24.02 23.04 22.28 21.71 20.61 20.89 19.92 19.28 18.86 18.21 17.49 17.13 17.46 16.49 15.94 14.99 13.55 12.21
39.52 38.55 38.40 39.50 36.38 34.27 30.68 27.58 24.66 24.51 23.99 22.25 23.88 22.67 20.67 21.41 18.33 16.84 16.36 19.08 15.09 13.11 13.03 14.92 16.12 18.45 20.59 21.47 23.12 24.71 24.10 24.92 23.98 23.10 21.53 20.64 22.64 22.43 21.77 21.67 21.12 19.68 18.41 17.61 16.26 15.74 16.15 14.89 15.17 14.79 14.03 13.22 13.38 13.02
35.87 37.01 37.91 37.89 33.15 32.15 30.22 31.51 27.41 27.78 25.93 24.34 24.00 22.74 19.36 17.22 16.68 15.91 17.00 12.78 11.02 12.14 13.74 14.69 16.24 17.33 18.19 18.33 20.01 22.05 22.24 22.73 22.87 22.68 22.52 22.40 20.52 20.06 19.81 20.44 19.55 18.01 17.80 17.16 16.89 15.48 14.68 15.23 15.19 14.68 13.51 12.63 12.31 11.47
33.88 35.06 31.94 31.55 28.77 29.60 27.89 33.29 27.85 27.39 22.65 22.84 23.41 18.36 17.54 17.30 18.13 19.41 11.84 12.17 12.68 15.66 16.15 16.79 17.99 18.75 18.05 19.13 20.04 20.04 20.97 20.87 20.08 19.78 19.58 19.63 19.90 20.09 19.24 18.45 18.18 16.49 14.94 14.89 15.67 15.02 14.10 14.11 13.92 13.96 13.47 12.72 11.46 10.06
28.51 22.32 20.97 21.29 24.92 21.87 25.85 22.33 26.25 24.57 23.75 21.78 18.73 15.32 16.02 17.29 19.16 14.34 9.26 10.41 13.22 15.12 14.50 15.57 16.90 17.80 17.87 17.15 16.18 16.51 18.94 20.00 18.45 18.27 19.22 17.94 15.93 15.74 16.75 16.12 16.33 16.54 16.10 15.81 15.21 15.13 14.55 13.82 13.27 13.63 12.79 11.91 11.17 9.89
19.33 12.37 17.08 14.05 18.57 17.59 15.81 15.40 15.71 18.29 15.02 16.94 14.14 13.37 13.86 18.45 12.09 9.65 7.87 10.07 12.51 12.14 12.60 15.25 15.60 14.07 14.15 14.94 15.03 15.13 16.88 17.45 16.06 14.84 17.31 17.12 15.45 14.71 13.89 14.61 14.60 14.96 16.46 14.85 13.74 13.55 13.27 13.37 13.02 12.20 11.44 10.77 9.08 8.05
8.22 11.20 11.74 12.16 13.03 12.69 12.36 10.30 10.36 10.69 12.23 10.82 10.39 12.85 14.89 11.17 6.79 4.85 7.73 9.86 11.80 11.61 12.31 12.66 13.26 13.46 11.95 12.84 12.40 12.24 13.10 17.07 16.74 12.88 12.41 15.61 17.92 17.30 15.25 13.82 12.68 12.15 15.72 15.92 14.16 12.40 11.46 11.45 10.70 9.67 8.79 7.87 6.71 7.19
7.13 8.40 11.75 13.93 13.47 12.94 10.09 10.83 11.58 9.88 7.45 6.85 8.49 7.54 8.35 2.85 2.89 7.21 12.47 12.84 12.33 13.59 14.67 14.70 14.54 13.25 12.27 12.34 13.02 13.51 13.87 13.69 12.64 11.52 12.61 12.96 13.31 14.71 16.15 14.01 11.49 12.37 14.97 14.77 14.61 13.76 11.91 10.70 9.97 9.55 8.16 8.21 8.03 7.89
10.56 10.44 4.39 6.13 6.74 8.50 3.86 4.70 4.62 4.47 5.97 8.78 8.43 2.83 1.60 2.10 4.18 10.82 12.40 14.90 15.32 15.61 15.10 15.07 14.75 14.18 13.28 12.97 13.88 14.90 15.30 15.21 15.13 14.85 14.24 12.81 12.34 12.76 12.78 12.82 12.51 12.24 13.77 14.43 13.91 13.11 12.42 10.77 9.11 8.54 7.66 6.05 4.99 7.51
7.50 9.63 8.40 -0.24 4.30 4.98 3.88 3.90 4.52 6.88 8.05 9.47 5.89 3.88 4.73 8.20 10.61 12.10 13.70 15.01 16.21 15.52 13.73 13.48 13.96 15.49 14.37 13.64 12.69 12.10 12.75 14.44 14.70 11.45 10.21 9.80 10.02 9.37 12.34 13.18 13.70 13.93 13.85 12.47 11.37 11.71 11.38 10.90 10.23 9.33 8.43 7.28 6.36 6.76
7.70 11.16 5.79 2.89 1.51 2.85 5.89 7.64 6.78 8.29 10.82 11.28 10.71 9.21 8.55 8.83 10.37 13.46 13.40 13.25 12.19 11.04 11.42 11.39 12.11 12.85 11.76 11.66 10.21 9.63 10.49 11.23 11.65 12.67 10.41 8.81 8.24 10.17 11.37 12.00 12.05 12.76 13.79 13.39 11.65 9.71 9.00 7.32 6.49 5.04 4.84 4.87 6.11 5.40
11.06 11.88 7.27 7.01 4.81 8.15 9.34 8.92 10.97 11.49 11.09 9.59 11.30 8.73 6.77 8.58 10.89 11.49 10.33 11.50 12.07 11.90 11.37 9.21 7.58 8.06 8.22 7.58 9.25 9.12 7.06 9.08 8.31 8.79 9.79 9.87 9.98 10.30 10.03 10.32 11.74 12.10 11.31 10.23 9.25 8.63 7.69 7.90 7.66 6.43 5.85 5.01 3.72 4.61
9.22 6.94 6.39 4.00 5.82 10.18 11.32 11.89 11.57 10.63 11.30 11.07 9.05 9.44 7.78 9.73 5.79 8.26 8.83 11.31 10.24 8.03 6.16 7.91 6.78 5.11 6.73 7.25 7.33 7.11 6.60 7.49 7.48 7.29 7.44 8.14 8.27 7.82 8.51 8.92 9.62 10.33 9.21 8.36 8.02 7.14 6.76 6.47 6.57 6.12 5.18 4.17 3.02 2.25
8.61 10.02 9.54 8.75 7.76 8.10 10.17 10.68 8.57 8.14 8.72 8.02 6.00 5.14 4.60 6.01 2.08 7.11 10.41 9.24 8.35 7.50 6.35 6.12 6.63 6.30 4.88 4.78 5.95 6.23 5.92 5.44 3.45 4.32 3.34 2.48 1.37 4.52 7.42 8.00 7.84 7.41 6.84 7.15 6.67 6.07 4.76 3.79 4.22 2.35 1.31 0.80 0.55 -0.38

GFSWCAN_sfc_wetblb_099.txt.gz
Wetbulb
41.42 42.10 42.11 42.29 42.34 42.60 42.36 42.14 42.91 43.32 43.85 44.18 44.34 44.63 44.92 44.72 45.05 45.18 42.65 46.12 40.43 34.35 36.37 38.84 38.65 35.81 35.41 36.74 31.96 35.59 35.16 36.65 36.14 30.66 29.91 30.07 29.33 32.24 31.73 33.95 32.42 32.20 30.97 30.08 30.54 28.16 26.50 42.69 42.40 36.50 41.86 45.34 45.87 46.91
41.27 41.60 41.84 42.17 42.49 42.79 42.81 43.01 43.14 43.09 43.65 44.00 44.25 44.51 44.75 44.89 45.17 45.43 40.94 45.26 45.65 38.51 36.99 42.31 42.24 42.80 41.54 39.91 37.81 37.64 36.22 35.74 36.44 33.96 33.79 34.37 31.27 34.32 32.68 28.83 38.52 30.89 36.45 33.80 34.68 34.99 41.63 43.92 43.74 45.23 45.45 43.01 45.89 46.12
41.56 41.84 42.02 42.42 42.61 43.05 43.56 43.80 43.84 43.50 43.64 43.99 44.28 44.42 45.03 45.10 45.48 45.34 43.02 44.62 43.18 36.78 36.25 37.71 36.94 42.20 45.33 43.66 44.76 35.73 38.51 40.48 38.14 41.38 37.22 35.00 31.92 35.58 30.88 32.79 35.31 38.64 41.67 37.19 37.55 40.34 41.73 43.52 45.17 43.24 43.92 43.77 46.00 48.32
41.71 41.90 42.09 42.49 42.84 43.02 43.37 43.70 43.90 44.11 44.20 44.26 44.67 44.79 44.69 45.11 45.55 45.51 41.85 44.29 43.24 36.33 31.23 34.56 43.17 39.77 43.97 45.29 44.64 43.11 41.41 42.70 41.97 41.66 36.67 35.47 32.07 38.77 34.67 36.25 35.72 38.88 40.21 38.71 38.30 40.82 42.51 42.85 44.38 44.19 44.24 46.51 46.41 48.19
41.35 41.72 42.23 42.53 42.95 43.36 43.68 43.95 43.75 43.88 44.15 44.50 44.52 44.68 45.23 45.48 45.48 44.88 43.81 43.33 43.21 37.70 33.69 34.24 40.64 42.53 44.72 43.47 41.85 43.38 42.66 40.85 39.43 36.34 34.70 34.37 37.85 37.17 38.28 37.84 35.67 40.43 39.06 37.39 35.95 41.81 41.56 42.80 45.11 46.15 45.34 45.85 47.48 46.47
42.03 42.34 42.57 42.85 43.77 44.20 44.98 44.92 44.94 44.54 44.06 44.32 44.76 44.87 45.13 45.34 45.59 42.75 35.43 42.75 43.61 42.71 35.72 31.28 41.60 41.06 43.19 43.35 42.07 41.37 42.36 41.74 39.91 36.23 36.94 38.69 41.02 38.01 33.73 33.13 40.13 42.28 43.56 44.19 40.99 44.61 44.43 45.15 46.34 47.13 46.26 47.36 46.03 46.66
42.37 42.81 43.47 44.32 45.60 45.65 45.91 45.76 45.64 45.42 44.63 44.51 45.02 45.14 45.57 45.29 43.87 35.97 37.98 42.01 43.88 43.43 34.30 32.98 33.48 41.10 43.17 42.78 41.32 40.72 42.54 41.11 39.33 36.00 36.03 37.53 38.15 38.86 35.75 32.02 39.47 42.04 43.21 44.06 45.20 44.92 43.08 44.97 44.32 47.08 47.26 46.77 44.64 44.06
43.33 44.47 45.59 44.95 44.97 44.92 44.83 45.05 45.62 45.69 45.23 45.10 45.42 45.46 45.58 45.34 43.70 39.48 45.46 44.62 44.39 38.47 37.25 32.36 33.38 36.87 42.61 37.33 36.47 40.95 38.08 39.62 38.63 37.35 38.05 35.92 38.77 38.22 32.03 37.36 40.20 42.53 43.68 43.95 44.75 46.09 46.12 47.03 46.42 46.11 46.90 46.27 43.56 40.96
44.34 44.61 44.71 44.81 44.59 44.86 44.86 44.66 45.33 45.96 46.08 45.61 45.71 45.72 44.29 39.84 36.51 40.53 44.87 44.78 45.42 40.02 33.98 34.36 32.40 31.23 41.81 39.71 40.52 38.75 39.60 32.75 39.83 34.58 35.40 37.48 35.39 31.42 36.35 38.48 39.05 41.65 41.75 42.62 45.17 45.63 46.13 45.74 45.60 46.47 45.47 45.44 43.26 37.96
44.24 44.48 44.96 44.01 43.64 43.68 43.75 44.54 44.99 45.47 45.81 45.99 41.87 33.27 31.82 37.26 45.29 43.81 39.24 35.00 36.97 38.55 38.67 33.27 38.89 34.44 39.65 38.50 37.23 37.21 37.90 33.37 30.77 35.51 38.48 33.82 33.66 39.27 40.85 41.79 41.90 42.84 43.88 44.33 41.94 41.13 43.41 45.00 45.05 44.42 43.93 43.92 42.57 37.41
44.83 45.03 44.65 44.81 43.24 43.69 44.05 44.80 45.17 44.98 43.06 37.50 33.25 34.87 40.37 44.79 41.29 36.84 32.18 33.25 35.04 32.15 35.74 36.96 37.77 35.65 41.01 34.58 34.09 38.22 33.77 35.29 28.72 33.67 32.75 32.45 32.71 37.86 41.87 42.24 43.26 41.92 42.93 42.69 42.78 42.76 43.83 43.93 43.49 43.61 41.60 40.37 36.54 32.26
43.43 43.00 43.49 44.21 44.70 45.07 45.16 45.11 44.84 43.54 40.20 39.00 41.22 42.49 41.87 37.04 34.51 32.61 31.44 33.60 32.23 30.49 36.19 34.51 37.17 38.62 38.01 40.95 36.46 35.56 31.44 33.65 27.53 37.76 32.27 29.70 31.34 33.32 35.20 36.10 36.83 37.71 38.03 38.26 38.20 38.08 40.19 40.14 42.41 43.05 40.47 36.94 31.80 27.72
42.95 42.59 43.10 43.59 44.66 45.00 44.83 44.69 44.61 44.19 44.70 44.01 40.19 34.76 35.67 33.25 30.19 28.75 25.75 28.19 30.57 35.13 34.81 35.87 34.34 36.64 38.07 38.58 36.29 33.45 30.34 29.29 37.82 30.83 30.33 29.90 30.54 31.27 32.48 32.92 33.49 34.08 33.40 33.43 32.79 33.33 34.82 35.98 37.10 37.65 32.65 29.22 27.08 25.02
43.19 42.23 41.82 42.42 42.80 43.96 44.21 44.00 43.46 43.83 41.30 34.93 33.04 26.62 30.88 28.14 30.31 31.22 32.93 34.38 34.70 36.61 35.40 36.07 35.24 35.39 37.47 33.83 35.11 28.48 33.94 34.32 28.32 26.57 25.77 27.67 27.77 29.53 31.25 31.95 31.56 30.56 29.22 29.31 29.09 29.11 28.49 27.92 27.37 27.38 27.20 26.12 23.71 21.71
43.07 42.70 42.33 41.51 41.03 40.98 40.70 39.61 39.95 39.30 35.51 30.77 32.20 24.88 25.05 27.67 29.28 30.09 32.63 33.97 32.57 34.23 35.96 34.85 35.76 36.14 33.63 31.80 33.24 33.53 29.27 27.90 29.58 26.70 26.56 27.73 28.25 28.10 28.18 28.28 28.29 27.98 27.00 26.44 26.17 25.09 24.37 23.52 22.76 22.66 23.51 23.05 21.55 19.92
43.09 43.18 41.03 41.25 41.66 40.46 40.20 40.31 39.40 37.80 32.66 27.99 26.63 26.01 29.04 28.61 28.23 29.49 30.53 29.71 31.35 31.72 34.76 35.23 32.91 31.09 30.52 32.34 30.19 28.30 28.29 25.53 23.98 25.96 27.26 27.79 27.22 26.98 26.15 26.62 26.40 26.11 25.47 24.60 24.22 22.89 21.25 19.39 18.49 18.50 19.44 18.85 18.54 18.25
43.58 42.79 41.02 42.25 39.98 40.46 40.31 39.77 35.97 29.74 27.78 25.84 23.64 27.15 27.72 27.08 26.24 27.15 28.66 28.20 31.70 31.31 32.18 33.99 30.91 27.96 32.45 29.09 24.95 26.36 23.73 24.25 25.43 26.55 27.67 27.11 26.42 26.24 26.02 25.67 25.33 25.04 24.49 23.75 22.46 21.39 20.07 20.24 19.89 18.39 16.52 17.48 17.84 17.47
42.52 42.90 41.01 41.55 42.45 39.10 35.57 34.72 31.60 27.94 22.15 26.17 23.09 25.13 25.43 26.45 27.25 26.59 28.50 29.89 31.20 32.43 32.19 27.51 31.10 26.11 24.21 20.37 23.01 25.66 26.69 27.30 27.32 26.28 25.78 25.80 26.64 27.14 26.92 25.31 25.27 24.84 23.81 23.33 22.79 22.25 21.17 20.11 18.19 17.73 17.23 17.28 16.56 16.25
40.61 41.03 40.69 41.10 41.16 37.61 31.27 30.52 31.65 23.01 23.35 25.55 26.75 26.53 26.30 25.71 26.12 26.47 27.45 28.96 29.75 30.33 29.67 26.44 22.15 20.67 20.82 22.19 21.62 24.50 26.08 25.82 24.63 25.25 25.57 25.72 25.77 25.38 25.01 25.10 24.35 23.87 22.96 23.15 23.38 22.13 21.94 20.77 20.03 18.74 18.81 17.80 15.05 15.09
40.18 39.73 39.85 40.46 41.48 35.19 28.99 28.66 33.97 26.62 22.98 24.11 26.11 23.82 23.70 23.70 25.27 24.76 23.89 24.54 24.75 23.01 18.40 16.87 16.78 18.52 18.87 21.14 23.06 24.21 26.32 27.29 26.44 25.30 24.01 24.94 25.47 24.48 24.44 24.77 23.38 23.25 22.11 21.95 21.50 20.75 19.66 19.06 19.29 18.93 18.29 17.05 15.71 14.59
41.51 39.79 40.68 42.02 38.31 36.09 31.34 29.91 27.63 27.41 26.37 23.80 26.03 24.71 23.04 23.39 20.89 19.99 19.10 21.75 16.99 14.46 14.62 16.22 17.15 19.65 21.83 22.36 23.98 25.37 25.23 25.63 24.96 24.79 23.72 23.23 24.83 23.99 23.06 23.41 23.23 23.15 21.52 20.43 18.94 18.13 17.65 16.55 16.72 16.80 16.05 15.29 15.54 14.61
38.56 38.61 41.41 40.89 35.37 33.57 31.47 32.73 28.75 29.99 27.47 25.75 25.33 25.25 22.47 20.41 19.15 17.69 18.74 14.36 12.63 13.78 15.37 16.36 17.67 18.69 19.74 19.63 21.55 23.08 24.22 25.24 25.28 25.24 24.71 24.95 23.68 22.97 22.65 22.48 20.65 19.64 20.05 19.89 18.65 17.13 16.45 16.54 16.60 15.35 14.06 12.69 12.94 12.98
37.02 38.01 35.04 35.31 31.62 30.47 27.64 34.97 29.17 28.72 24.66 24.07 25.43 20.59 20.43 19.68 19.64 20.89 13.24 14.23 14.87 17.85 18.74 19.11 20.01 20.82 20.41 21.73 21.96 22.09 22.93 23.60 22.57 22.78 23.02 22.96 23.09 22.64 21.81 21.94 22.21 19.82 18.09 18.28 19.08 17.91 16.77 17.20 17.15 16.61 16.12 15.14 13.52 12.48
31.43 26.16 24.60 25.26 27.99 23.88 28.72 25.06 27.96 25.93 25.99 23.32 20.40 17.06 17.82 20.08 21.88 16.82 11.34 13.44 16.38 17.94 17.32 18.61 19.06 20.54 21.49 20.23 18.80 18.15 19.91 23.15 21.72 21.68 22.85 21.31 19.18 19.18 19.97 19.05 19.08 19.15 18.78 18.91 18.70 18.59 18.07 16.98 16.52 16.64 16.00 15.29 14.75 13.85
22.22 15.03 21.76 18.61 23.08 21.95 20.41 19.97 20.25 21.26 17.69 19.61 16.54 16.13 17.16 22.27 15.91 13.20 11.42 13.14 15.70 15.59 16.37 18.07 19.19 17.72 17.38 18.74 18.96 18.60 19.70 20.28 18.72 18.05 20.42 20.27 19.23 18.45 17.22 17.47 17.56 18.79 20.70 18.80 17.32 17.36 17.23 17.67 16.97 16.32 15.58 14.81 13.28 12.23
12.64 14.47 15.84 17.04 17.03 17.14 17.42 15.17 15.43 16.08 16.92 14.58 14.42 17.93 20.28 16.75 11.11 8.73 11.01 13.10 14.75 14.81 15.12 15.64 16.19 17.22 15.78 15.96 15.45 15.40 16.60 20.75 19.64 15.84 15.69 17.98 20.70 19.32 17.43 15.54 14.35 14.99 19.06 19.12 17.69 16.20 15.40 15.07 14.01 13.14 12.11 11.49 10.68 10.74
11.97 12.94 15.06 17.95 17.84 17.41 15.59 16.24 17.12 15.44 12.47 11.26 13.57 12.26 13.90 8.16 7.16 10.30 15.68 15.74 15.31 16.70 17.46 17.55 17.26 16.37 15.93 16.17 16.84 16.98 17.34 16.89 15.61 14.64 16.09 16.48 16.59 17.59 18.31 16.07 13.78 15.55 18.61 18.72 18.12 16.96 14.71 13.69 12.96 12.54 11.63 12.23 12.20 11.98
13.42 13.21 8.22 11.42 11.80 14.07 9.57 10.84 10.42 9.14 10.61 13.03 14.00 7.51 6.06 7.02 7.55 13.37 14.74 17.07 18.45 19.02 18.22 18.27 18.19 17.37 16.27 16.57 17.28 18.28 19.07 18.75 17.90 17.43 16.75 15.99 16.66 17.01 16.07 15.29 15.11 15.73 17.17 17.89 17.72 17.23 16.33 15.20 13.72 12.96 11.91 11.25 10.84 11.95
12.98 14.65 11.58 5.33 10.20 10.20 8.99 9.43 9.33 10.46 11.53 14.21 11.25 8.41 7.67 10.76 13.96 15.08 16.02 17.55 19.24 18.78 16.66 16.42 17.54 19.39 18.35 17.38 16.75 16.55 17.08 17.81 17.66 14.40 13.22 12.59 12.15 12.84 16.68 17.12 17.01 16.59 15.85 14.77 14.57 14.94 14.84 14.20 13.50 12.26 10.88 10.54 11.51 12.10
12.13 18.12 10.88 8.88 7.61 7.30 9.18 13.02 11.71 14.61 14.64 14.41 13.51 11.79 11.42 11.85 14.02 17.15 16.75 16.53 15.57 14.73 14.76 14.55 15.64 16.24 15.23 15.06 13.24 12.51 13.61 14.21 13.74 15.66 13.37 10.99 11.26 14.25 15.45 15.42 15.66 16.75 17.22 15.66 13.59 12.25 11.74 11.65 11.11 10.38 9.78 9.94 10.23 9.36
18.63 16.99 12.80 11.76 9.24 11.56 13.41 15.01 16.64 15.38 15.87 14.59 16.07 12.91 11.03 11.95 13.95 14.71 14.29 15.66 15.49 15.94 14.83 12.41 11.44 12.09 11.37 10.43 12.39 12.45 9.68 11.81 11.25 11.89 13.46 13.86 13.83 13.73 13.71 14.30 15.41 15.72 15.28 14.36 13.55 13.09 12.44 12.51 11.87 10.31 9.82 9.32 8.04 8.61
16.25 13.52 10.91 8.10 9.44 13.65 16.56 16.96 15.35 14.11 15.01 13.89 12.73 14.49 13.24 13.99 9.82 11.85 12.67 15.29 13.64 11.96 10.05 11.42 9.69 8.60 10.56 11.40 11.33 11.10 9.90 10.57 10.09 9.90 10.67 11.52 11.46 11.82 12.66 13.02 13.61 13.66 12.94 12.09 11.57 11.03 10.66 10.47 10.84 10.09 8.99 7.84 6.55 5.89
15.91 15.78 15.12 13.30 11.40 12.44 14.36 15.43 14.10 12.47 14.38 12.90 11.36 12.08 11.22 11.18 6.49 10.73 13.80 13.62 12.26 11.09 10.26 10.43 10.75 10.07 8.58 8.50 9.94 10.42 9.06 7.66 5.12 5.62 5.46 5.00 4.01 7.61 12.02 12.49 12.39 12.04 10.80 11.60 11.14 10.07 8.60 7.01 8.38 6.46 5.81 5.21 4.24 4.03

GFSWCAN_sfc_wetblb_102.txt.gz
Wetbulb
40.90 42.01 42.20 42.23 42.27 41.89 41.85 41.98 42.60 43.22 43.35 43.55 43.75 43.99 44.18 44.28 44.05 43.95 41.14 45.86 41.68 35.16 36.04 37.88 38.25 34.41 35.07 35.65 31.15 35.46 34.84 35.99 34.47 29.29 29.12 28.99 28.73 30.95 30.57 33.16 32.01 30.15 29.12 28.06 29.83 26.66 24.08 42.88 41.97 35.98 41.12 43.61 44.22 44.85
42.20 41.95 41.84 41.70 41.99 42.13 42.35 42.76 43.10 42.88 42.80 43.21 43.35 44.05 44.26 44.21 44.49 44.47 38.58 44.73 46.00 37.52 36.31 41.81 42.08 42.45 40.44 39.74 36.64 36.51 34.39 33.71 34.39 32.75 33.62 33.49 30.10 32.90 31.41 27.42 36.58 30.20 34.68 32.11 33.62 33.37 41.98 44.11 43.63 45.81 44.98 43.34 44.25 44.34
41.57 41.54 41.61 41.79 41.89 42.28 42.50 42.85 43.09 43.33 43.17 43.15 43.53 43.50 44.45 44.64 44.44 44.40 40.87 42.70 41.23 36.83 36.40 36.95 35.74 41.63 44.24 44.00 45.17 34.94 36.87 38.22 37.08 39.79 35.54 35.14 29.75 33.89 30.20 31.67 33.77 37.40 39.58 35.47 35.66 39.16 40.66 42.69 44.79 44.96 44.69 43.78 44.49 45.46
41.47 41.51 41.40 41.61 42.05 42.18 42.37 42.74 43.03 43.27 43.66 43.88 44.02 43.93 44.28 44.71 45.09 44.93 42.20 44.32 42.00 37.70 30.70 33.17 42.38 40.35 44.26 44.35 43.39 43.57 41.12 41.48 40.69 39.90 34.62 34.50 31.31 36.60 32.72 34.42 33.75 36.86 38.95 37.28 37.44 40.62 42.06 43.43 44.27 44.78 44.78 44.84 45.28 46.50
41.60 41.60 41.56 41.70 41.91 42.01 42.55 42.85 43.31 43.47 43.65 44.08 44.25 44.41 44.57 44.76 45.04 45.45 45.23 45.34 44.32 36.87 31.77 33.00 39.49 41.60 43.58 43.59 41.85 42.17 41.76 40.17 38.72 35.23 33.44 33.32 35.70 35.60 36.84 36.58 34.03 38.73 37.38 35.55 34.41 40.61 40.17 40.99 45.04 45.94 45.05 44.92 46.54 45.79
41.52 41.64 41.75 42.10 42.32 42.74 43.00 43.21 43.55 43.88 44.12 44.26 44.68 44.79 45.10 44.91 44.91 43.50 35.39 43.03 45.42 43.23 35.21 28.62 40.36 40.39 42.79 42.69 41.99 41.21 40.36 40.02 39.88 34.60 35.69 36.96 39.84 36.68 31.89 30.54 38.32 41.18 42.64 43.02 40.32 43.48 43.56 44.56 45.46 46.27 45.44 45.85 45.70 45.15
42.35 42.74 42.84 42.94 43.20 43.37 43.90 44.46 45.34 45.20 44.97 44.25 44.39 44.72 44.86 44.96 43.48 37.11 36.92 42.53 44.32 43.79 33.08 30.85 31.27 39.65 42.29 42.15 41.53 40.69 41.71 40.19 38.82 36.35 34.97 35.47 36.56 37.97 34.67 30.30 37.49 40.50 42.12 42.78 44.33 44.14 42.08 43.96 43.70 46.81 46.37 45.37 43.61 39.55
43.48 43.75 43.75 43.84 44.29 45.00 45.53 44.77 45.81 45.82 45.70 44.90 44.52 44.62 44.79 44.98 43.84 38.82 44.05 45.03 44.50 37.23 35.00 31.63 31.86 36.19 42.44 37.46 36.29 41.23 38.28 39.47 37.41 36.68 36.38 35.80 37.62 37.57 31.50 36.41 39.01 40.55 41.67 42.49 44.03 44.82 44.78 45.80 46.66 45.77 47.17 46.43 43.62 37.42
44.29 44.77 44.77 44.99 45.45 45.37 44.89 44.84 45.68 45.98 45.72 45.20 44.78 44.84 43.60 41.13 34.50 39.62 45.09 44.53 44.13 39.09 32.89 31.60 30.38 29.94 41.35 38.80 39.48 38.71 39.59 33.22 39.71 34.81 35.30 36.24 33.75 30.47 35.38 37.06 38.77 40.75 40.57 41.15 43.02 44.30 44.55 43.54 44.51 45.94 45.76 45.26 41.52 35.53
44.27 44.38 44.74 44.93 44.68 44.61 45.10 44.74 45.04 45.93 45.68 45.17 42.57 32.54 31.25 36.32 45.20 44.06 39.26 35.44 35.19 36.11 37.78 33.25 37.47 34.19 38.82 38.57 36.84 37.19 37.93 33.50 30.56 34.46 38.27 34.22 32.52 37.99 39.71 41.11 41.49 42.25 42.75 43.20 40.95 40.42 41.67 41.36 42.17 43.92 44.15 44.06 41.95 34.64
43.47 43.63 44.00 44.85 44.60 44.32 44.52 45.00 45.25 45.54 44.72 36.39 32.54 34.52 40.26 44.73 41.02 35.60 31.81 31.81 33.25 31.18 35.21 36.31 37.10 35.37 40.97 35.29 34.86 38.49 33.16 34.51 27.90 32.81 32.93 31.59 31.70 35.20 38.11 37.98 38.26 38.66 40.09 40.44 40.92 41.02 41.30 41.40 40.91 41.21 42.47 38.55 35.11 31.52
43.39 43.35 43.66 44.25 44.48 44.39 44.35 44.88 44.86 43.00 38.50 40.00 40.71 42.43 41.53 37.21 34.34 32.36 30.83 32.80 31.28 29.59 36.00 35.47 36.91 38.98 39.15 41.30 35.22 34.62 31.39 32.36 26.11 37.25 32.60 28.63 29.44 32.66 33.87 34.14 35.32 35.79 35.59 36.43 37.21 36.72 37.78 38.80 38.82 39.83 37.62 33.30 29.41 26.69
42.59 43.28 44.79 45.09 45.00 44.34 44.38 45.03 44.28 44.03 44.11 43.09 39.60 34.32 35.14 33.25 28.73 27.09 25.03 28.42 30.25 35.70 37.05 37.72 34.49 36.54 38.36 39.17 34.15 33.08 28.25 27.88 37.19 31.97 28.76 27.50 28.95 30.60 31.30 32.11 33.06 34.70 31.32 31.67 32.36 32.49 32.30 31.11 30.91 30.89 28.21 27.28 25.66 23.27
43.06 43.16 43.47 44.54 44.78 44.60 44.58 44.42 44.38 42.94 41.10 35.70 32.54 29.34 30.71 28.49 30.88 30.94 32.55 34.16 36.56 38.57 37.75 38.42 36.02 36.05 37.68 34.06 33.11 27.69 33.05 33.77 27.27 25.76 24.89 25.90 27.52 28.45 29.45 29.73 29.72 28.88 28.02 27.20 27.22 27.33 26.37 26.18 25.31 25.78 25.97 24.37 21.88 20.31
42.23 42.19 42.57 42.14 42.24 43.00 43.16 41.54 41.15 40.88 36.13 31.89 33.91 25.92 26.45 29.24 31.45 32.26 33.77 33.92 34.14 37.05 38.58 36.65 36.35 36.11 34.27 31.61 32.92 31.51 28.49 26.12 27.70 23.52 25.25 26.99 27.78 27.58 26.62 27.02 26.69 26.44 26.29 25.23 25.43 24.00 23.12 23.05 22.36 21.64 22.56 22.41 20.83 19.48
41.91 41.53 39.55 41.50 42.38 40.96 40.76 40.47 40.29 37.28 33.97 28.07 28.69 27.41 30.74 29.75 29.25 30.22 31.78 30.12 32.43 32.80 36.19 36.37 32.12 29.67 30.00 31.71 29.13 27.81 27.29 23.00 22.60 25.47 27.05 26.92 26.49 26.61 26.16 26.14 25.58 25.44 24.97 24.06 22.62 21.40 20.31 19.50 18.61 18.71 19.21 18.80 18.29 17.75
43.21 40.06 40.34 39.96 40.46 39.91 40.86 39.10 35.37 30.72 28.31 26.50 25.17 29.06 30.01 28.67 27.16 27.96 29.92 29.11 32.29 31.73 31.96 32.92 29.90 29.62 33.49 29.34 25.87 25.99 22.26 23.85 25.50 26.21 26.62 26.54 25.85 25.91 26.72 25.74 25.55 25.56 24.16 22.63 21.23 20.48 19.67 20.05 20.06 18.90 16.71 17.51 17.92 17.52
42.35 41.20 42.25 41.22 41.20 39.62 37.49 37.25 32.29 28.11 23.77 26.92 24.35 25.26 26.59 27.95 27.24 27.24 29.20 30.41 31.02 32.42 33.08 28.30 31.74 27.60 23.82 23.53 22.18 24.98 26.60 28.54 28.04 26.57 25.48 25.81 26.33 26.11 26.47 25.32 24.94 24.36 23.40 22.52 22.13 21.59 20.07 19.12 17.28 16.81 16.78 16.81 16.09 15.64
42.20 41.85 42.08 42.43 41.48 36.72 31.46 31.89 33.33 23.25 25.07 27.15 27.58 28.23 27.08 25.87 26.72 27.58 27.80 30.11 30.77 31.13 30.10 27.91 22.05 20.10 19.64 20.91 20.16 22.76 25.26 25.71 24.91 25.68 25.76 24.98 25.18 25.03 24.85 24.56 24.11 23.46 22.77 22.95 22.97 22.09 21.23 20.07 18.96 18.63 18.64 18.07 15.20 15.01
40.80 40.54 40.76 41.26 41.08 34.35 29.24 29.64 34.61 27.26 24.55 25.17 26.49 24.27 24.68 24.45 26.15 25.04 24.64 25.02 25.28 23.63 18.83 17.03 16.62 17.64 18.31 20.21 22.35 22.69 25.03 25.55 26.67 25.97 25.26 25.31 25.47 24.89 24.65 24.12 23.03 22.87 22.05 21.36 21.03 20.53 19.62 19.65 19.87 19.12 17.94 16.22 14.55 12.95
40.38 40.42 41.00 41.65 37.97 35.60 32.68 29.82 27.45 27.45 27.30 24.99 26.69 25.42 22.83 23.68 21.43 20.37 19.30 21.84 17.42 14.52 14.64 16.68 17.73 19.35 22.04 22.33 23.54 23.76 24.75 24.91 23.80 24.03 23.76 23.82 24.89 24.14 23.38 24.10 24.69 23.83 21.67 20.75 19.41 18.96 18.43 16.92 17.44 17.81 16.78 15.42 15.03 14.24
39.13 39.31 41.39 40.49 34.74 33.57 31.00 32.85 29.21 30.45 27.49 26.16 25.87 25.98 23.14 20.22 18.87 17.99 19.53 14.94 13.23 14.91 16.72 17.74 18.57 19.56 20.70 20.19 21.67 22.74 23.31 25.26 25.25 25.71 25.89 25.11 24.28 23.20 22.42 22.39 21.67 20.44 20.47 19.67 18.33 16.55 16.05 15.47 15.02 14.46 13.48 12.96 13.62 13.30
38.50 38.58 35.74 36.29 31.10 29.66 27.94 34.87 28.98 29.21 24.67 23.88 26.05 21.39 20.86 19.62 19.72 21.19 13.92 15.35 15.64 18.70 19.64 20.27 20.57 22.09 21.52 22.21 21.05 20.91 23.43 23.22 22.58 22.93 22.69 23.11 23.11 23.21 22.83 21.91 21.24 18.99 17.40 17.62 18.28 17.09 15.80 16.26 15.49 14.66 14.29 13.54 12.57 12.08
33.07 27.73 26.26 26.81 28.11 24.25 28.64 25.63 28.71 26.46 26.21 23.57 20.93 17.90 18.97 20.16 21.36 16.33 11.04 14.25 16.95 18.82 18.13 19.67 19.86 20.98 21.98 20.31 18.23 18.25 20.42 23.68 21.32 21.06 23.03 21.26 19.17 19.12 19.65 19.29 19.90 19.83 18.95 18.63 18.74 18.40 17.78 16.87 16.47 15.29 14.65 14.42 14.10 12.98
22.73 16.63 23.27 20.39 25.40 23.84 22.10 21.43 22.11 21.56 18.79 19.93 17.47 17.33 18.25 23.30 16.19 13.72 11.47 13.29 15.57 15.62 16.69 18.36 20.15 17.64 16.60 17.75 18.13 18.12 20.71 20.15 17.90 16.29 20.17 20.65 18.92 18.18 17.79 18.53 19.60 20.22 21.28 19.28 18.08 18.04 18.21 18.14 17.75 17.08 16.13 15.24 13.86 12.76
13.96 16.03 17.21 18.54 18.96 19.55 19.78 17.18 17.87 18.30 18.19 15.96 16.34 19.47 21.22 17.54 12.28 9.62 11.24 13.87 15.06 15.32 15.93 16.47 16.95 17.02 15.46 15.71 14.64 14.72 16.24 20.67 19.37 15.77 16.12 17.42 20.76 19.51 17.59 16.12 15.44 16.25 20.59 21.17 19.53 17.59 16.84 16.77 15.96 14.85 13.87 13.26 12.75 12.31
13.71 14.34 16.86 20.84 20.15 20.10 18.12 18.70 19.36 16.71 14.24 13.47 15.23 15.03 15.87 10.16 7.82 11.13 15.32 16.16 15.88 17.66 18.39 18.50 17.67 16.25 15.67 16.52 17.83 17.97 17.80 17.35 16.19 15.77 17.36 17.05 16.96 17.46 17.81 15.39 14.34 17.26 20.07 19.76 19.04 17.19 15.14 13.98 13.27 12.66 12.00 12.55 12.60 12.29
14.74 15.67 10.96 14.38 14.71 16.90 12.64 13.34 12.00 10.82 12.11 14.91 15.68 9.60 8.40 8.59 8.06 13.88 15.61 17.98 19.53 20.46 19.46 19.24 19.20 17.79 16.63 17.21 18.20 18.63 20.04 18.59 17.67 17.64 17.60 17.65 18.40 17.83 16.70 16.43 16.61 17.67 17.73 19.15 18.89 18.30 16.99 15.65 14.11 13.54 12.85 12.00 11.99 13.46
14.67 15.96 13.97 9.71 12.42 11.64 11.59 10.66 10.21 11.53 13.56 15.53 12.64 9.07 8.35 11.85 15.23 15.47 17.16 18.71 19.81 18.54 16.32 16.20 18.36 20.55 18.50 17.14 16.23 16.31 17.12 16.28 18.11 14.06 11.88 11.39 12.36 14.19 18.35 18.38 17.21 16.38 16.27 15.78 16.89 16.94 16.20 15.69 14.46 13.14 12.31 12.18 12.42 12.43
15.44 19.35 12.83 10.82 8.71 7.39 11.68 15.97 13.86 15.36 15.57 14.52 13.48 12.05 11.37 12.48 15.07 18.40 17.63 17.22 16.31 14.78 14.77 15.31 15.84 15.12 14.59 14.73 12.37 11.77 13.47 14.11 14.38 14.88 11.42 10.31 11.88 15.57 16.29 16.26 16.43 17.34 16.63 14.64 12.82 12.25 14.22 12.86 12.94 11.84 11.07 11.38 10.83 9.35
20.78 18.92 14.33 12.99 9.91 12.83 15.05 17.68 18.82 18.07 17.59 16.29 16.69 12.58 10.51 11.80 13.92 15.10 15.22 17.05 16.38 16.39 14.73 12.64 11.77 12.24 11.14 9.76 10.63 10.69 8.63 11.34 11.72 12.37 13.73 14.09 13.98 13.68 13.90 14.63 16.10 16.56 16.02 15.22 14.42 13.53 12.65 12.78 11.92 10.43 10.46 9.99 8.50 9.06
19.06 14.75 12.37 8.85 10.32 15.29 18.06 18.84 17.18 16.20 16.30 15.15 13.95 14.67 14.88 15.17 10.33 11.59 13.10 15.83 14.04 12.04 10.69 11.15 9.39 8.55 11.09 11.43 11.52 10.35 8.69 8.64 8.16 7.38 7.29 10.35 11.87 12.60 13.46 13.97 14.40 14.49 13.57 12.92 12.41 11.88 11.89 11.60 11.58 10.75 9.30 7.84 7.95 7.94
17.48 17.30 15.60 14.06 12.50 13.87 15.18 17.61 15.46 14.18 15.58 13.62 12.27 13.54 12.28 12.00 7.48 11.23 14.25 14.73 13.08 11.70 10.89 11.15 11.60 11.02 9.81 9.55 10.96 10.47 8.67 6.66 4.42 5.95 5.11 4.56 2.52 4.20 10.89 11.64 12.73 12.59 12.23 12.26 11.42 10.60 9.93 9.63 9.31 8.46 7.56 6.39 5.42 5.53

GFSWCAN_sfc_wetblb_105.txt.gz
Wetbulb
40.50 41.16 42.22 42.29 42.46 42.29 41.87 42.21 42.28 42.44 43.00 43.20 43.53 43.72 43.96 43.94 44.29 40.96 36.64 40.47 38.21 33.56 33.44 35.20 35.44 31.51 32.32 32.63 27.20 34.21 31.66 33.70 32.75 27.14 23.18 25.38 24.52 28.87 28.56 31.17 29.72 27.72 23.06 22.76 24.80 19.02 19.58 40.05 40.30 33.66 37.83 40.34 41.22 41.70
40.95 41.67 42.22 42.23 42.14 42.26 41.98 41.97 42.04 42.47 43.11 43.34 43.54 43.49 43.13 43.50 43.87 43.68 34.58 40.05 42.16 36.32 32.94 38.98 38.70 39.21 37.59 35.84 33.13 34.80 33.31 33.97 34.05 30.97 32.18 31.15 27.51 29.28 29.65 25.20 34.03 28.05 30.89 28.26 26.86 26.67 38.84 41.56 40.23 43.15 41.84 39.88 40.39 40.25
41.74 42.06 42.23 41.92 42.09 42.00 42.06 42.11 42.40 42.89 43.24 43.35 42.91 42.85 42.81 43.75 44.04 43.11 36.46 37.15 38.30 34.92 31.63 33.15 32.52 38.50 40.86 39.39 39.86 30.58 33.71 36.74 33.93 36.63 32.57 32.22 29.06 33.05 26.45 29.16 30.66 34.21 37.62 33.49 33.92 37.35 38.57 41.51 43.30 43.07 40.92 39.69 40.95 42.53
41.81 41.87 41.84 42.04 42.06 41.86 41.86 42.08 42.37 42.67 43.05 43.45 43.61 43.68 43.57 43.34 44.06 44.04 39.29 38.74 36.83 36.56 27.58 30.27 40.04 36.54 41.04 40.59 39.49 39.43 37.49 38.23 36.88 34.61 30.30 30.14 28.17 33.15 28.72 31.08 30.75 34.26 36.35 34.00 34.74 38.07 40.53 41.74 42.42 42.75 42.33 42.22 42.26 45.48
41.66 41.47 41.46 41.58 41.83 42.14 42.16 42.13 42.43 42.65 43.13 43.47 43.36 43.81 43.85 44.00 44.26 42.84 40.76 39.89 40.52 35.03 28.28 30.85 37.39 40.24 41.70 40.77 39.47 38.75 37.56 35.52 34.91 33.49 31.50 31.36 34.14 33.13 33.64 33.15 30.77 37.25 35.48 32.81 33.07 38.96 38.72 39.81 42.33 43.61 41.96 43.34 45.21 45.06
41.48 41.54 41.60 41.78 41.90 42.11 42.22 42.32 42.53 42.95 43.20 43.20 43.68 44.10 44.20 44.42 44.68 40.76 34.46 40.10 41.98 40.51 33.72 26.02 37.18 38.38 40.70 40.96 38.99 38.47 38.03 35.67 35.96 35.43 34.18 35.12 37.71 34.52 28.42 28.21 36.14 38.58 39.76 40.35 37.48 42.38 41.84 42.07 43.40 44.54 43.89 42.31 40.77 38.81
41.13 41.65 41.62 41.91 42.25 42.65 42.79 43.00 43.15 43.55 43.60 43.93 44.14 43.85 44.62 44.58 41.79 36.55 34.38 39.50 43.27 41.63 32.48 27.93 28.91 35.75 38.09 38.41 38.97 37.85 38.82 37.86 35.39 35.40 33.64 34.26 33.95 35.71 31.47 27.29 34.96 37.71 39.32 39.91 41.37 41.09 39.91 42.21 41.15 44.50 41.61 38.78 37.59 34.84
41.40 42.26 42.78 43.55 43.92 43.78 43.64 43.56 43.89 44.20 44.71 45.14 44.72 44.40 44.61 44.83 43.21 38.54 40.31 45.29 44.00 37.39 35.47 28.36 27.33 32.48 40.09 35.02 33.98 38.87 36.08 36.96 36.44 35.66 35.52 33.64 34.65 33.59 29.01 35.02 37.63 39.44 39.94 39.75 40.19 43.36 42.44 43.13 43.73 44.42 42.76 39.40 34.95 31.90
42.27 43.33 44.10 44.20 44.22 44.27 44.40 44.48 45.20 45.62 46.20 45.50 44.91 44.55 43.43 40.66 33.91 37.53 44.17 45.02 43.27 37.75 30.10 30.16 26.01 24.94 38.90 36.47 37.32 36.47 36.88 31.33 36.27 32.15 32.69 32.82 29.43 27.58 33.46 35.36 35.50 38.22 38.80 39.77 41.57 41.83 41.86 41.53 40.62 42.43 42.42 37.71 32.70 29.78
42.83 44.77 45.00 44.71 45.03 45.16 45.13 45.01 45.04 46.28 46.25 44.94 41.87 33.93 29.69 34.84 44.53 43.31 38.96 35.35 33.02 34.05 35.76 30.06 32.20 24.50 35.13 33.82 33.77 32.10 33.41 29.55 23.14 29.97 34.47 27.53 28.15 34.33 35.61 35.02 34.95 35.02 36.64 37.68 35.86 35.38 36.85 37.00 37.86 38.64 39.42 38.73 33.10 29.12
44.36 44.13 44.52 44.63 44.90 44.97 44.97 44.96 45.58 45.71 42.74 37.48 32.45 33.35 38.84 44.24 38.96 34.26 29.82 29.59 30.91 29.30 31.68 32.80 32.56 29.13 36.63 30.03 29.65 31.48 27.25 27.83 23.34 27.45 27.58 27.20 28.43 30.90 34.05 34.04 34.74 32.93 33.15 34.56 34.76 35.08 35.56 34.77 35.05 36.14 34.39 31.37 28.97 26.65
43.04 43.50 43.87 44.13 44.84 44.71 45.15 45.03 44.41 40.13 37.98 38.59 40.00 42.31 40.95 36.34 32.45 29.98 28.07 29.14 28.64 26.06 32.06 30.61 32.02 34.41 34.04 37.76 31.40 30.14 24.56 28.33 21.64 32.04 28.72 24.54 27.25 29.80 30.61 30.74 32.47 29.90 29.64 30.51 31.50 31.59 31.58 31.16 32.32 30.58 28.35 25.91 24.26 23.52
43.23 43.14 44.50 44.81 44.56 44.73 45.04 44.88 43.20 42.84 43.83 42.17 38.59 33.67 33.49 31.71 26.34 23.44 21.65 25.49 23.27 29.47 31.57 30.73 31.20 31.70 32.99 34.30 31.45 29.11 24.63 21.45 29.76 19.77 22.88 24.59 27.15 28.31 28.38 28.62 29.11 29.69 27.98 27.34 27.07 27.72 27.85 27.21 28.46 27.97 25.55 24.84 23.68 21.63
42.18 43.20 44.88 44.92 44.67 44.60 44.82 43.66 44.46 43.90 40.49 33.77 31.63 27.79 28.94 24.71 25.33 26.55 26.96 28.87 31.81 32.21 30.66 31.68 27.85 28.42 28.32 28.33 30.03 24.56 23.87 29.63 24.77 20.65 20.25 24.22 25.31 25.90 27.11 27.19 26.37 25.81 25.82 25.24 24.18 24.14 24.23 23.96 23.38 23.35 22.64 22.32 20.73 19.47
42.33 42.69 44.91 44.42 44.39 44.55 44.26 43.21 42.11 40.93 35.76 30.08 29.26 23.73 24.71 28.21 30.71 31.63 32.40 31.79 31.88 31.17 30.88 29.64 29.97 28.99 26.92 25.41 28.33 25.34 25.62 22.65 23.04 16.77 22.48 24.43 25.17 24.82 25.57 25.73 24.88 24.21 24.13 22.37 20.83 16.93 17.77 20.22 19.82 19.60 20.65 20.81 19.81 18.61
41.33 41.26 40.62 42.35 42.20 42.05 41.59 40.70 39.01 36.54 31.40 27.70 26.13 26.60 28.97 28.12 27.39 29.26 29.77 28.70 30.92 31.95 32.27 29.79 30.13 27.36 19.81 23.72 24.42 22.80 21.20 16.75 16.93 22.62 22.66 23.00 24.86 25.07 24.28 24.23 23.73 21.87 16.84 14.29 13.36 15.41 13.98 14.62 17.17 17.11 17.84 18.00 17.54 17.08
42.27 38.54 40.48 40.72 41.08 41.62 40.78 37.27 33.96 29.84 27.98 24.36 22.97 25.99 27.89 26.38 24.76 26.32 27.82 28.07 30.76 31.59 29.72 29.97 25.50 21.02 26.60 21.22 21.61 23.41 16.65 18.00 19.64 20.76 21.50 21.11 21.74 21.81 25.01 22.83 21.86 22.60 19.11 16.15 13.85 14.46 16.84 18.54 17.27 16.46 14.38 15.11 15.53 15.21
38.14 39.36 40.82 40.83 40.50 39.18 36.62 35.90 30.31 27.25 23.30 25.86 21.61 22.70 23.07 24.47 23.74 24.81 27.30 29.22 29.51 29.59 30.84 26.26 28.18 22.54 15.16 17.18 13.57 20.23 21.53 24.96 21.93 19.83 16.72 16.67 18.93 16.48 19.96 17.86 17.95 17.91 18.49 20.06 19.17 17.88 16.83 16.11 14.65 13.64 14.00 14.61 13.96 13.69
39.74 39.83 41.53 41.58 40.40 35.28 29.72 29.68 29.47 22.65 24.35 24.71 25.26 23.31 21.51 20.28 23.82 24.31 23.96 26.99 28.76 25.67 24.16 21.72 13.58 12.53 12.86 16.32 14.68 16.98 19.83 19.76 20.69 21.45 15.80 13.69 15.15 17.11 17.00 18.46 20.06 18.46 18.98 19.39 19.85 18.83 17.87 17.17 16.24 16.33 16.27 14.94 11.83 11.94
41.31 41.90 41.64 41.93 40.84 32.69 27.91 27.07 31.04 25.11 21.69 22.11 21.87 20.74 20.99 22.62 21.67 19.44 20.07 21.26 22.22 20.42 15.53 13.80 11.74 11.11 13.29 15.64 19.00 19.64 21.49 21.83 22.55 21.07 22.21 18.90 17.01 16.38 17.00 18.91 17.33 18.78 19.01 18.91 18.35 18.84 17.91 17.10 16.76 15.57 14.44 13.04 11.29 10.55
40.37 39.33 40.57 40.31 35.87 34.36 30.44 26.50 26.06 25.86 26.21 23.32 23.46 22.55 18.76 20.24 17.44 15.62 15.60 19.36 14.48 12.53 11.45 13.60 13.80 15.60 18.59 19.16 20.95 21.88 21.77 21.86 21.70 21.59 20.48 21.67 20.78 19.70 18.93 22.10 22.83 21.39 18.85 18.44 16.30 15.44 15.04 14.47 15.21 15.07 13.33 12.22 12.19 11.76
36.74 39.98 38.46 38.25 31.47 31.03 28.69 30.01 27.01 27.78 25.42 25.20 24.58 24.82 19.36 14.63 13.92 14.93 18.36 12.85 11.79 13.37 15.37 16.10 17.15 18.23 19.95 18.20 18.61 19.85 21.33 23.87 22.98 22.49 22.06 21.81 20.45 20.74 19.70 19.70 19.29 17.91 17.67 16.41 15.38 13.01 12.69 13.44 13.17 12.73 11.51 11.33 12.42 12.11
38.21 37.02 33.39 32.61 26.68 24.51 25.70 32.83 27.27 27.49 21.62 21.29 24.19 19.97 18.13 15.48 16.99 20.31 12.50 14.24 14.74 17.95 18.45 19.76 19.91 21.08 20.58 20.06 20.03 19.49 20.40 20.86 19.44 19.65 19.96 18.73 18.36 19.37 19.77 19.47 19.06 16.53 14.88 15.27 15.52 14.00 12.89 13.67 13.32 12.30 12.16 11.81 11.26 10.76
31.81 25.79 24.70 24.65 25.72 21.77 25.30 22.35 26.97 25.32 23.99 21.25 19.12 16.20 17.85 17.91 19.63 14.29 9.94 12.68 14.73 17.34 16.89 18.01 18.22 19.25 19.39 18.30 16.13 16.32 18.44 19.86 18.53 18.38 19.33 17.84 16.31 16.72 17.89 18.10 17.87 17.70 17.20 17.02 16.38 15.23 14.87 13.45 13.18 12.48 12.16 11.45 11.11 10.35
17.30 13.56 18.76 14.39 21.26 19.01 17.48 19.36 21.18 19.96 17.71 18.66 16.80 15.75 17.77 22.16 14.22 11.66 9.52 12.46 13.12 13.66 15.05 17.18 16.32 15.18 14.06 14.38 14.65 15.33 16.70 19.02 16.37 13.40 15.38 17.94 16.79 15.92 15.93 17.42 18.47 19.23 19.64 16.70 15.33 15.29 14.96 14.75 14.05 13.75 12.84 11.84 10.86 9.57
10.26 14.01 13.41 15.46 16.19 15.95 17.66 14.11 14.27 14.45 13.06 10.51 13.54 16.78 17.65 12.03 6.93 5.24 9.03 11.53 11.54 13.04 13.31 14.13 14.82 14.29 13.28 14.29 12.82 12.75 13.68 17.57 16.03 12.63 13.69 15.20 17.77 17.23 15.63 14.33 14.13 15.66 19.82 19.13 17.20 15.57 14.93 14.70 13.55 12.53 11.70 11.35 10.58 9.24
7.32 9.51 16.20 20.89 19.32 19.53 14.68 15.45 16.61 11.61 8.60 9.31 11.05 9.15 10.20 2.35 2.10 9.25 13.02 15.03 14.39 15.21 15.95 16.53 15.96 14.50 13.74 14.74 16.31 15.49 15.72 15.97 14.81 14.50 15.86 15.44 15.27 15.12 14.60 12.80 12.61 15.95 18.47 17.43 16.22 14.42 12.60 11.71 10.86 10.49 10.04 10.30 10.10 9.49
12.49 14.28 5.67 10.84 11.89 14.75 8.31 8.25 6.60 6.31 7.95 12.12 11.77 3.25 0.09 2.40 4.40 11.57 12.88 15.42 18.65 19.20 17.63 17.39 16.29 15.35 14.05 13.45 14.34 14.69 15.62 14.97 14.21 15.80 15.75 16.22 16.71 15.59 15.17 15.00 15.93 17.56 16.50 17.55 16.29 14.86 14.02 12.66 11.47 10.80 10.31 9.53 8.77 9.40
8.95 12.91 11.62 4.81 7.41 9.14 9.31 6.90 7.84 10.88 13.02 13.08 6.92 4.47 4.39 11.13 12.61 12.96 15.48 15.28 16.33 14.94 13.05 12.59 14.78 16.24 13.96 12.53 11.63 11.35 11.70 12.94 13.99 9.07 7.85 8.34 9.33 11.89 16.46 15.18 13.96 13.88 13.96 14.08 16.75 15.38 14.03 13.13 12.19 11.12 10.48 10.18 9.57 8.97
12.27 15.96 7.65 3.70 2.46 4.38 11.30 9.49 5.66 5.73 10.55 9.43 10.10 9.85 8.86 7.43 11.88 15.22 14.18 14.10 11.60 8.26 7.73 9.91 10.24 8.64 8.17 9.34 7.52 7.43 9.21 9.04 8.55 9.57 7.31 7.49 9.14 12.67 13.70 13.73 14.11 12.35 10.51 9.19 8.86 9.65 13.07 9.40 9.81 6.81 7.33 7.67 4.31 4.22
17.30 12.99 7.54 6.92 6.44 8.11 9.59 14.34 15.01 14.37 11.45 8.09 5.89 3.83 2.68 4.30 5.79 8.75 9.30 10.09 9.29 9.87 4.76 2.12 5.55 7.28 5.96 4.85 4.98 4.75 3.56 5.91 5.36 4.69 7.23 10.51 10.69 10.48 10.49 11.16 12.77 12.92 11.44 10.20 8.40 5.79 6.03 6.05 3.09 2.85 4.38 3.99 1.22 0.05
11.52 5.93 2.84 2.01 6.78 12.84 15.68 14.23 10.51 8.26 9.75 5.78 2.94 4.03 6.59 6.74 0.91 2.00 7.29 11.40 3.34 1.44 0.46 -0.57 -3.08 1.25 2.46 0.77 1.28 2.57 1.79 1.10 2.11 1.73 1.02 0.69 0.56 2.13 9.27 10.11 9.11 8.18 5.86 5.29 2.98 3.08 3.14 3.60 3.55 0.28 -2.04 -5.41 -4.75 0.06
11.30 10.33 8.02 5.62 3.87 5.86 8.09 10.64 6.85 6.91 6.44 3.08 0.73 1.76 -0.76 0.24 -2.16 3.06 5.47 4.31 3.85 1.01 0.87 1.06 1.02 0.01 -1.49 -1.26 3.34 -1.20 -3.81 -6.70 -5.05 2.02 0.03 -0.70 -3.78 -2.87 -3.35 -3.25 0.06 3.99 4.81 0.06 -2.30 -2.85 -1.33 -2.09 -5.44 -4.04 -3.49 -7.86 -9.68 -10.65

GFSWCAN_sfc_wetblb_108.txt.gz
Wetbulb
41.04 40.96 40.82 41.10 41.69 42.32 41.73 42.11 42.04 42.23 42.54 43.08 43.19 43.87 44.33 44.18 43.96 39.49 35.07 38.43 37.31 33.18 30.76 33.67 33.89 29.21 28.99 29.68 26.18 31.66 29.07 32.26 30.57 22.12 24.43 23.73 23.23 26.98 26.90 29.87 28.28 27.56 24.58 21.74 24.16 16.95 18.38 39.00 38.69 32.71 35.97 38.74 39.56 39.46
40.54 40.27 40.85 41.68 42.12 42.40 41.73 41.69 42.12 42.71 42.56 42.76 42.77 43.34 43.15 43.49 43.83 43.08 35.67 38.21 39.65 35.18 32.50 37.08 37.77 37.76 36.51 35.00 31.21 32.28 30.25 33.27 33.17 27.30 28.08 27.50 27.55 28.33 28.71 24.19 33.35 27.26 31.31 26.05 24.68 25.57 36.35 39.98 39.39 41.61 40.92 38.81 38.71 38.32
40.20 40.95 41.41 41.84 41.89 41.71 41.91 42.00 42.47 42.30 42.36 42.23 42.43 42.57 42.95 43.36 43.26 42.13 37.23 36.33 35.96 34.37 32.57 31.64 31.78 36.59 39.34 38.06 37.71 29.12 31.12 35.92 34.59 36.06 30.60 28.13 25.27 30.49 24.68 27.16 29.45 33.30 35.70 32.68 31.56 35.11 36.67 40.31 42.34 42.90 42.60 38.70 39.14 40.93
40.33 41.08 41.28 41.84 42.30 42.16 42.00 42.17 42.10 42.10 42.51 42.78 42.94 43.37 42.94 43.18 42.92 43.03 39.07 36.61 35.48 33.21 29.12 27.07 37.75 35.10 39.02 38.12 37.08 36.95 34.95 35.50 34.82 33.17 29.21 28.42 25.26 32.69 28.03 30.07 30.14 33.21 34.45 33.14 33.71 35.15 37.57 40.00 42.08 42.38 41.27 41.16 40.62 42.36
40.42 41.07 41.32 41.93 42.01 41.67 41.92 42.23 42.26 42.23 42.47 42.47 42.60 43.12 43.21 43.55 43.47 42.67 40.54 39.67 37.90 32.06 26.57 27.95 34.18 37.15 38.38 38.13 36.66 36.60 35.89 34.47 32.23 31.35 31.31 28.49 31.68 30.27 30.99 32.61 30.99 36.97 34.37 30.57 30.15 37.28 37.58 38.26 41.71 42.41 40.89 41.46 43.23 39.95
41.15 41.23 41.46 41.70 41.78 41.70 41.80 41.80 42.27 42.47 42.54 42.90 43.08 42.89 43.18 43.60 44.19 40.72 34.28 39.69 39.56 39.10 32.98 25.35 33.05 35.34 38.17 38.46 37.43 36.50 35.98 34.51 33.60 32.34 32.73 34.30 35.60 33.00 29.02 28.71 35.25 37.67 38.03 37.20 35.72 40.68 39.90 40.88 42.40 43.24 40.26 38.77 37.68 36.02
40.87 40.67 41.03 41.45 41.83 42.06 42.12 42.31 42.48 42.69 42.86 43.08 42.78 42.57 42.72 44.11 42.47 36.58 32.19 35.68 42.27 39.70 31.93 25.55 26.23 34.89 37.90 36.24 36.94 35.77 37.42 36.52 34.92 32.72 32.46 32.13 32.66 35.02 29.36 25.98 34.09 36.91 38.20 39.08 40.74 40.22 39.55 40.91 40.01 40.16 37.77 34.79 34.17 32.31
40.47 40.62 41.10 41.45 41.75 42.07 42.33 42.55 42.84 43.11 43.31 43.49 43.38 43.32 43.69 44.39 42.46 37.95 40.52 44.38 42.63 37.27 35.41 26.41 25.88 30.50 38.05 32.96 32.72 37.88 36.61 36.94 35.25 33.74 35.30 33.21 34.22 32.72 28.63 33.35 34.48 35.67 38.72 39.65 40.41 41.82 41.35 41.35 42.09 39.95 38.89 35.82 31.60 29.02
40.73 40.96 41.15 41.63 42.11 42.76 43.12 43.83 44.24 44.09 44.16 44.29 44.46 44.02 42.63 40.49 35.88 37.42 44.18 44.44 42.44 37.32 27.73 27.50 24.95 22.92 37.12 35.67 36.79 36.83 37.37 30.57 36.62 31.43 33.33 33.98 30.47 28.91 31.50 31.03 30.99 32.10 32.44 33.63 38.18 37.52 37.94 37.77 38.33 41.17 38.56 34.69 30.11 27.68
41.09 41.22 41.96 41.98 42.54 42.92 44.59 44.54 44.67 44.67 45.03 45.87 42.17 32.49 29.32 34.85 43.10 42.81 37.22 34.87 32.65 33.00 34.43 28.52 31.08 25.11 34.12 31.02 33.53 32.11 33.80 28.37 28.30 30.34 34.11 29.88 29.50 33.80 33.30 32.44 30.21 30.00 30.86 31.96 31.72 30.85 32.21 32.32 34.33 36.28 33.81 33.83 30.24 26.71
40.87 40.93 41.64 42.26 43.70 44.83 44.82 45.06 45.34 45.54 42.76 37.36 32.27 33.17 37.69 43.83 38.89 34.80 29.08 29.04 27.30 27.73 31.02 31.25 29.92 26.47 33.54 27.10 26.81 33.11 25.55 27.62 22.52 26.23 27.54 27.40 27.94 29.51 31.53 31.16 30.20 28.99 29.01 29.93 30.07 31.22 30.61 30.59 30.62 32.74 29.27 28.05 26.57 25.08
41.14 42.58 43.98 44.50 44.84 44.83 45.14 44.97 43.99 40.37 38.56 38.49 39.33 41.71 40.65 36.33 32.27 28.51 26.56 28.27 27.95 25.25 27.99 28.04 29.37 31.30 29.63 34.29 27.74 28.79 23.60 24.88 19.18 31.04 29.02 25.65 25.57 27.71 28.26 28.01 29.29 27.72 27.27 27.57 28.29 27.15 27.80 28.03 29.87 28.38 27.57 26.09 25.12 24.17
43.64 43.57 44.31 44.62 44.69 45.12 45.14 43.73 43.23 42.89 43.47 41.55 38.35 33.45 33.14 30.98 25.45 23.03 21.94 21.10 22.81 25.73 27.09 27.47 28.20 30.14 31.89 31.87 30.77 28.63 19.79 18.68 27.23 16.26 22.46 22.83 25.18 26.11 26.18 26.46 26.68 27.24 26.22 25.33 24.60 24.80 24.82 25.07 25.93 26.59 24.79 24.29 23.82 21.83
42.64 43.28 43.90 44.58 44.65 44.89 43.73 43.39 43.91 43.71 39.91 33.59 31.45 26.84 26.01 22.96 25.96 23.91 25.32 26.41 28.63 26.45 29.84 29.31 29.65 30.05 27.63 25.82 25.31 16.45 22.36 28.41 23.25 15.02 18.63 22.01 23.51 24.65 24.99 26.36 24.79 23.77 24.13 19.80 20.02 20.97 21.00 21.62 21.64 22.18 21.86 21.83 20.84 19.95
44.43 43.87 44.60 44.53 44.80 44.07 43.68 44.10 42.12 40.14 35.08 29.93 27.98 19.18 19.78 27.84 29.62 30.61 32.20 31.49 31.00 28.01 28.71 28.40 28.48 27.98 28.93 24.18 28.28 24.25 24.56 21.55 20.99 13.75 17.13 22.03 22.97 23.84 23.83 24.29 22.43 21.74 17.83 16.26 13.47 11.01 11.67 14.05 16.49 18.57 19.66 19.99 19.30 18.14
42.68 44.19 43.55 44.60 44.41 44.21 42.22 39.58 38.15 35.41 31.09 26.08 22.96 23.02 28.90 27.84 26.66 28.61 29.19 28.54 30.39 29.51 31.92 29.14 27.84 22.87 19.30 18.90 24.28 23.19 21.80 16.46 12.81 15.94 18.82 20.50 21.05 20.70 22.32 21.77 20.89 17.47 13.56 9.38 6.51 8.14 9.17 10.55 11.81 14.90 16.64 16.48 16.33 16.23
40.47 37.84 41.77 41.68 41.48 41.11 40.06 35.08 33.88 30.26 27.30 22.23 21.36 24.54 26.08 24.71 23.74 25.25 26.99 27.31 30.54 30.89 28.26 29.94 24.47 18.99 23.68 23.86 19.51 21.34 11.29 14.87 18.44 16.66 17.85 17.06 18.45 17.44 18.77 18.30 17.30 17.63 14.22 12.27 10.11 13.20 11.65 12.85 12.92 13.02 11.05 12.44 13.20 13.05
37.86 40.17 41.38 41.56 40.59 38.31 36.32 34.91 29.85 26.98 22.52 24.11 19.83 20.67 21.79 21.29 21.00 22.35 23.61 26.97 28.26 29.59 29.10 24.45 25.53 16.74 9.08 11.50 7.69 13.11 18.43 22.16 21.06 19.03 14.87 14.03 14.96 12.98 16.47 13.22 11.98 13.36 13.47 12.60 13.24 12.73 11.25 10.04 11.36 11.51 12.27 13.03 12.75 12.12
39.64 39.87 41.40 41.60 39.65 33.64 30.70 29.90 29.30 22.22 23.32 23.64 23.34 22.92 20.90 17.64 19.91 19.19 20.72 23.09 25.42 24.46 23.77 16.84 7.94 6.51 6.83 11.49 10.20 12.35 15.09 16.77 18.00 19.29 17.04 12.07 11.26 13.77 14.84 14.97 13.93 11.70 13.21 14.50 15.33 15.71 12.13 11.55 13.80 14.44 13.77 12.85 10.39 10.71
41.31 41.39 40.87 40.86 39.64 29.88 27.10 27.16 30.70 24.58 19.98 21.36 22.39 19.17 18.35 18.48 15.84 15.08 17.35 18.49 19.55 16.69 12.15 8.71 6.05 6.93 8.42 11.45 15.26 16.34 18.17 18.86 20.80 18.00 16.88 13.68 11.98 12.75 13.04 15.68 12.88 13.59 17.26 17.40 16.04 16.65 15.49 14.11 13.96 13.69 13.11 11.84 10.43 9.53
39.43 39.26 40.91 39.58 34.10 31.76 26.46 24.15 24.14 24.29 24.42 19.27 21.36 19.72 14.35 17.70 14.08 12.45 12.64 17.53 12.79 11.16 9.36 10.71 10.88 11.94 14.26 16.67 18.31 19.83 19.86 20.84 20.61 21.09 19.88 20.40 16.72 18.08 16.89 18.50 19.62 15.82 13.68 13.95 13.45 13.01 13.09 12.94 13.07 12.99 11.64 10.65 11.16 10.92
36.20 40.02 36.66 36.39 30.77 30.18 27.86 27.68 24.06 24.00 22.70 21.13 22.70 21.39 11.75 9.48 8.82 11.26 17.21 10.70 9.93 11.42 12.88 13.59 14.84 15.56 16.99 15.96 17.59 18.47 19.21 21.96 20.82 19.78 18.76 19.12 17.46 17.71 16.77 16.66 16.56 14.80 14.85 14.16 13.33 11.71 11.53 12.31 12.14 11.63 10.53 10.66 11.75 11.61
35.93 35.59 31.19 30.22 25.62 23.81 23.10 32.11 24.96 25.09 17.65 18.31 21.91 16.98 13.19 12.54 14.51 19.61 10.15 12.67 13.07 16.57 17.37 18.20 18.49 19.80 17.83 17.90 18.29 17.24 18.46 18.83 17.57 17.66 15.88 16.55 16.64 16.74 15.94 15.44 15.74 14.09 12.95 13.32 14.42 13.18 12.05 12.82 12.55 11.86 12.03 11.65 11.06 10.58
29.80 23.96 23.30 21.98 22.53 16.46 23.89 22.29 25.97 24.11 22.92 18.20 15.62 13.01 13.90 13.49 17.57 12.33 8.44 10.62 13.86 16.32 15.80 16.57 17.19 17.59 16.58 16.09 14.44 14.43 15.09 17.01 15.70 15.96 17.11 16.11 14.89 14.93 16.29 15.38 15.94 15.70 15.76 15.21 14.18 13.42 12.90 11.73 12.00 11.48 10.97 9.84 9.88 9.48
16.70 13.60 15.95 11.78 18.00 14.97 14.03 15.83 17.51 17.94 14.76 17.64 14.79 13.50 17.63 20.28 11.57 9.04 7.82 10.36 11.30 11.45 13.18 15.84 14.18 13.65 12.39 12.36 13.06 13.25 15.43 16.32 14.30 12.67 13.82 17.04 16.19 15.78 15.36 16.75 17.18 16.85 17.59 14.69 13.19 12.42 12.14 12.49 12.28 11.90 11.17 10.02 9.58 8.26
7.84 9.82 9.49 8.77 10.08 12.17 15.57 11.66 11.56 10.13 10.12 7.55 10.87 14.36 13.39 6.73 2.23 2.49 7.71 8.39 6.70 10.62 10.12 11.64 12.19 12.51 12.33 13.13 11.30 11.30 12.39 15.37 14.82 11.75 12.65 14.42 15.90 15.08 14.13 13.51 13.66 15.00 19.00 17.47 15.88 13.67 12.98 12.79 12.08 10.94 9.92 9.55 8.79 7.47
1.71 2.06 14.00 18.97 17.75 17.12 10.05 11.20 13.23 6.99 2.68 3.42 4.73 4.91 3.73 -4.01 -1.78 6.52 12.45 14.12 13.31 12.61 13.31 14.35 14.65 13.21 11.75 11.56 13.84 14.65 15.00 15.36 13.83 13.37 15.16 15.03 14.84 14.67 12.97 10.65 10.56 14.36 17.31 16.15 14.84 13.58 11.91 10.89 10.36 10.17 9.22 9.33 9.03 8.38
11.48 9.71 1.32 5.20 8.53 12.07 5.02 4.32 1.78 0.76 3.15 10.70 7.07 -2.93 -5.77 -3.78 1.44 9.94 11.09 13.70 17.20 16.58 16.61 14.81 13.94 12.93 11.17 10.57 10.67 10.85 12.03 13.80 13.50 14.22 14.89 14.98 14.72 13.55 13.02 13.55 14.93 17.11 15.74 14.19 13.01 12.91 11.92 11.06 10.57 10.27 9.67 8.73 8.01 8.91
2.01 7.85 6.81 -1.23 3.39 5.83 4.96 0.93 3.79 7.83 10.17 9.35 -3.84 -4.86 0.92 9.61 9.71 12.26 9.90 7.37 10.02 11.38 8.45 7.29 9.35 8.75 10.26 9.85 9.06 8.38 7.91 11.48 10.47 6.83 6.50 6.77 7.79 10.48 13.50 12.77 12.16 11.60 11.45 14.14 16.93 13.62 12.86 11.51 10.62 9.74 9.37 8.83 8.01 8.55
5.12 9.14 2.98 -1.23 -0.93 2.91 3.65 0.08 -1.52 -4.16 4.89 4.77 8.56 8.23 6.77 5.24 7.72 9.26 9.95 6.97 5.19 1.63 -3.41 -1.24 0.72 3.40 4.11 3.30 2.44 4.18 5.24 5.25 3.75 3.12 3.12 3.15 5.49 9.35 10.71 11.50 8.38 5.93 7.41 8.34 8.57 9.98 13.11 9.76 11.12 8.01 5.89 4.91 4.82 4.72
11.05 5.49 3.08 3.89 4.73 4.64 2.19 1.92 3.90 5.06 -1.25 -1.92 -6.06 -3.97 -3.26 -0.18 4.06 6.81 7.73 2.36 2.37 -3.53 -1.38 -3.08 -0.57 -2.87 -1.62 -1.30 -3.23 -1.86 -1.49 2.26 1.42 1.94 2.85 3.28 3.09 4.16 7.34 8.25 8.10 8.00 6.87 5.56 4.84 4.21 2.85 2.11 2.64 2.14 1.74 1.50 -0.58 -0.86
-1.05 -5.67 -3.61 -0.56 4.24 5.82 4.30 2.56 -2.35 2.07 -2.68 -4.33 -3.23 -9.03 -2.50 -3.49 -6.49 -1.11 6.90 -1.88 -2.59 -5.61 -10.66 -11.93 -8.12 -4.50 -8.30 -9.21 -11.02 -9.57 -6.13 -6.85 -5.95 -5.59 -4.89 -5.25 -4.72 -2.92 -0.49 0.97 2.37 2.15 4.18 3.71 2.81 2.74 2.69 1.23 0.80 -1.52 -4.39 -5.59 -3.79 -5.14
3.82 5.88 -3.96 -1.47 0.16 0.76 3.11 2.87 -1.07 1.89 -3.05 -7.94 -2.00 -5.04 -6.49 -7.30 -7.24 -0.64 0.50 -4.69 -3.88 -4.50 -6.49 -8.30 -10.66 -11.75 -7.94 -5.97 -9.46 -12.30 -11.75 -13.56 -10.12 -1.05 -3.23 -4.86 -9.03 -9.21 -13.62 -11.82 -7.62 -5.59 -2.94 -4.61 -7.27 -5.40 -4.15 -4.19 -7.76 -9.23 -11.08 -13.92 -16.46 -17.19

GFSWCAN_sfc_wetblb_111.txt.gz
Wetbulb
42.82 42.40 41.85 41.98 41.25 41.12 41.54 41.60 41.78 42.12 42.48 42.82 42.99 43.53 43.71 43.60 42.98 40.06 34.54 39.02 35.54 31.93 30.53 32.02 32.34 28.90 28.55 27.97 24.67 27.76 24.76 27.92 26.33 25.86 21.05 23.06 23.79 27.32 27.28 28.70 27.43 26.07 24.48 23.25 23.85 16.13 16.11 36.97 37.20 32.06 36.68 40.34 40.69 41.12
42.39 41.70 41.33 41.79 41.80 41.67 41.12 41.70 42.26 42.16 42.54 42.77 42.63 43.14 43.06 42.40 42.82 41.93 35.91 38.54 39.54 34.62 30.14 35.39 36.38 37.18 35.45 34.04 30.46 30.10 27.50 30.93 30.62 26.16 26.79 26.68 24.49 27.73 25.85 22.94 32.71 24.73 29.56 27.11 25.72 23.68 34.43 38.17 39.00 42.17 42.92 38.87 38.47 37.66
41.72 41.63 40.98 40.90 41.59 41.93 41.49 42.00 42.48 42.50 42.55 42.80 42.55 43.05 42.73 43.11 43.16 41.74 35.97 38.88 38.50 34.04 29.40 29.37 29.86 35.02 38.35 37.76 37.37 30.24 30.36 33.62 33.25 35.43 30.44 27.85 23.14 27.73 22.29 26.28 28.26 31.88 34.79 31.83 30.42 33.79 35.52 38.69 40.80 42.59 43.15 40.90 39.46 40.90
41.48 41.18 41.05 41.18 41.33 41.80 41.80 42.25 42.46 42.61 42.37 42.17 42.24 42.35 42.44 43.05 43.37 43.00 38.54 38.78 37.79 32.41 27.31 27.06 35.70 33.58 37.31 36.50 36.53 36.85 34.11 34.40 34.39 34.52 29.24 26.74 25.21 30.66 28.33 29.60 28.79 31.85 34.53 31.57 33.90 34.38 36.31 38.44 39.42 39.95 40.79 41.95 39.97 38.63
40.84 40.68 40.92 41.02 41.63 41.81 41.98 42.37 42.30 42.34 41.82 41.50 41.57 42.09 42.26 42.95 43.17 41.66 41.32 40.08 38.94 32.26 24.24 26.65 32.41 35.62 36.91 36.28 35.63 34.59 33.78 31.57 29.87 31.11 30.68 27.54 30.24 31.00 29.99 31.48 30.96 35.95 32.72 29.56 28.80 35.35 35.44 36.46 39.90 41.26 39.88 38.29 39.32 37.61
40.32 40.75 40.71 41.01 41.38 41.64 41.77 41.81 41.89 41.90 41.78 42.38 41.73 41.86 42.26 43.00 42.83 40.23 34.04 40.13 40.45 39.38 32.55 24.64 31.17 32.68 35.39 35.93 35.22 33.90 34.35 32.88 31.89 29.52 28.73 33.25 34.72 31.75 28.75 26.86 34.00 35.42 36.89 37.19 35.16 39.68 40.08 41.76 39.86 39.23 36.37 34.89 34.06 32.63
40.30 40.17 40.43 41.28 41.38 41.46 41.86 42.05 41.85 41.84 42.06 42.59 42.72 42.54 42.61 43.15 41.03 35.24 31.45 34.07 41.08 39.38 32.01 26.19 24.44 32.18 36.91 36.39 35.61 34.56 35.42 34.14 33.37 32.89 31.52 29.88 30.85 33.60 29.62 24.18 31.58 32.89 35.07 36.91 38.59 39.90 38.74 40.00 37.22 37.22 35.62 33.55 32.48 30.64
39.99 40.24 40.79 41.06 41.15 41.22 41.49 41.72 41.95 42.28 42.73 42.90 43.16 42.76 42.47 42.54 41.86 38.21 38.11 43.32 41.97 36.72 33.85 25.21 24.23 29.68 36.11 31.58 32.46 36.83 34.03 35.18 34.98 34.31 34.50 32.65 33.98 33.72 28.47 32.14 31.50 31.26 33.33 34.35 35.08 37.18 36.93 38.65 39.82 38.81 37.05 34.02 30.28 27.45
39.98 40.28 40.56 40.78 41.14 41.34 41.39 41.66 42.37 42.73 43.01 43.07 42.80 42.81 41.60 38.98 33.48 37.09 43.94 43.63 40.99 35.47 27.04 26.81 23.63 22.07 35.32 35.05 35.99 36.49 37.38 30.34 35.77 30.63 31.88 33.26 30.77 28.12 30.34 29.57 28.70 28.85 29.35 29.32 32.81 33.16 33.23 32.73 33.35 35.83 36.21 33.17 29.00 26.16
40.19 40.12 40.59 40.66 40.86 41.37 41.66 42.20 42.64 43.46 43.80 44.13 41.45 33.31 29.97 34.97 43.64 42.31 38.40 32.75 32.58 33.26 34.16 27.30 28.45 23.21 33.39 31.93 33.63 31.84 32.37 28.48 27.23 31.15 34.64 30.70 29.22 31.63 31.46 30.34 29.11 28.56 28.87 29.20 28.16 28.30 28.83 28.76 29.43 32.01 30.57 29.08 27.70 25.87
39.66 40.23 40.63 41.01 41.46 42.07 42.30 42.31 42.83 44.01 44.35 33.66 32.01 32.55 37.63 43.43 37.86 34.49 28.12 26.93 28.81 26.83 30.25 30.54 29.63 25.19 32.63 27.74 28.13 32.48 27.20 28.40 22.59 26.49 28.51 27.52 26.54 27.67 29.38 29.52 28.89 27.59 27.63 27.97 28.16 27.96 28.10 28.24 28.77 28.80 27.86 27.43 27.04 26.27
39.88 40.84 41.00 40.98 41.22 41.52 41.87 42.72 43.77 41.39 36.95 37.46 38.89 40.72 40.29 35.97 32.01 27.40 23.97 26.26 26.93 23.88 27.57 28.23 29.99 29.88 27.38 32.03 27.25 30.76 26.85 23.18 18.84 30.52 28.65 24.63 23.72 26.02 26.42 26.37 27.10 26.16 25.33 24.92 25.01 24.65 25.21 25.71 26.35 27.92 27.03 26.16 25.11 23.84
40.28 40.67 40.94 41.29 41.38 41.96 43.24 44.94 43.33 42.56 43.00 41.38 37.62 32.16 31.96 30.05 24.64 19.63 18.17 23.20 24.00 25.32 25.58 28.65 29.55 28.15 32.68 32.48 27.54 29.09 25.51 19.65 26.14 22.72 24.30 21.80 24.29 24.42 24.83 25.65 24.57 25.17 23.85 21.83 21.08 21.78 22.71 23.53 23.19 23.07 23.27 23.73 23.38 21.65
40.53 41.59 43.06 44.47 44.71 44.89 44.05 43.45 43.51 43.35 39.79 33.69 30.96 26.40 25.91 22.41 24.34 23.42 24.71 25.76 26.44 27.11 27.48 26.97 30.37 27.05 26.84 25.34 26.16 22.60 23.01 27.44 22.29 18.51 18.58 20.23 23.02 23.25 24.15 24.23 23.12 21.95 21.14 16.94 17.34 18.57 18.03 18.46 18.41 18.38 17.59 19.58 19.46 19.17
43.33 43.66 44.15 44.44 44.64 44.66 43.55 43.40 43.88 39.61 34.79 29.50 28.53 22.65 23.40 22.00 25.91 30.93 32.06 31.69 30.90 30.16 27.12 27.68 28.91 28.05 27.88 23.39 28.11 22.70 23.44 20.95 19.12 12.13 12.67 21.27 23.39 23.18 22.99 23.35 21.53 20.13 16.03 14.25 12.00 9.61 9.24 10.90 12.87 12.70 16.42 16.97 17.21 16.13
43.54 43.10 42.81 44.28 44.44 43.88 43.66 42.48 38.02 35.78 31.09 25.69 20.90 24.28 27.86 27.94 26.62 27.97 28.93 28.85 30.41 31.12 31.56 30.94 24.53 18.51 23.65 19.92 24.01 22.10 20.70 14.65 8.82 13.11 17.07 19.04 19.55 20.18 19.46 20.56 17.59 13.67 9.64 6.38 5.20 6.98 8.37 8.36 9.27 10.14 12.52 13.76 13.80 13.91
43.38 41.45 44.11 43.98 43.31 42.02 39.85 35.75 33.82 30.09 27.07 20.21 17.24 23.90 24.70 24.03 22.94 24.42 26.01 25.64 30.21 31.18 27.88 26.95 24.47 15.76 22.92 22.71 16.69 17.20 6.36 10.78 17.94 15.83 16.18 16.00 17.13 19.06 12.79 14.31 12.60 12.91 10.38 7.66 6.42 8.30 6.63 6.79 8.69 10.33 8.44 9.81 11.55 11.76
40.54 42.71 42.27 41.63 39.72 37.57 35.22 34.13 29.91 27.08 22.26 22.64 18.51 20.19 19.88 18.48 20.68 20.26 21.68 23.90 27.06 29.32 27.59 23.00 22.34 17.59 9.71 10.40 6.16 8.70 13.72 17.46 18.81 17.24 15.73 13.62 13.63 11.32 14.83 12.07 10.57 10.60 9.78 7.62 7.67 8.57 8.31 7.39 8.67 9.69 9.78 10.92 10.36 10.08
40.18 40.88 41.59 41.48 38.55 34.01 30.29 28.95 29.18 20.97 21.78 22.11 22.32 22.40 20.20 17.98 18.81 18.38 18.98 21.75 23.26 22.52 20.43 14.35 6.80 3.55 3.53 9.22 7.96 10.47 11.95 13.47 14.21 14.12 13.06 9.18 7.68 14.46 10.93 11.57 11.41 8.45 10.32 9.37 10.15 9.49 7.49 10.23 9.65 11.96 11.89 11.12 8.91 9.29
41.22 41.22 41.22 40.65 38.19 30.35 27.88 26.80 30.00 23.88 18.34 19.59 20.96 16.90 17.68 16.50 15.11 13.28 16.24 17.64 18.48 15.51 11.01 8.60 4.52 4.67 6.53 10.99 14.64 15.19 14.66 17.19 17.43 12.24 11.52 13.19 10.14 10.13 10.66 13.24 11.04 10.91 11.85 11.78 12.50 12.14 11.36 11.67 12.87 12.64 11.90 10.09 8.72 8.44
38.71 39.24 40.44 36.92 32.11 30.12 26.68 24.67 23.86 24.08 22.37 17.32 19.92 18.43 13.91 15.66 12.06 11.81 11.49 16.63 11.48 8.45 7.35 7.40 8.46 10.24 13.28 13.53 15.77 18.12 18.59 20.00 17.89 18.49 16.56 14.39 16.38 17.94 12.42 13.08 15.50 14.27 12.31 9.64 10.41 10.26 11.75 11.02 11.25 11.43 9.58 8.22 9.75 10.38
37.93 40.15 36.04 35.53 29.11 27.83 25.04 24.99 23.55 23.16 20.83 19.31 19.16 18.11 7.91 6.31 6.20 7.72 15.68 8.90 8.26 8.84 8.86 10.12 12.40 12.77 13.52 12.45 14.72 16.80 17.58 19.25 18.39 16.97 15.30 16.29 13.34 13.67 12.48 11.46 13.91 10.86 10.98 9.95 12.67 11.01 11.30 12.21 11.90 11.08 9.87 9.96 11.05 10.70
36.46 35.13 30.96 30.16 26.30 23.00 21.67 30.46 21.19 21.55 13.69 15.62 19.28 13.11 9.79 9.61 10.79 17.89 7.21 10.29 9.07 13.12 14.00 13.31 15.96 15.93 15.18 14.34 16.70 14.99 12.46 16.04 14.61 14.63 15.10 13.78 15.60 14.20 11.44 10.25 10.34 10.09 10.26 11.86 13.86 12.78 11.65 12.43 11.95 11.11 11.46 11.27 10.39 9.68
29.66 23.46 22.15 21.62 22.18 18.17 25.05 20.55 25.52 23.02 21.11 16.31 14.00 10.99 11.20 9.96 15.96 10.21 5.33 6.61 10.30 15.04 14.74 14.54 17.19 13.79 13.65 14.01 12.22 12.43 13.37 15.44 14.04 13.19 13.99 13.47 12.77 12.99 12.04 11.31 13.69 14.15 14.07 14.40 13.52 12.34 11.98 11.15 11.40 10.69 10.38 9.65 9.33 8.77
18.27 13.12 15.44 10.90 17.30 13.02 11.35 12.38 13.97 15.08 11.31 13.89 11.08 10.95 13.87 17.55 7.51 6.68 6.13 8.86 10.81 11.00 11.92 13.72 12.95 12.63 10.52 9.95 11.44 12.39 13.82 13.51 10.74 10.42 11.42 14.19 14.57 14.96 14.85 15.82 15.65 15.43 15.84 12.77 11.05 10.65 10.85 11.17 10.98 10.23 10.04 9.16 8.70 7.72
9.95 11.15 9.93 8.98 11.09 12.53 13.49 10.54 10.52 11.42 12.53 11.85 12.45 13.61 11.85 6.45 1.75 1.53 6.82 5.28 4.96 9.28 5.89 6.46 5.75 6.76 9.47 10.78 8.86 9.35 10.65 14.00 13.13 10.37 11.35 13.51 13.53 13.56 12.50 12.11 12.42 13.88 18.03 15.19 12.83 11.18 11.19 11.22 10.25 9.47 8.46 8.33 7.50 5.86
4.30 4.24 13.58 16.84 16.38 14.92 8.32 9.18 11.13 7.18 3.38 3.52 6.77 4.14 1.11 -5.37 -4.94 5.23 11.26 11.69 9.48 10.13 12.42 12.81 12.14 10.02 8.92 8.72 11.15 12.60 13.69 14.05 12.43 12.65 14.37 14.08 13.73 13.60 12.04 9.14 9.09 12.49 15.82 15.50 13.94 12.26 11.34 10.30 9.53 8.97 7.80 7.08 6.65 6.51
11.09 9.63 3.40 4.63 7.19 10.17 1.59 1.71 -1.62 -2.77 2.96 10.81 3.69 -6.62 -9.31 -8.59 -1.16 7.22 6.62 11.49 11.22 13.34 11.71 11.06 10.47 9.70 8.81 8.66 8.49 9.24 10.65 11.23 12.46 11.51 12.58 13.37 13.51 13.23 12.90 12.76 12.78 16.22 13.00 12.62 11.73 10.59 10.15 9.10 8.42 8.40 8.17 7.20 6.82 6.68
1.42 5.51 5.82 -2.36 2.62 3.45 1.38 -4.03 -1.50 5.87 8.35 4.05 -7.38 -8.39 -1.15 4.69 3.64 5.10 7.16 7.84 9.35 7.12 2.38 2.23 2.95 -1.17 2.32 3.35 4.98 5.86 5.40 7.49 6.86 5.24 2.55 1.81 3.86 7.14 10.60 10.28 10.27 11.17 11.40 12.53 16.16 13.59 12.27 10.21 9.27 8.30 7.71 6.84 4.46 4.41
2.81 6.75 1.85 -2.31 -1.05 -0.95 -1.33 -1.20 -3.68 -5.30 3.26 3.26 7.00 6.91 4.44 3.38 6.24 4.77 0.88 1.99 1.20 -3.67 -7.48 -6.57 -4.40 -5.12 -6.39 -3.35 -3.14 0.65 2.37 2.38 2.10 1.75 1.07 0.62 1.68 6.20 7.79 7.50 6.60 6.91 8.33 9.02 8.32 9.55 13.22 9.58 9.02 4.45 3.99 3.00 1.42 0.69
6.54 2.72 1.23 2.92 2.07 -0.25 -2.04 -5.89 -0.30 0.05 -6.05 -5.85 -10.02 -7.51 -3.52 -0.80 2.01 4.48 -1.14 -7.48 -11.47 -12.21 -6.83 -8.58 -6.58 -11.29 -6.69 -7.30 -9.11 -6.95 -6.41 -2.23 -0.95 0.61 0.85 0.58 1.61 2.32 3.55 4.45 5.20 4.35 4.47 3.69 2.52 2.19 1.70 0.53 0.47 1.00 0.99 -0.18 -1.73 -1.43
-3.92 -9.48 -4.58 -2.87 -0.44 0.70 -1.39 -7.30 -7.12 -7.04 -10.92 -8.94 -8.57 -14.55 -8.57 -10.25 -11.47 -5.68 -0.11 -6.34 -10.09 -10.56 -13.64 -16.54 -11.83 -8.39 -13.82 -16.18 -18.18 -16.72 -11.30 -12.92 -11.65 -11.65 -10.75 -10.74 -11.83 -10.76 -5.90 -4.23 -3.19 -1.53 1.08 -0.56 -2.30 -1.91 -2.65 -3.69 -4.40 -3.69 -6.76 -8.93 -10.74 -11.65
-3.99 -4.19 -8.75 -4.23 -1.36 -3.13 -1.94 1.81 -1.70 -2.97 -8.93 -9.29 -4.94 -9.47 -9.84 -10.48 -10.42 -5.28 -1.25 -9.49 -8.19 -9.17 -12.19 -12.74 -14.01 -17.09 -13.47 -13.04 -12.83 -15.09 -14.37 -17.09 -14.55 -5.12 -6.57 -8.02 -11.83 -10.92 -15.82 -16.00 -13.82 -9.54 -5.49 -9.49 -11.65 -10.38 -6.57 -8.75 -13.46 -15.09 -16.72 -17.81 -18.36 -18.18

GFSWCAN_sfc_wetblb_114.txt.gz
Wetbulb
43.57 43.70 43.57 43.15 43.02 42.56 43.22 42.80 42.42 42.20 41.94 42.71 42.64 43.17 43.15 43.56 43.58 40.35 37.21 38.35 35.06 27.56 28.12 30.93 31.55 28.31 27.90 28.05 23.36 26.66 24.19 25.66 23.91 22.61 21.59 23.05 23.27 26.25 26.31 27.63 26.23 25.20 23.40 22.63 23.90 19.01 13.88 35.41 35.31 28.52 36.16 39.72 39.77 40.39
42.98 43.14 43.06 42.79 42.78 42.65 41.88 41.37 41.92 42.35 42.47 42.37 42.67 42.72 43.05 43.07 43.43 42.66 36.76 38.42 39.39 34.24 28.52 33.36 35.40 36.07 34.32 33.32 29.45 29.30 27.52 28.99 25.54 19.24 21.07 25.26 23.00 26.24 25.55 21.38 32.19 23.57 28.48 26.11 26.56 23.89 32.96 36.03 37.74 40.25 40.99 39.51 39.56 37.71
42.58 42.93 42.74 42.28 42.35 42.14 41.66 41.82 42.02 42.25 42.38 42.51 42.60 42.61 42.92 43.02 43.19 42.65 38.19 39.13 38.17 33.49 32.53 29.35 29.83 34.18 36.87 36.65 36.78 27.22 28.79 32.49 31.01 33.64 31.21 28.62 22.86 26.89 22.26 25.39 28.10 31.04 34.18 30.32 30.47 33.62 34.25 35.71 38.94 41.28 40.27 39.12 41.63 41.29
42.38 42.47 42.25 42.12 42.18 41.98 41.75 41.99 42.02 42.48 42.69 42.38 42.28 42.68 42.83 42.94 43.08 42.40 38.54 39.36 37.98 33.96 26.52 26.07 34.04 31.93 35.77 35.47 35.68 35.58 33.10 33.58 33.41 35.01 29.97 27.62 24.62 30.28 26.96 28.39 28.06 32.07 34.32 30.54 31.47 34.50 35.88 38.24 38.93 38.39 39.72 40.77 35.71 35.44
41.48 41.74 41.80 41.63 41.62 41.66 41.47 41.93 42.10 42.30 42.40 42.43 42.21 42.25 42.42 42.25 42.60 41.73 39.95 39.59 39.98 33.55 24.10 25.90 30.80 34.48 35.58 35.11 33.78 34.42 33.52 31.17 29.40 28.02 27.41 27.25 30.28 29.20 30.48 30.00 30.02 33.49 32.18 29.87 28.56 34.89 34.83 36.76 39.61 38.85 36.09 35.43 36.74 34.02
41.43 41.19 41.24 41.02 41.28 41.41 41.45 41.59 41.85 42.30 42.09 41.76 41.49 41.69 41.89 42.29 42.73 39.20 33.11 37.52 39.33 38.95 32.19 23.36 29.57 30.81 33.09 33.40 32.25 32.35 32.87 30.85 32.22 28.58 28.39 30.09 33.30 31.98 27.45 27.25 31.69 32.32 33.36 34.51 33.92 36.74 39.77 38.58 37.62 37.21 34.23 33.34 32.54 32.39
40.62 40.76 41.07 41.26 40.95 40.99 41.44 41.33 41.67 41.88 41.93 41.96 41.70 41.91 42.10 42.75 40.21 34.82 32.68 34.08 40.71 39.51 31.66 24.99 23.73 30.09 34.84 33.90 32.76 32.13 34.42 32.97 31.52 31.58 30.07 29.22 29.92 32.81 28.23 24.12 31.28 31.48 32.45 35.00 34.03 35.23 34.49 35.39 35.99 37.66 34.63 32.44 31.22 29.57
40.41 40.37 40.78 40.98 41.00 40.79 41.06 41.09 41.53 41.57 41.31 41.21 41.44 41.85 42.53 42.30 41.01 37.08 39.73 42.73 40.99 36.85 33.79 23.97 23.05 26.08 34.51 29.53 30.66 35.44 32.15 33.52 33.88 32.38 34.09 31.72 33.13 32.27 27.20 30.78 30.48 29.80 30.55 30.96 30.30 33.31 32.12 33.54 33.78 35.27 36.48 33.35 28.91 26.97
39.97 40.46 40.56 40.64 40.69 40.80 41.02 41.36 41.77 41.52 41.59 41.74 41.91 42.36 40.68 38.55 33.84 36.73 43.00 43.01 41.60 35.08 25.75 25.91 21.48 18.99 33.55 34.22 35.02 35.93 36.12 29.55 35.17 30.41 31.62 32.96 29.34 27.73 28.89 28.54 27.57 27.59 27.39 27.46 29.04 30.63 29.86 29.44 29.71 31.31 30.85 29.60 27.45 26.03
39.59 40.18 40.34 40.43 40.65 40.87 41.08 41.16 41.22 41.35 41.46 42.35 40.53 32.76 29.61 34.24 42.17 43.17 38.60 33.29 32.39 33.08 33.63 26.93 27.21 23.09 31.05 32.15 32.57 32.02 32.34 30.47 27.63 31.52 34.78 30.52 27.50 29.78 30.01 29.07 27.74 26.61 26.68 27.65 25.56 25.20 25.81 25.81 27.32 29.00 28.95 28.12 27.74 26.70
39.34 39.60 39.98 40.26 40.62 40.70 40.81 40.80 41.40 41.46 41.70 37.14 31.63 31.94 37.04 42.68 36.82 32.90 27.42 27.52 28.41 26.95 28.74 28.77 28.65 26.15 31.51 25.74 28.06 31.41 29.18 29.13 24.16 27.62 28.79 27.87 25.19 26.27 27.95 27.98 27.24 25.92 25.08 25.34 24.94 25.58 25.81 25.43 25.28 26.43 27.72 27.80 26.98 25.99
39.47 39.85 40.11 40.35 40.60 40.68 41.09 41.59 41.83 40.14 34.38 35.92 37.95 40.32 39.75 35.03 31.44 25.83 24.15 25.01 24.61 23.16 27.05 27.89 29.49 31.10 29.44 32.58 29.02 30.62 27.99 25.23 22.17 30.06 28.11 24.11 22.76 24.57 25.16 25.74 25.12 25.09 23.37 22.06 22.23 21.62 22.91 24.05 23.57 23.88 24.99 24.57 23.90 23.22
39.40 40.19 40.61 40.80 40.86 40.96 41.54 41.92 42.16 41.62 40.49 40.69 36.81 31.98 31.21 29.58 23.37 17.91 17.19 20.91 23.19 25.95 26.21 29.47 28.65 26.76 29.94 32.89 28.52 28.88 25.42 20.76 26.89 23.76 23.99 21.39 24.02 23.96 24.22 24.00 23.60 23.72 21.73 20.08 19.36 19.96 20.12 20.95 21.01 20.47 20.53 21.27 21.92 20.40
40.18 40.47 40.83 41.00 41.25 41.34 41.82 41.68 42.05 41.47 39.83 32.52 30.39 26.20 22.89 21.57 23.82 23.32 23.82 23.95 26.36 25.65 26.72 26.60 29.64 26.99 29.61 24.87 27.87 22.68 23.50 26.71 22.85 19.50 17.62 20.22 22.13 22.77 23.37 23.86 22.36 20.85 19.53 15.57 15.43 16.17 15.43 15.56 15.99 15.43 14.66 16.62 16.03 15.38
40.24 40.37 40.30 40.34 40.87 41.36 41.57 41.63 43.29 40.73 34.11 30.83 29.29 20.72 23.88 22.06 26.60 26.97 28.19 26.99 30.61 30.70 27.24 27.16 26.37 29.41 25.51 24.50 26.96 22.18 22.81 20.65 17.92 11.75 13.54 21.53 22.78 22.28 22.48 22.60 20.64 19.00 14.83 13.13 10.71 7.67 7.44 8.96 10.52 9.82 12.14 13.75 14.22 12.63
40.18 40.06 40.09 42.45 43.00 42.98 43.13 41.70 38.27 35.90 30.87 25.37 21.65 22.13 25.35 27.72 26.83 27.79 29.32 28.36 30.51 31.36 30.94 29.16 22.92 21.49 23.79 22.30 24.04 20.08 19.36 12.48 9.74 14.79 17.73 19.03 18.93 19.61 19.02 19.90 16.82 12.72 8.20 4.74 3.22 4.48 4.82 5.33 5.18 6.22 6.74 8.37 8.93 9.92
43.13 40.44 43.84 44.13 43.62 43.08 40.19 36.52 34.15 29.55 26.16 19.54 15.24 22.40 24.20 23.16 22.47 22.99 24.70 24.31 28.45 30.15 24.99 24.85 16.78 18.43 23.73 20.55 14.62 14.43 5.78 10.24 17.24 17.89 16.89 15.62 16.51 18.37 15.00 12.86 10.99 11.46 9.79 6.02 3.78 5.54 3.00 3.59 5.41 7.93 5.71 7.69 9.57 10.26
40.63 43.04 44.33 41.98 39.49 36.97 35.31 33.53 29.69 26.75 20.34 20.62 16.77 19.46 18.37 17.76 20.49 19.17 20.34 22.63 25.04 28.77 27.44 21.83 22.67 21.07 16.69 16.89 6.72 7.57 12.46 14.98 16.59 14.13 13.27 13.37 13.68 11.71 14.64 12.01 10.41 8.87 8.44 6.17 5.86 6.40 6.18 4.41 6.45 5.39 5.84 7.39 7.63 9.17
41.15 40.53 41.59 41.28 38.61 33.50 29.12 28.73 28.36 19.26 19.70 19.00 21.56 21.68 19.14 17.58 18.66 18.45 19.52 22.10 22.69 22.04 20.02 14.91 9.36 5.59 1.39 7.81 5.49 8.32 10.86 14.29 12.41 11.94 12.90 8.71 6.42 17.66 11.15 10.14 10.52 7.01 8.38 7.15 8.21 7.65 6.27 6.70 5.91 6.61 8.01 8.44 6.54 7.23
41.30 40.79 40.19 39.65 37.64 29.93 26.52 25.30 28.02 22.34 17.94 19.19 20.63 16.83 16.41 15.59 16.62 12.09 16.23 17.62 18.20 15.73 11.60 9.30 5.02 2.70 2.92 7.61 14.40 15.63 14.99 16.54 17.31 13.08 8.59 9.17 14.52 10.16 8.39 10.80 9.41 8.77 10.42 11.72 12.24 11.78 10.90 8.36 9.63 9.96 10.22 9.57 7.33 6.82
38.70 38.91 39.32 35.04 30.47 30.65 25.08 22.56 23.57 22.84 21.76 16.39 19.37 16.96 11.84 16.06 12.62 12.07 12.26 15.98 10.78 7.89 5.94 6.15 7.21 7.54 9.66 11.90 14.29 17.45 17.94 19.78 15.03 16.42 12.86 9.36 11.40 15.50 14.90 13.73 14.02 13.84 11.86 10.62 9.84 7.77 7.89 8.70 9.34 9.95 7.00 7.00 8.59 9.60
37.89 39.53 33.45 34.38 27.84 26.81 25.29 24.80 22.44 22.69 20.16 19.70 17.93 16.67 6.44 5.20 3.09 6.05 14.45 8.41 6.48 6.69 7.04 9.95 9.52 9.36 11.68 11.81 13.08 13.93 14.88 17.60 15.42 13.24 11.21 12.94 11.55 12.73 12.23 10.86 12.31 9.07 10.23 7.79 11.16 8.13 8.50 10.60 11.29 10.79 9.74 9.61 10.53 10.03
35.43 34.70 31.01 30.28 24.51 20.84 19.17 28.81 20.10 19.47 11.97 15.46 16.84 10.60 5.54 4.26 7.56 15.44 2.59 7.26 6.35 10.24 11.69 11.85 12.01 12.20 13.55 12.89 15.20 14.06 13.02 15.08 11.22 10.54 11.77 11.99 12.99 12.44 12.18 10.65 8.54 6.74 8.48 8.70 9.83 10.92 8.86 11.27 11.48 10.83 10.78 10.24 9.52 9.35
29.88 24.04 22.37 21.96 21.40 15.36 23.71 19.15 24.04 20.64 19.22 12.23 10.17 5.54 6.23 5.23 12.65 5.59 -0.05 1.39 6.50 12.20 13.13 14.06 16.19 12.02 13.50 13.69 11.65 11.96 12.75 12.81 11.56 11.80 12.53 12.09 11.71 11.03 11.83 11.62 12.07 12.41 11.40 11.07 11.06 9.69 10.31 8.79 9.55 9.39 8.53 7.94 7.80 7.91
19.61 14.30 16.60 7.85 14.54 11.25 7.38 8.08 10.90 13.20 9.08 9.78 9.05 7.80 9.45 13.08 3.93 2.86 0.30 6.42 8.84 10.00 10.71 13.06 12.83 12.69 10.94 11.35 11.84 12.03 13.49 13.82 11.41 10.51 11.00 12.67 11.06 11.81 12.09 14.27 14.65 14.84 14.68 8.25 7.94 7.00 6.32 7.35 7.33 7.66 7.82 7.10 7.32 6.16
8.97 10.41 9.28 8.08 9.70 11.13 11.57 5.69 5.41 6.87 9.67 7.31 10.24 11.80 10.75 6.19 3.39 2.15 6.48 7.63 7.88 10.14 7.07 5.19 5.05 6.85 8.54 10.42 9.81 9.92 10.53 13.88 13.13 9.52 10.80 12.65 12.04 10.41 8.52 7.50 7.97 10.84 15.62 11.69 9.64 7.17 8.25 7.89 5.59 6.89 6.41 7.76 7.09 5.02
5.19 5.75 13.54 15.70 15.63 14.17 8.48 9.38 11.71 9.24 7.65 7.02 7.37 1.97 0.92 -5.95 -5.85 4.66 10.84 11.38 9.91 9.93 11.44 11.30 10.03 7.56 5.88 6.56 9.27 11.34 12.75 13.18 12.25 11.91 13.48 13.18 12.99 12.68 10.98 7.13 7.55 11.44 14.40 14.12 10.92 9.28 8.20 6.97 5.51 5.29 4.98 4.44 4.57 5.15
9.35 9.72 3.14 3.60 5.54 8.36 0.36 0.96 -0.39 -1.50 3.53 9.19 2.74 -7.55 -9.35 -7.93 -2.06 5.60 5.83 9.34 6.99 9.48 8.45 7.76 7.36 7.15 5.60 5.12 5.62 7.13 6.91 8.56 10.36 11.10 11.30 11.61 11.20 10.97 11.05 11.12 11.51 15.48 11.63 10.21 8.95 9.81 8.73 6.53 4.22 4.04 3.50 2.82 2.53 4.22
1.50 5.34 6.56 -1.66 1.84 2.16 1.85 -2.06 -0.77 5.97 7.37 2.69 -5.64 -6.57 -2.41 2.90 -0.50 2.04 4.30 6.24 8.05 6.25 -0.11 -0.97 -2.25 -5.49 -1.85 0.35 2.75 3.43 2.78 1.25 -0.68 -1.86 -3.33 -3.32 -0.59 4.26 7.84 8.31 9.18 9.02 8.91 10.88 15.15 11.57 11.51 9.24 7.48 6.00 4.35 4.22 2.52 3.16
0.41 4.13 -1.07 -5.57 -4.74 -3.85 -4.41 -2.13 -4.04 -3.35 2.03 1.66 5.33 5.73 3.24 0.89 2.87 2.71 -0.89 0.50 -0.01 -5.67 -8.75 -9.84 -13.46 -11.83 -12.38 -10.38 -10.20 -5.52 -2.20 -4.94 -5.85 -7.40 -5.72 -5.85 -4.23 0.73 3.91 4.98 6.25 6.20 6.49 6.55 7.45 7.45 11.43 7.51 8.47 4.58 3.53 2.67 0.73 -1.27
4.00 0.88 -0.52 -1.71 -4.40 -1.58 -3.11 -10.21 -8.57 -6.41 -9.03 -7.73 -9.33 -8.59 -5.51 -3.33 0.20 0.45 -7.66 -13.64 -16.54 -17.45 -11.85 -12.02 -10.74 -18.90 -12.80 -14.19 -14.55 -11.83 -9.12 -7.44 -9.85 -7.14 -5.86 -6.76 -6.21 -7.12 -5.30 -3.68 -0.15 1.65 1.14 2.75 1.88 1.74 0.68 -0.74 -1.97 -0.20 0.98 0.51 -1.03 -1.47
-6.68 -10.02 -3.43 -4.22 -2.77 -4.09 -4.96 -11.29 -12.01 -11.31 -15.64 -10.93 -11.29 -18.00 -13.47 -12.63 -13.10 -7.88 -4.41 -11.90 -14.37 -12.74 -15.28 -19.26 -13.83 -11.29 -16.91 -19.26 -22.71 -21.98 -14.92 -16.73 -16.00 -16.54 -16.00 -16.54 -17.63 -18.54 -16.54 -13.64 -15.64 -12.01 -9.11 -8.93 -6.76 -5.12 -5.86 -5.85 -7.84 -9.11 -10.20 -9.84 -10.74 -12.19
-8.21 -7.74 -9.29 -6.40 -4.58 -6.39 -3.88 -4.20 -5.85 -7.84 -12.19 -11.29 -10.92 -14.55 -15.46 -12.16 -10.53 -6.61 -4.99 -12.92 -10.52 -9.53 -13.10 -15.09 -16.91 -19.45 -17.64 -16.56 -15.09 -17.27 -16.18 -19.26 -18.54 -6.94 -5.30 -8.02 -13.64 -13.46 -19.08 -19.81 -17.09 -16.00 -11.31 -14.19 -15.09 -11.11 -8.39 -12.19 -17.45 -18.72 -19.63 -19.63 -19.26 -18.72

GFSWCAN_sfc_wetblb_117.txt.gz
Wetbulb
43.77 43.49 43.63 43.72 44.10 43.93 44.07 43.88 44.10 43.39 43.14 42.22 42.48 42.94 43.27 43.34 43.83 38.98 36.30 38.33 36.03 30.59 29.75 31.96 32.71 29.52 29.38 29.41 25.08 28.83 27.68 28.52 27.32 23.71 23.66 23.23 23.05 23.99 23.34 26.22 25.24 25.50 24.18 24.78 24.92 21.70 18.49 36.60 36.15 29.98 35.67 38.33 37.56 39.93
43.71 43.65 43.51 43.36 43.28 42.99 43.40 43.78 43.57 43.09 42.84 42.56 42.67 43.14 43.10 43.24 43.88 41.12 36.66 38.79 39.76 34.28 30.84 34.52 35.48 35.95 34.46 34.18 31.48 31.78 29.17 29.04 30.66 26.68 25.75 26.14 23.31 26.06 24.62 20.38 32.25 23.93 28.01 25.85 28.05 26.25 34.17 37.22 36.68 40.49 41.59 38.35 38.54 40.35
42.98 43.19 43.40 43.04 42.98 42.87 42.81 42.23 41.97 42.54 42.40 42.51 42.70 42.93 42.95 43.12 44.00 41.78 38.96 39.12 38.05 33.54 32.51 32.35 31.39 36.10 37.68 37.52 38.53 28.47 30.18 33.05 33.21 35.46 32.37 29.27 23.84 27.31 22.26 24.36 27.43 30.90 33.99 30.38 30.23 34.11 35.92 36.51 39.42 40.77 41.03 39.53 40.26 38.21
42.43 42.80 43.01 42.89 43.05 42.83 42.81 42.79 42.30 42.19 42.25 42.22 42.78 42.84 42.85 43.17 43.56 42.66 38.46 39.69 38.23 34.22 26.76 27.80 34.62 32.54 36.69 36.76 36.34 36.34 34.23 35.02 34.84 34.88 30.58 28.36 25.50 30.84 26.64 28.14 27.48 31.78 33.47 31.05 31.04 33.70 34.27 37.17 36.63 37.98 37.33 37.74 35.72 34.88
41.98 42.50 42.59 42.88 42.75 42.38 42.37 42.08 41.85 41.89 42.10 42.07 42.46 42.58 42.71 42.88 43.29 41.89 40.39 40.29 39.84 33.61 26.05 27.66 32.68 35.45 36.43 35.75 34.91 35.45 34.53 32.97 31.83 30.07 28.59 26.44 31.22 30.65 31.02 30.93 29.49 32.93 30.72 28.23 27.90 31.67 32.28 32.65 32.83 35.49 34.73 34.39 34.21 34.30
41.65 42.19 42.24 42.50 42.47 42.26 41.93 41.84 41.92 42.02 42.05 42.58 42.59 42.60 42.55 42.74 42.28 37.69 32.62 38.79 40.18 39.58 30.69 24.66 31.90 32.03 34.31 34.47 33.83 33.65 33.90 32.79 32.78 30.89 29.94 32.05 34.05 31.51 26.87 26.35 31.90 32.73 33.02 32.56 30.46 33.30 34.53 35.04 37.06 36.17 33.87 32.88 32.20 31.63
41.56 41.50 41.72 41.92 41.81 41.93 41.74 41.53 42.03 41.92 42.01 42.03 42.03 41.70 41.92 42.42 39.13 33.68 32.18 36.80 40.59 40.09 31.91 25.28 24.85 31.47 34.99 34.49 32.87 32.50 34.11 33.39 33.15 32.04 31.10 31.30 31.63 33.25 28.93 24.71 30.85 30.42 30.95 31.39 31.01 32.85 31.10 32.48 32.78 35.25 33.60 32.25 31.60 30.41
41.19 41.06 41.43 41.59 41.57 41.35 41.31 41.31 41.46 41.26 41.87 41.78 41.99 42.10 42.26 42.10 40.61 36.44 38.98 41.77 41.35 36.42 34.57 24.30 23.95 27.29 34.98 31.45 31.27 34.67 31.78 33.53 34.13 33.09 33.48 30.69 33.31 32.21 26.93 29.68 29.10 28.83 29.56 29.80 28.81 31.16 30.06 31.80 32.35 32.48 32.72 32.19 29.91 28.45
40.80 40.96 41.20 41.26 40.75 40.57 41.23 41.16 40.93 40.99 41.59 41.58 41.49 41.60 40.43 37.99 34.22 36.88 42.02 42.46 41.82 35.73 26.23 26.38 22.51 20.93 34.09 34.74 35.81 35.87 35.44 29.67 35.33 30.04 31.57 33.48 30.17 28.05 27.92 27.35 26.51 26.35 25.40 25.33 27.95 28.83 28.18 27.60 28.16 29.82 30.14 29.43 28.71 27.37
40.25 40.63 40.74 40.84 41.07 40.96 40.81 41.20 40.58 40.77 41.90 41.99 39.18 32.82 30.24 34.24 41.44 41.98 38.36 33.33 31.52 32.97 33.68 25.78 28.58 24.29 32.02 32.49 32.97 32.61 33.17 31.30 27.34 31.58 34.71 30.72 27.39 28.62 28.94 27.93 26.92 25.37 25.13 25.00 23.09 22.78 24.23 24.29 24.82 25.82 27.49 28.18 27.78 27.20
39.95 40.06 40.42 40.58 40.86 40.87 41.02 41.00 41.19 41.42 41.37 36.25 31.49 32.04 35.29 42.14 37.51 34.42 29.26 28.48 28.59 26.09 28.63 28.57 28.32 26.38 32.53 28.56 29.11 32.40 30.44 30.48 25.99 29.22 30.44 28.74 25.05 25.62 27.83 27.44 26.63 25.68 24.32 23.49 23.25 23.41 23.76 24.42 23.34 23.69 25.20 25.79 25.46 24.86
39.88 39.93 39.92 40.17 40.51 40.62 40.84 41.09 41.04 38.39 36.87 36.16 37.53 40.18 39.30 34.52 31.31 27.38 23.33 26.26 24.85 23.38 27.94 27.24 28.62 30.92 31.76 33.93 31.09 31.71 29.23 27.79 23.59 31.23 28.89 25.33 22.80 25.03 25.53 24.97 24.99 24.35 22.49 21.46 21.46 21.01 21.39 22.89 22.24 22.12 22.81 22.95 23.37 23.15
39.48 39.71 39.77 39.90 40.69 40.41 40.58 41.10 41.25 40.48 39.82 39.66 36.74 31.72 31.13 29.97 23.48 20.41 18.58 20.92 22.41 26.74 27.89 29.77 28.38 30.45 30.58 33.69 30.53 29.46 26.21 24.56 28.92 24.98 24.54 21.85 23.78 24.16 24.25 24.18 23.80 23.49 21.43 20.06 19.38 19.70 19.55 19.67 19.70 18.85 18.75 19.83 21.17 20.39
39.42 39.60 39.84 40.22 40.75 41.04 41.20 41.37 41.79 40.12 37.03 30.75 29.78 25.38 25.33 21.41 24.21 23.74 25.36 26.69 28.29 27.82 28.66 29.60 29.75 29.70 31.38 29.79 29.72 25.18 27.14 27.43 23.68 21.59 20.45 21.55 22.40 23.16 23.81 24.08 22.55 20.92 18.80 15.76 15.90 16.49 15.47 15.38 15.29 14.68 13.87 15.83 17.13 16.99
39.16 39.54 39.90 40.15 40.57 41.02 41.48 41.72 41.47 40.03 33.29 29.82 30.69 22.50 23.61 24.61 27.24 27.03 28.55 29.01 28.80 29.08 30.96 30.38 30.51 31.21 27.97 26.64 27.80 24.76 23.32 21.33 21.24 18.79 18.63 22.81 22.74 22.37 22.58 22.49 21.44 19.97 16.83 15.45 13.40 11.07 9.84 10.06 11.34 10.99 11.30 13.25 15.30 14.77
39.64 39.78 38.46 40.55 41.07 41.38 41.74 41.18 39.07 33.95 31.10 26.44 22.12 23.33 25.65 27.94 27.66 29.13 29.37 28.46 31.13 30.92 30.29 30.28 26.19 25.72 24.69 25.58 24.70 23.03 21.34 18.29 16.02 18.84 21.35 22.24 21.37 19.83 20.45 20.26 19.54 17.42 15.04 13.18 12.01 11.11 10.89 8.96 9.20 10.21 9.92 10.53 11.16 12.59
40.28 36.44 39.88 41.12 41.26 41.38 41.61 34.45 33.14 29.31 25.71 20.95 18.39 22.38 24.32 23.75 23.37 23.10 24.49 25.27 27.20 30.74 30.53 26.13 21.13 22.68 25.73 23.16 19.60 16.75 16.02 15.39 19.07 20.55 21.56 20.72 20.66 20.21 19.54 17.63 16.32 15.94 15.73 13.51 11.89 12.18 10.80 10.16 9.65 11.15 9.80 10.77 11.86 12.57
36.48 38.33 42.18 41.23 40.80 38.27 32.93 32.93 29.81 25.99 19.44 20.51 17.41 18.60 18.06 17.29 20.35 19.66 20.96 22.71 24.82 29.20 29.05 24.33 25.13 22.15 17.74 21.26 13.98 12.93 15.90 18.19 19.37 19.06 19.27 18.51 19.56 17.92 18.24 18.54 16.84 15.21 15.36 12.75 12.06 11.79 11.46 10.57 11.34 11.42 10.39 11.32 11.67 11.78
40.54 40.93 41.71 41.31 38.04 33.26 29.21 29.11 28.88 19.91 19.61 20.43 21.40 20.91 18.64 17.66 18.38 18.25 19.74 22.55 22.83 23.19 22.48 19.76 15.58 11.11 9.21 11.17 11.65 13.27 15.36 17.06 17.49 18.37 18.47 16.01 14.57 17.26 18.14 15.76 15.77 14.12 13.74 13.91 14.62 14.73 13.46 11.87 12.37 12.84 13.13 12.79 11.38 11.88
41.34 40.99 39.83 39.20 37.71 30.34 26.33 25.52 28.57 22.31 17.98 19.46 20.45 17.28 16.57 15.94 17.54 15.71 16.84 18.47 18.90 17.26 12.79 11.30 9.79 10.19 11.25 13.92 16.29 17.14 17.54 18.28 18.74 17.72 17.08 16.86 17.82 17.85 16.80 16.70 17.18 15.62 15.81 15.09 14.59 13.34 13.84 13.22 13.18 13.38 12.94 11.96 11.42 10.67
37.75 37.92 37.93 35.63 31.62 29.35 25.66 23.78 21.78 22.20 20.98 17.22 19.05 17.71 14.32 16.57 14.37 14.51 14.52 16.26 12.25 9.74 10.28 11.50 12.24 13.81 14.45 16.07 17.16 19.29 18.52 19.14 16.90 17.08 15.54 14.73 16.42 17.69 17.01 16.65 16.79 16.32 15.49 14.51 13.89 12.24 11.83 11.79 12.11 12.13 11.46 11.37 11.79 12.33
36.69 37.43 32.62 33.22 27.72 26.75 24.05 24.81 22.02 22.44 20.40 19.67 17.48 16.50 11.37 10.41 9.94 10.49 15.20 10.40 9.16 10.13 11.35 12.94 13.74 14.06 14.79 13.54 14.23 15.09 16.65 16.54 15.87 15.35 13.33 14.80 13.85 13.85 13.73 13.42 15.03 12.64 12.56 12.84 12.88 11.52 11.68 12.43 12.68 12.16 11.63 11.66 12.22 12.41
34.84 33.42 29.84 29.09 23.47 20.38 19.90 27.26 20.31 21.02 13.81 15.74 16.25 11.31 8.22 8.54 11.38 15.24 6.55 9.23 9.89 12.39 13.63 14.43 13.84 14.84 14.39 14.86 15.82 14.83 14.71 15.65 13.96 14.02 14.56 14.41 14.30 14.23 14.14 13.70 13.83 12.37 11.45 12.08 13.39 12.16 11.47 10.07 11.17 11.87 12.09 12.00 11.95 11.69
29.58 23.45 19.31 17.23 19.09 14.48 23.57 18.89 23.35 20.21 17.73 13.22 11.25 6.35 7.34 8.38 12.30 6.16 2.87 5.41 9.91 13.57 13.68 14.03 15.56 14.02 14.71 14.12 12.72 12.89 13.98 15.96 14.53 14.01 14.15 15.43 14.49 14.56 15.00 14.33 14.26 14.21 14.11 13.50 12.71 11.98 11.83 11.44 10.85 11.47 11.05 10.66 10.54 10.37
20.68 15.42 17.79 9.26 13.65 10.33 6.86 5.47 9.49 12.50 5.82 8.15 7.57 6.47 8.76 11.27 3.40 1.58 0.35 7.43 9.78 10.31 12.27 13.46 13.21 13.44 12.24 12.46 12.52 12.92 14.39 14.75 13.37 11.55 12.67 13.94 14.56 15.02 14.73 15.29 15.19 15.44 15.40 12.53 10.76 10.56 10.24 10.80 11.19 10.90 10.78 10.49 9.66 9.62
9.34 8.23 6.42 5.44 8.18 8.98 9.61 4.15 3.64 5.44 9.17 6.30 8.49 11.39 10.09 6.18 3.04 1.93 6.53 9.03 10.15 11.50 10.61 10.68 9.93 9.65 9.51 10.78 10.19 10.34 11.64 14.72 14.12 11.34 11.78 13.19 13.23 13.25 12.53 11.79 12.06 13.22 15.98 14.87 12.29 11.21 10.83 10.64 10.77 10.03 10.22 10.00 9.39 9.51
5.24 4.97 12.46 14.85 14.84 13.22 7.53 8.96 11.99 9.26 6.47 6.43 8.87 6.20 5.78 0.06 -0.45 5.63 11.03 11.59 10.91 10.86 11.71 11.72 11.64 10.44 9.50 9.70 10.83 11.66 13.03 13.82 13.11 12.27 13.36 12.92 12.57 12.49 11.95 10.42 9.84 12.75 15.43 15.26 15.03 13.75 12.52 11.18 9.94 9.37 8.90 9.36 9.70 9.41
10.66 11.09 7.26 5.74 6.24 8.14 3.30 3.78 4.16 3.68 6.43 8.47 4.96 -3.02 -3.17 -2.31 1.24 7.01 8.44 10.67 9.70 9.37 8.00 7.29 7.20 7.59 7.31 6.57 6.77 7.55 8.95 8.86 12.53 12.81 12.92 12.15 11.29 10.42 10.14 11.55 12.11 14.04 14.01 14.75 13.67 13.86 13.80 12.64 11.02 9.71 9.25 8.90 8.35 9.34
3.05 6.72 7.11 -1.13 1.65 1.79 1.15 -0.06 1.67 5.79 6.85 4.00 -1.29 -1.84 0.29 2.89 2.11 3.77 6.02 8.15 9.17 7.40 3.63 3.33 1.47 0.66 1.97 3.07 2.12 2.07 1.28 2.32 7.05 1.77 1.59 2.90 3.55 6.37 6.64 7.95 9.68 10.69 11.89 13.30 15.45 14.22 12.99 12.16 11.62 11.39 10.46 10.31 9.30 9.78
2.26 5.37 -0.61 -4.74 -5.38 -3.24 -1.54 0.14 0.89 -0.13 2.58 3.14 5.56 5.08 3.14 2.21 3.68 4.35 5.13 6.06 5.22 0.52 -3.97 -5.60 -7.06 -1.47 -1.32 -0.07 -1.62 -1.40 -2.51 -4.16 -3.07 2.68 2.49 1.97 2.90 2.40 2.41 2.66 4.26 6.55 8.19 10.91 11.36 11.13 12.40 11.28 11.41 9.63 8.75 8.09 7.89 6.92
2.55 -0.23 -3.31 -3.25 -3.97 -0.28 -2.64 -8.71 -8.70 -6.14 -7.53 -6.10 -5.92 -5.70 -2.98 -0.26 3.17 0.05 -2.75 -6.91 -8.32 -8.55 -3.79 -4.07 -4.87 -9.07 -4.08 -4.10 -2.25 -2.10 -1.57 -2.41 -7.28 -4.83 -2.74 -1.81 -1.98 -2.40 -3.61 -3.24 -1.99 -0.40 5.31 6.70 7.31 7.62 6.89 6.57 6.61 6.60 6.03 4.83 3.92 4.19
-7.12 -10.69 -5.47 -5.98 -2.53 -2.70 -3.37 -10.14 -11.40 -8.35 -11.58 -5.62 -9.04 -13.21 -9.81 -6.98 -8.32 -2.86 -4.00 -5.88 -4.62 -3.40 -10.68 -9.38 -4.13 -3.44 -8.24 -9.23 -12.49 -10.70 -12.50 -6.51 -5.42 -7.24 -6.98 -5.99 -4.49 -5.35 -5.78 -4.88 -4.78 -1.18 1.18 2.09 4.01 3.23 2.09 2.24 1.78 1.44 1.23 0.11 -0.85 -1.40
-9.34 -10.51 -8.14 -4.69 -5.42 -5.96 -5.42 -3.44 -4.92 -6.69 -8.86 -9.77 -10.31 -13.21 -13.40 -6.95 -6.74 -2.86 -4.65 -8.33 -3.90 -2.80 -4.38 -5.46 -5.59 -7.77 -8.66 -9.05 -6.14 -6.69 -10.72 -7.95 -11.94 -6.32 -3.42 -5.42 -11.04 -7.59 -6.34 -4.87 -3.45 -2.60 -1.23 -1.15 -0.93 1.14 0.81 -1.41 -2.89 -3.97 -4.51 -4.87 -5.60 -5.78

GFSWCAN_sfc_wetblb_120.txt.gz
Wetbulb
44.77 44.60 44.71 44.61 44.70 44.71 44.34 44.78 44.37 44.28 44.05 43.68 43.46 43.43 43.39 43.58 43.88 42.70 41.45 43.65 39.29 34.78 35.57 35.76 35.91 33.34 33.63 33.16 29.05 33.49 32.31 32.94 32.21 27.42 27.24 26.55 25.49 27.02 25.07 26.10 26.29 26.43 25.88 26.59 27.26 24.26 20.35 38.01 36.79 30.96 37.30 41.47 38.68 37.72
43.94 44.17 44.30 44.39 44.19 44.43 44.42 44.37 44.59 44.31 43.78 43.63 43.53 43.26 43.41 43.43 44.10 42.95 39.50 43.04 43.52 35.90 35.94 38.92 39.56 40.21 38.38 37.60 34.26 35.11 32.25 31.03 34.00 30.46 31.37 29.96 27.34 28.12 25.13 22.37 32.20 25.87 28.97 26.67 29.91 29.54 37.99 38.81 37.76 41.38 41.56 39.98 39.11 38.90
43.60 44.03 43.97 43.82 43.84 44.15 44.08 43.82 43.91 43.78 43.69 43.30 43.11 43.12 43.32 43.36 44.12 43.22 41.05 40.68 38.56 34.85 34.99 35.40 35.59 40.41 42.23 41.08 42.27 32.31 35.98 34.97 34.84 38.61 32.86 31.49 26.01 30.77 23.88 26.01 28.12 31.11 34.17 31.23 30.40 32.58 32.82 34.62 35.43 37.84 39.22 37.01 36.61 37.25
42.62 43.40 43.66 43.48 43.56 43.53 43.21 43.51 43.28 43.08 42.95 42.99 43.28 43.08 43.51 43.48 44.10 43.12 41.85 41.90 39.19 36.23 30.32 33.26 39.88 37.58 41.45 41.87 41.03 40.92 38.72 39.24 38.55 38.29 32.32 30.57 27.11 32.98 28.12 28.70 28.38 32.31 34.35 30.62 31.32 32.22 33.42 34.90 34.74 33.35 35.30 35.70 35.53 36.85
41.92 42.61 43.00 43.20 43.39 43.32 43.15 43.24 42.91 42.58 42.67 43.00 42.59 43.29 43.14 43.29 43.91 44.42 43.04 41.33 41.06 36.35 29.60 32.01 38.15 39.80 40.66 40.41 39.05 39.74 38.50 36.85 35.43 31.96 31.18 29.36 32.41 32.20 32.83 32.09 30.98 33.65 30.23 28.44 27.77 31.24 31.41 32.87 33.23 35.38 34.56 34.61 35.11 35.84
41.04 41.91 42.56 42.80 43.00 42.93 42.85 42.65 42.62 42.50 42.39 42.59 42.75 43.05 43.12 43.30 43.20 40.51 33.73 40.77 42.16 40.87 34.03 28.36 38.09 36.78 38.51 39.30 38.14 37.35 37.82 36.88 35.52 32.28 32.00 33.93 36.57 33.18 28.62 27.84 32.73 33.19 34.52 31.96 30.27 33.71 35.24 34.64 36.67 35.30 35.14 34.48 34.86 34.66
40.72 41.45 42.18 42.47 42.65 42.84 42.57 42.20 42.07 42.18 42.31 42.61 42.93 42.92 43.02 43.07 43.34 37.90 36.34 39.00 41.54 41.85 33.22 28.74 30.81 37.17 37.76 38.33 38.18 37.18 38.10 35.32 35.25 33.03 32.64 32.63 33.23 34.50 31.18 26.94 31.03 32.44 33.14 32.21 33.03 33.18 31.85 32.00 31.15 34.26 34.27 34.71 34.93 33.55
40.25 41.01 41.59 42.04 42.19 42.13 42.06 41.94 42.01 42.17 42.08 42.08 42.25 42.53 42.64 42.39 41.53 38.26 42.30 42.24 42.13 37.00 34.60 26.12 28.53 33.08 38.54 36.71 35.28 38.62 34.76 33.47 34.28 34.80 36.48 32.91 34.88 34.06 28.82 31.54 31.57 30.92 31.92 30.91 31.43 32.50 31.24 32.29 32.72 32.39 33.89 34.24 33.94 32.20
39.85 41.09 41.47 41.54 41.72 41.86 41.71 41.79 41.78 41.82 41.67 42.08 41.97 42.18 41.65 39.55 35.29 38.15 42.16 42.81 42.76 37.28 29.91 27.89 27.17 27.92 38.75 37.94 37.88 36.52 36.25 30.48 37.16 31.91 32.73 34.58 32.89 28.96 28.95 29.79 28.95 28.50 27.70 27.58 30.68 30.79 30.89 29.67 29.09 29.60 30.47 30.66 30.01 30.01
39.99 40.94 41.06 41.42 41.29 41.48 41.13 41.45 41.47 41.73 41.82 41.39 40.62 34.96 31.60 35.32 41.84 42.57 38.69 34.11 32.67 34.83 34.61 28.64 33.58 29.74 35.94 36.64 35.17 33.16 34.49 33.01 29.58 32.35 36.16 31.53 30.91 29.46 29.83 29.56 29.06 28.81 28.29 28.39 26.72 25.91 26.60 27.13 27.03 27.02 27.66 28.34 28.27 27.85
40.21 40.78 40.98 41.25 41.62 41.55 41.44 41.34 41.29 41.53 41.22 37.79 32.61 32.14 40.00 41.68 38.95 35.95 29.38 28.65 30.38 28.28 31.96 31.58 32.90 30.78 37.19 30.57 30.85 36.47 32.71 33.89 28.61 31.58 30.77 30.69 27.90 26.95 29.14 28.56 28.99 28.50 27.74 27.08 26.81 26.75 26.58 26.58 25.45 25.59 26.61 27.31 27.35 26.68
39.88 40.64 41.04 41.06 41.45 41.36 41.35 41.40 41.38 39.34 38.56 37.64 38.50 40.32 39.27 35.80 33.70 28.73 27.83 30.18 27.68 26.39 32.37 28.77 30.61 32.72 35.12 37.88 33.36 34.10 30.89 31.59 26.73 34.84 30.98 28.02 24.73 27.00 27.53 26.75 27.00 26.73 25.96 25.27 25.22 24.50 24.78 24.85 24.29 24.20 24.88 24.57 24.19 24.59
40.59 40.57 40.75 40.93 41.00 41.06 41.06 41.18 40.77 40.53 40.98 39.44 36.01 33.22 31.38 32.03 26.53 24.33 20.86 23.65 26.27 30.60 33.39 32.36 30.07 33.15 35.19 35.70 33.07 31.74 28.78 27.06 34.79 28.65 27.12 24.79 25.53 26.82 27.20 27.37 26.64 26.07 24.03 24.20 23.75 23.80 23.13 22.68 22.37 20.61 20.13 20.85 21.37 22.56
40.26 40.52 40.61 40.67 40.77 40.88 40.87 40.20 40.86 41.07 38.08 32.87 30.51 26.97 27.33 25.74 27.89 28.24 28.09 29.31 33.29 33.98 34.07 34.04 32.23 32.90 34.35 30.89 33.05 27.85 31.05 30.64 25.58 23.56 22.95 25.36 25.27 25.84 26.45 26.55 25.85 23.94 21.58 18.97 20.23 20.56 18.96 18.11 18.24 17.89 16.62 17.92 19.38 19.09
40.24 40.35 40.73 40.70 41.00 41.23 41.09 40.78 41.23 40.22 34.94 30.07 31.57 26.52 27.79 32.90 31.91 32.71 34.14 33.90 34.17 36.92 35.50 33.30 33.30 33.78 32.33 30.88 30.95 29.10 25.65 23.61 26.40 25.92 25.29 25.83 25.58 25.53 25.06 24.68 24.08 22.66 20.65 19.93 19.01 16.81 15.62 14.96 15.37 16.16 15.78 17.05 17.94 17.43
39.63 39.68 39.08 40.66 40.97 40.45 40.80 40.49 38.90 36.35 33.60 30.70 28.70 28.46 30.91 31.05 30.75 31.96 32.49 30.72 34.72 35.95 37.24 36.97 31.88 29.63 29.84 30.54 27.44 26.21 24.33 23.90 24.47 25.25 26.25 27.31 24.53 23.87 23.65 23.40 23.00 22.24 20.82 19.85 19.25 18.28 17.96 14.45 14.37 15.96 15.55 15.52 15.75 16.46
39.25 36.78 40.18 40.75 40.38 40.27 40.28 36.26 35.51 31.96 30.60 26.72 26.24 27.11 27.00 30.17 30.88 28.86 31.39 30.69 32.51 34.38 31.54 33.16 27.96 28.43 30.64 27.91 25.99 27.19 26.59 24.06 24.84 25.26 27.40 25.81 24.87 24.25 23.28 22.87 21.52 21.26 21.50 20.21 18.83 18.43 17.61 16.95 15.70 16.57 15.79 16.78 16.50 17.18
37.31 40.38 40.86 40.85 40.64 38.31 35.18 34.46 32.36 28.44 22.03 25.33 24.94 24.15 23.72 23.60 26.41 26.16 27.43 28.68 30.27 32.00 34.10 30.06 32.29 28.47 27.37 25.51 25.70 22.92 23.90 24.65 25.85 25.88 25.83 24.91 24.52 23.69 24.34 23.78 22.60 21.54 21.79 19.35 18.14 17.99 17.39 16.88 18.16 18.55 16.99 17.48 17.04 17.14
38.84 40.17 40.92 41.08 38.71 35.87 31.62 30.98 31.66 23.18 23.42 24.18 24.03 24.11 23.85 22.45 22.95 24.26 25.81 27.01 26.43 27.37 28.56 28.24 25.64 26.24 22.95 22.22 22.24 22.01 22.97 24.24 23.77 24.57 24.66 22.57 22.27 21.73 22.00 22.39 22.02 21.82 20.10 20.27 20.33 20.53 19.76 16.86 17.10 18.08 18.30 18.20 17.33 17.87
39.96 40.57 41.07 40.56 39.86 33.62 27.65 27.03 32.13 25.39 22.79 23.99 24.51 22.02 22.54 22.15 23.37 23.64 23.45 24.26 24.79 24.10 20.08 19.95 19.41 19.13 20.41 20.13 22.12 22.52 23.63 24.46 24.28 23.38 23.51 23.97 23.92 22.33 21.84 22.29 22.61 21.80 21.84 20.51 20.44 17.25 19.37 18.98 18.48 17.86 17.31 16.63 17.01 16.72
39.30 39.32 40.43 38.10 33.34 31.75 29.28 26.67 25.01 25.74 23.90 22.04 22.95 23.12 21.48 23.14 21.98 21.10 20.25 21.40 20.39 17.89 17.99 19.30 19.14 19.16 20.49 21.25 23.20 23.85 22.54 23.55 22.45 22.12 21.68 21.93 22.11 22.45 21.72 22.00 21.41 21.38 20.52 19.77 19.02 18.64 16.88 16.84 17.01 17.40 17.05 16.82 17.16 17.12
36.11 38.01 35.30 35.24 30.58 28.96 27.09 29.31 25.71 26.66 24.52 23.41 22.24 22.47 21.01 20.40 19.82 18.79 19.85 17.54 15.78 16.34 19.31 19.80 19.71 19.97 19.15 18.61 19.25 20.92 20.56 20.70 20.25 21.01 19.24 19.93 20.46 20.24 19.65 19.61 20.39 19.23 18.79 18.52 18.16 17.21 17.20 17.33 17.30 17.09 17.00 16.39 16.43 16.81
37.26 36.04 33.18 31.39 26.35 25.86 23.29 30.81 24.47 24.30 20.45 20.22 21.97 17.78 17.90 18.61 18.50 20.23 14.42 15.73 16.20 18.61 19.96 19.87 19.05 19.69 19.04 18.59 18.79 18.77 19.31 19.57 20.18 19.92 19.87 19.73 19.53 19.64 19.32 18.77 19.08 17.92 17.61 17.34 18.42 17.95 16.76 13.78 15.44 16.64 16.56 16.93 16.50 15.58
31.52 26.94 24.63 24.08 25.90 22.53 27.74 24.29 26.12 23.06 22.44 20.08 18.06 14.04 14.11 17.38 18.33 15.98 11.27 14.43 16.38 19.36 18.89 18.16 19.76 18.51 18.39 17.65 17.88 17.57 18.75 20.25 18.72 18.68 19.48 20.00 18.54 18.02 19.00 18.49 18.67 18.33 17.97 18.38 18.06 17.71 17.21 16.37 14.44 16.61 15.73 15.58 15.41 15.09
26.07 18.09 21.37 18.20 22.55 21.16 19.42 19.60 19.51 19.70 16.36 16.83 14.43 14.03 15.59 18.65 13.27 10.28 7.55 12.79 15.38 16.66 17.78 18.70 18.90 19.40 18.05 16.81 17.19 16.90 17.74 19.36 18.49 16.71 17.72 19.23 19.31 19.41 18.94 18.95 18.54 18.60 19.69 19.18 17.46 17.26 16.22 16.72 16.46 16.03 15.44 15.57 14.12 13.46
14.26 14.74 16.94 15.99 18.51 19.02 18.89 15.64 15.88 16.26 16.99 14.64 13.64 16.86 18.30 14.60 8.73 7.40 11.35 14.05 15.38 15.97 16.49 16.63 15.94 15.09 14.48 16.35 15.94 16.10 16.44 19.07 18.87 15.97 15.98 17.26 17.40 17.59 17.10 16.51 16.71 17.28 19.39 19.80 19.02 17.57 16.36 15.96 15.51 12.54 14.29 12.78 11.68 13.18
12.31 12.45 16.05 18.13 19.03 18.12 16.54 17.69 18.18 17.46 13.73 12.51 13.81 12.70 12.71 7.95 6.00 9.47 13.96 16.12 15.38 16.13 16.89 17.69 17.82 16.45 14.99 14.75 15.54 16.49 17.84 18.19 17.30 16.24 16.69 16.59 16.37 16.45 16.18 14.91 13.54 15.67 18.63 18.56 19.15 18.77 17.47 16.06 15.26 14.61 14.43 15.62 14.86 14.90
14.12 14.43 10.87 10.99 10.78 12.94 10.02 10.72 10.20 9.41 11.80 12.91 13.12 7.07 7.18 7.79 7.16 12.44 14.10 15.27 15.65 15.34 14.37 14.04 14.58 16.06 15.85 14.84 15.23 16.66 16.48 16.77 16.44 16.63 16.90 16.34 16.01 15.25 14.64 16.21 16.05 16.03 17.72 18.04 18.45 18.89 18.77 17.79 16.69 15.39 14.22 14.28 13.68 14.98
10.71 12.65 12.02 4.44 6.88 6.84 6.22 7.01 8.48 9.95 10.71 12.00 8.58 6.16 5.76 8.21 9.82 12.79 13.80 15.38 16.22 15.77 13.99 12.87 11.66 13.15 12.29 11.58 10.84 11.05 11.90 13.90 13.79 7.97 6.21 12.16 13.41 13.22 13.39 13.74 15.14 15.81 17.32 18.34 17.46 17.21 16.54 16.81 16.24 16.26 13.77 15.25 15.10 15.27
9.24 12.67 6.32 3.53 2.10 3.19 5.42 7.18 8.28 8.72 9.63 10.38 10.04 8.23 8.02 8.75 9.61 11.64 13.90 14.57 14.56 13.54 11.37 11.28 10.98 13.41 11.92 12.65 10.09 8.82 8.44 8.80 8.67 12.57 12.38 10.67 10.54 10.41 10.65 11.21 12.25 13.62 15.11 16.13 16.28 16.31 14.49 15.66 14.90 14.44 14.06 13.59 14.28 13.41
11.45 10.10 6.06 5.62 4.16 6.96 7.58 6.57 7.72 8.43 8.54 8.07 9.90 8.70 6.71 8.60 10.28 9.85 9.72 9.34 8.82 8.52 10.10 9.24 7.65 8.65 9.72 9.10 11.24 9.71 7.88 7.23 3.32 4.43 5.47 8.23 8.83 9.57 9.14 8.38 10.72 11.87 13.99 14.84 14.43 14.44 14.39 13.87 13.82 12.09 10.75 9.33 8.40 10.03
9.07 6.08 4.84 2.78 4.10 8.03 8.69 9.71 10.09 8.89 9.81 10.50 7.62 7.48 6.07 8.56 7.04 8.94 7.73 9.17 9.17 9.21 2.03 6.90 7.10 5.44 4.19 4.32 3.62 4.58 -1.25 5.11 5.23 3.45 2.92 4.57 7.27 7.23 7.54 8.30 9.40 11.46 11.91 12.19 13.19 12.24 10.94 10.35 11.04 10.20 9.59 6.74 6.03 5.68
6.78 7.07 8.21 7.29 6.23 5.96 7.96 8.73 7.95 7.20 8.77 8.67 7.53 6.86 8.03 9.03 5.52 9.05 5.72 6.67 9.89 10.71 7.87 8.26 7.68 5.93 3.81 3.73 4.70 4.70 1.52 4.40 -1.56 -0.56 -0.07 -0.72 -2.79 -0.24 6.22 9.02 9.57 9.32 8.97 9.93 10.19 10.22 7.69 5.68 7.12 5.45 4.88 3.65 3.12 2.92

GFSWCAN_sfc_wetblb_123.txt.gz
Wetbulb
45.17 44.88 44.88 44.70 44.38 44.38 44.50 44.60 44.60 44.48 44.43 44.45 43.62 43.62 43.67 43.82 44.00 42.74 42.61 45.64 41.00 37.11 38.08 38.31 38.29 35.84 36.64 36.16 32.50 36.09 35.64 35.42 34.63 29.36 29.03 28.34 27.68 29.05 26.94 27.65 27.49 26.54 25.43 26.26 27.64 25.67 22.29 36.36 38.21 32.59 36.52 40.52 38.79 38.99
44.58 44.58 44.84 44.60 44.51 44.60 44.67 44.56 44.70 44.73 44.32 43.45 44.09 43.77 43.63 43.85 44.26 43.33 38.95 44.91 45.08 38.78 37.71 42.04 41.86 42.45 40.69 39.65 36.66 37.51 34.73 33.44 35.71 32.01 32.46 31.73 28.23 30.55 27.28 23.55 32.95 26.33 29.11 27.34 29.44 28.44 35.67 35.63 34.38 36.24 37.29 38.48 37.19 36.46
44.04 44.58 44.42 44.04 44.34 44.70 44.49 44.33 44.39 44.61 44.34 42.92 43.43 43.87 43.65 43.68 44.33 43.56 40.87 42.42 42.88 37.60 37.27 38.45 37.97 42.96 44.45 43.46 44.16 35.18 38.90 37.78 37.45 40.07 35.14 33.06 27.48 31.97 25.46 27.47 29.59 31.52 35.08 30.98 30.54 32.02 32.15 34.62 35.22 35.09 34.77 33.86 36.35 37.70
43.57 43.46 44.30 44.05 44.12 44.36 44.31 44.23 44.26 44.12 44.05 43.89 43.81 43.83 44.24 43.73 44.31 43.78 41.82 43.61 42.75 38.61 32.42 36.30 43.11 40.13 43.60 43.89 43.24 42.70 40.68 41.35 39.71 37.97 34.86 32.55 29.35 34.81 29.38 31.08 29.97 33.65 34.62 30.77 32.51 33.08 33.39 35.24 35.45 35.21 36.03 36.18 36.59 37.98
42.65 43.20 43.50 43.79 43.89 44.01 44.18 43.89 43.87 43.88 43.54 43.51 43.86 43.93 43.58 43.62 44.19 44.74 44.34 44.95 45.39 37.53 32.04 34.45 40.73 42.40 43.42 43.21 41.44 41.82 40.77 38.81 36.18 34.86 33.26 30.74 34.43 33.59 34.61 33.88 31.93 34.33 30.37 28.92 28.77 32.89 31.34 33.87 34.54 36.35 35.19 34.30 35.36 35.19
41.88 42.21 42.81 43.25 43.64 43.88 43.60 43.69 43.74 43.41 42.98 43.46 43.59 43.23 43.48 44.21 44.15 41.35 35.93 42.43 44.04 42.26 35.30 29.30 40.48 38.79 40.79 41.29 40.39 39.81 40.06 38.88 36.11 34.01 33.30 34.87 37.56 34.38 29.94 28.83 33.14 34.45 33.77 32.83 31.29 34.71 34.88 35.27 35.92 35.40 34.66 34.73 35.42 34.75
41.25 41.41 42.53 42.76 43.14 43.65 43.39 43.14 43.10 42.89 42.78 43.23 43.25 43.54 43.76 43.75 43.43 39.24 37.50 40.67 42.78 43.08 36.31 29.92 32.87 39.21 40.48 40.53 40.78 39.45 40.04 37.88 36.06 34.14 32.29 33.57 34.44 35.69 32.04 28.01 33.52 34.17 34.96 34.70 35.00 34.64 32.34 33.33 31.42 34.09 34.64 35.69 36.69 35.46
40.11 40.88 41.26 42.32 42.86 42.96 42.92 42.63 42.67 42.80 42.65 42.85 43.15 43.20 43.51 43.05 42.50 39.51 43.87 43.12 42.96 39.02 37.89 27.64 30.23 34.75 41.03 37.32 35.11 39.48 34.54 34.31 33.95 34.80 36.71 34.14 36.12 35.90 30.15 33.16 33.67 33.99 34.63 33.87 33.48 34.62 33.71 34.91 35.23 34.76 35.20 34.85 33.81 32.17
39.55 40.51 41.29 41.84 42.09 42.91 42.59 42.44 42.48 42.58 42.40 42.45 42.72 42.65 42.06 39.87 37.58 40.11 43.04 42.89 44.91 37.55 31.94 29.12 28.75 30.19 40.74 39.23 40.12 37.99 37.57 30.95 37.34 32.65 33.33 35.87 33.58 30.35 31.31 31.58 31.14 32.20 31.33 31.08 33.79 34.75 34.08 33.36 32.80 32.81 32.95 32.03 30.12 29.79
38.96 39.82 40.90 41.50 41.96 42.22 42.09 42.12 42.42 42.32 42.24 42.15 40.35 36.72 31.95 37.06 42.70 42.68 39.40 35.63 34.62 35.17 34.19 30.90 35.77 32.13 37.83 37.31 36.42 34.27 35.14 33.14 30.30 34.07 37.96 33.99 34.21 32.08 32.10 32.28 32.52 31.89 31.70 31.72 29.53 28.62 29.47 29.38 29.75 30.02 30.35 30.83 29.26 27.86
38.96 39.75 40.91 41.39 41.53 41.72 41.15 42.01 41.74 42.10 41.55 37.87 33.83 34.39 40.98 42.90 39.68 36.29 31.04 30.82 31.67 29.49 33.90 33.85 34.52 33.03 39.35 32.69 33.50 37.01 34.48 35.03 28.83 33.14 31.93 31.86 29.82 28.82 30.80 30.64 32.16 31.71 30.88 30.25 30.08 30.07 29.82 28.65 27.66 27.52 28.24 28.53 27.39 26.26
39.17 39.82 41.08 40.98 41.33 42.00 41.34 41.74 41.75 40.89 37.82 39.39 40.16 41.27 40.22 36.20 33.88 29.62 29.01 31.23 30.04 27.86 34.91 32.85 34.11 36.10 37.52 39.25 34.04 35.67 31.27 33.77 27.23 36.06 31.12 29.51 26.75 29.45 30.94 30.18 30.27 29.82 28.91 28.33 28.59 27.62 27.47 26.87 26.32 25.47 25.72 24.81 23.79 24.37
39.34 40.53 41.13 41.77 41.45 41.30 41.20 41.63 41.45 40.84 42.04 41.68 37.90 33.57 32.66 31.82 26.63 24.87 22.80 26.45 28.36 33.80 36.42 35.54 31.56 34.27 35.99 36.85 34.91 32.99 28.53 28.56 36.79 30.40 29.38 27.23 28.45 29.87 30.83 30.58 29.36 28.56 26.44 27.11 26.41 26.31 25.15 24.18 24.12 22.52 20.99 21.40 22.06 22.32
40.31 40.33 41.20 41.62 41.67 41.44 41.29 41.63 41.33 41.10 39.11 33.98 30.86 26.76 27.83 26.75 29.11 30.59 31.43 31.28 35.66 36.94 36.98 36.28 32.29 32.72 35.15 31.86 33.52 28.25 32.24 33.08 27.54 25.26 26.18 28.42 28.60 28.83 29.35 29.01 29.03 26.78 24.15 21.82 23.16 23.31 21.25 19.76 19.67 20.22 18.83 19.74 20.08 19.52
40.55 40.83 41.28 41.26 41.50 41.49 41.54 41.31 41.15 41.40 37.41 30.90 31.93 25.93 28.68 34.27 36.49 36.78 37.52 37.21 37.86 39.94 37.96 35.24 34.50 35.40 33.26 31.32 32.14 31.35 28.24 25.81 28.17 27.79 27.46 28.31 28.50 28.38 27.95 27.16 26.69 25.34 23.50 23.13 22.81 20.41 19.78 17.82 17.73 18.91 19.06 19.51 19.45 19.18
40.69 40.60 40.19 41.08 41.25 41.46 41.42 40.87 37.26 39.07 35.29 31.77 31.09 29.41 33.21 33.13 31.95 32.84 34.67 34.62 37.88 38.82 38.70 37.33 32.72 29.05 30.23 31.59 29.13 27.68 25.97 25.76 27.86 28.18 28.57 28.52 27.09 26.31 26.04 25.48 24.94 24.33 23.57 23.55 23.29 21.83 21.40 18.42 17.63 19.13 20.53 20.15 18.32 19.35
39.60 38.30 40.64 40.85 41.17 41.02 40.53 34.03 36.42 33.28 30.85 30.19 30.28 32.77 30.77 30.99 31.39 31.59 34.47 33.64 36.38 35.68 32.24 33.22 28.08 28.72 33.75 28.93 27.75 32.40 28.65 28.13 27.98 27.45 28.09 27.47 26.01 25.48 25.32 25.08 23.89 24.09 24.19 23.80 23.00 21.90 21.11 20.76 20.48 21.36 19.33 20.51 19.68 20.06
38.83 41.39 40.84 41.13 40.34 37.63 35.17 37.12 34.54 31.97 27.67 29.89 28.10 29.17 30.17 29.58 29.87 30.45 30.90 33.13 33.89 34.79 34.81 31.08 35.18 29.63 28.32 26.55 28.98 27.48 27.51 27.28 28.09 27.54 26.82 25.69 25.24 25.05 25.52 25.36 24.53 24.05 23.75 22.91 21.39 21.67 22.97 21.13 20.63 20.41 20.52 21.06 20.59 21.04
40.73 41.79 40.70 39.92 38.17 37.55 33.76 33.20 34.88 27.68 28.36 28.51 28.27 28.33 28.68 27.63 27.92 28.89 29.92 30.80 31.93 33.29 35.31 34.17 30.35 29.27 27.91 26.82 26.27 25.61 26.30 27.30 26.24 26.77 25.57 24.60 24.32 23.78 23.81 24.48 24.16 24.45 22.93 22.39 22.35 21.77 21.64 20.70 20.18 20.29 20.03 20.16 19.18 20.38
40.61 40.27 40.00 39.99 40.49 35.63 29.32 29.71 35.29 29.54 26.21 27.14 27.17 26.63 27.79 27.43 27.60 28.79 28.37 29.25 29.78 30.02 28.29 27.35 26.37 24.38 25.42 24.33 25.94 26.00 25.93 26.83 26.54 26.31 25.93 25.98 25.50 24.82 23.89 23.46 23.57 23.56 23.81 23.73 23.77 19.24 21.24 21.65 21.61 20.42 19.32 18.57 19.01 18.75
39.72 40.35 40.12 40.32 36.10 34.42 31.19 29.52 29.21 30.13 27.22 26.83 26.97 27.77 26.02 27.13 27.61 27.39 26.17 26.46 27.07 25.06 23.58 23.69 22.51 21.94 24.32 25.06 26.12 26.32 25.08 26.08 24.86 25.03 24.30 24.93 24.34 24.16 23.74 23.81 23.48 23.01 22.15 21.75 21.17 21.25 20.27 19.30 19.60 19.48 19.55 19.10 19.36 19.88
38.50 38.83 36.57 37.39 32.87 30.59 29.96 32.10 28.92 29.34 28.22 26.56 26.20 27.27 26.38 25.36 25.41 24.54 25.34 24.26 22.28 21.00 23.23 23.74 22.88 22.60 21.99 21.76 22.23 23.77 23.04 23.67 23.26 23.50 22.36 22.75 22.51 21.95 21.41 21.72 21.86 21.44 20.87 20.42 20.23 19.61 19.50 19.38 18.64 19.90 19.41 19.45 19.10 18.38
38.50 38.09 35.47 33.26 27.92 27.33 24.50 32.02 26.74 26.89 23.25 23.64 25.41 22.98 23.30 23.90 23.73 24.62 21.73 21.56 20.02 22.33 24.37 22.80 22.24 23.26 21.41 21.52 21.65 21.68 21.93 22.75 22.50 22.14 22.39 22.37 22.06 22.24 21.58 21.14 21.22 20.54 20.06 19.79 20.48 19.84 18.93 16.39 18.96 18.96 19.85 20.18 20.01 19.25
35.31 30.81 29.67 29.43 28.48 24.85 29.25 27.15 27.91 25.36 24.97 23.57 22.79 19.63 20.22 22.59 22.75 22.20 19.27 19.80 20.09 21.97 21.62 20.72 22.45 21.03 21.33 20.99 21.16 20.77 21.72 23.30 21.83 21.47 22.63 22.88 21.36 20.38 21.36 20.77 21.03 20.71 19.97 20.20 20.10 20.39 19.54 19.57 17.11 19.38 18.88 18.85 18.46 18.37
28.25 21.58 25.81 22.81 27.80 25.89 23.41 23.33 23.59 23.18 20.93 21.98 19.52 19.29 19.45 22.58 19.79 17.96 16.15 17.37 18.85 20.29 20.86 21.97 22.88 23.26 22.78 20.50 20.50 19.62 20.94 22.66 21.31 19.23 20.49 21.86 22.06 22.46 21.90 21.94 20.97 20.61 21.62 21.39 19.98 19.69 18.52 19.19 19.16 18.78 18.28 18.25 16.33 15.56
19.62 18.83 21.25 22.91 23.47 23.67 23.87 20.33 21.05 21.47 21.75 20.07 18.46 21.58 22.61 20.88 16.23 14.56 17.23 18.40 19.39 19.48 20.67 21.10 20.25 19.50 19.49 21.47 19.37 19.09 19.31 22.08 21.95 19.19 18.74 19.94 19.73 19.89 19.76 19.08 19.50 19.61 21.29 21.35 20.84 19.67 19.05 18.18 18.03 16.48 17.66 14.23 13.70 16.71
18.12 17.69 20.77 23.32 24.63 23.84 22.33 23.31 24.19 23.02 18.74 17.29 19.33 18.83 18.21 14.38 14.34 15.56 18.23 20.01 18.35 19.54 20.87 21.62 21.53 20.03 18.26 17.86 18.76 19.70 20.62 20.74 20.42 19.10 19.79 19.54 19.08 18.76 18.36 16.74 15.57 16.98 20.06 20.46 20.81 21.06 19.93 18.93 18.34 17.49 17.30 18.82 17.87 17.22
19.00 19.90 15.26 17.84 17.72 20.59 16.33 18.16 17.22 15.97 18.16 20.52 20.07 15.12 15.35 15.12 13.10 16.97 18.24 19.23 19.59 19.61 19.00 19.42 20.43 20.47 19.48 18.67 19.24 19.59 18.93 19.09 18.85 19.47 19.73 19.32 18.89 18.47 17.64 18.42 18.45 17.60 19.66 19.80 19.83 20.50 20.49 20.00 19.06 18.21 17.03 16.98 16.44 17.51
16.62 18.68 16.61 8.90 12.84 13.23 13.01 13.92 15.13 14.88 14.99 18.56 15.12 12.46 11.52 13.26 16.22 16.20 17.08 18.38 20.02 19.49 17.83 16.79 16.83 18.12 17.29 17.40 17.35 17.96 18.76 18.64 16.93 10.88 10.86 15.93 16.90 16.66 16.82 16.69 17.26 17.93 19.03 20.47 18.49 18.14 18.08 18.65 18.46 18.41 16.72 18.25 18.11 18.18
13.73 19.16 12.64 8.92 8.06 8.77 10.73 12.84 12.20 13.46 15.36 15.87 14.47 12.30 11.92 12.49 14.14 17.78 18.13 18.12 17.88 17.92 17.65 17.75 17.37 18.13 16.21 16.13 14.62 13.97 14.84 15.01 14.25 15.13 15.33 14.67 13.84 14.23 14.94 14.99 15.52 16.13 17.15 18.18 18.04 18.81 15.61 17.87 17.15 17.95 17.13 16.83 17.40 16.44
17.14 16.29 11.92 11.61 9.00 11.14 11.58 13.08 14.01 14.16 14.68 14.74 17.21 14.73 12.08 12.28 13.88 16.41 17.13 17.39 16.81 16.12 15.98 14.69 14.29 16.25 15.23 14.92 15.80 13.90 12.24 12.22 8.72 8.94 9.98 13.24 13.54 14.13 13.54 12.81 14.62 15.14 16.24 16.36 16.39 15.99 15.69 16.10 15.93 14.67 13.12 12.36 10.67 12.41
16.29 12.17 10.55 7.67 8.47 11.39 13.66 15.04 14.88 13.89 13.63 13.50 11.50 12.79 11.74 14.18 12.07 13.24 14.70 15.91 15.39 15.19 10.00 14.70 13.34 11.65 11.77 11.47 11.01 9.35 7.84 10.34 9.71 9.04 7.85 9.46 12.07 11.61 12.59 13.30 14.05 14.98 14.20 14.42 15.24 14.91 13.68 13.15 13.49 12.75 12.81 9.51 10.28 9.99
12.55 14.41 13.66 11.82 9.52 9.65 12.28 14.17 13.48 11.77 14.22 13.71 13.25 15.11 16.66 15.92 11.18 14.67 13.61 16.13 17.33 16.21 13.52 14.23 12.51 10.95 9.24 9.41 10.22 8.64 8.59 8.61 3.71 4.43 3.77 2.84 1.30 3.96 9.47 12.99 13.53 13.22 12.32 13.12 13.48 13.04 10.79 8.90 10.35 9.75 8.54 7.91 7.60 7.88

GFSWCAN_sfc_wetblb_129.txt.gz
Wetbulb
45.58 45.58 45.37 45.11 44.78 44.78 44.59 44.13 43.98 44.54 44.99 44.39 43.66 43.30 43.72 44.05 43.74 41.44 38.06 41.52 37.25 32.56 34.35 37.25 37.73 32.18 31.66 30.52 26.08 30.44 29.05 29.43 26.76 22.37 20.88 22.60 21.26 23.13 22.16 25.23 22.90 21.79 16.73 18.88 20.55 10.45 12.04 32.74 30.75 23.56 28.99 33.49 34.20 34.20
44.97 45.05 44.93 44.70 44.41 44.40 43.96 43.96 44.35 44.60 44.59 44.31 43.70 43.30 43.65 43.91 43.79 43.16 35.66 41.17 41.43 34.54 34.54 38.76 38.84 38.88 37.30 35.97 31.78 31.69 29.48 30.78 28.20 22.63 22.71 22.19 22.22 22.28 22.31 17.71 30.85 17.91 27.85 24.78 26.93 25.71 32.52 34.45 32.69 34.50 34.48 33.04 33.56 34.44
44.73 44.78 44.76 44.41 44.29 44.14 43.87 43.97 44.02 44.41 44.41 44.24 44.04 43.57 43.55 43.89 44.01 43.34 38.23 38.45 37.38 31.82 32.27 33.00 33.46 38.85 41.30 38.66 38.45 29.18 32.62 35.35 32.58 33.17 25.14 24.92 21.98 24.52 16.79 21.53 24.26 31.25 34.42 25.56 27.70 30.73 30.65 33.25 34.65 35.12 35.87 35.23 34.78 34.70
44.37 44.55 44.60 44.39 44.10 44.03 44.14 44.09 44.08 44.41 44.10 44.19 44.22 44.22 44.06 43.74 44.13 43.37 40.62 39.56 37.21 34.17 25.58 32.52 41.87 37.84 41.64 40.46 38.68 37.42 35.79 36.10 35.20 31.99 25.90 23.72 23.22 29.44 24.47 26.61 25.67 31.41 33.27 28.94 27.56 31.02 31.57 33.41 34.65 34.21 34.05 35.08 34.29 34.28
43.88 44.25 44.30 44.30 44.25 44.08 44.13 44.03 43.45 43.75 44.11 43.46 43.83 43.90 43.74 43.59 44.01 42.00 41.26 41.69 41.01 34.17 29.78 28.00 36.27 39.58 40.19 38.75 37.99 37.62 36.01 33.18 29.67 26.46 23.01 22.93 28.15 26.94 27.86 29.01 30.85 31.84 29.54 23.79 25.29 32.16 31.43 32.31 33.95 35.05 32.89 33.04 33.74 32.35
43.76 44.01 44.18 44.15 44.21 44.20 43.94 43.85 43.94 44.27 44.34 44.30 43.49 43.60 43.74 44.48 44.30 38.48 31.44 39.55 41.53 38.02 28.20 23.32 35.60 36.62 38.16 38.57 36.88 35.76 35.21 33.27 30.91 28.19 26.41 29.40 32.87 29.58 25.04 24.00 32.46 32.91 33.74 33.52 31.01 34.28 35.07 34.20 34.99 35.03 33.28 32.99 33.01 31.19
42.27 43.26 43.74 44.13 44.07 44.06 44.15 43.80 43.71 44.25 44.29 43.83 44.08 43.90 44.08 44.46 40.57 34.66 34.45 38.92 41.85 39.75 29.30 25.35 26.38 36.14 38.73 37.77 34.81 33.60 34.57 32.30 31.52 28.90 26.05 28.10 28.75 30.27 25.63 24.51 32.89 33.55 34.69 34.70 34.57 33.78 31.53 33.05 30.65 33.10 33.06 31.87 32.01 30.52
41.40 42.22 43.33 44.07 43.59 43.83 43.85 43.66 43.98 43.97 43.97 43.91 43.94 43.79 43.66 43.35 41.93 38.18 39.43 41.92 41.33 36.55 33.36 21.45 22.90 28.73 37.07 30.21 30.14 34.16 31.18 31.62 30.81 28.74 28.61 27.83 32.06 31.77 27.14 32.89 32.57 32.68 34.06 31.97 31.98 32.79 31.28 31.81 31.30 30.49 30.94 29.52 27.65 26.60
42.01 41.49 41.35 43.07 43.33 43.65 43.53 43.49 43.78 43.71 43.63 43.52 42.99 42.95 39.43 37.00 32.86 36.54 43.33 42.70 40.56 35.88 25.43 21.14 19.65 24.94 35.60 33.48 35.32 35.04 33.25 25.37 31.38 22.63 26.85 29.87 27.98 25.21 32.43 31.77 29.95 30.67 29.78 29.47 31.44 30.20 29.38 27.87 27.17 27.54 27.18 25.97 23.82 23.17
41.78 41.36 41.14 41.93 42.65 43.18 43.30 43.29 43.40 43.03 42.91 42.63 38.80 33.40 28.99 34.45 43.77 42.10 36.67 32.77 32.08 33.13 33.00 26.20 28.58 23.79 32.56 30.36 33.43 25.85 31.91 28.16 23.74 28.61 32.16 27.89 25.43 30.68 31.35 31.63 30.12 29.60 29.47 29.16 25.76 23.93 24.35 23.69 23.58 23.84 23.83 23.27 22.27 21.97
40.40 41.86 41.69 41.86 42.33 42.48 43.02 42.99 42.67 42.53 40.90 35.98 31.93 30.53 37.40 43.32 36.40 30.91 24.67 26.61 25.61 25.28 27.91 28.06 27.89 24.42 33.01 24.75 24.77 30.84 25.77 24.29 22.80 27.37 26.79 26.17 27.14 28.86 32.40 31.59 29.47 28.91 28.47 27.45 26.68 25.27 24.61 23.45 21.77 21.29 20.96 21.14 20.61 21.33
39.56 40.46 41.51 41.68 42.42 42.56 42.84 42.44 42.09 38.32 36.66 36.39 37.55 39.39 37.46 33.46 29.08 25.59 24.44 24.18 25.87 24.17 28.25 25.60 28.19 29.27 29.73 33.80 26.36 26.67 24.29 24.74 21.06 31.27 27.96 24.51 26.94 30.56 31.80 29.01 26.52 25.46 26.23 25.83 25.30 23.25 22.39 22.20 21.25 20.73 19.24 18.79 18.77 20.13
39.75 39.32 40.33 41.79 42.34 42.72 42.48 42.17 41.24 40.96 40.82 39.19 35.32 29.70 27.62 27.11 22.77 17.60 14.31 20.61 21.00 27.55 30.10 29.04 24.79 29.75 29.90 32.12 27.30 22.65 24.61 22.16 30.30 22.12 25.06 25.18 27.39 30.67 30.15 26.94 24.41 23.70 23.52 23.70 22.86 22.68 21.28 20.20 20.48 20.11 18.24 18.60 17.74 17.39
39.74 40.07 40.29 41.55 41.63 42.75 42.23 41.88 41.79 41.12 37.10 29.28 27.19 22.49 23.22 18.10 22.19 24.30 24.31 25.26 28.65 28.87 29.78 29.99 26.00 25.80 26.62 24.14 23.70 24.15 24.96 26.26 17.88 16.79 22.87 25.60 27.89 27.77 25.85 26.48 23.96 22.45 22.76 21.35 21.29 21.48 19.91 18.30 17.77 15.84 11.33 10.90 9.44 12.48
39.37 39.74 40.17 40.84 41.05 42.91 42.09 41.81 42.06 39.87 35.28 25.91 26.87 16.36 20.81 25.97 27.00 27.56 28.59 28.60 30.88 32.78 31.79 29.11 27.25 26.68 23.28 22.18 25.28 26.24 21.25 21.37 21.50 21.71 24.80 26.90 26.90 25.70 24.61 24.91 23.53 23.05 19.20 19.84 21.49 14.22 14.03 11.29 11.45 10.97 10.91 12.74 12.38 8.30
39.12 39.37 37.88 41.01 40.82 42.39 41.77 41.36 39.41 37.22 33.56 30.13 26.32 22.98 26.99 23.57 26.11 29.85 30.89 31.94 33.55 29.72 31.75 32.52 25.25 22.72 18.85 26.76 24.74 21.12 20.03 18.37 23.92 26.17 26.58 26.49 24.84 24.14 24.05 24.39 21.63 20.06 19.95 18.24 14.14 13.25 11.94 10.04 9.32 14.72 15.08 15.86 8.64 9.03
38.89 35.11 39.91 41.48 40.89 41.68 40.49 34.94 34.92 31.51 29.74 25.01 21.91 25.67 23.70 28.55 29.55 30.64 32.21 31.90 31.74 28.59 28.78 30.64 26.50 21.86 25.73 21.00 21.87 24.67 20.20 25.18 25.77 24.94 25.71 26.42 24.48 22.75 24.63 24.66 18.82 21.18 22.02 18.44 12.65 12.18 13.92 17.16 10.46 12.12 10.88 11.24 11.93 16.82
36.07 39.40 40.94 41.67 40.41 38.23 35.01 35.38 31.77 28.83 26.25 24.75 22.88 27.26 24.08 25.85 28.23 30.40 30.51 30.41 30.41 27.93 30.44 29.56 31.22 25.27 19.49 19.71 21.68 25.33 25.77 26.07 26.23 25.43 24.18 24.15 24.65 24.19 25.33 24.47 22.75 19.43 20.14 14.06 13.65 14.48 14.20 12.21 14.02 11.25 11.22 10.80 14.64 13.66
38.95 39.72 41.76 39.95 38.27 35.24 31.26 31.92 33.53 24.70 24.05 24.54 25.11 26.38 28.09 24.23 26.54 28.20 28.79 28.90 29.70 31.35 30.59 30.30 26.49 20.24 20.28 24.74 25.06 25.11 26.21 25.93 24.19 21.47 18.04 18.63 21.34 18.87 20.71 20.45 22.03 21.40 15.74 14.63 14.59 15.00 13.71 18.84 14.73 11.43 11.15 11.49 10.05 9.70
40.74 39.23 38.79 40.10 40.93 33.73 29.25 30.77 33.86 27.14 22.09 23.86 26.46 26.89 27.51 27.25 24.11 24.15 28.56 28.13 28.35 29.17 27.86 26.56 18.64 20.50 22.44 22.99 22.98 24.00 23.48 23.11 25.81 21.29 20.88 20.54 18.35 21.41 15.27 16.10 14.60 15.98 20.98 20.49 20.42 16.74 15.79 14.83 13.22 12.91 12.00 9.55 10.63 8.97
38.76 39.18 39.88 39.24 35.73 33.37 28.95 28.29 28.14 27.58 25.28 25.56 26.27 23.74 25.56 24.00 24.53 24.39 25.64 24.86 24.83 22.58 19.91 18.78 20.70 20.57 22.33 22.43 23.44 21.84 20.01 23.27 19.40 20.96 21.98 16.59 16.80 19.78 17.59 14.93 21.15 19.09 17.83 14.71 14.13 11.66 12.46 9.40 9.34 15.03 11.25 8.32 10.49 10.03
36.79 37.88 35.82 37.13 31.89 31.19 29.17 29.65 26.33 26.89 24.32 22.29 23.73 27.04 24.32 23.11 23.50 24.05 26.05 21.87 19.86 16.63 18.82 20.73 21.22 21.22 20.57 18.92 19.10 19.59 18.79 21.41 21.84 21.87 22.13 21.31 17.28 16.00 13.81 12.82 17.15 17.26 11.90 9.58 13.26 12.24 10.10 10.85 10.62 12.66 10.48 10.04 13.08 9.19
37.73 36.77 33.89 31.72 25.88 24.06 25.30 29.46 22.99 25.00 18.38 20.39 25.36 22.64 19.23 18.74 17.97 24.11 17.66 17.93 16.95 18.63 21.89 19.67 19.40 22.21 20.86 21.00 20.27 18.79 19.41 23.82 18.94 18.79 18.56 16.62 17.35 19.17 15.97 14.19 13.58 10.98 11.28 11.46 15.51 14.24 11.82 11.47 8.67 7.08 10.51 13.59 12.97 13.96
36.77 31.56 24.98 23.82 24.27 20.19 24.81 21.11 27.23 26.59 25.45 21.15 19.77 17.99 20.28 19.07 22.26 17.28 17.78 17.65 15.16 17.80 16.49 14.16 18.95 19.37 20.00 20.39 19.85 19.37 18.86 20.41 18.96 18.81 19.64 21.98 17.64 12.92 14.88 14.18 13.30 12.91 13.96 20.42 16.40 15.00 9.98 10.25 11.63 12.38 11.80 14.61 8.72 9.31
22.11 20.54 23.35 16.94 24.81 18.32 17.58 20.64 21.93 22.13 17.28 20.87 21.40 16.76 14.73 20.33 15.61 17.07 18.27 15.34 13.75 16.74 15.28 17.20 20.19 20.58 18.47 18.00 16.47 15.66 17.68 21.10 18.90 15.55 11.68 13.58 15.79 20.30 18.39 18.30 16.55 14.37 15.32 11.20 11.12 16.28 10.00 4.98 10.23 5.46 7.33 2.47 6.76 9.87
18.09 18.49 19.43 20.69 19.64 20.26 21.14 19.85 20.62 20.14 21.10 18.62 19.22 21.13 18.59 16.77 16.54 13.32 16.32 15.54 15.65 17.64 12.85 15.00 15.90 17.04 18.92 19.08 16.98 15.77 12.56 16.79 19.52 14.09 11.14 14.18 12.60 10.60 12.88 15.24 13.67 9.31 13.47 9.70 7.75 9.26 17.24 10.27 6.11 7.20 11.58 8.15 4.33 5.94
16.18 16.96 22.30 24.97 25.86 27.04 23.33 23.55 25.26 22.69 17.83 16.99 19.00 15.04 14.75 11.02 12.64 13.03 17.80 19.65 18.24 18.76 18.63 19.77 20.81 19.21 15.95 15.66 15.06 13.66 13.19 14.29 13.74 13.86 15.05 15.27 15.07 14.24 9.98 4.76 3.70 6.15 10.55 13.84 6.33 11.16 10.51 14.72 11.02 6.92 9.91 11.92 6.45 4.14
20.43 21.06 13.37 20.44 20.61 23.60 19.04 18.95 17.08 15.95 17.22 21.74 20.52 14.78 13.50 10.16 10.27 16.18 15.17 19.53 19.50 19.71 18.77 18.73 19.22 17.87 16.32 13.30 12.45 11.92 9.09 8.25 9.50 12.16 14.76 14.06 12.26 8.12 7.45 8.53 8.49 14.81 11.14 12.36 5.34 3.23 3.13 5.36 6.87 12.14 4.62 5.79 2.36 6.77
16.52 21.38 20.06 14.57 14.63 14.87 14.52 14.58 15.31 14.09 15.23 15.49 16.80 11.25 7.43 12.37 14.90 16.66 17.48 17.59 16.86 17.18 13.97 12.70 9.53 9.86 11.40 11.42 11.29 11.16 12.08 11.79 9.99 9.35 2.17 9.88 5.09 5.22 4.60 4.57 6.39 5.29 4.02 9.80 17.33 9.62 5.48 3.26 2.51 1.77 2.93 3.98 6.17 7.35
14.80 20.42 13.99 10.61 8.12 7.87 8.73 11.24 12.36 13.10 13.75 13.57 12.82 12.76 12.29 12.69 15.38 18.29 15.54 14.30 13.09 11.27 9.31 10.25 7.80 7.70 4.84 6.20 3.69 3.69 4.86 3.00 0.99 0.99 3.58 3.12 3.44 3.05 1.03 -0.05 0.50 1.17 1.54 1.74 2.40 8.29 11.90 4.32 12.04 13.00 8.39 1.10 -1.47 -2.73
19.86 18.08 13.28 11.36 8.71 11.08 12.68 13.29 13.59 14.23 15.47 15.90 16.01 12.60 10.56 10.35 11.87 12.59 17.95 18.39 16.33 12.72 10.98 6.50 11.99 11.03 13.18 10.58 4.09 0.80 -1.18 -1.73 -2.32 -1.86 -0.86 -0.42 0.16 0.89 -1.87 -1.43 -0.51 1.52 2.10 0.06 1.71 1.56 -2.07 1.61 5.14 3.29 -0.06 -2.17 -3.76 -3.69
18.32 17.53 12.41 7.86 7.45 12.16 13.52 11.37 12.07 11.04 12.26 11.72 10.56 10.77 8.22 6.10 1.87 4.53 9.93 10.04 7.38 6.20 7.66 7.58 8.77 4.79 5.75 3.35 -0.36 2.88 3.91 1.92 -3.38 -4.63 -4.45 -2.63 -3.00 -4.99 -1.91 4.32 2.31 -0.48 -1.30 3.91 2.49 -0.61 -3.21 -3.87 -3.46 -6.85 -7.24 -7.03 -8.46 -8.45
17.41 16.67 12.79 10.29 8.78 9.48 12.11 14.58 12.95 11.19 12.64 11.19 6.74 6.41 6.90 8.93 3.68 8.93 10.49 11.25 10.29 12.21 11.18 10.90 9.10 5.58 3.31 2.69 1.65 1.39 -1.62 -3.73 -3.54 2.81 -1.36 -2.81 -6.44 -5.71 -7.18 -7.00 -6.63 -1.75 -2.91 -3.17 -3.79 -4.25 -4.32 -5.25 -7.48 -8.51 -9.08 -10.70 -12.29 -13.64

GFSWCAN_sfc_wetblb_132.txt.gz
Wetbulb
45.35 45.18 45.38 45.11 44.71 44.59 44.71 44.80 44.69 44.74 44.35 43.62 43.52 43.99 44.16 44.68 44.99 39.21 35.87 38.18 35.39 29.43 32.33 35.75 36.28 30.95 30.51 28.83 25.92 28.84 27.87 27.09 24.03 20.16 18.40 21.76 20.46 22.16 20.07 23.69 18.83 20.62 17.53 12.68 17.50 7.71 10.66 31.78 30.27 24.04 29.17 33.40 33.47 33.64
45.16 44.93 44.93 44.72 44.43 44.22 44.37 44.37 44.40 44.50 44.50 43.85 43.53 43.92 44.39 44.51 45.33 41.02 33.72 38.72 39.04 33.13 32.21 36.34 37.83 38.73 36.61 34.76 30.27 29.31 27.93 27.51 25.07 20.08 18.67 19.18 20.98 20.42 20.65 16.79 27.00 17.09 24.13 18.73 24.97 24.82 32.22 34.36 32.64 34.26 33.91 32.64 32.99 33.52
45.14 45.12 44.73 44.56 44.27 44.07 44.11 44.00 43.98 44.17 44.29 44.03 43.82 43.82 44.33 44.85 45.16 41.38 35.37 36.00 35.18 28.88 29.77 31.37 31.67 37.28 39.72 37.19 36.72 29.30 30.28 33.62 30.55 31.05 23.31 22.83 20.68 22.80 14.18 19.14 21.38 27.73 32.65 24.57 24.40 28.91 31.29 32.46 34.51 33.92 34.89 34.24 35.18 33.79
44.62 44.75 44.63 44.28 44.11 43.77 44.15 43.99 44.14 44.13 44.23 44.25 44.13 44.09 44.83 44.52 44.75 42.80 37.32 38.08 35.39 31.92 24.73 30.31 39.88 36.33 39.60 38.55 36.51 35.97 34.29 34.33 33.14 30.05 23.70 21.02 22.05 27.42 23.26 24.51 22.53 25.79 32.68 26.85 25.11 29.90 32.28 33.65 33.23 33.68 33.72 34.90 33.21 32.69
44.49 44.49 44.21 44.26 43.80 43.57 43.99 44.04 44.16 44.09 44.40 44.15 43.78 43.88 44.52 44.23 44.31 40.47 38.81 39.06 38.80 32.48 25.13 27.31 34.34 37.92 39.32 37.67 36.61 35.77 34.22 31.37 28.08 24.77 20.14 21.28 26.63 25.56 26.02 26.62 26.32 30.90 28.98 20.75 19.77 30.60 30.61 31.26 33.23 35.13 32.07 31.82 30.85 29.80
44.14 44.34 44.15 43.95 43.59 43.83 43.86 43.98 43.79 43.92 44.07 44.30 43.95 43.83 44.17 44.23 41.52 35.72 30.76 38.50 39.01 36.71 27.06 23.92 33.08 34.27 35.52 36.28 35.24 34.36 33.53 31.09 28.64 26.55 24.40 27.92 31.00 26.84 19.99 21.17 30.13 31.51 32.75 31.87 29.36 33.94 33.49 33.88 32.61 32.82 30.24 30.42 29.27 28.48
43.80 44.13 44.17 44.03 43.81 43.70 43.71 43.39 43.72 44.16 44.17 44.00 44.27 44.11 44.18 43.32 37.56 33.47 31.21 36.75 40.77 36.90 27.24 21.62 25.11 33.00 36.54 35.08 32.38 31.77 32.43 31.03 30.31 26.54 24.28 26.78 27.35 30.00 21.51 23.01 31.05 32.54 33.51 33.97 34.10 32.20 30.42 29.06 27.40 29.71 29.06 28.63 28.62 27.36
43.41 43.96 43.94 44.03 43.78 43.73 43.74 43.70 44.25 44.27 43.93 44.05 44.14 44.33 44.24 43.38 40.89 35.99 38.06 41.66 40.09 34.13 31.28 17.31 21.77 27.25 34.30 28.67 29.21 32.12 29.18 29.62 29.21 27.91 26.94 26.43 28.19 27.20 24.34 30.75 30.76 31.72 31.12 30.98 29.48 29.99 28.37 28.22 27.71 27.11 27.09 26.19 24.06 23.06
42.82 43.50 43.49 43.80 43.79 43.84 43.54 43.64 43.88 43.92 43.66 43.49 43.83 42.67 37.60 35.70 31.17 35.48 42.96 42.10 38.98 32.92 24.33 18.99 19.76 18.31 33.75 32.32 33.82 33.50 30.82 22.27 28.96 21.12 24.79 26.68 25.55 27.22 29.22 29.46 28.11 28.84 29.03 28.59 27.97 27.63 26.70 24.84 24.18 24.31 23.31 22.15 21.15 20.58
41.56 42.05 43.33 43.23 43.28 43.62 43.57 43.58 43.41 43.39 43.38 42.59 36.78 30.12 23.54 31.65 42.83 40.33 34.52 30.75 28.01 31.04 29.22 21.93 26.54 22.74 33.04 28.47 32.25 30.18 30.20 28.65 25.12 26.96 29.32 24.59 24.12 29.38 29.26 29.17 28.65 27.37 27.41 27.93 24.72 22.46 23.04 21.88 21.65 21.53 20.41 20.71 19.79 19.93
41.29 41.23 42.60 43.47 43.23 43.65 43.46 43.09 42.86 43.00 40.39 33.20 29.95 31.62 35.80 42.74 34.63 28.68 23.64 20.98 22.24 20.97 26.82 26.56 26.39 23.54 30.66 24.45 22.92 27.92 23.91 25.90 20.00 25.32 27.42 26.61 25.99 28.90 28.63 27.35 27.31 26.21 25.75 24.52 23.74 23.02 21.88 21.73 20.22 20.14 19.28 19.55 18.92 18.91
41.38 41.15 42.16 42.33 43.06 43.31 43.24 42.71 42.35 36.98 34.25 34.47 36.81 38.02 36.39 31.52 28.81 20.20 18.78 23.41 25.33 23.88 26.43 23.65 26.02 27.01 27.09 30.96 25.04 24.24 22.63 21.18 19.28 31.61 27.79 25.51 27.14 30.37 26.93 25.47 24.37 24.75 23.65 22.69 22.60 21.30 21.22 21.21 20.57 19.93 18.57 17.99 17.71 18.27
41.63 41.38 41.76 42.26 41.85 42.89 42.74 42.15 41.16 40.75 40.64 37.60 32.71 26.42 24.55 25.20 14.05 13.83 13.93 20.12 19.85 26.03 25.54 25.92 23.36 27.02 27.59 28.73 25.75 18.67 16.79 22.33 27.70 21.94 22.40 23.96 27.14 29.67 26.24 23.83 22.90 23.75 23.08 22.24 21.57 21.31 20.34 19.96 19.89 19.43 18.72 18.18 15.82 14.55
40.78 41.23 41.59 42.03 42.14 42.63 42.21 41.62 42.17 40.69 34.94 26.04 21.38 20.75 21.33 20.03 21.26 23.21 23.92 24.59 27.09 26.36 27.70 28.24 25.53 25.10 24.04 23.26 20.41 14.37 20.90 24.38 15.05 13.38 21.07 22.68 24.07 23.67 24.24 24.02 22.96 21.91 21.93 19.17 20.74 20.90 19.47 18.22 17.19 13.88 9.06 12.43 7.24 10.11
40.36 40.99 40.81 42.04 42.46 42.40 41.94 41.81 41.70 37.79 31.30 22.28 24.27 13.92 19.99 23.48 24.53 28.60 27.25 26.05 29.93 29.27 29.75 28.04 25.85 24.77 19.31 17.38 22.59 22.14 18.91 21.29 19.60 17.47 20.22 22.89 25.17 23.91 23.09 23.40 22.68 22.17 18.14 17.01 15.50 13.11 12.05 9.85 9.12 9.41 9.19 8.91 11.92 5.79
39.52 39.60 38.00 41.22 42.51 42.37 41.53 40.64 38.47 36.93 30.33 25.47 23.81 20.38 23.55 21.49 22.73 28.73 29.99 31.19 30.37 30.62 29.84 29.46 21.70 17.43 17.26 23.49 23.19 20.10 18.30 15.97 18.80 22.97 24.41 24.43 24.02 23.82 23.56 23.33 21.54 19.42 17.70 13.98 12.03 11.64 8.84 6.22 6.80 7.72 6.78 8.28 7.70 3.63
38.51 32.23 39.91 40.91 39.90 42.05 40.04 35.22 34.86 29.96 24.78 21.96 25.10 21.43 20.66 28.47 28.77 28.78 30.52 29.82 29.17 26.85 29.60 28.90 21.13 20.97 24.52 17.13 19.60 24.93 20.55 23.78 23.64 24.45 25.48 24.62 23.53 22.60 22.56 21.53 17.55 19.47 18.52 13.77 10.96 9.71 10.15 9.24 6.50 10.18 8.96 5.91 7.22 8.85
32.21 36.54 41.24 40.48 40.75 38.44 34.08 34.92 31.20 27.80 23.39 22.52 22.28 25.76 17.57 16.77 28.04 24.08 28.35 29.74 29.70 29.59 27.14 27.64 31.26 25.55 16.32 17.89 15.20 20.92 22.36 25.29 25.75 24.59 21.96 22.73 23.68 22.39 24.09 22.22 19.43 18.39 18.10 13.24 11.56 10.55 11.50 12.10 10.55 7.65 6.99 6.79 9.86 7.66
35.62 38.38 41.01 37.93 36.66 33.74 30.82 31.08 30.40 22.16 25.61 22.85 25.83 19.94 19.08 16.00 18.35 23.83 27.83 29.49 29.15 26.76 28.66 28.10 26.94 21.25 16.99 17.16 17.49 18.13 22.95 23.41 21.28 19.38 16.48 16.45 18.46 18.68 20.01 20.26 20.15 18.94 16.49 15.47 14.12 12.30 11.81 11.15 9.42 8.07 8.35 8.70 6.33 3.22
39.89 40.45 38.56 39.63 40.40 31.79 28.68 29.96 33.15 25.25 20.31 20.89 20.39 17.19 17.58 16.71 15.61 14.61 20.36 21.87 23.78 22.04 23.09 20.82 16.73 12.35 14.01 22.16 17.57 19.01 20.02 18.36 20.26 15.03 11.59 13.35 14.41 15.90 13.92 15.55 12.81 14.36 18.06 18.35 16.38 13.80 11.87 10.03 10.03 9.45 8.75 5.59 6.16 4.68
38.39 38.60 39.96 38.48 34.52 30.82 26.99 24.42 24.74 24.28 23.54 19.76 20.08 20.98 15.62 20.80 17.99 17.91 18.79 21.22 21.73 15.22 19.02 13.95 11.79 14.94 14.22 15.04 15.07 20.22 21.04 21.80 16.98 18.88 17.97 14.00 15.08 19.50 14.01 11.89 17.83 14.88 12.43 9.75 10.08 6.42 5.85 6.80 6.65 8.41 3.22 1.82 1.10 1.80
33.49 37.19 34.45 36.01 28.90 28.51 26.17 27.50 24.41 24.18 23.39 18.31 22.83 22.28 17.77 18.27 21.20 22.53 22.39 13.74 9.98 10.73 14.62 14.92 13.68 14.57 14.52 15.76 16.13 17.69 17.55 21.71 23.00 22.84 22.10 20.37 15.79 15.04 13.19 11.00 16.23 7.86 6.39 5.77 9.42 5.41 5.75 7.97 7.40 5.41 4.16 6.47 10.10 3.93
37.26 36.19 31.90 31.28 25.09 20.38 22.12 25.16 19.63 22.18 14.02 18.67 21.53 19.53 19.58 18.88 19.20 23.85 9.25 11.29 10.91 11.01 10.65 13.16 13.48 15.73 17.00 13.76 17.34 19.61 21.56 22.10 20.29 19.64 19.54 18.20 17.87 17.09 15.49 12.03 11.35 8.34 6.52 7.17 9.42 8.20 6.59 7.57 5.62 3.46 2.33 3.18 2.54 8.57
34.93 27.44 22.66 20.53 20.02 18.15 20.82 16.79 24.35 25.03 23.51 17.29 16.01 13.70 18.52 16.98 18.89 11.04 8.86 8.25 8.55 13.30 12.36 11.96 18.99 17.52 17.54 19.36 19.68 19.28 19.23 20.50 18.94 18.37 18.46 18.62 16.91 10.16 11.65 10.29 9.99 9.00 13.08 17.80 14.30 8.17 6.13 2.64 3.08 2.94 1.57 3.96 0.55 0.92
18.38 16.01 16.96 16.77 20.59 12.83 9.91 16.77 16.51 18.48 11.48 15.30 17.63 14.37 13.98 16.50 6.99 6.72 9.85 10.13 15.04 7.99 11.30 15.15 16.24 17.29 14.23 15.29 14.82 14.63 16.04 19.62 17.03 14.35 12.13 14.52 12.88 15.24 15.65 13.92 11.70 10.82 11.14 8.08 5.27 3.28 8.39 3.33 -0.78 -2.02 1.29 -3.55 3.16 5.91
12.30 11.39 14.20 12.57 12.72 16.09 17.28 12.29 13.13 12.95 15.74 15.03 14.78 18.00 15.19 8.44 9.08 9.87 14.31 8.82 6.52 9.01 8.18 13.88 17.58 16.00 16.33 16.74 15.04 14.73 14.00 16.59 15.54 10.52 7.15 9.80 9.05 12.49 11.92 6.10 3.82 5.57 9.84 2.91 1.83 1.83 8.01 9.08 -0.78 1.14 0.56 1.94 0.87 2.11
8.52 11.28 19.18 24.11 24.34 24.36 17.27 18.42 23.03 19.18 19.01 16.87 16.72 13.36 12.05 8.12 7.74 11.15 15.93 14.38 13.84 10.51 12.90 18.92 18.37 16.63 15.58 14.41 12.39 7.30 7.62 12.51 10.14 11.40 12.62 13.41 12.77 11.03 8.29 4.26 2.73 4.92 7.43 3.71 0.30 -0.37 0.92 6.07 5.67 -0.71 0.56 6.40 0.28 -2.89
14.57 14.80 10.57 11.31 16.11 21.27 15.33 16.09 16.44 15.41 15.83 19.54 16.26 9.65 10.64 9.66 8.80 13.02 10.66 15.01 15.35 16.75 16.97 17.24 18.03 17.20 14.96 12.47 9.77 9.60 7.09 8.16 11.23 12.42 12.88 11.09 8.07 4.55 3.13 1.80 2.65 10.24 3.73 3.45 -1.66 -3.79 -2.90 -1.44 4.44 2.00 0.56 0.74 -0.89 -3.43
10.85 15.42 15.20 8.82 14.24 17.33 12.58 13.53 12.97 14.31 15.88 16.47 13.76 8.18 3.95 9.48 8.89 11.49 13.18 13.92 17.09 16.43 14.37 13.53 9.67 10.98 11.30 9.34 6.48 5.09 3.32 5.39 6.34 2.01 -2.34 -3.98 -3.79 2.09 -3.25 -3.63 -2.73 -2.56 -1.33 1.16 8.69 6.35 2.54 -0.92 -0.56 -0.73 -0.35 1.99 5.44 -1.32
12.87 14.90 10.20 8.28 12.05 10.90 6.54 8.81 8.56 10.97 12.12 11.04 11.09 11.57 10.64 10.00 12.49 15.23 17.29 16.35 13.85 11.61 10.72 11.59 7.15 9.61 5.42 4.83 -2.16 -2.35 -4.52 -8.14 -5.61 0.67 0.61 -0.94 -1.37 -1.11 -7.06 -5.97 -5.43 -5.61 -7.24 -6.69 -4.70 -1.87 6.04 2.96 9.89 3.99 -1.05 -3.85 -7.06 -7.08
15.18 10.97 4.83 3.55 1.87 4.06 6.60 7.28 6.68 7.02 5.34 7.17 8.33 6.19 6.52 7.46 11.90 12.67 12.76 10.83 13.09 11.41 9.60 6.32 -1.62 -0.08 3.36 0.25 -4.52 -4.88 -6.69 -6.15 -8.19 -6.51 -1.16 -0.37 -4.16 -9.41 -9.23 -8.87 -8.69 -8.51 -8.51 -5.06 -6.35 -8.88 -7.43 -6.88 -8.69 -9.23 -9.45 -10.32 -12.86 -14.31
12.65 7.93 3.85 -1.29 -0.00 5.06 4.66 3.65 4.35 4.49 6.81 4.24 5.42 3.01 3.05 5.41 6.22 6.71 9.13 12.02 14.10 12.55 4.44 6.74 7.00 2.86 -0.19 -2.74 -6.71 -6.52 -1.52 -1.95 -7.42 -5.97 -3.27 -6.51 -12.13 -13.22 -9.23 -6.33 -9.96 -10.50 -6.88 -4.22 -6.55 -10.50 -10.68 -11.23 -14.13 -14.67 -15.22 -15.76 -17.39 -18.12
14.73 9.71 8.63 8.89 4.60 3.98 4.97 9.15 9.64 6.37 4.65 2.91 1.23 5.21 6.72 6.72 4.77 5.79 4.69 7.37 13.02 12.45 8.71 5.25 4.39 3.44 1.66 1.33 0.59 -2.42 -4.38 -7.08 -9.05 0.92 -4.34 -6.33 -10.15 -8.51 -14.92 -15.94 -14.31 -12.31 -7.52 -11.05 -13.04 -12.69 -12.32 -11.78 -15.76 -16.85 -18.30 -19.20 -20.47 -21.38